# Wetter Temperatur Luftdruck Luftfeuchtigkeit Sichtweite Windgeschwindigkeit Windrichtung Zeit
1 Clouds 25 1010 61 10000 6.7 250 23:55 04.08.2020
2 Clouds 25 1010 61 10000 6.7 250 23:31 04.08.2020
3 Clouds 25 1010 65 10000 5.7 260 22:51 04.08.2020
4 Clouds 25 1010 69 10000 6.7 250 22:27 04.08.2020
5 Clear 26 1010 61 10000 6.2 260 20:59 04.08.2020
6 Clouds 26 991 58 10000 0.89 335 19:37 04.08.2020
7 Clouds 28 991 61 10000 0.45 311 18:54 04.08.2020
8 Clouds 27 991 63 10000 5.13 295 17:39 04.08.2020
9 Clouds 28 990 55 10000 0.89 317 16:55 04.08.2020
10 Clouds 28 1009 58 10000 2.6 320 15:55 04.08.2020
11 Clouds 28 1010 58 10000 3.1 320 15:28 04.08.2020
12 Clouds 28 991 61 10000 0.89 58 13:55 04.08.2020
13 Clouds 30 991 62 10000 0.45 341 12:18 04.08.2020
14 Clouds 30 991 51 10000 0.89 319 11:27 04.08.2020
15 Clouds 30 990 54 10000 0.89 233 10:51 04.08.2020
16 Clouds 30 990 54 10000 0.45 255 10:33 04.08.2020
17 Clouds 27 989 64 10000 3.15 237 07:37 04.08.2020
18 Clouds 27 989 66 10000 2.64 189 06:56 04.08.2020
19 Clear 27 1009 88 10000 3.1 240 23:34 03.08.2020
20 Clear 27 1008 88 10000 2.6 250 22:33 03.08.2020
21 Clear 27 1008 88 10000 3.1 270 21:46 03.08.2020
22 Clear 28 990 76 10000 1.11 234 21:21 03.08.2020
23 Clear 28 990 71 10000 1.11 234 20:38 03.08.2020
24 Clear 28 1007 83 10000 2.6 210 19:44 03.08.2020
25 Clear 30 989 57 10000 1.34 299 18:42 03.08.2020
26 Clear 29 1008 83 10000 5.1 260 18:20 03.08.2020
27 Clear 29 1008 83 10000 9.8 290 17:25 03.08.2020
28 Clear 30 1008 78 10000 9.3 280 15:47 03.08.2020
29 Clear 31 1008 83 10000 8.7 280 14:51 03.08.2020
30 Clear 31 1008 83 10000 7.7 280 14:25 03.08.2020
31 Clear 30 1009 70 10000 3.6 250 12:47 03.08.2020
32 Clear 30 1009 78 10000 6.7 290 11:38 03.08.2020
33 Clear 30 1009 74 10000 6.2 250 10:38 03.08.2020
34 Clear 29 991 80 10000 1.54 254 09:27 03.08.2020
35 Clear 27 992 74 10000 1.53 233 07:56 03.08.2020
36 Clear 28 992 62 10000 0.82 184 02:24 03.08.2020
37 Clear 29 992 70 10000 1.15 157 01:52 03.08.2020
38 Clear 28 1010 94 10000 2.6 210 00:46 03.08.2020
39 Clear 29 1010 78 10000 2.6 80 21:57 02.08.2020
40 Clear 29 1010 78 10000 3.6 60 21:22 02.08.2020
41 Clear 29 1010 78 10000 4.1 40 20:51 02.08.2020
42 Clear 29 1010 78 10000 4.1 40 20:32 02.08.2020
43 Clear 30 1010 83 10000 4.1 20 19:43 02.08.2020
44 Clear 31 1010 83 10000 4.1 20 19:20 02.08.2020
45 Clear 31 1010 79 10000 3.1 20 18:39 02.08.2020
46 Clouds 33 1010 79 10000 3.6 360 17:22 02.08.2020
47 Clouds 33 1011 83 10000 4.1 10 15:38 02.08.2020
48 Clouds 32 1010 79 10000 4.6 30 14:46 02.08.2020
49 Clear 32 1011 79 10000 4.1 30 14:23 02.08.2020
50 Clear 32 1011 79 10000 3.6 20 13:31 02.08.2020
51 Clear 32 1011 79 10000 3.1 20 12:48 02.08.2020
52 Clear 32 1011 74 10000 3.1 10 11:51 02.08.2020
53 Clear 31 1011 74 10000 2.6 10 10:51 02.08.2020
54 Clear 31 1011 74 10000 2.6 10 10:29 02.08.2020
55 Clouds 30 1011 83 10000 1 0 09:26 02.08.2020
56 Clear 29 1011 83 10000 0.5 0 08:29 02.08.2020
57 Clear 28 1011 65 10000 1 0 07:52 02.08.2020
58 Clear 27 1010 54 10000 0.5 0 04:47 02.08.2020
59 Clear 27 1011 47 10000 1.5 190 02:27 02.08.2020
60 Clear 28 1012 47 10000 1.5 120 00:23 02.08.2020
61 Clear 29 1012 65 10000 2.6 40 22:50 01.08.2020
62 Clear 30 1011 45 10000 1.5 60 20:48 01.08.2020
63 Clear 31 994 44 10000 1.33 319 20:25 01.08.2020
64 Clear 32 994 45 10000 2.11 323 19:27 01.08.2020
65 Clear 32 1011 62 10000 2.1 280 18:40 01.08.2020
66 Clear 33 1012 58 10000 1.5 320 17:43 01.08.2020
67 Clear 34 1014 25 10000 3.13 315 16:37 01.08.2020
68 Clear 34 1015 25 10000 2.68 315 15:49 01.08.2020
69 Clear 34 995 39 10000 2.98 329 15:22 01.08.2020
70 Clear 33 1013 74 10000 2.6 20 14:44 01.08.2020
71 Clear 34 996 34 10000 2.79 330 13:20 01.08.2020
72 Clear 34 996 33 10000 0.45 4 11:45 01.08.2020
73 Clear 33 996 38 10000 2.13 332 10:56 01.08.2020
74 Clear 28 996 50 10000 1.12 114 07:27 01.08.2020
75 Clear 26 1014 69 10000 0.5 0 03:20 01.08.2020
76 Clear 26 1015 88 10000 0.5 230 01:53 01.08.2020
77 Clear 26 1015 88 10000 0.5 230 01:32 01.08.2020
78 Clear 27 1015 83 10000 1.5 30 00:26 01.08.2020
79 Clear 28 1015 83 10000 1.5 260 21:59 31.07.2020
80 Clear 28 1014 74 10000 4.1 50 20:48 31.07.2020
81 Clear 30 997 52 10000 1.72 86 20:29 31.07.2020
82 Clear 30 997 56 10000 1.72 86 19:54 31.07.2020
83 Clear 32 997 55 10000 2.68 65 18:31 31.07.2020
84 Clear 31 1015 62 10000 6.7 50 16:58 31.07.2020
85 Clear 31 1015 62 10000 6.7 50 16:37 31.07.2020
86 Clear 33 998 45 10000 3.12 50 14:54 31.07.2020
87 Clear 32 999 52 10000 3.49 46 13:41 31.07.2020
88 Clear 32 999 53 10000 3.69 39 12:44 31.07.2020
89 Clear 32 999 50 10000 3.28 44 12:18 31.07.2020
90 Clear 32 1000 50 10000 3.28 44 11:35 31.07.2020
91 Clear 31 999 44 10000 0.45 341 10:43 31.07.2020
92 Clear 29 1016 83 10000 1.5 270 09:44 31.07.2020
93 Clear 29 999 61 10000 2.1 72 08:55 31.07.2020
94 Clear 28 999 61 10000 2.01 87 08:18 31.07.2020
95 Clear 25 1015 83 10000 2.1 30 05:36 31.07.2020
96 Clear 26 1016 88 10000 1 210 02:37 31.07.2020
97 Clear 26 1016 88 10000 2.1 20 01:49 31.07.2020
98 Clear 27 1000 77 10000 2.03 97 00:27 31.07.2020
99 Clear 28 1000 70 10000 2.4 104 23:18 30.07.2020
100 Clear 28 999 72 10000 2.4 104 22:37 30.07.2020
101 Clear 28 999 78 10000 2.38 113 21:20 30.07.2020
102 Clear 28 999 75 10000 2.38 113 20:59 30.07.2020
103 Clear 28 999 73 10000 2.38 113 20:37 30.07.2020
104 Clear 29 999 66 10000 2.88 88 19:28 30.07.2020
105 Clear 29 1015 70 10000 9.8 60 18:34 30.07.2020
106 Clear 29 1015 70 10000 9.3 60 17:25 30.07.2020
107 Clear 30 1015 70 10000 9.8 60 16:48 30.07.2020
108 Clear 31 1015 62 10000 9.8 60 16:29 30.07.2020
109 Clear 31 1015 70 10000 10.3 60 15:40 30.07.2020
110 Clear 33 999 40 10000 4.35 65 15:18 30.07.2020
111 Clear 32 999 42 10000 4.35 65 14:41 30.07.2020
112 Clear 32 999 47 10000 4.18 61 14:23 30.07.2020
113 Clear 32 999 49 10000 4.18 61 13:49 30.07.2020
114 Clear 32 1000 49 10000 3.81 59 13:19 30.07.2020
115 Clear 32 1000 47 10000 3.81 59 12:44 30.07.2020
116 Clear 31 1000 49 10000 3.65 62 11:46 30.07.2020
117 Clear 30 1000 54 10000 3.36 68 10:41 30.07.2020
118 Clear 30 1000 51 10000 3.07 81 10:22 30.07.2020
119 Clear 29 1000 53 10000 2.93 94 09:19 30.07.2020
120 Clear 28 1000 57 10000 2.93 91 08:50 30.07.2020
121 Clear 26 1000 58 10000 2.51 90 07:42 30.07.2020
122 Clear 25 998 58 10000 2.55 121 02:31 30.07.2020
123 Clear 26 1015 83 10000 0.5 0 01:30 30.07.2020
124 Clear 26 1016 78 10000 2.6 270 23:22 29.07.2020
125 Clear 27 1015 74 10000 2.1 300 22:42 29.07.2020
126 Clear 27 1015 69 10000 3.1 240 21:53 29.07.2020
127 Clear 28 999 76 10000 2.39 106 21:35 29.07.2020
128 Clear 28 998 74 10000 2.39 106 20:46 29.07.2020
129 Clear 28 998 71 10000 2.56 90 20:23 29.07.2020
130 Clear 29 998 64 10000 2.56 90 19:41 29.07.2020
131 Clear 30 998 62 10000 3.05 79 19:23 29.07.2020
132 Clear 30 1014 66 10000 9.8 60 18:44 29.07.2020
133 Clear 30 1014 66 10000 10.3 50 18:23 29.07.2020
134 Clear 31 1014 66 10000 10.3 60 17:46 29.07.2020
135 Clear 31 1014 70 10000 10.3 50 16:42 29.07.2020
136 Clear 32 1015 66 10000 8.7 50 15:53 29.07.2020
137 Clear 32 1015 66 10000 8.7 50 15:29 29.07.2020
138 Clear 32 1015 66 10000 8.7 60 14:56 29.07.2020
139 Clear 32 998 59 10000 4.11 55 14:19 29.07.2020
140 Clear 32 1015 66 10000 8.2 50 13:25 29.07.2020
141 Clear 32 998 57 10000 3.84 51 12:39 29.07.2020
142 Clear 30 1015 74 10000 5.1 20 12:20 29.07.2020
143 Clear 31 1015 74 10000 2.1 350 11:41 29.07.2020
144 Clear 31 998 48 10000 2.79 48 10:59 29.07.2020
145 Clear 31 998 48 10000 2.22 62 10:27 29.07.2020
146 Clear 29 998 54 10000 2.22 62 09:33 29.07.2020
147 Clear 28 998 70 10000 1.56 110 08:22 29.07.2020
148 Clear 26 998 78 10000 1.61 123 07:27 29.07.2020
149 Clear 24 1014 83 10000 1.5 250 05:45 29.07.2020
150 Clear 25 1014 83 10000 1 290 02:25 29.07.2020
151 Clear 26 1014 73 10000 1 250 00:34 29.07.2020
152 Clear 27 1015 69 10000 1.5 300 22:43 28.07.2020
153 Clear 27 1014 61 10000 2.6 110 22:19 28.07.2020
154 Clear 28 1014 58 10000 5.1 70 21:35 28.07.2020
155 Clear 28 1014 58 10000 6.2 70 20:57 28.07.2020
156 Clear 29 1014 58 10000 6.2 70 20:38 28.07.2020
157 Clear 30 997 56 10000 2.29 84 19:57 28.07.2020
158 Clear 30 997 53 10000 2.29 84 19:37 28.07.2020
159 Clear 30 1013 65 10000 8.7 50 19:18 28.07.2020
160 Clear 30 1013 55 10000 9.3 70 18:37 28.07.2020
161 Clear 30 1014 66 10000 9.8 50 17:53 28.07.2020
162 Clear 31 1014 66 10000 9.8 40 17:21 28.07.2020
163 Clear 31 1014 70 10000 9.3 40 16:39 28.07.2020
164 Clear 32 1014 62 10000 9.3 50 15:31 28.07.2020
165 Clear 32 1014 62 10000 8.2 50 14:52 28.07.2020
166 Clear 32 1014 62 10000 8.2 50 14:32 28.07.2020
167 Clear 32 1014 62 10000 8.2 50 14:32 28.07.2020
168 Clear 31 1015 55 10000 8.2 50 13:41 28.07.2020
169 Clear 31 1015 55 10000 6.7 60 12:42 28.07.2020
170 Clear 31 1015 51 10000 7.2 60 12:21 28.07.2020
171 Clear 31 999 50 10000 3.39 63 11:55 28.07.2020
172 Clear 30 1016 69 10000 7.2 70 11:18 28.07.2020
173 Clear 30 1016 65 10000 6.2 60 10:43 28.07.2020
174 Clear 30 1016 54 10000 1 0 10:20 28.07.2020
175 Clear 29 999 46 10000 2.57 69 09:39 28.07.2020
176 Clear 28 1016 65 10000 1.5 250 09:18 28.07.2020
177 Clear 27 999 51 10000 2.01 63 08:37 28.07.2020
178 Clear 27 999 59 10000 1.39 85 07:51 28.07.2020
179 Clear 25 1015 78 10000 1 80 06:56 28.07.2020
180 Clear 24 1016 78 10000 1 70 02:21 28.07.2020
181 Clear 24 1016 78 10000 1 70 02:21 28.07.2020
182 Clear 24 1016 78 10000 1 70 02:21 28.07.2020
183 Clear 24 1016 78 10000 1 70 02:21 28.07.2020
184 Clear 24 1016 73 10000 0.5 0 01:50 28.07.2020
185 Clear 25 1016 78 10000 0.5 0 00:57 28.07.2020
186 Clear 26 1016 74 10000 0.5 0 23:49 27.07.2020
187 Clear 26 1016 69 10000 1.5 200 23:25 27.07.2020
188 Clear 27 1016 61 10000 4.1 70 22:43 27.07.2020
189 Clear 27 1016 65 10000 5.1 60 22:21 27.07.2020
190 Clear 27 1016 69 10000 6.7 60 21:46 27.07.2020
191 Clear 27 1015 69 10000 7.7 60 20:54 27.07.2020
192 Clear 27 1015 69 10000 7.7 60 20:36 27.07.2020
193 Clear 28 999 67 10000 2.09 68 20:18 27.07.2020
194 Clear 29 999 62 10000 2.09 68 19:34 27.07.2020
195 Clear 29 1015 65 10000 9.3 50 18:47 27.07.2020
196 Clear 30 1016 62 10000 9.3 50 17:50 27.07.2020
197 Clear 30 1016 62 10000 9.3 50 17:32 27.07.2020
198 Clear 30 1016 62 10000 9.3 40 16:59 27.07.2020
199 Clear 30 1016 58 10000 8.7 40 16:22 27.07.2020
200 Clear 31 1016 62 10000 8.2 40 15:49 27.07.2020
201 Clear 30 1016 62 10000 8.2 40 15:31 27.07.2020
202 Clear 30 1017 62 10000 7.2 40 14:54 27.07.2020
203 Clear 32 1000 34 10000 3.69 47 14:35 27.07.2020
204 Clear 31 1000 33 10000 3.65 47 13:49 27.07.2020
205 Clear 31 1017 69 10000 5.7 40 13:28 27.07.2020
206 Clear 31 1017 69 10000 5.7 30 12:53 27.07.2020
207 Clear 31 1017 69 10000 5.7 30 12:32 27.07.2020
208 Clear 30 1000 40 10000 2.75 41 11:27 27.07.2020
209 Clear 29 1017 69 10000 5.1 30 10:59 27.07.2020
210 Clear 28 1017 69 10000 5.1 30 09:58 27.07.2020
211 Clear 28 1017 69 10000 5.1 40 09:38 27.07.2020
212 Clear 28 1017 61 10000 4.6 50 09:18 27.07.2020
213 Clear 27 1017 65 10000 4.1 60 08:50 27.07.2020
214 Clear 27 1017 65 10000 3.6 60 08:30 27.07.2020
215 Clear 26 1000 76 10000 1.29 89 07:44 27.07.2020
216 Clear 25 1017 69 10000 3.1 60 06:36 27.07.2020
217 Clear 24 1016 73 10000 1.5 160 03:54 27.07.2020
218 Clear 25 1016 69 10000 0.5 0 02:18 27.07.2020
219 Clear 25 1016 65 10000 2.6 80 00:19 27.07.2020
220 Clear 26 1016 57 10000 3.1 50 23:29 26.07.2020
221 Clear 26 1016 65 10000 3.6 40 22:47 26.07.2020
222 Clear 26 1015 74 10000 4.6 50 22:29 26.07.2020
223 Clear 27 1015 74 10000 5.1 50 21:54 26.07.2020
224 Clear 27 1015 74 10000 5.7 60 21:22 26.07.2020
225 Clear 28 1015 69 10000 6.7 60 20:54 26.07.2020
226 Clear 28 1015 69 10000 6.7 60 20:33 26.07.2020
227 Clear 29 998 64 10000 1.93 72 19:50 26.07.2020
228 Clear 29 1014 65 10000 6.7 40 19:32 26.07.2020
229 Clear 29 1014 65 10000 6.7 40 18:59 26.07.2020
230 Clear 29 1015 65 10000 6.2 40 18:38 26.07.2020
231 Clear 30 1015 62 10000 6.2 30 18:19 26.07.2020
232 Clear 30 1015 62 10000 6.2 30 17:42 26.07.2020
233 Clear 30 1015 62 10000 6.2 30 17:20 26.07.2020
234 Clear 30 1015 62 10000 5.7 30 16:48 26.07.2020
235 Clear 30 1015 66 10000 5.1 30 16:24 26.07.2020
236 Clear 30 1015 62 10000 5.1 20 15:42 26.07.2020
237 Clear 31 998 48 10000 1.34 6 15:24 26.07.2020
238 Clear 30 1015 58 10000 4.1 360 14:50 26.07.2020
239 Clear 30 1015 62 10000 4.1 360 14:23 26.07.2020
240 Clear 31 998 42 10000 0.89 355 13:46 26.07.2020
241 Clear 30 998 53 10000 0.45 8 12:55 26.07.2020
242 Clear 30 998 49 10000 1.34 353 12:37 26.07.2020
243 Clear 30 998 40 10000 1.34 2 12:18 26.07.2020
244 Clear 30 998 54 10000 0.45 13 11:39 26.07.2020
245 Clear 30 998 49 10000 1.88 344 10:58 26.07.2020
246 Clear 30 998 46 10000 1.88 344 10:40 26.07.2020
247 Clear 28 1015 78 10000 3.1 240 09:53 26.07.2020
248 Clear 29 998 49 10000 1.29 343 09:31 26.07.2020
249 Clear 27 1014 74 10000 2.6 220 08:53 26.07.2020
250 Clear 26 997 61 10000 0.18 180 07:43 26.07.2020
251 Clear 24 1013 83 10000 2.6 80 06:28 26.07.2020
252 Clear 23 997 65 10000 0.67 113 03:49 26.07.2020
253 Clouds 25 1014 78 10000 1.5 280 00:57 26.07.2020
254 Clouds 26 1014 78 10000 1.5 290 23:56 25.07.2020
255 Clear 26 1014 78 10000 2.1 290 23:30 25.07.2020
256 Clear 26 1014 74 10000 2.1 280 22:38 25.07.2020
257 Clear 25 1013 74 10000 2.1 310 21:47 25.07.2020
258 Clear 26 996 68 10000 1.3 311 21:20 25.07.2020
259 Clear 27 996 68 10000 0.45 347 20:43 25.07.2020
260 Clear 28 996 63 10000 1.71 325 20:20 25.07.2020
261 Clear 28 1013 65 10000 3.1 330 19:30 25.07.2020
262 Clear 29 1013 65 10000 3.1 350 18:57 25.07.2020
263 Clear 28 1013 65 10000 3.1 350 18:35 25.07.2020
264 Clear 29 1013 70 10000 3.6 350 17:58 25.07.2020
265 Clear 29 1013 70 10000 3.6 350 17:39 25.07.2020
266 Clear 30 1013 70 10000 2.6 350 17:21 25.07.2020
267 Clear 29 1013 66 10000 4.1 350 16:50 25.07.2020
268 Clear 30 1013 66 10000 4.1 350 16:28 25.07.2020
269 Clear 30 1013 70 10000 3.1 350 15:47 25.07.2020
270 Clear 30 1013 66 10000 3.1 360 15:21 25.07.2020
271 Clear 30 1013 66 10000 3.1 360 15:21 25.07.2020
272 Clear 30 1013 66 10000 3.1 10 14:46 25.07.2020
273 Clear 30 1013 74 10000 3.6 350 14:28 25.07.2020
274 Clear 30 995 57 10000 2.68 10 13:42 25.07.2020
275 Clear 31 995 35 10000 1.34 354 13:22 25.07.2020
276 Clear 30 1013 69 10000 3.1 330 12:56 25.07.2020
277 Clear 30 1013 69 10000 1.5 330 12:22 25.07.2020
278 Clear 29 1013 74 10000 2.6 340 11:43 25.07.2020
279 Clear 28 995 60 10000 0.89 7 11:23 25.07.2020
280 Clear 28 995 66 10000 2.5 337 10:45 25.07.2020
281 Clear 28 995 68 10000 0.45 340 10:25 25.07.2020
282 Clear 28 995 65 10000 1.34 7 09:58 25.07.2020
283 Clear 28 995 64 10000 1.37 340 09:27 25.07.2020
284 Clear 28 995 62 10000 1.37 340 08:59 25.07.2020
285 Clear 27 995 56 10000 0.72 310 08:25 25.07.2020
286 Clear 27 995 57 10000 0.72 310 07:55 25.07.2020
287 Clear 26 995 58 10000 0.72 310 07:36 25.07.2020
288 Clear 25 994 56 10000 1.01 260 06:55 25.07.2020
289 Clear 25 1011 78 10000 1.5 190 03:31 25.07.2020
290 Clear 25 1012 78 10000 2.1 150 02:36 25.07.2020
291 Clear 25 995 67 10000 0.56 258 01:38 25.07.2020
292 Clear 25 995 65 10000 0.48 176 01:19 25.07.2020
293 Clear 25 995 65 10000 0.48 176 00:45 25.07.2020
294 Clear 26 995 66 10000 0.7 158 00:22 25.07.2020
295 Clear 26 995 65 10000 0.7 158 23:55 24.07.2020
296 Clear 26 1012 83 10000 2.6 250 23:36 24.07.2020
297 Clear 26 1011 88 10000 1 290 23:18 24.07.2020
298 Clear 26 1011 78 10000 1 40 22:41 24.07.2020
299 Clear 27 1012 74 10000 1.5 40 22:21 24.07.2020
300 Clouds 27 1011 83 10000 2.1 30 21:45 24.07.2020
301 Clear 28 995 62 10000 0.5 129 21:26 24.07.2020
302 Clear 28 994 55 10000 0.5 129 20:46 24.07.2020
303 Clear 28 994 58 10000 0.65 38 20:28 24.07.2020
304 Clear 29 994 53 10000 0.65 38 19:45 24.07.2020
305 Clear 30 1011 74 10000 5.1 40 19:24 24.07.2020
306 Clear 28 1011 74 10000 6.2 30 18:42 24.07.2020
307 Clear 29 1010 69 10000 7.2 40 18:18 24.07.2020
308 Clear 29 1010 69 10000 8.2 40 17:44 24.07.2020
309 Clear 29 1010 66 10000 8.7 40 17:18 24.07.2020
310 Clear 31 1014 35 10000 1.79 90 16:38 24.07.2020
311 Clear 31 1014 35 10000 1.79 135 16:18 24.07.2020
312 Clear 31 1011 66 10000 7.7 40 15:43 24.07.2020
313 Clear 31 1011 70 10000 7.2 30 15:19 24.07.2020
314 Clear 30 1011 66 10000 7.7 30 14:42 24.07.2020
315 Clear 32 1011 66 10000 7.2 40 14:19 24.07.2020
316 Clear 32 1012 66 10000 6.2 40 13:41 24.07.2020
317 Clear 32 1012 69 10000 4.6 10 13:20 24.07.2020
318 Clear 31 1012 58 10000 2.6 310 12:40 24.07.2020
319 Clear 31 1012 61 10000 3.1 310 12:19 24.07.2020
320 Clear 30 1012 58 10000 2.6 310 11:37 24.07.2020
321 Clear 30 1012 61 10000 2.1 290 11:18 24.07.2020
322 Clear 30 1012 61 10000 2.1 290 11:18 24.07.2020
323 Clear 29 1012 61 10000 2.1 300 10:44 24.07.2020
324 Clear 29 995 44 10000 1.51 90 10:18 24.07.2020
325 Clear 27 1011 57 10000 2.6 250 09:44 24.07.2020
326 Clear 28 1011 54 10000 2.1 250 09:24 24.07.2020
327 Clear 28 995 45 10000 1.98 118 08:55 24.07.2020
328 Clear 27 995 45 10000 1.98 118 08:37 24.07.2020
329 Clear 26 995 51 10000 2.3 119 07:57 24.07.2020
330 Clear 25 995 52 10000 2.3 119 07:37 24.07.2020
331 Clear 25 1011 64 10000 1.5 170 07:18 24.07.2020
332 Clear 23 995 54 10000 1.88 99 05:57 24.07.2020
333 Clear 23 995 55 10000 1.88 99 05:32 24.07.2020
334 Clear 23 995 58 10000 1.8 94 04:40 24.07.2020
335 Clear 24 995 58 10000 2.01 114 01:59 24.07.2020
336 Clear 24 996 54 10000 1.97 116 00:49 24.07.2020
337 Clear 26 1012 61 10000 1 0 00:26 24.07.2020
338 Clear 26 1012 65 10000 1 0 23:45 23.07.2020
339 Clear 27 1012 61 10000 2.6 210 23:23 23.07.2020
340 Clear 27 1012 65 10000 3.6 240 22:44 23.07.2020
341 Clear 27 1012 57 10000 3.6 60 22:23 23.07.2020
342 Clear 27 1012 57 10000 3.6 60 21:56 23.07.2020
343 Clear 27 1012 58 10000 3.6 60 21:37 23.07.2020
344 Clear 27 996 72 10000 1.85 107 21:18 23.07.2020
345 Clear 27 996 72 10000 1.85 107 21:18 23.07.2020
346 Clear 28 996 67 10000 1.85 107 20:43 23.07.2020
347 Clear 28 996 65 10000 1.86 84 20:20 23.07.2020
348 Clear 29 996 62 10000 1.86 84 19:59 23.07.2020
349 Clear 29 1012 58 10000 6.7 60 19:39 23.07.2020
350 Clear 29 1012 58 10000 7.2 60 19:21 23.07.2020
351 Clear 28 1012 58 10000 7.2 60 18:43 23.07.2020
352 Clear 28 1012 62 10000 7.2 50 18:24 23.07.2020
353 Clear 29 1012 58 10000 7.7 50 17:59 23.07.2020
354 Clear 29 1012 58 10000 7.7 50 17:39 23.07.2020
355 Clear 29 1012 58 10000 8.2 50 17:18 23.07.2020
356 Clear 29 1012 58 10000 7.7 50 16:41 23.07.2020
357 Clear 29 1013 66 10000 8.2 40 16:22 23.07.2020
358 Clear 29 1013 62 10000 8.2 40 15:44 23.07.2020
359 Clear 29 1013 66 10000 7.7 40 15:23 23.07.2020
360 Clear 30 997 59 10000 3.54 46 14:41 23.07.2020
361 Clear 30 997 60 10000 3.83 45 14:20 23.07.2020
362 Clear 30 997 61 10000 3.83 45 13:59 23.07.2020
363 Clear 30 997 61 10000 3.83 45 13:40 23.07.2020
364 Clear 30 997 59 10000 3.7 44 13:22 23.07.2020
365 Clear 31 1014 74 10000 5.7 40 12:45 23.07.2020
366 Clear 30 997 58 10000 3.19 43 12:23 23.07.2020
367 Clear 30 997 58 10000 3.19 43 11:51 23.07.2020
368 Clear 29 1014 74 10000 4.6 30 11:26 23.07.2020
369 Clear 30 997 57 10000 2.76 39 10:59 23.07.2020
370 Clear 29 1014 74 10000 4.1 30 10:39 23.07.2020
371 Clear 28 1015 78 10000 2.1 330 10:19 23.07.2020
372 Clear 29 1015 78 10000 2.1 330 10:19 23.07.2020
373 Clear 29 998 58 10000 2.2 38 09:48 23.07.2020
374 Clear 27 1015 78 10000 1.5 260 09:28 23.07.2020
375 Clear 27 1014 74 10000 1 270 08:52 23.07.2020
376 Clear 27 998 65 10000 0.89 94 08:33 23.07.2020
377 Clear 26 998 71 10000 0.89 94 07:54 23.07.2020
378 Clear 26 997 73 10000 0.89 94 07:33 23.07.2020
379 Clear 24 997 76 10000 0.59 116 06:46 23.07.2020
380 Clear 23 1014 78 10000 1 110 06:20 23.07.2020
381 Clear 23 1014 73 10000 1.5 160 05:45 23.07.2020
382 Clear 23 1014 83 10000 0.5 0 04:47 23.07.2020
383 Clear 24 1015 78 10000 1.5 120 03:58 23.07.2020
384 Clear 25 1015 83 10000 4.6 60 02:42 23.07.2020
385 Clear 25 1016 83 10000 4.1 50 00:33 23.07.2020
386 Clear 25 1016 83 10000 4.1 50 23:57 22.07.2020
387 Clear 25 1016 83 10000 4.1 50 23:37 22.07.2020
388 Clear 25 1016 83 10000 4.6 40 23:19 22.07.2020
389 Clear 25 1016 83 10000 5.1 30 22:40 22.07.2020
390 Clear 26 1016 83 10000 5.1 30 22:21 22.07.2020
391 Clear 26 1015 83 10000 4.6 30 21:54 22.07.2020
392 Clear 26 1015 83 10000 4.6 30 21:36 22.07.2020
393 Clear 26 1015 78 10000 4.6 30 21:18 22.07.2020
394 Clear 27 1016 78 10000 4.6 40 20:55 22.07.2020
395 Clear 27 999 66 10000 2.11 19 20:36 22.07.2020
396 Clear 27 999 65 10000 0.45 350 20:18 22.07.2020
397 Clear 29 1016 74 10000 4.6 30 19:43 22.07.2020
398 Clear 29 1016 74 10000 5.1 30 19:25 22.07.2020
399 Clear 28 1016 69 10000 5.1 30 18:55 22.07.2020
400 Clear 28 1016 74 10000 5.1 30 18:32 22.07.2020
401 Clear 28 1016 69 10000 4.6 30 17:45 22.07.2020
402 Clear 28 1017 69 10000 4.1 30 17:26 22.07.2020
403 Clear 28 1017 69 10000 4.6 20 16:57 22.07.2020
404 Clear 28 1017 69 10000 4.6 20 16:38 22.07.2020
405 Clear 29 1017 69 10000 5.7 20 16:20 22.07.2020
406 Clear 29 1017 69 10000 5.7 20 16:00 22.07.2020
407 Clear 29 1017 69 10000 5.7 30 15:41 22.07.2020
408 Clear 29 1017 74 10000 5.7 30 15:21 22.07.2020
409 Clear 30 1000 53 10000 1.34 12 14:48 22.07.2020
410 Clear 30 1000 52 10000 1.34 346 14:20 22.07.2020
411 Clear 29 1001 57 10000 1.79 2 13:57 22.07.2020
412 Clear 29 1001 57 10000 1.34 3 13:37 22.07.2020
413 Clear 29 1001 51 10000 0.89 345 13:18 22.07.2020
414 Clear 30 1001 50 10000 3.05 20 12:41 22.07.2020
415 Clear 29 1001 52 10000 0.89 354 12:21 22.07.2020
416 Clear 29 1001 53 10000 0.89 341 11:56 22.07.2020
417 Clear 29 1001 50 10000 2.67 26 11:37 22.07.2020
418 Clear 29 1001 57 10000 2.48 28 11:18 22.07.2020
419 Clear 29 1001 56 10000 2.48 28 11:18 22.07.2020
420 Clear 28 1018 69 10000 4.1 30 10:42 22.07.2020
421 Clear 28 1001 64 10000 2.2 26 10:23 22.07.2020
422 Clear 28 1018 74 10000 2.6 10 09:51 22.07.2020
423 Clear 27 1018 69 10000 1.5 330 09:23 22.07.2020
424 Clear 26 1018 65 10000 1 300 08:56 22.07.2020
425 Clear 26 1002 73 10000 1.25 40 08:37 22.07.2020
426 Clear 26 1002 74 10000 1.25 40 08:18 22.07.2020
427 Clear 24 1001 77 10000 0.81 88 07:21 22.07.2020
428 Clear 24 1018 64 10000 1.5 150 06:36 22.07.2020
429 Clear 23 1018 69 10000 0.5 0 06:18 22.07.2020
430 Clear 23 1018 64 10000 0.5 0 05:45 22.07.2020
431 Clear 21 1001 78 10000 0.95 103 05:18 22.07.2020
432 Clear 23 1018 73 10000 3.1 80 04:22 22.07.2020
433 Clear 24 1018 65 10000 4.1 50 02:38 22.07.2020
434 Clear 24 1018 69 10000 3.6 50 01:32 22.07.2020
435 Clear 25 1019 69 10000 3.6 70 00:28 22.07.2020
436 Clear 25 1019 69 10000 4.1 60 23:44 21.07.2020
437 Clear 25 1018 69 10000 4.6 70 23:23 21.07.2020
438 Clear 25 1018 69 10000 4.6 70 22:59 21.07.2020
439 Clear 25 1018 69 10000 5.1 60 22:40 21.07.2020
440 Clear 26 1018 69 10000 4.6 60 22:22 21.07.2020
441 Clear 26 1018 69 10000 4.6 60 21:59 21.07.2020
442 Clear 26 1018 69 10000 4.6 60 21:40 21.07.2020
443 Clear 26 1018 65 10000 5.1 50 21:22 21.07.2020
444 Clear 26 1018 65 10000 6.2 50 20:59 21.07.2020
445 Clear 27 1018 65 10000 6.2 50 20:40 21.07.2020
446 Clear 27 1001 71 10000 2.55 56 20:21 21.07.2020
447 Clear 27 1002 68 10000 0.89 4 19:44 21.07.2020
448 Clear 28 1018 69 10000 6.2 40 19:20 21.07.2020
449 Clear 27 1018 65 10000 6.2 40 18:44 21.07.2020
450 Clear 27 1018 58 10000 6.2 40 18:25 21.07.2020
451 Clear 28 1018 58 10000 6.2 40 17:58 21.07.2020
452 Clear 28 1018 58 10000 6.2 40 17:37 21.07.2020
453 Clear 28 1018 61 10000 7.2 40 17:18 21.07.2020
454 Clear 28 1019 61 10000 7.2 40 16:41 21.07.2020
455 Clear 28 1019 65 10000 7.2 30 16:20 21.07.2020
456 Clear 29 1019 65 10000 6.7 30 15:44 21.07.2020
457 Clear 29 1019 65 10000 6.7 30 15:44 21.07.2020
458 Clear 29 1019 61 10000 5.7 30 15:23 21.07.2020
459 Clear 29 1019 65 10000 5.1 30 14:56 21.07.2020
460 Clear 29 1019 65 10000 5.1 30 14:37 21.07.2020
461 Clear 29 1020 65 10000 5.1 30 14:18 21.07.2020
462 Clear 29 1003 46 10000 3.51 40 13:40 21.07.2020
463 Clear 28 1003 47 10000 3.06 45 13:22 21.07.2020
464 Clear 28 1003 47 10000 1.79 352 12:56 21.07.2020
465 Clear 28 1003 52 10000 0.45 347 12:37 21.07.2020
466 Clear 28 1003 53 10000 0.45 346 12:18 21.07.2020
467 Clear 29 1020 69 10000 5.7 40 11:41 21.07.2020
468 Clear 28 1019 65 10000 5.7 30 11:21 21.07.2020
469 Clear 28 1019 65 10000 5.7 30 10:57 21.07.2020
470 Clear 28 1019 65 10000 5.7 30 10:38 21.07.2020
471 Clear 27 1019 65 10000 5.7 40 10:19 21.07.2020
472 Clear 27 1019 65 10000 5.1 50 09:42 21.07.2020
473 Clear 27 1019 65 10000 5.1 50 09:42 21.07.2020
474 Clear 27 1019 61 10000 4.6 70 09:22 21.07.2020
475 Clear 26 1019 65 10000 4.1 70 08:44 21.07.2020
476 Clear 26 1019 65 10000 3.6 80 08:24 21.07.2020
477 Clear 25 1019 65 10000 2.1 90 07:49 21.07.2020
478 Clear 25 1003 83 10000 1.14 83 07:31 21.07.2020
479 Clear 23 1003 86 10000 1.07 104 06:58 21.07.2020
480 Clear 22 1019 73 10000 2.1 150 06:25 21.07.2020
481 Clear 23 1018 64 10000 0.5 0 04:29 21.07.2020
482 Clear 23 1018 60 10000 2.1 90 02:57 21.07.2020
483 Clear 23 1019 57 10000 2.1 110 01:42 21.07.2020
484 Clear 25 1019 65 10000 3.6 70 00:50 21.07.2020
485 Clear 25 1019 65 10000 3.1 70 00:28 21.07.2020
486 Clear 25 1019 65 10000 3.6 70 23:58 20.07.2020
487 Clear 25 1019 65 10000 3.6 70 23:38 20.07.2020
488 Clear 26 1019 61 10000 4.6 70 23:20 20.07.2020
489 Clear 26 1019 61 10000 4.6 70 23:20 20.07.2020
490 Clear 26 1019 61 10000 5.1 50 22:56 20.07.2020
491 Clear 26 1019 61 10000 5.1 50 22:37 20.07.2020
492 Clear 26 1018 61 10000 5.1 50 22:18 20.07.2020
493 Clear 26 1018 61 10000 5.1 60 21:42 20.07.2020
494 Clear 26 1018 61 10000 5.7 50 21:24 20.07.2020
495 Clear 27 1018 57 10000 5.7 50 20:55 20.07.2020
496 Clear 27 1018 57 10000 5.7 50 20:37 20.07.2020
497 Clear 27 1018 57 10000 5.1 50 20:19 20.07.2020
498 Clear 26 1018 61 10000 5.1 40 19:38 20.07.2020
499 Clear 26 1018 54 10000 6.2 50 19:18 20.07.2020
500 Clear 25 1018 61 10000 6.2 40 18:43 20.07.2020
501 Clear 25 1018 58 10000 5.1 40 18:25 20.07.2020
502 Clear 25 1018 58 10000 5.7 40 17:58 20.07.2020
503 Clear 26 1018 58 10000 5.7 40 17:38 20.07.2020
504 Clear 27 1018 58 10000 5.1 40 17:19 20.07.2020
505 Clear 27 1018 61 10000 4.6 30 16:46 20.07.2020
506 Clear 27 1018 57 10000 5.1 30 16:20 20.07.2020
507 Clear 27 1018 57 10000 5.7 30 15:44 20.07.2020
508 Clear 27 1018 57 10000 5.7 20 15:19 20.07.2020
509 Clear 27 1018 57 10000 5.7 20 14:46 20.07.2020
510 Clear 28 1018 54 10000 5.7 20 14:20 20.07.2020
511 Clear 28 1018 54 10000 5.7 20 13:59 20.07.2020
512 Clear 28 1018 54 10000 5.1 10 13:40 20.07.2020
513 Clear 28 1018 54 10000 5.1 10 13:21 20.07.2020
514 Clear 27 1001 49 10000 0.45 358 12:58 20.07.2020
515 Clear 28 1018 54 10000 5.1 10 12:40 20.07.2020
516 Clear 28 1018 57 10000 4.6 10 12:19 20.07.2020
517 Clear 27 1018 54 10000 4.6 20 11:58 20.07.2020
518 Clear 28 1018 54 10000 4.6 20 11:39 20.07.2020
519 Clear 27 1001 49 10000 1.34 5 11:21 20.07.2020
520 Clear 27 1001 49 10000 1.34 348 10:44 20.07.2020
521 Clear 27 1001 54 10000 1.34 333 10:26 20.07.2020
522 Clouds 26 1017 57 10000 2.6 20 09:57 20.07.2020
523 Clouds 26 1017 57 10000 2.6 20 09:38 20.07.2020
524 Clouds 25 1017 57 10000 3.1 20 09:20 20.07.2020
525 Clouds 24 1017 57 10000 3.1 360 08:45 20.07.2020
526 Clouds 24 1017 57 10000 3.1 360 08:24 20.07.2020
527 Clear 24 1000 81 10000 2.24 25 07:43 20.07.2020
528 Clear 23 1000 82 10000 1.58 26 07:21 20.07.2020
529 Clouds 23 1016 73 10000 1 0 06:43 20.07.2020
530 Clear 23 1016 61 10000 2.6 10 05:46 20.07.2020
531 Clear 24 1016 69 10000 3.1 360 02:50 20.07.2020
532 Clear 24 1016 65 10000 4.1 30 00:57 20.07.2020
533 Clear 24 1016 69 10000 4.1 40 00:20 20.07.2020
534 Clear 25 1016 65 10000 4.1 30 23:46 19.07.2020
535 Clear 25 1016 65 10000 4.1 30 23:27 19.07.2020
536 Clear 25 1016 69 10000 4.1 20 22:58 19.07.2020
537 Clear 25 1016 65 10000 4.6 30 22:37 19.07.2020
538 Clear 25 1015 65 10000 5.1 20 22:18 19.07.2020
539 Clear 25 1015 65 10000 5.7 20 21:54 19.07.2020
540 Clear 25 1015 65 10000 5.7 20 21:36 19.07.2020
541 Clear 25 999 70 10000 1.61 348 21:18 19.07.2020
542 Clear 26 998 67 10000 0.45 348 20:41 19.07.2020
543 Clear 26 998 66 10000 2.49 350 20:20 19.07.2020
544 Clear 26 998 62 10000 0.89 3 19:58 19.07.2020
545 Clear 27 1015 57 10000 4.6 10 19:38 19.07.2020
546 Clear 27 998 57 10000 0.89 357 19:19 19.07.2020
547 Clear 28 1015 58 10000 5.1 360 18:42 19.07.2020
548 Clear 28 1015 58 10000 5.1 360 18:41 19.07.2020
549 Clear 27 1014 51 10000 5.1 350 18:23 19.07.2020
550 Clear 27 1014 48 10000 5.7 350 17:56 19.07.2020
551 Clear 27 1014 48 10000 5.7 350 17:37 19.07.2020
552 Clear 27 1014 54 10000 4.6 350 17:18 19.07.2020
553 Clouds 28 1014 51 10000 3.6 350 16:39 19.07.2020
554 Clouds 28 1014 61 10000 3.6 350 16:21 19.07.2020
555 Clouds 28 1014 61 10000 4.6 360 15:52 19.07.2020
556 Clouds 28 1014 61 10000 4.6 360 15:32 19.07.2020
557 Clear 27 997 58 10000 1.34 1 14:59 19.07.2020
558 Clear 27 997 58 10000 1.34 11 14:40 19.07.2020
559 Clear 27 997 61 10000 2.68 17 14:22 19.07.2020
560 Clear 27 997 63 10000 2.68 22 13:43 19.07.2020
561 Clear 27 997 65 10000 2.24 11 13:22 19.07.2020
562 Clear 27 997 65 10000 0.89 15 12:51 19.07.2020
563 Clear 26 997 67 10000 1.79 346 12:27 19.07.2020
564 Clear 26 997 68 10000 0.89 7 11:58 19.07.2020
565 Clear 26 997 69 10000 0.45 7 11:39 19.07.2020
566 Clear 26 997 71 10000 0.89 349 11:21 19.07.2020
567 Clear 26 997 72 10000 0.45 345 10:42 19.07.2020
568 Clouds 25 997 72 10000 1.34 342 10:22 19.07.2020
569 Clouds 26 1013 69 10000 2.6 20 09:47 19.07.2020
570 Clear 24 997 78 10000 2.3 8 09:22 19.07.2020
571 Clear 24 997 83 10000 2.12 21 08:54 19.07.2020
572 Clear 23 997 91 10000 1.82 29 08:28 19.07.2020
573 Clear 22 997 94 10000 1.82 29 07:59 19.07.2020
574 Clear 22 996 93 10000 1.25 50 07:28 19.07.2020
575 Clear 22 996 93 10000 1.25 50 06:52 19.07.2020
576 Clouds 23 1012 73 10000 2.6 360 06:22 19.07.2020
577 Clouds 23 1012 73 10000 3.1 350 05:51 19.07.2020
578 Clouds 23 1012 73 10000 1 0 05:21 19.07.2020
579 Clear 22 996 90 10000 0.93 64 02:48 19.07.2020
580 Clouds 23 1013 73 10000 1 110 02:27 19.07.2020
581 Clouds 23 1013 78 10000 2.6 80 01:52 19.07.2020
582 Clouds 23 1013 73 10000 3.1 50 01:18 19.07.2020
583 Clouds 24 1013 73 10000 3.6 30 00:30 19.07.2020
584 Clouds 24 1013 73 10000 3.6 30 23:59 18.07.2020
585 Clouds 24 1013 73 10000 3.6 40 23:41 18.07.2020
586 Clouds 24 1013 69 10000 3.1 60 23:22 18.07.2020
587 Clouds 24 1013 73 10000 3.6 50 22:44 18.07.2020
588 Clouds 24 1012 73 10000 3.1 30 22:20 18.07.2020
589 Clouds 24 1012 73 10000 3.1 30 21:52 18.07.2020
590 Clouds 25 996 78 10000 1.05 47 21:29 18.07.2020
591 Clouds 25 1012 73 10000 4.1 20 20:59 18.07.2020
592 Clouds 25 995 77 10000 1.05 47 20:41 18.07.2020
593 Clouds 25 995 76 10000 1.8 20 20:21 18.07.2020
594 Clouds 25 995 73 10000 0.89 7 19:49 18.07.2020
595 Clouds 25 995 73 10000 0.89 7 19:30 18.07.2020
596 Clouds 26 995 73 10000 0.89 7 18:48 18.07.2020
597 Clouds 26 995 73 10000 0.89 7 18:23 18.07.2020
598 Clouds 26 995 70 10000 0.89 21 17:58 18.07.2020
599 Clouds 26 995 73 10000 0.89 353 17:39 18.07.2020
600 Clouds 26 1012 69 10000 5.7 310 17:19 18.07.2020
601 Clouds 26 1012 69 10000 5.7 310 16:42 18.07.2020
602 Clouds 27 1012 65 10000 5.1 300 16:22 18.07.2020
603 Clouds 27 1012 69 10000 5.1 310 15:58 18.07.2020
604 Clouds 26 1012 69 10000 5.1 310 15:39 18.07.2020
605 Clouds 27 1012 69 10000 5.7 310 15:20 18.07.2020
606 Clouds 27 1012 69 10000 5.7 300 14:41 18.07.2020
607 Clouds 27 1012 69 10000 5.1 310 14:22 18.07.2020
608 Clouds 27 1012 69 10000 5.1 300 13:56 18.07.2020
609 Clouds 27 1012 69 10000 5.1 300 13:36 18.07.2020
610 Clouds 27 1012 69 10000 5.1 290 13:18 18.07.2020
611 Clouds 28 1012 74 10000 5.1 290 12:42 18.07.2020
612 Clouds 28 1012 74 10000 4.6 290 12:20 18.07.2020
613 Clouds 27 1012 65 10000 3.6 290 11:59 18.07.2020
614 Clouds 27 1012 65 10000 3.6 290 11:41 18.07.2020
615 Clouds 27 1012 61 10000 1.5 290 11:19 18.07.2020
616 Clouds 27 1012 65 10000 2.1 260 10:47 18.07.2020
617 Clouds 27 1012 65 10000 2.1 260 10:28 18.07.2020
618 Clouds 26 1012 65 10000 2.1 260 09:58 18.07.2020
619 Clouds 26 1012 65 10000 2.6 240 09:40 18.07.2020
620 Clouds 25 1012 65 10000 2.6 230 09:20 18.07.2020
621 Clouds 24 1012 65 10000 3.1 210 08:46 18.07.2020
622 Clouds 24 1012 69 10000 3.6 210 08:24 18.07.2020
623 Clear 25 995 87 10000 0.84 269 07:44 18.07.2020
624 Clear 24 995 89 10000 0.93 251 07:24 18.07.2020
625 Clear 23 995 90 10000 0.93 251 06:52 18.07.2020
626 Clouds 23 1011 69 10000 2.6 360 05:48 18.07.2020
627 Clouds 24 1011 69 10000 3.6 350 04:29 18.07.2020
628 Clear 22 995 87 10000 1 299 02:41 18.07.2020
629 Clouds 24 1012 65 10000 1.5 80 01:27 18.07.2020
630 Clouds 24 1012 65 10000 2.1 80 00:46 18.07.2020
631 Clouds 24 1012 61 10000 3.1 50 00:27 18.07.2020
632 Clouds 25 1012 61 10000 3.1 50 23:41 17.07.2020
633 Clouds 24 1012 65 10000 3.6 50 23:21 17.07.2020
634 Clouds 25 1012 65 10000 3.6 50 22:59 17.07.2020
635 Clouds 25 1012 65 10000 3.6 50 22:39 17.07.2020
636 Clouds 25 1012 69 10000 3.6 50 22:18 17.07.2020
637 Clouds 26 1012 69 10000 3.6 30 21:42 17.07.2020
638 Clear 25 995 79 10000 1.4 54 21:24 17.07.2020
639 Clear 25 995 79 10000 1.4 54 20:59 17.07.2020
640 Clear 26 995 77 10000 1.4 54 20:39 17.07.2020
641 Clouds 26 995 75 10000 0.45 352 20:21 17.07.2020
642 Clouds 26 994 75 10000 0.89 354 19:45 17.07.2020
643 Clouds 26 994 75 10000 1.34 359 19:26 17.07.2020
644 Clouds 26 994 73 10000 0.45 10 18:56 17.07.2020
645 Clouds 27 994 69 10000 2.34 31 18:38 17.07.2020
646 Clouds 27 994 65 10000 1.34 13 18:20 17.07.2020
647 Clouds 27 994 66 10000 0.89 1 17:42 17.07.2020
648 Clouds 27 994 70 10000 0.89 355 17:24 17.07.2020
649 Clouds 27 994 67 10000 0.45 342 16:44 17.07.2020
650 Clouds 27 1011 65 10000 4.1 360 16:21 17.07.2020
651 Clouds 27 995 76 10000 3.03 17 15:44 17.07.2020
652 Clouds 27 995 79 10000 0.89 6 15:22 17.07.2020
653 Clouds 27 995 76 10000 0.45 8 14:57 17.07.2020
654 Clouds 27 995 74 10000 0.45 353 14:37 17.07.2020
655 Clouds 27 995 74 10000 0.89 349 14:19 17.07.2020
656 Clouds 26 995 74 10000 0.45 356 13:41 17.07.2020
657 Clouds 27 995 74 10000 1.79 8 13:20 17.07.2020
658 Clouds 27 995 73 10000 1.34 20 12:57 17.07.2020
659 Clouds 27 995 72 10000 1.34 11 12:38 17.07.2020
660 Clear 27 995 71 10000 0.45 16 12:20 17.07.2020
661 Clear 28 995 69 10000 0.89 6 11:45 17.07.2020
662 Clear 28 995 66 10000 0.89 14 11:22 17.07.2020
663 Clear 28 995 63 10000 1.34 14 10:59 17.07.2020
664 Clear 28 995 66 10000 0.45 327 10:41 17.07.2020
665 Clear 28 995 68 10000 0.21 329 10:22 17.07.2020
666 Clear 27 995 66 10000 0.45 333 09:57 17.07.2020
667 Clear 27 995 65 10000 0.21 329 09:38 17.07.2020
668 Clouds 26 1012 65 10000 4.6 220 09:19 17.07.2020
669 Clouds 26 1012 61 10000 3.1 210 08:46 17.07.2020
670 Clouds 25 1012 61 10000 3.1 210 08:28 17.07.2020
671 Clear 25 995 77 10000 0.35 233 07:52 17.07.2020
672 Clear 24 995 79 10000 0.57 187 07:27 17.07.2020
673 Clear 23 995 80 10000 0.57 187 06:56 17.07.2020
674 Clear 22 1011 64 10000 2.1 150 06:22 17.07.2020
675 Clear 22 1012 60 10000 2.1 150 05:30 17.07.2020
676 Clear 23 1012 64 10000 1 170 02:58 17.07.2020
677 Clear 23 1013 60 10000 1.5 160 01:49 17.07.2020
678 Clear 24 1013 73 10000 3.1 40 00:52 17.07.2020
679 Clear 24 1013 69 10000 2.6 50 00:24 17.07.2020
680 Clear 24 1014 69 10000 3.1 60 23:56 16.07.2020
681 Clear 24 1014 69 10000 3.1 60 23:37 16.07.2020
682 Clear 24 1013 65 10000 3.6 50 23:18 16.07.2020
683 Clear 25 1014 65 10000 3.6 40 22:45 16.07.2020
684 Clear 25 1014 65 10000 4.1 50 22:23 16.07.2020
685 Clear 25 1014 61 10000 4.1 50 21:56 16.07.2020
686 Clear 25 1014 61 10000 4.1 50 21:38 16.07.2020
687 Rain 25 1014 61 10000 4.1 50 21:19 16.07.2020
688 Rain 26 1014 65 10000 4.1 40 20:58 16.07.2020
689 Rain 26 1014 65 10000 4.1 40 20:39 16.07.2020
690 Clear 27 997 73 10000 1.67 46 20:21 16.07.2020
691 Clouds 27 1014 65 10000 4.1 30 19:48 16.07.2020
692 Clouds 27 1014 65 10000 4.1 30 19:30 16.07.2020
693 Clouds 28 1014 65 10000 4.1 20 18:57 16.07.2020
694 Clouds 28 1014 65 10000 4.1 20 18:39 16.07.2020
695 Clouds 28 1014 65 10000 4.1 20 18:20 16.07.2020
696 Clouds 28 1014 65 10000 4.1 20 17:40 16.07.2020
697 Clouds 28 1014 65 10000 4.1 20 17:19 16.07.2020
698 Clouds 28 1014 65 10000 4.1 10 16:58 16.07.2020
699 Clouds 28 1014 65 10000 4.1 10 16:39 16.07.2020
700 Clouds 28 1014 65 10000 4.1 10 16:21 16.07.2020
701 Clouds 28 1014 69 10000 4.1 360 15:47 16.07.2020
702 Clouds 28 1014 69 10000 4.1 360 15:27 16.07.2020
703 Clouds 28 1015 65 10000 4.1 360 14:59 16.07.2020
704 Clouds 28 1015 69 10000 4.1 350 14:38 16.07.2020
705 Clear 28 1015 69 10000 3.6 350 14:20 16.07.2020
706 Clear 29 1015 61 10000 3.6 350 13:58 16.07.2020
707 Clear 29 998 64 10000 3.03 12 13:37 16.07.2020
708 Clear 28 1015 69 10000 3.6 340 13:19 16.07.2020
709 Clear 29 999 65 0 2.86 4 12:42 16.07.2020
710 Clouds 28 1016 69 10000 3.1 320 12:21 16.07.2020
711 Clouds 28 1016 69 10000 2.6 330 11:57 16.07.2020
712 Clouds 28 1016 69 10000 2.6 330 11:36 16.07.2020
713 Clouds 28 1015 65 10000 2.1 310 11:18 16.07.2020
714 Clouds 28 1015 65 10000 2.1 310 11:18 16.07.2020
715 Clear 27 1015 69 10000 2.1 300 10:42 16.07.2020
716 Clear 27 1015 69 10000 2.1 260 10:21 16.07.2020
717 Clear 27 1015 69 10000 2.1 260 09:59 16.07.2020
718 Clear 27 1015 69 10000 2.1 250 09:59 16.07.2020
719 Clear 26 1015 69 10000 2.1 250 09:41 16.07.2020
720 Clear 24 1015 65 10000 2.1 220 09:22 16.07.2020
721 Clear 23 1015 73 10000 2.1 230 08:42 16.07.2020
722 Clear 24 1015 69 10000 1.5 170 08:24 16.07.2020
723 Clear 23 999 99 0 0.62 245 07:48 16.07.2020
724 Clear 23 999 99 0 0.62 245 07:48 16.07.2020
725 Clear 23 998 99 0 1.17 232 07:26 16.07.2020
726 Clear 22 998 99 0 1.17 232 06:57 16.07.2020
727 Clear 22 998 99 0 1.17 232 06:38 16.07.2020
728 Clear 21 998 99 0 1.36 245 06:18 16.07.2020
729 Clear 21 998 99 0 1.36 245 06:18 16.07.2020
730 Clear 21 998 99 0 1.36 245 05:34 16.07.2020
731 Clear 22 1014 83 10000 2.1 170 04:26 16.07.2020
732 Clear 22 1015 83 10000 2.6 160 03:40 16.07.2020
733 Clear 22 1015 78 10000 2.1 150 03:22 16.07.2020
734 Clear 22 1015 83 10000 1.5 170 02:30 16.07.2020
735 Clear 21 1015 78 10000 2.6 160 01:52 16.07.2020
736 Clear 21 1015 78 10000 2.1 170 01:21 16.07.2020
737 Clear 22 1015 78 10000 2.1 160 00:39 16.07.2020
738 Clear 21 1015 78 10000 1.5 200 23:58 15.07.2020
739 Clear 22 1015 78 10000 1.5 200 23:40 15.07.2020
740 Clear 22 1015 78 10000 1.5 200 23:40 15.07.2020
741 Clear 22 999 99 0 0.93 280 23:22 15.07.2020
742 Clear 21 999 99 0 0.93 280 22:58 15.07.2020
743 Clear 22 999 99 0 0.93 280 22:38 15.07.2020
744 Clear 22 999 99 0 0.44 254 22:19 15.07.2020
745 Clear 22 999 99 0 0.44 254 21:55 15.07.2020
746 Clear 22 999 99 0 0.44 254 21:37 15.07.2020
747 Clear 22 998 99 0 0.61 293 21:19 15.07.2020
748 Clear 23 1014 73 10000 0.5 0 20:57 15.07.2020
749 Clouds 23 1014 74 10000 1.5 310 20:37 15.07.2020
750 Clouds 23 1014 78 10000 2.1 290 20:18 15.07.2020
751 Clouds 23 1014 78 10000 3.6 290 19:55 15.07.2020
752 Rain 22 1014 78 10000 3.6 290 19:37 15.07.2020
753 Rain 22 1015 78 10000 4.6 290 19:19 15.07.2020
754 Rain 22 1015 74 10000 6.2 280 18:44 15.07.2020
755 Rain 25 1015 78 10000 8.2 300 18:25 15.07.2020
756 Clouds 25 1014 78 10000 7.2 300 17:58 15.07.2020
757 Clouds 25 1014 78 10000 7.2 300 17:39 15.07.2020
758 Rain 23 999 99 0 4.39 315 17:20 15.07.2020
759 Rain 24 998 99 0 4.39 315 16:57 15.07.2020
760 Rain 25 998 92 0 0.89 329 16:38 15.07.2020
761 Rain 27 998 84 0 4.71 311 16:20 15.07.2020
762 Rain 28 997 71 0 0.89 338 15:42 15.07.2020
763 Clouds 28 1015 65 10000 4.1 340 15:23 15.07.2020
764 Clouds 27 1015 65 10000 4.1 340 14:58 15.07.2020
765 Clouds 27 1015 65 10000 4.1 340 14:58 15.07.2020
766 Rain 29 1014 65 10000 3.1 360 14:39 15.07.2020
767 Rain 29 1014 65 10000 3.6 360 14:39 15.07.2020
768 Rain 29 1014 65 10000 3.1 360 14:19 15.07.2020
769 Rain 28 998 64 0 0.45 358 13:43 15.07.2020
770 Rain 28 998 64 0 0.45 358 13:43 15.07.2020
771 Clouds 28 998 64 0 2.41 310 13:25 15.07.2020
772 Clouds 28 998 64 0 2.41 310 12:58 15.07.2020
773 Clouds 28 998 65 0 0.45 355 12:39 15.07.2020
774 Clouds 28 998 65 0 0.89 344 12:20 15.07.2020
775 Clouds 29 998 64 0 1.34 354 11:54 15.07.2020
776 Clouds 28 998 63 0 1.34 2 11:36 15.07.2020
777 Clouds 29 998 65 0 0.89 349 11:18 15.07.2020
778 Clouds 29 998 66 0 1.34 353 10:41 15.07.2020
779 Clouds 28 998 65 0 0.45 344 10:23 15.07.2020
780 Clouds 28 998 67 0 0.37 95 09:55 15.07.2020
781 Clear 28 998 66 0 0.53 117 09:36 15.07.2020
782 Clear 26 1014 74 10000 3.6 250 09:18 15.07.2020
783 Clear 26 1014 69 10000 3.1 230 08:42 15.07.2020
784 Clear 24 1014 69 10000 2.1 200 08:24 15.07.2020
785 Clear 25 1014 73 10000 1.5 170 07:45 15.07.2020
786 Clear 25 998 86 0 0.85 131 07:25 15.07.2020
787 Clear 24 997 87 0 0.85 131 06:42 15.07.2020
788 Clear 23 1013 78 10000 2.1 150 05:55 15.07.2020
789 Clear 23 1013 78 10000 2.1 150 05:27 15.07.2020
790 Clear 24 1013 73 10000 1.5 140 04:29 15.07.2020
791 Clear 24 1013 78 10000 2.1 160 03:37 15.07.2020
792 Clear 25 1013 73 10000 1.5 130 01:53 15.07.2020
793 Clear 25 1013 73 10000 1 100 01:28 15.07.2020
794 Clear 25 1013 74 10000 1 80 00:52 15.07.2020
795 Clear 25 1013 73 10000 2.1 50 00:28 15.07.2020
796 Clear 25 1013 74 10000 2.6 70 23:47 14.07.2020
797 Clear 25 1013 74 10000 3.1 70 23:28 14.07.2020
798 Clear 25 1013 74 10000 2.6 70 23:28 14.07.2020
799 Clear 25 1013 74 10000 3.1 60 22:55 14.07.2020
800 Clear 26 1013 74 10000 3.1 60 22:37 14.07.2020
801 Clear 26 1013 74 10000 2.6 50 22:18 14.07.2020
802 Clear 26 1013 74 10000 2.6 50 21:54 14.07.2020
803 Clear 26 1013 74 10000 2.6 50 21:36 14.07.2020
804 Clear 26 1012 69 10000 3.1 30 21:18 14.07.2020
805 Clear 27 1012 69 10000 2.6 20 20:41 14.07.2020
806 Clear 27 996 77 0 0.89 14 20:20 14.07.2020
807 Clear 27 996 72 0 1.34 14 19:55 14.07.2020
808 Clear 27 995 71 0 1.34 355 19:37 14.07.2020
809 Clear 27 996 70 0 1.79 357 19:18 14.07.2020
810 Clear 28 995 68 0 1.34 344 18:41 14.07.2020
811 Clear 28 1012 74 10000 2.6 330 18:19 14.07.2020
812 Clear 28 1012 65 10000 2.6 310 17:56 14.07.2020
813 Clear 28 1012 65 10000 2.6 310 17:56 14.07.2020
814 Clear 28 1012 65 10000 2.6 310 17:37 14.07.2020
815 Clear 28 1012 69 10000 3.6 310 17:19 14.07.2020
816 Clear 28 1012 65 10000 2.1 300 16:44 14.07.2020
817 Clear 29 1012 65 10000 3.1 310 16:26 14.07.2020
818 Clouds 29 1012 65 10000 2.6 330 15:59 14.07.2020
819 Clouds 29 1012 65 10000 2.6 330 15:39 14.07.2020
820 Clear 30 995 58 0 1.79 350 15:21 14.07.2020
821 Clear 29 995 61 0 1.79 15 14:46 14.07.2020
822 Rain 29 995 60 0 1.34 358 14:28 14.07.2020
823 Rain 29 996 59 0 1.34 352 13:56 14.07.2020
824 Rain 29 995 60 0 1.34 12 13:37 14.07.2020
825 Rain 29 995 60 0 1.34 12 13:37 14.07.2020
826 Rain 29 995 60 0 1.34 12 13:37 14.07.2020
827 Clear 29 995 58 0 2.24 1 13:19 14.07.2020
828 Clear 29 996 60 0 2.24 347 12:40 14.07.2020
829 Clear 29 996 59 0 2.68 7 12:21 14.07.2020
830 Clear 29 996 60 0 2.24 4 11:58 14.07.2020
831 Clear 29 996 60 0 1.34 1 11:38 14.07.2020
832 Clear 28 996 62 0 1.34 322 11:18 14.07.2020
833 Clear 28 996 65 0 0.89 1 10:42 14.07.2020
834 Clear 28 996 67 0 0.89 14 10:24 14.07.2020
835 Clear 28 996 68 0 1.34 5 09:42 14.07.2020
836 Clouds 27 1012 78 10000 2.1 250 09:23 14.07.2020
837 Clouds 27 1012 78 10000 2.1 250 08:58 14.07.2020
838 Clouds 27 1012 74 10000 1 0 08:40 14.07.2020
839 Clouds 27 1012 74 10000 1.5 230 08:22 14.07.2020
840 Clear 26 996 75 0 1.69 306 07:50 14.07.2020
841 Clear 25 996 76 0 1.45 289 07:20 14.07.2020
842 Clear 25 995 77 0 1.45 289 06:59 14.07.2020
843 Clouds 24 1012 83 10000 2.1 220 06:27 14.07.2020
844 Clouds 24 1012 78 10000 2.1 210 05:55 14.07.2020
845 Clouds 24 1011 78 10000 1.5 180 04:54 14.07.2020
846 Clouds 24 1011 78 10000 1.5 180 04:34 14.07.2020
847 Clear 25 1012 78 10000 1.5 80 03:33 14.07.2020
848 Clear 25 1012 78 10000 1 60 02:30 14.07.2020
849 Clear 25 1012 78 10000 2.6 70 01:45 14.07.2020
850 Clear 25 1012 83 10000 3.1 70 01:24 14.07.2020
851 Clear 25 1012 78 10000 3.6 70 00:43 14.07.2020
852 Clear 25 1012 78 10000 3.6 60 00:25 14.07.2020
853 Clear 26 1012 78 10000 3.6 70 23:39 13.07.2020
854 Clear 26 1012 78 10000 4.1 50 23:20 13.07.2020
855 Clear 26 1012 78 10000 4.1 50 22:58 13.07.2020
856 Clear 26 1013 83 10000 4.1 40 22:39 13.07.2020
857 Clear 26 1012 83 10000 5.1 40 22:19 13.07.2020
858 Clear 27 1012 83 10000 5.7 50 21:55 13.07.2020
859 Clear 27 1012 83 10000 5.7 50 21:37 13.07.2020
860 Clear 27 1011 83 10000 6.7 50 21:19 13.07.2020
861 Clear 27 1011 78 10000 7.7 50 20:55 13.07.2020
862 Clear 27 1011 78 10000 7.7 50 20:37 13.07.2020
863 Clouds 28 995 75 0 2.6 68 20:18 13.07.2020
864 Clouds 28 995 72 0 2.6 68 19:42 13.07.2020
865 Clouds 29 995 70 0 2.65 38 19:24 13.07.2020
866 Clouds 29 1011 69 10000 7.7 40 18:57 13.07.2020
867 Clouds 28 1011 69 10000 7.7 40 18:38 13.07.2020
868 Clouds 29 1011 74 10000 7.7 40 18:20 13.07.2020
869 Clouds 29 1012 74 10000 8.2 40 17:56 13.07.2020
870 Clouds 29 1012 74 10000 8.2 40 17:37 13.07.2020
871 Clouds 29 1012 69 10000 7.7 40 17:18 13.07.2020
872 Clouds 29 1012 74 10000 6.7 40 16:43 13.07.2020
873 Clouds 29 1012 69 10000 7.2 40 16:21 13.07.2020
874 Clouds 29 1012 74 10000 8.2 40 15:59 13.07.2020
875 Clouds 29 1012 74 10000 8.2 40 15:40 13.07.2020
876 Clouds 29 1012 74 10000 8.7 40 15:21 13.07.2020
877 Clouds 29 1013 69 10000 8.7 40 14:59 13.07.2020
878 Clouds 29 1013 69 10000 8.7 40 14:59 13.07.2020
879 Clouds 31 997 49 0 2.99 47 14:39 13.07.2020
880 Clouds 30 997 55 0 0.45 317 14:21 13.07.2020
881 Clouds 30 997 57 0 3.11 43 13:56 13.07.2020
882 Clouds 30 997 55 0 3.1 22 13:38 13.07.2020
883 Clouds 30 997 55 0 3.1 22 13:20 13.07.2020
884 Clouds 30 997 54 0 3.1 22 12:43 13.07.2020
885 Clouds 30 997 55 0 2.33 21 12:23 13.07.2020
886 Clouds 30 997 55 0 2.33 21 11:58 13.07.2020
887 Clouds 30 997 50 0 2.33 21 11:39 13.07.2020
888 Clouds 30 997 52 0 1.58 35 11:20 13.07.2020
889 Clouds 29 997 60 0 1.58 35 10:40 13.07.2020
890 Clear 29 997 62 0 1.24 59 10:20 13.07.2020
891 Clear 28 998 63 0 1.24 59 09:43 13.07.2020
892 Clear 27 1014 73 10000 2.1 260 09:25 13.07.2020
893 Clear 27 1014 69 10000 1.5 240 08:54 13.07.2020
894 Clear 27 998 67 0 1.93 90 08:35 13.07.2020
895 Clear 26 998 61 0 2.16 104 07:46 13.07.2020
896 Clear 25 998 67 0 1.8 123 07:20 13.07.2020
897 Clear 24 998 63 0 1.8 123 06:44 13.07.2020
898 Clear 23 1014 69 10000 0.5 0 06:24 13.07.2020
899 Clear 23 1014 78 10000 2.6 220 04:55 13.07.2020
900 Clear 24 1015 83 10000 1.5 330 01:57 13.07.2020
901 Clear 24 1015 73 10000 0.5 0 01:37 13.07.2020
902 Clear 25 1015 73 10000 2.1 230 01:19 13.07.2020
903 Clear 25 1016 69 10000 1.5 140 00:37 13.07.2020
904 Clear 25 1016 61 10000 3.6 70 00:18 13.07.2020
905 Clear 25 1015 65 10000 5.7 40 23:41 12.07.2020
906 Clear 26 1015 57 10000 5.7 50 23:22 12.07.2020
907 Clear 26 1015 65 10000 6.2 50 22:56 12.07.2020
908 Clear 26 1015 65 10000 6.2 50 22:36 12.07.2020
909 Clear 26 1015 65 10000 6.2 50 22:36 12.07.2020
910 Clear 26 1015 65 10000 6.7 60 22:18 12.07.2020
911 Clear 27 1015 69 10000 6.7 50 21:42 12.07.2020
912 Clear 27 1015 65 10000 6.7 50 21:20 12.07.2020
913 Clear 27 1015 69 10000 6.7 50 20:59 12.07.2020
914 Clear 27 1015 69 10000 6.7 50 20:41 12.07.2020
915 Clear 28 999 61 0 2.88 71 20:20 12.07.2020
916 Clear 28 999 59 0 2.88 71 19:59 12.07.2020
917 Clear 29 999 57 0 2.88 71 19:39 12.07.2020
918 Clear 29 999 55 0 3.12 58 19:20 12.07.2020
919 Clear 30 999 52 0 3.12 58 18:54 12.07.2020
920 Clear 30 1014 58 10000 8.2 50 18:36 12.07.2020
921 Clear 30 1014 58 10000 7.7 50 18:18 12.07.2020
922 Clear 30 1015 62 10000 7.7 50 17:38 12.07.2020
923 Clear 30 1015 58 10000 7.7 50 17:20 12.07.2020
924 Clear 30 1015 58 10000 7.7 50 16:48 12.07.2020
925 Clear 30 1015 65 10000 7.2 40 16:22 12.07.2020
926 Clear 30 1015 65 10000 7.2 40 15:51 12.07.2020
927 Clear 30 1016 65 10000 7.2 40 15:31 12.07.2020
928 Clear 31 1016 65 10000 7.2 40 14:58 12.07.2020
929 Clear 31 1016 69 10000 7.2 40 14:40 12.07.2020
930 Clear 31 1016 65 10000 7.7 40 14:22 12.07.2020
931 Clear 30 1016 65 10000 7.7 40 13:40 12.07.2020
932 Clear 30 1016 65 10000 7.7 40 13:21 12.07.2020
933 Clear 30 1016 65 10000 7.2 40 12:57 12.07.2020
934 Clear 30 1016 65 10000 7.2 40 12:38 12.07.2020
935 Clear 30 1016 65 10000 7.2 40 12:38 12.07.2020
936 Clear 30 1016 65 10000 6.7 40 12:18 12.07.2020
937 Clear 30 1016 61 10000 7.2 40 11:45 12.07.2020
938 Clear 30 1015 61 10000 7.2 40 11:21 12.07.2020
939 Clear 29 1016 69 10000 2.6 350 10:57 12.07.2020
940 Clear 29 1016 69 10000 2.6 350 10:39 12.07.2020
941 Clear 29 1016 74 10000 2.6 250 10:19 12.07.2020
942 Clear 28 1016 74 10000 3.6 240 09:43 12.07.2020
943 Clear 26 1016 73 10000 3.6 240 09:21 12.07.2020
944 Clear 26 1015 69 10000 2.1 0 08:55 12.07.2020
945 Clear 25 1015 69 10000 2.1 0 08:37 12.07.2020
946 Clear 26 1015 65 10000 0.5 0 08:18 12.07.2020
947 Clear 25 1015 69 10000 2.1 170 07:45 12.07.2020
948 Clear 25 1015 69 10000 0.5 0 07:27 12.07.2020
949 Clear 24 1015 73 10000 1.5 140 06:53 12.07.2020
950 Clear 23 1015 73 10000 1.5 170 06:22 12.07.2020
951 Clear 23 1014 68 10000 1.5 190 05:57 12.07.2020
952 Clear 23 1014 73 10000 0.5 0 04:57 12.07.2020
953 Clear 24 1014 73 10000 0.5 0 04:28 12.07.2020
954 Clear 24 1014 78 10000 0.5 0 03:45 12.07.2020
955 Clear 24 1014 69 10000 1 0 03:24 12.07.2020
956 Clear 25 1015 78 10000 3.1 70 01:54 12.07.2020
957 Clear 24 1015 73 10000 2.1 70 01:18 12.07.2020
958 Clear 25 1015 69 10000 2.1 80 00:39 12.07.2020
959 Clear 25 1015 69 10000 1.5 90 00:20 12.07.2020
960 Clear 25 1015 74 10000 3.1 90 23:40 11.07.2020
961 Clear 25 1015 74 10000 5.7 50 23:21 11.07.2020
962 Clear 26 1015 74 10000 5.7 50 22:57 11.07.2020
963 Clear 26 1015 69 10000 5.7 50 22:38 11.07.2020
964 Clear 26 1015 74 10000 6.7 50 22:20 11.07.2020
965 Clear 27 1014 74 10000 6.7 40 21:44 11.07.2020
966 Clear 27 1014 74 10000 6.7 40 21:25 11.07.2020
967 Clear 27 1014 69 10000 6.7 50 20:59 11.07.2020
968 Clear 27 1014 69 10000 6.7 50 20:41 11.07.2020
969 Clear 27 998 71 0 1.91 50 20:21 11.07.2020
970 Clear 28 1014 65 10000 6.7 60 19:59 11.07.2020
971 Clear 28 998 66 0 1.91 50 19:41 11.07.2020
972 Clear 29 1014 65 10000 7.2 50 19:23 11.07.2020
973 Clear 29 999 63 0 2.09 29 18:57 11.07.2020
974 Clear 27 1014 61 10000 7.2 40 18:39 11.07.2020
975 Clear 28 1014 65 10000 6.7 40 18:20 11.07.2020
976 Clear 28 1015 65 10000 6.7 30 17:56 11.07.2020
977 Clear 28 1015 65 10000 6.7 30 17:38 11.07.2020
978 Clear 28 1015 65 10000 6.2 40 17:19 11.07.2020
979 Clear 28 1015 65 10000 6.2 30 16:43 11.07.2020
980 Clear 28 1015 69 10000 6.7 30 16:24 11.07.2020
981 Clear 29 1015 65 10000 6.2 30 15:58 11.07.2020
982 Clear 29 1015 65 10000 6.2 30 15:40 11.07.2020
983 Clouds 29 1015 61 10000 6.7 40 15:20 11.07.2020
984 Clouds 30 1015 61 10000 5.7 30 14:57 11.07.2020
985 Clouds 30 1015 61 10000 5.7 30 14:37 11.07.2020
986 Clear 30 999 56 0 0.45 2 14:19 11.07.2020
987 Clouds 29 1016 74 10000 4.1 10 13:42 11.07.2020
988 Clouds 29 1016 74 10000 4.6 20 13:22 11.07.2020
989 Clouds 29 1016 78 10000 4.1 20 12:57 11.07.2020
990 Clouds 29 1016 78 10000 4.1 20 12:39 11.07.2020
991 Clouds 29 1016 74 10000 3.6 10 12:20 11.07.2020
992 Clouds 29 1016 74 10000 3.1 350 11:42 11.07.2020
993 Clear 29 999 73 0 1.72 2 11:21 11.07.2020
994 Clear 29 999 74 0 1.72 2 10:57 11.07.2020
995 Clear 28 1016 78 10000 2.1 310 10:39 11.07.2020
996 Clear 28 1016 74 10000 2.6 250 10:21 11.07.2020
997 Clouds 27 1016 73 10000 2.6 250 09:43 11.07.2020
998 Clear 27 999 77 0 1.07 355 09:20 11.07.2020
999 Clear 26 999 80 0 1.07 355 08:49 11.07.2020
1000 Clear 26 1015 73 10000 1.5 260 08:31 11.07.2020
1001 Clear 25 1015 73 10000 1.5 260 07:59 11.07.2020
1002 Clear 26 999 78 0 0.89 312 07:40 11.07.2020
1003 Clear 24 999 77 0 0.62 267 07:19 11.07.2020
1004 Clear 24 999 76 0 0.62 267 06:46 11.07.2020
1005 Clear 23 1015 78 10000 1.5 160 06:18 11.07.2020
1006 Clouds 23 1014 78 10000 1.5 140 05:20 11.07.2020
1007 Clear 24 1015 78 10000 0.5 0 04:54 11.07.2020
1008 Clear 24 1015 78 10000 0.5 0 04:31 11.07.2020
1009 Clear 24 1015 73 10000 1 170 02:58 11.07.2020
1010 Clear 24 1015 73 10000 1 170 02:36 11.07.2020
1011 Clear 25 1015 69 10000 1 190 01:27 11.07.2020
1012 Clear 25 1015 69 10000 0.5 200 00:59 11.07.2020
1013 Clear 25 1015 69 10000 0.5 200 00:38 11.07.2020
1014 Clear 25 1015 74 10000 1 0 00:19 11.07.2020
1015 Clear 25 1015 74 10000 2.1 90 23:56 10.07.2020
1016 Clear 25 1015 74 10000 2.1 90 23:38 10.07.2020
1017 Clear 25 1015 74 10000 3.1 70 23:18 10.07.2020
1018 Clear 26 1015 74 10000 4.6 60 22:42 10.07.2020
1019 Clear 26 1015 74 10000 5.1 50 22:19 10.07.2020
1020 Clear 26 1014 74 10000 6.7 60 21:41 10.07.2020
1021 Clear 26 1014 69 10000 6.7 50 21:21 10.07.2020
1022 Clouds 27 1014 69 10000 5.7 60 20:59 10.07.2020
1023 Clouds 27 1014 69 10000 5.7 60 20:41 10.07.2020
1024 Clouds 27 998 76 0 2.36 65 20:21 10.07.2020
1025 Clouds 27 998 73 0 2.36 65 19:57 10.07.2020
1026 Clouds 27 1014 74 10000 5.7 40 19:39 10.07.2020
1027 Clouds 28 998 69 0 2.7 49 19:20 10.07.2020
1028 Clouds 26 1014 69 10000 5.1 40 18:41 10.07.2020
1029 Clouds 28 1014 74 10000 5.7 40 18:20 10.07.2020
1030 Clouds 28 1015 74 10000 5.7 30 17:58 10.07.2020
1031 Clouds 29 1015 74 10000 5.7 30 17:39 10.07.2020
1032 Clouds 29 1015 69 10000 5.1 30 17:20 10.07.2020
1033 Clouds 29 1015 69 10000 5.1 30 16:43 10.07.2020
1034 Clouds 29 1015 69 10000 5.1 30 16:21 10.07.2020
1035 Clouds 29 1015 74 10000 5.7 20 15:48 10.07.2020
1036 Clouds 29 1015 74 10000 5.7 20 15:26 10.07.2020
1037 Clouds 28 1015 74 10000 5.7 30 14:59 10.07.2020
1038 Clouds 29 1015 74 10000 5.7 30 14:40 10.07.2020
1039 Clouds 30 1015 74 10000 6.7 40 14:20 10.07.2020
1040 Clouds 30 1015 74 10000 6.7 40 14:20 10.07.2020
1041 Clouds 30 1015 74 10000 6.7 30 13:57 10.07.2020
1042 Clouds 30 1015 74 10000 6.7 30 13:38 10.07.2020
1043 Clouds 30 1015 78 10000 6.7 40 13:20 10.07.2020
1044 Clouds 29 1015 78 10000 6.2 30 12:56 10.07.2020
1045 Clouds 29 1015 78 10000 6.2 30 12:37 10.07.2020
1046 Clouds 29 1015 78 10000 6.2 40 12:19 10.07.2020
1047 Clouds 29 1015 78 10000 5.1 40 11:39 10.07.2020
1048 Clouds 29 1015 78 10000 5.1 40 11:20 10.07.2020
1049 Clouds 28 1015 78 10000 4.6 30 10:56 10.07.2020
1050 Clear 28 1015 78 10000 4.6 40 10:38 10.07.2020
1051 Clear 28 1015 78 10000 4.6 40 10:18 10.07.2020
1052 Clear 27 1015 83 10000 4.6 40 09:40 10.07.2020
1053 Clear 26 1015 74 10000 1.5 0 09:22 10.07.2020
1054 Clear 27 1015 78 10000 4.1 60 08:58 10.07.2020
1055 Clear 26 1015 78 10000 4.1 60 08:40 10.07.2020
1056 Clear 26 1015 78 10000 4.6 60 08:22 10.07.2020
1057 Clear 26 1015 78 10000 3.6 70 07:44 10.07.2020
1058 Clouds 25 1015 83 10000 3.1 70 07:23 10.07.2020
1059 Clouds 25 1015 78 10000 3.6 70 06:54 10.07.2020
1060 Clouds 25 1015 78 10000 3.6 70 06:54 10.07.2020
1061 Clouds 25 1015 78 10000 3.6 70 06:35 10.07.2020
1062 Clear 23 1015 83 10000 2.6 80 05:27 10.07.2020
1063 Clear 24 1015 78 10000 1.5 90 03:44 10.07.2020
1064 Clear 24 1015 78 10000 3.1 80 02:53 10.07.2020
1065 Clear 25 1015 74 10000 3.6 50 01:57 10.07.2020
1066 Clear 25 1016 74 10000 4.6 50 00:54 10.07.2020
1067 Clear 25 1016 78 10000 4.6 60 00:22 10.07.2020
1068 Clear 25 1014 78 10000 3.6 70 23:56 09.07.2020
1069 Clear 25 1014 78 10000 3.6 70 23:37 09.07.2020
1070 Clear 25 1016 78 10000 4.6 60 23:19 09.07.2020
1071 Clouds 26 1015 83 10000 5.7 50 22:56 09.07.2020
1072 Clouds 26 1015 83 10000 5.7 50 22:38 09.07.2020
1073 Clouds 26 1015 78 10000 6.2 50 22:19 09.07.2020
1074 Clouds 26 1015 78 10000 6.7 50 21:54 09.07.2020
1075 Clouds 26 1015 78 10000 6.7 50 21:36 09.07.2020
1076 Clouds 26 1015 78 10000 6.7 50 21:18 09.07.2020
1077 Clouds 27 1015 78 10000 6.7 50 20:41 09.07.2020
1078 Clouds 27 1015 74 10000 6.7 50 20:22 09.07.2020
1079 Clouds 27 1015 78 10000 6.7 40 19:43 09.07.2020
1080 Clouds 28 999 72 0 3.09 45 19:22 09.07.2020
1081 Clouds 28 999 71 0 3.09 45 18:58 09.07.2020
1082 Clouds 28 999 70 0 3.09 45 18:40 09.07.2020
1083 Clouds 28 999 67 0 3.31 33 18:19 09.07.2020
1084 Clouds 28 999 64 0 3.31 33 17:43 09.07.2020
1085 Clouds 28 999 66 0 3.29 29 17:23 09.07.2020
1086 Clouds 29 999 64 0 3.29 29 16:58 09.07.2020
1087 Clouds 29 999 63 0 3.29 29 16:38 09.07.2020
1088 Clouds 28 1016 78 10000 7.7 30 16:19 09.07.2020
1089 Clouds 28 1016 78 10000 7.2 30 15:59 09.07.2020
1090 Clouds 29 1016 78 10000 7.2 30 15:38 09.07.2020
1091 Clouds 28 1016 78 10000 7.2 30 15:20 09.07.2020
1092 Clouds 28 1016 78 10000 6.7 20 14:58 09.07.2020
1093 Clouds 28 1016 78 10000 6.7 20 14:40 09.07.2020
1094 Clouds 28 1016 83 10000 5.7 20 14:20 09.07.2020
1095 Clouds 28 1016 83 10000 5.1 20 13:56 09.07.2020
1096 Clouds 28 1016 83 10000 5.1 20 13:56 09.07.2020
1097 Clouds 28 1016 83 10000 5.1 20 13:38 09.07.2020
1098 Clouds 28 1016 78 10000 4.6 10 13:19 09.07.2020
1099 Clouds 27 1017 78 10000 4.1 360 12:42 09.07.2020
1100 Clouds 28 1017 74 10000 3.6 340 12:23 09.07.2020
1101 Clear 28 1000 63 0 2.42 7 11:58 09.07.2020
1102 Clear 28 1000 65 0 2.42 7 11:40 09.07.2020
1103 Clear 27 1000 71 0 1.73 360 11:19 09.07.2020
1104 Clear 27 1000 73 0 1.34 344 10:56 09.07.2020
1105 Clear 27 1000 75 0 1.34 344 10:38 09.07.2020
1106 Clear 26 1000 77 0 1.45 345 10:20 09.07.2020
1107 Clear 26 1000 79 0 0.89 352 09:43 09.07.2020
1108 Clouds 25 1017 78 10000 1.5 250 09:23 09.07.2020
1109 Clouds 25 1017 78 10000 2.6 220 08:52 09.07.2020
1110 Clear 26 1000 88 0 1.34 350 08:27 09.07.2020
1111 Clear 25 1000 92 0 1.55 297 07:58 09.07.2020
1112 Clear 25 1000 91 0 1.55 297 07:40 09.07.2020
1113 Clear 25 1000 88 0 0.45 352 07:21 09.07.2020
1114 Clear 25 1000 88 0 0.45 352 07:21 09.07.2020
1115 Clouds 24 1016 78 10000 3.1 230 06:21 09.07.2020
1116 Clouds 24 1016 83 10000 3.6 240 05:57 09.07.2020
1117 Clouds 24 1016 83 10000 4.1 300 04:29 09.07.2020
1118 Clear 24 1016 88 10000 3.6 300 03:24 09.07.2020
1119 Clear 24 1016 88 10000 3.1 310 01:58 09.07.2020
1120 Clear 24 1016 88 10000 3.1 310 01:21 09.07.2020
1121 Clouds 24 1016 88 10000 3.1 310 00:41 09.07.2020
1122 Clear 24 1016 88 10000 3.1 300 00:23 09.07.2020
1123 Clear 25 1016 83 10000 2.6 280 23:44 08.07.2020
1124 Clear 25 1015 83 10000 1.5 300 23:25 08.07.2020
1125 Clear 25 1015 83 10000 1.5 10 22:57 08.07.2020
1126 Clear 25 1015 83 10000 1.5 10 22:38 08.07.2020
1127 Clear 25 1015 83 10000 1.5 10 22:38 08.07.2020
1128 Clear 25 1015 83 10000 2.6 30 22:20 08.07.2020
1129 Clouds 25 1015 78 10000 3.1 40 21:57 08.07.2020
1130 Clouds 25 1015 78 10000 3.1 40 21:38 08.07.2020
1131 Clear 26 999 76 0 0.45 353 21:20 08.07.2020
1132 Clear 26 998 75 0 1.13 85 20:43 08.07.2020
1133 Clear 27 998 73 0 0.89 3 20:25 08.07.2020
1134 Clouds 26 1015 83 10000 4.1 30 19:58 08.07.2020
1135 Clouds 26 1014 78 10000 4.1 30 19:39 08.07.2020
1136 Clouds 27 1014 78 10000 4.6 30 19:21 08.07.2020
1137 Clouds 27 1014 78 10000 4.1 30 18:55 08.07.2020
1138 Clouds 27 1014 78 10000 4.1 30 18:55 08.07.2020
1139 Clouds 27 1014 78 10000 4.1 30 18:36 08.07.2020
1140 Clouds 28 1014 78 10000 4.1 30 18:18 08.07.2020
1141 Clouds 28 1014 78 10000 4.1 30 18:18 08.07.2020
1142 Clouds 28 1015 78 10000 4.6 30 17:54 08.07.2020
1143 Clouds 28 1015 78 10000 4.6 30 17:36 08.07.2020
1144 Clouds 28 1015 78 10000 4.6 30 17:18 08.07.2020
1145 Clouds 28 1015 74 10000 4.6 30 16:38 08.07.2020
1146 Clouds 28 1015 74 10000 5.1 30 16:20 08.07.2020
1147 Clouds 28 1014 69 10000 5.7 30 15:58 08.07.2020
1148 Clouds 28 1014 69 10000 5.7 30 15:39 08.07.2020
1149 Clouds 30 1014 74 10000 5.7 30 15:19 08.07.2020
1150 Clear 29 1014 78 10000 5.7 40 14:46 08.07.2020
1151 Clear 29 1014 78 10000 5.7 40 14:28 08.07.2020
1152 Clear 29 1014 78 10000 5.7 40 13:58 08.07.2020
1153 Clear 29 1014 78 10000 5.7 40 13:40 08.07.2020
1154 Clear 29 1014 78 10000 5.7 30 13:20 08.07.2020
1155 Clear 28 1014 69 10000 5.1 30 12:43 08.07.2020
1156 Clear 29 1014 74 10000 4.1 30 12:21 08.07.2020
1157 Clear 29 1014 69 10000 2.1 360 11:56 08.07.2020
1158 Clear 29 1014 69 10000 2.1 360 11:38 08.07.2020
1159 Clear 29 1014 74 10000 2.6 310 11:20 08.07.2020
1160 Clear 28 1014 78 10000 2.6 310 10:44 08.07.2020
1161 Clear 27 1014 78 10000 2.1 320 10:25 08.07.2020
1162 Clear 27 1014 74 10000 1.5 320 09:46 08.07.2020
1163 Clear 26 1013 83 10000 2.1 260 09:26 08.07.2020
1164 Clear 25 1013 78 10000 1.5 260 08:58 08.07.2020
1165 Clear 25 1013 78 10000 1.5 260 08:39 08.07.2020
1166 Clear 25 1013 78 10000 2.1 220 08:20 08.07.2020
1167 Clear 24 1013 83 10000 1.5 220 07:44 08.07.2020
1168 Clear 24 1013 83 10000 0.5 0 07:22 08.07.2020
1169 Clear 23 1012 83 10000 2.6 210 06:52 08.07.2020
1170 Clear 23 1012 83 10000 2.6 210 06:31 08.07.2020
1171 Clear 23 1012 83 10000 3.1 210 05:49 08.07.2020
1172 Clear 23 1012 83 10000 1 0 04:50 08.07.2020
1173 Clear 23 1012 78 10000 1 0 04:20 08.07.2020
1174 Clear 23 1012 83 10000 1 0 02:20 08.07.2020
1175 Clear 24 1012 78 10000 1 210 01:39 08.07.2020
1176 Clear 24 1012 78 10000 1 0 00:56 08.07.2020
1177 Clear 24 1012 73 10000 1 230 00:22 08.07.2020
1178 Clear 25 1012 73 10000 1.5 90 23:44 07.07.2020
1179 Clear 25 1011 74 10000 4.1 50 23:22 07.07.2020
1180 Clear 25 1011 74 10000 4.1 50 23:22 07.07.2020
1181 Clear 25 1011 74 10000 4.1 50 22:58 07.07.2020
1182 Clear 25 1011 74 10000 5.1 60 22:39 07.07.2020
1183 Clear 25 1011 74 10000 5.1 60 22:20 07.07.2020
1184 Clear 25 1011 74 10000 5.7 50 21:58 07.07.2020
1185 Clear 25 1011 74 10000 5.7 50 21:38 07.07.2020
1186 Clear 26 1011 74 10000 6.7 50 21:19 07.07.2020
1187 Clear 26 1011 74 10000 7.2 50 20:56 07.07.2020
1188 Clear 26 1011 74 10000 7.2 50 20:37 07.07.2020
1189 Clear 26 1011 74 10000 7.7 40 20:19 07.07.2020
1190 Clear 27 1010 74 10000 7.2 40 19:39 07.07.2020
1191 Clear 27 1010 74 10000 6.7 40 19:20 07.07.2020
1192 Clear 26 1010 78 10000 6.7 30 18:55 07.07.2020
1193 Clear 27 1010 78 10000 6.7 30 18:37 07.07.2020
1194 Clear 27 1010 78 10000 6.2 30 18:19 07.07.2020
1195 Clear 28 1010 74 10000 6.2 30 17:56 07.07.2020
1196 Clear 28 1010 74 10000 6.2 30 17:37 07.07.2020
1197 Clear 27 1010 78 10000 5.7 30 17:19 07.07.2020
1198 Clear 29 1010 69 10000 5.7 20 16:42 07.07.2020
1199 Clear 28 1010 74 10000 5.1 20 16:23 07.07.2020
1200 Clear 28 1010 74 10000 5.1 20 16:23 07.07.2020
1201 Clear 28 1010 74 10000 5.1 20 15:56 07.07.2020
1202 Clear 28 1010 74 10000 5.1 20 15:37 07.07.2020
1203 Clear 28 1010 74 10000 5.1 20 15:37 07.07.2020
1204 Clear 29 1010 74 10000 4.6 20 15:19 07.07.2020
1205 Clear 29 1010 74 10000 4.6 20 14:46 07.07.2020
1206 Clear 29 1010 74 10000 4.1 10 14:25 07.07.2020
1207 Clear 28 1010 69 10000 4.1 20 13:46 07.07.2020
1208 Clear 28 1010 69 10000 4.1 10 13:22 07.07.2020
1209 Clear 28 1010 69 10000 4.1 10 12:58 07.07.2020
1210 Clear 28 1010 69 10000 5.1 20 12:40 07.07.2020
1211 Clear 28 1010 69 10000 4.1 10 12:21 07.07.2020
1212 Clear 27 1009 65 10000 2.6 350 11:48 07.07.2020
1213 Clear 27 1009 65 10000 2.6 340 11:24 07.07.2020
1214 Clear 26 1009 65 10000 2.6 300 10:59 07.07.2020
1215 Clear 26 1009 65 10000 2.6 300 10:41 07.07.2020
1216 Clear 25 1009 69 10000 2.6 280 10:21 07.07.2020
1217 Clear 25 1009 65 10000 2.1 260 09:55 07.07.2020
1218 Clear 25 1009 65 10000 2.1 260 09:37 07.07.2020
1219 Clear 24 1008 61 10000 1.5 270 09:18 07.07.2020
1220 Clear 23 1008 64 10000 2.1 250 08:40 07.07.2020
1221 Clear 24 1008 69 10000 1.5 260 08:21 07.07.2020
1222 Clear 23 1008 69 10000 0.5 0 07:41 07.07.2020
1223 Clear 24 1008 73 10000 2.1 220 07:21 07.07.2020
1224 Clear 21 1007 69 10000 4.1 200 06:49 07.07.2020
1225 Clear 20 1007 69 10000 4.1 200 06:28 07.07.2020
1226 Clear 20 1007 68 10000 3.1 190 05:51 07.07.2020
1227 Clear 21 1007 69 10000 3.6 200 05:21 07.07.2020
1228 Clear 20 1008 69 10000 4.6 210 04:38 07.07.2020
1229 Clear 21 1008 69 10000 3.1 210 03:35 07.07.2020
1230 Clear 24 1008 64 10000 2.1 190 02:21 07.07.2020
1231 Clear 24 1008 83 10000 4.1 210 01:22 07.07.2020
1232 Clear 24 1009 83 10000 3.6 210 00:42 07.07.2020
1233 Clear 24 1009 83 10000 3.1 230 00:23 07.07.2020
1234 Clear 24 1009 83 10000 3.6 240 23:46 06.07.2020
1235 Clouds 24 1009 78 10000 3.1 240 23:26 06.07.2020
1236 Clouds 24 1009 78 10000 3.6 250 22:59 06.07.2020
1237 Clouds 24 1009 78 10000 3.6 250 22:40 06.07.2020
1238 Clouds 25 1009 78 10000 3.6 270 22:19 06.07.2020
1239 Clouds 25 1009 78 10000 3.6 270 21:57 06.07.2020
1240 Clouds 23 1009 73 10000 3.6 260 21:38 06.07.2020
1241 Clouds 25 1009 78 10000 3.1 260 21:19 06.07.2020
1242 Clouds 25 1009 73 10000 3.1 270 20:59 06.07.2020
1243 Clouds 25 1009 73 10000 3.1 270 20:37 06.07.2020
1244 Clouds 26 1009 74 10000 3.6 270 20:19 06.07.2020
1245 Clouds 26 1009 74 10000 3.6 280 19:56 06.07.2020
1246 Clouds 26 1009 74 10000 3.6 280 19:37 06.07.2020
1247 Clouds 26 1009 78 10000 4.1 280 19:19 06.07.2020
1248 Clouds 26 1009 74 10000 4.1 290 18:41 06.07.2020
1249 Clear 29 991 52 0 1.34 321 18:23 06.07.2020
1250 Clouds 27 1009 74 10000 5.1 290 17:59 06.07.2020
1251 Clouds 28 1009 74 10000 5.1 290 17:41 06.07.2020
1252 Clouds 28 1009 74 10000 5.1 290 17:41 06.07.2020
1253 Clouds 29 1009 78 10000 4.6 290 17:21 06.07.2020
1254 Clouds 28 1009 78 10000 4.1 280 16:55 06.07.2020
1255 Clouds 27 1009 78 10000 4.1 280 16:37 06.07.2020
1256 Clouds 29 1009 78 10000 4.1 280 16:18 06.07.2020
1257 Clouds 29 1009 78 10000 4.1 280 16:18 06.07.2020
1258 Clouds 28 1010 74 10000 3.6 280 15:42 06.07.2020
1259 Clouds 28 1010 74 10000 4.1 290 15:24 06.07.2020
1260 Clear 29 992 51 0 2.24 339 14:56 06.07.2020
1261 Clouds 28 1010 74 10000 4.6 280 14:37 06.07.2020
1262 Clear 28 1010 78 10000 6.2 290 14:19 06.07.2020
1263 Clear 28 1010 69 10000 4.1 270 13:48 06.07.2020
1264 Clear 28 1010 74 10000 5.7 290 13:28 06.07.2020
1265 Clear 28 1010 74 10000 5.7 290 12:58 06.07.2020
1266 Clear 28 1010 74 10000 5.7 290 12:39 06.07.2020
1267 Clear 28 1010 78 10000 4.6 290 12:18 06.07.2020
1268 Clear 28 1010 78 10000 4.1 280 11:57 06.07.2020
1269 Clear 28 1010 78 10000 4.1 280 11:37 06.07.2020
1270 Clouds 28 1010 74 10000 3.6 280 11:19 06.07.2020
1271 Clouds 28 1010 78 10000 3.6 270 10:42 06.07.2020
1272 Clear 28 1010 78 10000 3.1 260 10:22 06.07.2020
1273 Clear 27 1010 73 10000 2.6 250 09:58 06.07.2020
1274 Clear 27 1010 73 10000 2.6 250 09:39 06.07.2020
1275 Clouds 24 1010 73 10000 2.1 240 09:21 06.07.2020
1276 Clouds 26 1010 73 10000 2.1 230 08:55 06.07.2020
1277 Clouds 25 994 71 0 2.25 296 08:36 06.07.2020
1278 Clouds 25 994 74 0 1.46 276 08:18 06.07.2020
1279 Clouds 24 994 80 0 1.46 276 07:40 06.07.2020
1280 Clouds 24 994 81 0 1.14 253 07:22 06.07.2020
1281 Clouds 23 994 83 0 1.14 253 06:39 06.07.2020
1282 Clouds 22 1010 78 10000 2.1 160 06:20 06.07.2020
1283 Clouds 22 1010 78 10000 2.1 160 06:20 06.07.2020
1284 Clouds 23 1010 73 10000 0.5 0 05:33 06.07.2020
1285 Clouds 23 1011 78 10000 2.6 360 04:52 06.07.2020
1286 Clouds 24 1012 69 10000 3.6 350 03:26 06.07.2020
1287 Clouds 24 1012 73 10000 3.6 320 02:22 06.07.2020
1288 Clouds 24 1013 69 10000 3.6 310 01:26 06.07.2020
1289 Clouds 24 1013 69 10000 3.1 340 00:36 06.07.2020
1290 Clouds 24 1013 69 10000 3.1 340 00:18 06.07.2020
1291 Clouds 24 1013 65 10000 3.1 330 23:41 05.07.2020
1292 Clouds 24 1013 69 10000 4.1 320 23:23 05.07.2020
1293 Clouds 25 1013 73 10000 4.1 330 22:59 05.07.2020
1294 Clouds 24 1013 73 10000 4.1 330 22:39 05.07.2020
1295 Clouds 25 1013 69 10000 4.6 300 22:19 05.07.2020
1296 Clouds 25 1013 69 10000 4.6 300 21:57 05.07.2020
1297 Clouds 25 1012 69 10000 3.6 310 21:38 05.07.2020
1298 Clouds 25 1013 69 10000 4.6 320 21:18 05.07.2020
1299 Clouds 25 1013 73 10000 4.1 320 20:57 05.07.2020
1300 Clouds 25 1013 73 10000 4.1 320 20:38 05.07.2020
1301 Clear 25 996 70 0 3.64 318 20:20 05.07.2020
1302 Clear 25 996 68 0 1.34 344 19:42 05.07.2020
1303 Clear 26 996 67 0 0.89 10 19:21 05.07.2020
1304 Clear 26 996 64 0 4.32 319 18:56 05.07.2020
1305 Clouds 26 1013 69 10000 5.1 320 18:37 05.07.2020
1306 Clouds 25 1013 74 10000 5.7 320 18:19 05.07.2020
1307 Clouds 26 1013 74 10000 5.1 320 17:43 05.07.2020
1308 Clouds 27 1014 69 10000 5.7 320 17:20 05.07.2020
1309 Clouds 26 1014 69 10000 5.7 320 16:59 05.07.2020
1310 Clouds 26 1014 74 10000 4.6 300 16:40 05.07.2020
1311 Clouds 26 1014 74 10000 5.1 300 16:21 05.07.2020
1312 Clouds 26 1014 74 10000 4.6 310 15:41 05.07.2020
1313 Clouds 27 1014 74 10000 5.1 310 15:20 05.07.2020
1314 Clouds 27 1014 74 10000 5.1 310 15:20 05.07.2020
1315 Clear 27 997 59 0 1.34 357 14:57 05.07.2020
1316 Clear 27 997 54 0 0.89 31 14:38 05.07.2020
1317 Clouds 26 1014 69 10000 3.6 310 14:20 05.07.2020
1318 Clear 26 998 60 0 0.45 70 13:41 05.07.2020
1319 Clear 26 998 58 0 0.45 39 13:23 05.07.2020
1320 Clear 27 998 55 0 2.68 359 12:46 05.07.2020
1321 Clear 27 998 55 0 2.68 359 12:46 05.07.2020
1322 Clear 26 998 61 0 3.46 342 12:21 05.07.2020
1323 Clear 26 998 61 0 1.34 358 11:56 05.07.2020
1324 Clear 26 998 58 0 3.3 336 11:38 05.07.2020
1325 Clear 26 998 59 0 3.3 336 11:19 05.07.2020
1326 Clear 26 998 59 0 1.79 11 10:55 05.07.2020
1327 Clear 26 998 59 0 3.3 336 10:37 05.07.2020
1328 Clear 26 998 59 0 1.34 334 10:18 05.07.2020
1329 Clear 25 998 58 0 2.6 325 09:41 05.07.2020
1330 Clouds 25 1014 69 10000 1.5 350 09:20 05.07.2020
1331 Clouds 24 1014 73 10000 1.5 360 08:57 05.07.2020
1332 Clouds 24 1014 73 10000 1.5 360 08:38 05.07.2020
1333 Clouds 24 1014 73 10000 2.6 350 08:18 05.07.2020
1334 Clouds 23 1014 73 10000 2.6 350 07:40 05.07.2020
1335 Clear 23 998 80 0 2.12 355 07:22 05.07.2020
1336 Clear 22 998 81 0 2.12 355 06:45 05.07.2020
1337 Clear 21 997 77 0 2.71 347 04:37 05.07.2020
1338 Clear 23 1014 69 10000 3.6 350 03:19 05.07.2020
1339 Clear 23 1014 69 10000 3.6 330 02:41 05.07.2020
1340 Clear 23 1015 64 10000 3.1 330 01:59 05.07.2020
1341 Clear 23 1015 64 10000 4.1 340 01:28 05.07.2020
1342 Clear 23 1015 64 10000 4.1 330 00:52 05.07.2020
1343 Clear 23 1015 64 10000 4.1 330 00:31 05.07.2020
1344 Clouds 24 1015 69 10000 3.6 300 23:57 04.07.2020
1345 Clouds 24 1015 69 10000 3.6 300 23:38 04.07.2020
1346 Clouds 22 1015 69 10000 5.7 300 23:20 04.07.2020
1347 Clouds 22 1014 69 10000 4.6 310 22:42 04.07.2020
1348 Clouds 22 1014 65 10000 4.1 320 22:24 04.07.2020
1349 Clouds 25 1014 65 10000 5.1 310 21:58 04.07.2020
1350 Clouds 25 1014 65 10000 5.1 310 21:40 04.07.2020
1351 Clouds 25 1014 65 10000 4.6 320 21:22 04.07.2020
1352 Clouds 25 1014 69 10000 4.6 320 20:43 04.07.2020
1353 Clouds 25 1014 69 10000 5.7 330 20:22 04.07.2020
1354 Clouds 25 1014 61 10000 4.1 330 19:58 04.07.2020
1355 Clouds 25 1014 61 10000 4.1 330 19:39 04.07.2020
1356 Clouds 24 1014 69 10000 5.7 310 19:21 04.07.2020
1357 Clouds 24 1014 69 10000 5.7 310 19:21 04.07.2020
1358 Clouds 26 1014 65 10000 5.1 300 18:46 04.07.2020
1359 Clouds 25 1014 57 10000 3.6 340 18:23 04.07.2020
1360 Clouds 25 1015 57 10000 3.1 340 17:56 04.07.2020
1361 Clouds 26 1015 57 10000 3.1 340 17:38 04.07.2020
1362 Clouds 26 1015 61 10000 4.6 350 17:19 04.07.2020
1363 Clouds 26 1015 61 10000 4.6 350 16:56 04.07.2020
1364 Clouds 27 1015 61 10000 4.6 350 16:36 04.07.2020
1365 Clouds 27 1015 61 10000 4.6 350 16:36 04.07.2020
1366 Clouds 26 1015 57 10000 4.1 360 16:18 04.07.2020
1367 Clouds 25 1015 57 10000 3.6 20 15:41 04.07.2020
1368 Clouds 28 1015 61 10000 4.1 20 15:23 04.07.2020
1369 Clouds 26 1015 61 10000 4.1 20 14:58 04.07.2020
1370 Clouds 27 1015 65 10000 6.2 10 14:37 04.07.2020
1371 Clouds 27 1015 65 10000 6.2 20 14:18 04.07.2020
1372 Rain 26 998 64 0 0.45 10 13:43 04.07.2020
1373 Rain 27 999 66 0 4.02 5 13:20 04.07.2020
1374 Rain 27 998 68 0 1.79 13 12:59 04.07.2020
1375 Rain 27 998 70 0 2.24 344 12:40 04.07.2020
1376 Clear 27 998 71 0 1.79 8 12:20 04.07.2020
1377 Clouds 28 1014 78 10000 3.6 10 11:45 04.07.2020
1378 Clouds 28 1014 74 10000 3.6 10 11:24 04.07.2020
1379 Clear 27 998 68 0 0.45 359 10:57 04.07.2020
1380 Clouds 27 1014 78 10000 3.6 20 10:38 04.07.2020
1381 Clear 27 1014 78 10000 4.1 30 10:19 04.07.2020
1382 Clear 28 1014 78 10000 4.1 30 09:54 04.07.2020
1383 Clear 27 1014 78 10000 4.1 30 09:36 04.07.2020
1384 Clear 27 1014 78 10000 4.6 30 09:18 04.07.2020
1385 Clear 27 1014 78 10000 4.1 30 08:43 04.07.2020
1386 Clear 26 1014 88 10000 5.1 30 08:24 04.07.2020
1387 Clear 25 1013 88 10000 5.1 30 07:42 04.07.2020
1388 Clear 25 998 75 0 1.17 96 07:20 04.07.2020
1389 Clear 25 1013 88 10000 5.1 20 06:40 04.07.2020
1390 Clear 24 1013 88 10000 5.1 10 06:20 04.07.2020
1391 Clear 24 1013 74 10000 1.5 110 05:31 04.07.2020
1392 Clear 24 1013 78 10000 3.6 60 04:23 04.07.2020
1393 Clear 24 1013 73 10000 4.6 60 02:48 04.07.2020
1394 Clear 24 1013 78 10000 4.1 60 01:51 04.07.2020
1395 Clear 24 1014 88 10000 3.1 70 00:59 04.07.2020
1396 Clear 24 998 84 0 1.43 74 00:40 04.07.2020
1397 Clear 24 998 83 0 0.89 33 00:21 04.07.2020
1398 Clear 25 1014 88 10000 2.6 50 23:39 03.07.2020
1399 Clear 25 1014 88 10000 2.1 40 23:18 03.07.2020
1400 Clear 25 1014 88 10000 2.1 40 23:18 03.07.2020
1401 Clear 25 1014 83 10000 2.1 70 22:43 03.07.2020
1402 Clear 25 1013 83 10000 3.1 20 22:25 03.07.2020
1403 Clear 26 1013 83 10000 3.1 20 21:59 03.07.2020
1404 Clear 26 1013 83 10000 3.1 20 21:59 03.07.2020
1405 Clear 26 1013 83 10000 3.1 10 21:39 03.07.2020
1406 Clear 26 997 77 0 0.89 81 21:19 03.07.2020
1407 Clear 27 996 76 0 0.89 81 20:43 03.07.2020
1408 Clear 27 996 75 0 0.45 357 20:25 03.07.2020
1409 Clear 27 996 71 0 1.16 40 19:59 03.07.2020
1410 Clear 27 1012 83 10000 4.6 360 19:40 03.07.2020
1411 Clear 27 1012 83 10000 4.1 20 19:18 03.07.2020
1412 Clear 27 1011 83 10000 5.1 30 18:45 03.07.2020
1413 Clear 28 1012 78 10000 4.6 30 18:24 03.07.2020
1414 Clear 28 1012 78 10000 5.1 20 17:59 03.07.2020
1415 Clear 28 1012 78 10000 5.1 20 17:41 03.07.2020
1416 Clear 28 1012 78 10000 4.6 360 17:20 03.07.2020
1417 Clear 28 1012 78 10000 4.1 10 16:41 03.07.2020
1418 Clear 29 1012 74 10000 4.1 360 16:23 03.07.2020
1419 Clear 28 1012 74 10000 4.1 350 15:46 03.07.2020
1420 Clear 30 996 58 0 2.24 7 15:24 03.07.2020
1421 Clear 30 996 58 0 1.34 353 14:57 03.07.2020
1422 Clear 30 996 58 0 3.59 344 14:39 03.07.2020
1423 Clear 29 996 58 0 0.89 15 14:19 03.07.2020
1424 Clear 28 996 66 0 0.45 342 13:47 03.07.2020
1425 Clear 29 996 67 0 1.34 11 13:29 03.07.2020
1426 Clear 28 996 68 0 3.44 330 12:54 03.07.2020
1427 Clear 28 996 70 0 1.34 7 12:36 03.07.2020
1428 Clear 29 996 70 0 1.79 355 12:18 03.07.2020
1429 Clear 28 996 70 0 3.64 315 11:42 03.07.2020
1430 Clear 29 996 71 0 3.38 304 11:23 03.07.2020
1431 Clear 28 996 71 0 0.45 352 10:56 03.07.2020
1432 Clear 28 996 73 0 3.38 304 10:37 03.07.2020
1433 Clear 27 996 74 0 2.69 302 10:19 03.07.2020
1434 Clear 27 1012 78 10000 1.5 0 09:54 03.07.2020
1435 Clear 27 1012 78 10000 1.5 0 09:36 03.07.2020
1436 Clear 26 1012 78 10000 2.1 220 09:18 03.07.2020
1437 Clear 26 1012 83 10000 1.5 230 08:39 03.07.2020
1438 Clear 25 996 87 0 1.22 281 08:18 03.07.2020
1439 Clear 24 996 90 0 0.45 353 07:48 03.07.2020
1440 Clear 24 995 92 0 1.09 246 07:26 03.07.2020
1441 Clear 24 995 92 0 1.09 246 06:49 03.07.2020
1442 Clouds 23 1010 83 10000 1.5 180 06:18 03.07.2020
1443 Clouds 24 1010 83 10000 2.1 230 04:53 03.07.2020
1444 Clouds 24 1011 83 10000 0.5 0 03:28 03.07.2020
1445 Clouds 24 1011 83 10000 1.5 200 02:47 03.07.2020
1446 Clouds 24 1011 83 10000 1.5 170 02:25 03.07.2020
1447 Clouds 25 1011 88 10000 1.5 180 01:28 03.07.2020
1448 Clouds 25 1012 83 10000 2.6 260 00:49 03.07.2020
1449 Clouds 25 1012 83 10000 2.6 260 00:28 03.07.2020
1450 Clouds 26 1012 83 10000 2.6 250 23:47 02.07.2020
1451 Clear 26 1012 83 10000 3.1 230 23:20 02.07.2020
1452 Clear 25 1012 83 10000 3.1 230 22:58 02.07.2020
1453 Clear 25 1011 88 10000 4.6 280 22:39 02.07.2020
1454 Clear 25 1011 83 9000 3.6 300 22:20 02.07.2020
1455 Clear 25 1011 83 9000 3.6 300 22:20 02.07.2020
1456 Clear 25 1011 83 9000 4.6 290 21:55 02.07.2020
1457 Clear 24 1011 83 9000 4.6 290 21:37 02.07.2020
1458 Clear 26 994 81 0 0.89 352 21:18 02.07.2020
1459 Clear 26 1011 88 10000 4.6 290 20:57 02.07.2020
1460 Clear 26 1011 88 10000 4.6 290 20:39 02.07.2020
1461 Clear 27 994 76 0 0.45 357 20:18 02.07.2020
1462 Clear 27 1010 83 10000 5.7 300 19:41 02.07.2020
1463 Rain 27 1010 83 10000 6.2 300 19:22 02.07.2020
1464 Clear 27 1010 83 10000 6.2 300 18:57 02.07.2020
1465 Clear 27 1010 83 10000 6.2 300 18:39 02.07.2020
1466 Rain 27 1010 83 10000 6.7 300 18:20 02.07.2020
1467 Clear 28 1010 78 10000 7.2 310 17:40 02.07.2020
1468 Rain 28 1010 78 10000 5.1 300 17:20 02.07.2020
1469 Rain 28 1010 78 10000 5.1 300 17:20 02.07.2020
1470 Clear 28 1011 78 10000 7.2 300 16:58 02.07.2020
1471 Clear 29 1011 78 10000 7.2 300 16:40 02.07.2020
1472 Rain 29 1011 78 10000 5.7 300 16:20 02.07.2020
1473 Clear 29 1011 78 10000 5.1 310 15:55 02.07.2020
1474 Clear 29 1011 78 10000 5.1 310 15:36 02.07.2020
1475 Clouds 28 1011 74 10000 6.7 300 15:18 02.07.2020
1476 Clouds 29 1012 83 10000 6.7 290 14:43 02.07.2020
1477 Clear 29 994 58 0 1.34 8 14:21 02.07.2020
1478 Clear 29 995 65 0 0.45 7 13:56 02.07.2020
1479 Clear 29 994 65 0 1.34 16 13:37 02.07.2020
1480 Clear 29 995 64 0 4.18 306 13:18 02.07.2020
1481 Clear 29 995 62 0 0.89 353 12:41 02.07.2020
1482 Clouds 29 1012 83 10000 5.1 310 12:22 02.07.2020
1483 Clouds 29 1012 83 10000 4.1 310 11:55 02.07.2020
1484 Clouds 28 1012 83 10000 4.1 310 11:37 02.07.2020
1485 Clear 30 994 56 0 0.89 3 11:19 02.07.2020
1486 Clear 31 994 45 0 1.34 3 10:42 02.07.2020
1487 Clear 30 1011 69 10000 3.1 310 10:23 02.07.2020
1488 Clear 29 1011 74 10000 2.6 340 09:44 02.07.2020
1489 Clear 29 995 52 0 0.29 256 09:23 02.07.2020
1490 Clear 29 995 55 0 0.29 256 08:59 02.07.2020
1491 Clear 28 995 57 0 0.29 256 08:40 02.07.2020
1492 Clear 28 995 59 0 0.95 167 08:20 02.07.2020
1493 Clear 27 995 63 0 0.95 167 07:42 02.07.2020
1494 Clear 26 995 64 0 1.27 144 07:22 02.07.2020
1495 Clear 25 995 64 0 1.27 144 06:47 02.07.2020
1496 Clear 25 995 65 0 1.1 148 06:27 02.07.2020
1497 Clear 25 995 66 0 1.1 148 05:49 02.07.2020
1498 Clear 26 995 67 0 1.17 172 04:55 02.07.2020
1499 Clear 26 994 66 0 1.88 146 03:34 02.07.2020
1500 Clear 26 1012 61 10000 0.5 0 01:51 02.07.2020
1501 Clear 25 1012 69 10000 2.1 90 00:44 02.07.2020
1502 Clear 25 1012 65 10000 2.6 220 00:18 02.07.2020
1503 Clear 25 997 72 0 2.44 128 23:43 01.07.2020
1504 Clear 25 996 73 0 2.89 123 23:22 01.07.2020
1505 Clear 26 1012 83 10000 3.6 240 22:55 01.07.2020
1506 Clear 26 1012 83 10000 3.6 240 22:37 01.07.2020
1507 Clear 26 1012 88 10000 3.1 250 22:18 01.07.2020
1508 Clear 26 1012 88 10000 3.1 250 21:56 01.07.2020
1509 Clear 26 1012 78 10000 2.6 270 21:38 01.07.2020
1510 Clear 27 1011 65 10000 0.5 0 21:19 01.07.2020
1511 Clear 28 1012 61 10000 2.6 60 20:46 01.07.2020
1512 Clear 28 1011 61 10000 4.1 50 20:26 01.07.2020
1513 Clear 28 1011 65 10000 4.1 40 19:58 01.07.2020
1514 Clear 28 1011 65 10000 4.1 40 19:39 01.07.2020
1515 Clear 29 1011 55 10000 6.7 60 19:20 01.07.2020
1516 Clear 30 1011 51 10000 7.2 60 18:56 01.07.2020
1517 Clear 30 1011 51 10000 7.2 60 18:38 01.07.2020
1518 Clear 31 1011 45 10000 7.2 60 18:20 01.07.2020
1519 Clear 31 1012 45 10000 6.7 70 17:41 01.07.2020
1520 Clear 32 1012 38 10000 6.2 60 17:20 01.07.2020
1521 Clear 31 1012 38 10000 6.2 60 16:57 01.07.2020
1522 Clear 32 1012 49 10000 5.7 60 16:39 01.07.2020
1523 Clear 32 1012 49 10000 5.7 60 16:20 01.07.2020
1524 Clear 32 1012 45 10000 7.7 70 15:42 01.07.2020
1525 Clear 32 1012 51 10000 6.7 60 15:23 01.07.2020
1526 Clear 31 997 36 0 2.88 55 14:58 01.07.2020
1527 Clear 31 997 40 0 2.88 55 14:38 01.07.2020
1528 Clear 31 997 37 0 2.74 40 14:19 01.07.2020
1529 Clear 30 997 36 0 2.74 40 13:40 01.07.2020
1530 Clear 31 1013 58 10000 4.6 40 13:22 01.07.2020
1531 Clear 31 997 39 0 2.48 45 12:59 01.07.2020
1532 Clear 31 997 41 0 0.45 31 12:40 01.07.2020
1533 Clear 31 997 40 0 2.28 53 12:22 01.07.2020
1534 Clear 30 997 40 0 2.28 53 11:58 01.07.2020
1535 Clear 30 997 42 0 2.16 59 11:39 01.07.2020
1536 Clear 30 997 42 0 2.16 59 11:20 01.07.2020
1537 Clear 29 997 46 0 2.16 59 10:43 01.07.2020
1538 Clear 29 998 47 0 2.03 61 10:23 01.07.2020
1539 Clear 29 998 49 0 2.03 61 09:59 01.07.2020
1540 Clear 28 998 49 0 1.43 42 09:38 01.07.2020
1541 Clear 28 998 51 0 1.13 60 09:20 01.07.2020
1542 Clear 27 998 53 0 1.13 60 08:56 01.07.2020
1543 Clear 27 998 54 0 1.13 60 08:38 01.07.2020
1544 Clear 27 998 58 0 1.17 125 08:18 01.07.2020
1545 Clear 26 997 62 0 1.17 125 07:40 01.07.2020
1546 Clear 26 997 64 0 1.76 134 07:21 01.07.2020
1547 Clear 26 997 64 0 1.76 134 07:21 01.07.2020
1548 Clear 24 997 66 0 1.76 134 06:50 01.07.2020
1549 Clear 23 1012 78 10000 0.5 0 06:28 01.07.2020
1550 Clear 23 1012 83 10000 1 0 05:30 01.07.2020
1551 Clear 24 1012 73 10000 1.5 80 03:55 01.07.2020
1552 Clear 24 1012 73 10000 1.5 80 03:36 01.07.2020
1553 Clear 24 1012 88 10000 2.1 40 03:18 01.07.2020
1554 Clear 24 1013 78 10000 1 210 01:55 01.07.2020
1555 Clear 25 1013 73 10000 0.5 0 00:48 01.07.2020
1556 Clear 25 1013 78 10000 1 160 00:26 01.07.2020
1557 Clear 25 1013 73 10000 0.5 0 23:57 30.06.2020
1558 Clear 25 1013 73 10000 0.5 0 23:39 30.06.2020
1559 Clear 26 1013 78 10000 3.1 220 23:19 30.06.2020
1560 Clear 26 1013 74 10000 2.6 270 22:41 30.06.2020
1561 Clear 26 1013 69 10000 0.5 0 22:18 30.06.2020
1562 Clear 26 1013 61 10000 3.1 80 21:41 30.06.2020
1563 Clear 27 1013 61 10000 5.1 60 21:19 30.06.2020
1564 Clear 27 1013 61 10000 5.1 60 20:57 30.06.2020
1565 Clear 27 1012 57 10000 6.7 70 20:39 30.06.2020
1566 Clear 27 1012 61 10000 7.7 60 20:20 30.06.2020
1567 Clear 28 1013 61 10000 8.2 50 19:43 30.06.2020
1568 Clear 28 1012 58 10000 8.2 50 19:20 30.06.2020
1569 Clear 29 1012 45 10000 8.7 60 18:54 30.06.2020
1570 Clear 29 1012 45 10000 8.7 60 18:36 30.06.2020
1571 Clear 29 1012 51 10000 9.3 60 18:18 30.06.2020
1572 Clear 30 1012 48 10000 9.3 60 17:38 30.06.2020
1573 Clear 30 1013 45 10000 9.3 60 17:19 30.06.2020
1574 Clear 31 1013 42 10000 8.2 60 16:55 30.06.2020
1575 Clear 30 1013 42 10000 8.2 60 16:36 30.06.2020
1576 Clear 30 1013 40 10000 9.3 60 16:18 30.06.2020
1577 Clear 30 1013 48 10000 8.7 60 15:41 30.06.2020
1578 Clear 32 998 46 0 3.87 67 15:22 30.06.2020
1579 Clear 31 998 46 0 3.87 67 14:58 30.06.2020
1580 Clear 31 998 47 0 3.93 66 14:39 30.06.2020
1581 Clear 31 998 46 0 3.69 62 14:18 30.06.2020
1582 Clear 30 1014 48 10000 7.2 60 13:41 30.06.2020
1583 Clear 30 1014 61 10000 7.2 40 13:21 30.06.2020
1584 Clear 29 1014 65 10000 7.2 40 12:59 30.06.2020
1585 Clear 29 1014 65 10000 7.2 40 12:40 30.06.2020
1586 Clear 29 1014 65 10000 5.7 40 12:21 30.06.2020
1587 Clear 29 1014 65 10000 5.7 40 12:21 30.06.2020
1588 Clear 29 1014 51 10000 5.1 60 11:58 30.06.2020
1589 Clear 29 1014 51 10000 5.1 60 11:39 30.06.2020
1590 Clear 28 1014 54 10000 5.7 60 11:20 30.06.2020
1591 Clear 28 1014 54 10000 5.7 60 10:59 30.06.2020
1592 Clouds 26 1016 83 10000 3.6 10 16:43 28.06.2020
1593 Clouds 26 1016 83 10000 3.6 360 16:24 28.06.2020
1594 Clear 26 1018 63 0 2.68 135 15:56 28.06.2020
1595 Clear 26 1018 63 0 2.68 135 15:38 28.06.2020
1596 Clear 28 999 64 0 1.34 330 15:19 28.06.2020
1597 Clear 28 999 65 0 1.34 358 14:46 28.06.2020
1598 Clear 26 1016 78 10000 4.1 350 14:28 28.06.2020
1599 Clear 27 1016 78 10000 4.1 350 13:58 28.06.2020
1600 Clear 27 1016 78 10000 4.1 350 13:38 28.06.2020
1601 Clear 28 999 59 0 0.89 4 13:19 28.06.2020
1602 Clear 28 999 64 0 0.45 359 12:56 28.06.2020
1603 Clear 28 999 66 0 0.45 355 12:37 28.06.2020
1604 Clear 28 1000 67 0 0.89 356 12:19 28.06.2020
1605 Clear 27 999 70 0 3.3 327 11:56 28.06.2020
1606 Clear 27 1000 70 0 0.45 8 11:38 28.06.2020
1607 Clear 27 999 72 0 1.34 17 11:19 28.06.2020
1608 Clear 27 1000 72 0 1.34 357 10:55 28.06.2020
1609 Clear 27 1000 68 0 2.76 314 10:36 28.06.2020
1610 Clear 27 1000 68 0 2.76 314 10:36 28.06.2020
1611 Clear 27 1000 68 0 2.76 314 10:36 28.06.2020
1612 Clear 27 1000 68 0 0.45 325 10:18 28.06.2020
1613 Clear 26 1000 69 0 2.05 309 09:39 28.06.2020
1614 Clear 26 1000 74 0 1.31 324 09:21 28.06.2020
1615 Clear 25 1000 79 0 0.88 330 08:48 28.06.2020
1616 Clear 25 1000 80 0 0.27 353 08:26 28.06.2020
1617 Clear 24 1000 80 0 0.27 353 07:49 28.06.2020
1618 Clear 24 1000 80 0 0.27 353 07:29 28.06.2020
1619 Clouds 24 1015 88 10000 4.1 10 06:43 28.06.2020
1620 Clouds 22 1015 88 10000 3.6 10 06:24 28.06.2020
1621 Clear 23 1015 88 10000 4.1 10 05:26 28.06.2020
1622 Clear 24 1015 88 10000 3.1 40 03:32 28.06.2020
1623 Clear 24 1015 78 10000 0.5 0 02:40 28.06.2020
1624 Clear 24 1015 88 10000 3.1 210 01:53 28.06.2020
1625 Clear 24 1016 88 10000 2.1 240 01:26 28.06.2020
1626 Clear 24 1015 88 10000 4.6 280 00:48 28.06.2020
1627 Clear 25 1015 94 10000 5.1 270 00:25 28.06.2020
1628 Clear 25 999 68 0 0.82 210 23:42 27.06.2020
1629 Clear 25 1015 94 10000 4.1 230 23:24 27.06.2020
1630 Clear 25 1015 94 10000 4.1 230 22:58 27.06.2020
1631 Clear 23 1015 94 10000 2.6 230 22:40 27.06.2020
1632 Clear 25 1015 94 10000 2.6 210 22:21 27.06.2020
1633 Clear 24 1015 94 10000 2.6 240 21:55 27.06.2020
1634 Clear 26 1015 94 10000 2.6 240 21:37 27.06.2020
1635 Clear 26 1014 88 10000 4.1 260 21:19 27.06.2020
1636 Clear 27 1014 74 10000 3.1 200 20:43 27.06.2020
1637 Clear 28 998 61 0 1.25 12 20:19 27.06.2020
1638 Clear 28 998 64 0 1.25 12 19:56 27.06.2020
1639 Clear 27 1014 69 10000 5.7 50 19:36 27.06.2020
1640 Clear 27 1014 65 10000 6.7 50 19:18 27.06.2020
1641 Clear 28 1014 69 10000 6.7 40 18:46 27.06.2020
1642 Clear 29 1014 69 10000 6.7 40 18:28 27.06.2020
1643 Clear 29 1015 74 10000 4.6 40 17:58 27.06.2020
1644 Clear 29 1015 74 10000 4.6 40 17:38 27.06.2020
1645 Clear 28 1015 83 10000 3.1 20 17:19 27.06.2020
1646 Clear 29 1015 78 10000 3.1 20 16:46 27.06.2020
1647 Clear 29 1015 78 10000 3.1 20 16:28 27.06.2020
1648 Clear 29 1015 78 10000 3.1 20 15:59 27.06.2020
1649 Clear 28 1015 78 10000 3.6 20 15:39 27.06.2020
1650 Clear 29 1015 83 10000 3.6 20 15:21 27.06.2020
1651 Clear 30 999 51 0 1.59 351 14:43 27.06.2020
1652 Clear 31 999 46 0 2.24 355 14:24 27.06.2020
1653 Clear 31 999 41 0 0.89 334 13:58 27.06.2020
1654 Clear 30 999 43 0 1.89 29 13:38 27.06.2020
1655 Clear 30 999 47 0 0.89 20 13:19 27.06.2020
1656 Clear 30 999 50 0 1.34 309 12:57 27.06.2020
1657 Clear 29 999 47 0 2.26 33 12:38 27.06.2020
1658 Clear 29 999 51 0 2.21 31 12:20 27.06.2020
1659 Clear 30 999 48 0 2.21 31 11:54 27.06.2020
1660 Clear 29 1015 54 10000 7.2 40 11:36 27.06.2020
1661 Clear 30 1014 35 10000 6.7 50 11:18 27.06.2020
1662 Clear 29 1015 42 10000 6.7 50 10:38 27.06.2020
1663 Clear 28 1015 57 10000 7.2 40 10:19 27.06.2020
1664 Clear 28 999 50 0 0.92 37 09:41 27.06.2020
1665 Clear 27 1000 51 0 0.58 76 09:22 27.06.2020
1666 Clear 27 1000 54 0 0.58 6 08:57 27.06.2020
1667 Clear 26 1000 59 0 0.25 181 08:39 27.06.2020
1668 Clear 26 1000 59 0 0.25 181 08:20 27.06.2020
1669 Clear 25 1000 61 0 0.25 181 07:41 27.06.2020
1670 Clear 24 1000 64 0 0.8 187 07:23 27.06.2020
1671 Clear 23 1000 66 0 0.8 187 06:38 27.06.2020
1672 Clear 22 1000 68 0 1.01 203 06:19 27.06.2020
1673 Clear 23 1015 83 10000 1.5 140 04:22 27.06.2020
1674 Clear 23 1015 83 10000 1 0 03:51 27.06.2020
1675 Clear 22 999 66 0 1 192 02:49 27.06.2020
1676 Clear 23 1015 88 10000 1 0 02:29 27.06.2020
1677 Clear 24 1015 83 10000 2.6 280 01:41 27.06.2020
1678 Clear 25 1016 65 10000 3.6 220 00:56 27.06.2020
1679 Clear 25 1000 69 0 1.67 162 00:28 27.06.2020
1680 Clear 25 1015 65 10000 4.1 210 23:41 26.06.2020
1681 Clear 25 1015 78 10000 4.1 220 23:22 26.06.2020
1682 Clear 25 1015 78 10000 4.1 230 22:56 26.06.2020
1683 Clear 26 1015 78 10000 4.1 230 22:37 26.06.2020
1684 Clear 26 1015 73 10000 3.6 220 22:19 26.06.2020
1685 Clear 25 1014 69 10000 3.6 220 21:57 26.06.2020
1686 Clear 25 1014 69 10000 3.6 220 21:37 26.06.2020
1687 Clear 27 1014 69 10000 3.6 220 21:19 26.06.2020
1688 Clear 25 1014 57 10000 1.5 310 20:42 26.06.2020
1689 Clear 27 1014 45 10000 3.6 80 20:19 26.06.2020
1690 Clear 27 1014 42 10000 6.7 70 19:43 26.06.2020
1691 Clear 27 1014 45 10000 6.7 70 19:23 26.06.2020
1692 Clear 28 1014 42 10000 6.2 70 18:55 26.06.2020
1693 Clear 28 1014 42 10000 6.2 70 18:37 26.06.2020
1694 Clear 28 1014 45 10000 6.7 70 18:18 26.06.2020
1695 Clear 28 1015 48 10000 7.2 60 17:43 26.06.2020
1696 Clear 28 1015 54 10000 7.2 60 17:24 26.06.2020
1697 Clear 28 1015 48 10000 6.7 60 16:48 26.06.2020
1698 Clear 29 1015 42 10000 7.7 70 16:25 26.06.2020
1699 Clear 28 1015 45 10000 7.7 60 15:55 26.06.2020
1700 Clear 28 1015 45 10000 7.7 60 15:37 26.06.2020
1701 Clear 31 1000 44 0 0.96 61 15:18 26.06.2020
1702 Clear 30 1000 42 0 0.96 61 14:55 26.06.2020
1703 Clear 30 1000 37 0 0.96 61 14:37 26.06.2020
1704 Clear 30 1000 37 0 1.37 66 14:19 26.06.2020
1705 Clear 30 1000 45 0 1.37 66 13:43 26.06.2020
1706 Clear 29 1000 48 0 1.82 69 13:18 26.06.2020
1707 Clear 29 1000 53 0 0.45 9 13:18 26.06.2020
1708 Clear 29 1000 56 0 1.82 69 12:41 26.06.2020
1709 Clear 29 1000 45 0 2.07 68 12:23 26.06.2020
1710 Clear 29 1000 45 0 2.07 68 12:23 26.06.2020
1711 Clear 29 1000 43 0 2.07 68 11:59 26.06.2020
1712 Clear 29 1001 43 0 2.07 68 11:40 26.06.2020
1713 Clear 29 1000 48 0 1.99 65 11:21 26.06.2020
1714 Clear 28 1001 51 0 1.99 65 10:58 26.06.2020
1715 Clear 28 1001 51 0 1.99 65 10:39 26.06.2020
1716 Clear 28 1001 50 0 1.49 74 10:19 26.06.2020
1717 Clear 27 1001 58 0 1.49 74 09:45 26.06.2020
1718 Clear 27 1001 59 0 0.9 90 09:26 26.06.2020
1719 Clear 26 1001 63 0 1.31 95 08:59 26.06.2020
1720 Clear 26 1001 65 0 0.9 90 08:41 26.06.2020
1721 Clear 26 1001 68 0 0.92 128 08:23 26.06.2020
1722 Clear 25 1001 69 0 0.92 128 07:44 26.06.2020
1723 Clear 24 1001 71 0 1.09 162 07:22 26.06.2020
1724 Clear 22 1001 72 0 1.1 146 06:47 26.06.2020
1725 Clear 22 1017 83 10000 1 0 06:28 26.06.2020
1726 Clear 22 1016 83 10000 1 0 05:49 26.06.2020
1727 Clear 22 1016 83 10000 1 190 04:42 26.06.2020
1728 Clear 23 1017 88 10000 1.5 220 02:22 26.06.2020
1729 Clear 23 1017 88 10000 2.6 210 01:22 26.06.2020
1730 Clear 23 1017 88 10000 3.1 220 00:42 26.06.2020
1731 Clear 23 1017 88 10000 2.6 230 00:20 26.06.2020
1732 Clear 23 1018 88 10000 2.6 220 23:46 25.06.2020
1733 Clear 24 1017 83 10000 3.6 220 23:20 25.06.2020
1734 Clear 24 1017 83 10000 3.6 220 22:57 25.06.2020
1735 Clear 24 1017 83 10000 3.6 220 22:38 25.06.2020
1736 Clear 24 1017 83 10000 3.6 210 22:19 25.06.2020
1737 Clear 25 1017 83 10000 4.6 220 21:56 25.06.2020
1738 Clear 25 1017 83 10000 4.6 220 21:38 25.06.2020
1739 Clear 25 1016 83 10000 4.1 220 21:20 25.06.2020
1740 Clear 26 1001 71 0 2.42 99 20:55 25.06.2020
1741 Clear 26 1016 83 10000 4.6 250 20:37 25.06.2020
1742 Clear 27 1016 69 10000 4.1 80 20:19 25.06.2020
1743 Clear 27 1001 59 0 2.11 79 19:41 25.06.2020
1744 Clear 26 1016 69 10000 7.2 50 19:19 25.06.2020
1745 Clear 27 1016 69 10000 7.2 50 18:58 25.06.2020
1746 Clear 27 1016 69 10000 7.2 50 18:38 25.06.2020
1747 Clear 27 1017 74 10000 7.2 40 18:19 25.06.2020
1748 Clear 27 1017 74 10000 6.7 40 17:44 25.06.2020
1749 Clear 27 1017 74 10000 7.7 40 17:20 25.06.2020
1750 Clear 28 1017 69 10000 8.2 40 16:58 25.06.2020
1751 Clear 28 1017 69 10000 8.2 40 16:37 25.06.2020
1752 Clear 28 1017 69 10000 7.7 40 16:19 25.06.2020
1753 Clear 27 1018 78 10000 7.7 40 15:41 25.06.2020
1754 Clear 27 1018 83 10000 7.2 40 15:22 25.06.2020
1755 Clear 26 1018 83 10000 7.2 40 14:45 25.06.2020
1756 Clear 26 1018 83 10000 7.2 30 14:25 25.06.2020
1757 Clear 29 1018 65 10000 7.7 50 13:59 25.06.2020
1758 Clear 28 1002 49 0 1.96 36 13:41 25.06.2020
1759 Clear 28 1003 53 0 2.24 39 13:19 25.06.2020
1760 Clear 28 1003 53 0 2.24 39 13:19 25.06.2020
1761 Clear 28 1018 73 10000 7.2 40 12:55 25.06.2020
1762 Clear 27 1002 51 0 2.24 39 12:37 25.06.2020
1763 Clear 27 1002 47 0 0.45 314 12:18 25.06.2020
1764 Clear 27 1002 50 0 1.94 33 11:42 25.06.2020
1765 Clear 27 1002 50 0 1.78 25 11:21 25.06.2020
1766 Clear 27 1018 65 10000 6.7 50 10:44 25.06.2020
1767 Clear 26 1002 59 0 1.43 6 10:25 25.06.2020
1768 Clear 26 1018 69 10000 5.1 60 09:55 25.06.2020
1769 Clear 26 1018 69 10000 5.1 60 09:37 25.06.2020
1770 Clear 25 1002 66 0 0.45 1 09:18 25.06.2020
1771 Clear 25 1002 68 0 0.81 307 08:42 25.06.2020
1772 Clear 24 1002 67 0 0.81 307 08:18 25.06.2020
1773 Clear 24 1002 67 0 0.81 307 08:18 25.06.2020
1774 Clear 24 1002 67 0 0.81 307 08:18 25.06.2020
1775 Clear 24 1018 56 10000 2.1 240 07:43 25.06.2020
1776 Clear 23 1002 60 0 1.09 254 07:24 25.06.2020
1777 Clear 23 1002 61 0 1.09 254 06:45 25.06.2020
1778 Clear 22 1017 60 10000 1.5 130 06:25 25.06.2020
1779 Clear 21 1017 68 10000 2.1 190 05:39 25.06.2020
1780 Clear 22 1017 68 10000 0.5 0 03:51 25.06.2020
1781 Clear 22 1017 78 10000 1.5 200 02:59 25.06.2020
1782 Clear 22 1018 78 10000 1 240 02:41 25.06.2020
1783 Clear 22 1018 78 10000 1 0 01:43 25.06.2020
1784 Clear 23 1018 83 10000 3.1 230 00:59 25.06.2020
1785 Clear 23 1018 83 10000 2.1 200 00:40 25.06.2020
1786 Clear 23 1018 83 10000 2.1 200 00:18 25.06.2020
1787 Clear 22 1018 88 10000 3.1 220 23:41 24.06.2020
1788 Clear 23 1018 73 10000 2.1 280 23:23 24.06.2020
1789 Clear 23 1018 78 10000 2.1 280 22:56 24.06.2020
1790 Clear 23 1018 78 10000 2.1 280 22:37 24.06.2020
1791 Clear 23 1018 78 10000 2.1 270 22:19 24.06.2020
1792 Clear 23 1018 73 10000 1.5 170 21:55 24.06.2020
1793 Clear 24 1018 73 10000 1.5 170 21:36 24.06.2020
1794 Clear 24 1017 61 10000 5.1 70 21:18 24.06.2020
1795 Clear 24 1017 65 10000 4.6 50 20:56 24.06.2020
1796 Clear 25 1017 65 10000 4.6 50 20:38 24.06.2020
1797 Clear 26 1017 57 10000 6.7 50 20:19 24.06.2020
1798 Clear 26 1017 57 10000 6.7 50 19:55 24.06.2020
1799 Clear 25 1017 57 10000 6.7 50 19:36 24.06.2020
1800 Clouds 25 1017 61 10000 6.7 50 19:18 24.06.2020
1801 Clouds 26 1017 65 10000 7.2 40 18:56 24.06.2020
1802 Clouds 26 1017 65 10000 7.2 40 18:37 24.06.2020
1803 Clouds 26 1017 73 10000 7.7 40 18:19 24.06.2020
1804 Clouds 27 1017 69 10000 6.7 30 17:41 24.06.2020
1805 Clouds 27 1017 65 10000 6.2 30 17:19 24.06.2020
1806 Clouds 26 1017 65 10000 6.2 30 16:58 24.06.2020
1807 Clouds 27 1018 65 10000 4.6 30 16:39 24.06.2020
1808 Clouds 27 1018 73 10000 5.1 20 16:21 24.06.2020
1809 Clouds 26 1018 73 10000 5.1 10 15:57 24.06.2020
1810 Clouds 27 1018 73 10000 5.1 10 15:38 24.06.2020
1811 Clouds 27 1017 74 10000 6.2 30 15:20 24.06.2020
1812 Clouds 28 1002 48 0 3.31 357 14:43 24.06.2020
1813 Clear 28 1001 43 0 0.45 294 14:25 24.06.2020
1814 Clear 28 1001 41 0 1.34 17 13:57 24.06.2020
1815 Clear 28 1001 45 0 2.24 353 13:38 24.06.2020
1816 Clear 28 1001 49 0 1.34 3 13:18 24.06.2020
1817 Clear 28 1001 42 0 2.69 2 12:41 24.06.2020
1818 Clear 28 1001 43 0 1.86 9 12:20 24.06.2020
1819 Clear 28 1001 42 0 1.86 9 11:56 24.06.2020
1820 Clear 28 1002 43 0 1.86 9 11:38 24.06.2020
1821 Clear 28 1018 65 10000 3.6 30 11:18 24.06.2020
1822 Clear 27 1018 73 10000 2.1 360 10:43 24.06.2020
1823 Clear 27 1001 44 0 1 39 10:19 24.06.2020
1824 Clear 27 1001 47 0 1 39 09:43 24.06.2020
1825 Clear 24 1017 78 10000 3.6 240 09:22 24.06.2020
1826 Clear 25 1001 55 0 0.94 51 08:45 24.06.2020
1827 Clear 25 1001 56 0 0.42 23 08:26 24.06.2020
1828 Clear 24 1002 57 0 0.42 23 07:58 24.06.2020
1829 Clear 23 1001 59 0 0.42 23 07:40 24.06.2020
1830 Clear 23 1001 62 0 0.55 230 07:18 24.06.2020
1831 Clear 21 1001 65 0 0.55 230 06:40 24.06.2020
1832 Clear 20 1017 77 10000 1.5 150 06:21 24.06.2020
1833 Clear 20 1017 77 10000 1.5 170 05:32 24.06.2020
1834 Clouds 21 1017 77 10000 1 0 04:37 24.06.2020
1835 Clouds 21 1017 88 10000 1 0 03:37 24.06.2020
1836 Clear 22 1017 88 10000 1.5 30 02:52 24.06.2020
1837 Clear 22 1017 88 10000 2.1 220 01:46 24.06.2020
1838 Clouds 22 1017 88 10000 2.6 230 00:50 24.06.2020
1839 Clouds 22 1017 88 10000 3.1 190 00:31 24.06.2020
1840 Clouds 23 1017 88 10000 3.1 190 23:47 23.06.2020
1841 Clear 23 1017 88 10000 2.6 240 23:21 23.06.2020
1842 Clear 23 1017 88 10000 1.5 260 22:57 23.06.2020
1843 Clear 23 1017 88 10000 1.5 260 22:39 23.06.2020
1844 Clear 23 1017 88 10000 0.5 0 22:18 23.06.2020
1845 Clear 24 1017 88 10000 1 340 21:42 23.06.2020
1846 Clear 24 1001 74 0 1.53 281 21:20 23.06.2020
1847 Clear 24 1000 71 0 1.67 273 20:56 23.06.2020
1848 Clear 25 1000 68 0 1.34 355 20:38 23.06.2020
1849 Clear 25 1016 83 10000 2.1 320 20:19 23.06.2020
1850 Clear 25 1016 83 10000 3.1 330 19:57 23.06.2020
1851 Clear 24 1016 83 10000 2.1 300 19:38 23.06.2020
1852 Clear 24 1016 83 10000 2.1 300 19:20 23.06.2020
1853 Clear 25 1016 78 10000 2.6 320 18:38 23.06.2020
1854 Clear 25 1016 78 10000 2.6 320 18:18 23.06.2020
1855 Clear 25 1016 73 10000 1.5 300 17:42 23.06.2020
1856 Clear 26 1016 78 10000 2.1 320 17:23 23.06.2020
1857 Clear 26 1016 73 10000 2.1 340 16:57 23.06.2020
1858 Clear 26 1016 73 10000 2.1 340 16:38 23.06.2020
1859 Clear 26 1017 73 10000 1.5 330 16:20 23.06.2020
1860 Clear 26 1017 73 10000 1.5 330 16:20 23.06.2020
1861 Clear 26 1017 73 10000 2.1 310 15:57 23.06.2020
1862 Clear 26 1017 73 10000 2.1 310 15:38 23.06.2020
1863 Clouds 26 1017 69 10000 2.6 310 15:18 23.06.2020
1864 Clear 25 1017 69 10000 2.6 310 14:42 23.06.2020
1865 Clear 25 1017 69 10000 3.1 330 14:19 23.06.2020
1866 Clear 26 1017 69 10000 3.6 300 13:56 23.06.2020
1867 Clear 26 1017 69 10000 3.6 300 13:38 23.06.2020
1868 Clear 26 1017 73 10000 2.6 260 13:20 23.06.2020
1869 Clear 25 1017 73 10000 3.6 270 12:42 23.06.2020
1870 Clear 25 1017 69 10000 2.6 260 12:22 23.06.2020
1871 Clouds 25 1017 73 10000 2.6 240 11:58 23.06.2020
1872 Clear 26 1000 40 0 1.79 1 11:39 23.06.2020
1873 Clear 26 1000 44 0 0.89 132 11:19 23.06.2020
1874 Clear 26 1000 45 0 3.73 315 10:55 23.06.2020
1875 Clear 25 1000 46 0 0.89 3 10:37 23.06.2020
1876 Clear 25 1000 46 0 0.89 3 10:19 23.06.2020
1877 Clear 24 1000 50 0 0.89 345 09:41 23.06.2020
1878 Clear 24 1017 83 10000 2.1 240 09:20 23.06.2020
1879 Clouds 23 1017 83 10000 2.6 250 08:57 23.06.2020
1880 Clouds 23 1017 83 10000 2.6 250 08:38 23.06.2020
1881 Clear 23 1000 57 0 2.91 292 08:19 23.06.2020
1882 Clear 22 1001 62 0 2.91 292 07:40 23.06.2020
1883 Clear 23 1016 73 10000 1.5 210 07:21 23.06.2020
1884 Clear 22 1000 65 0 2.47 287 06:49 23.06.2020
1885 Clear 22 1016 73 10000 1.5 140 06:30 23.06.2020
1886 Clear 22 1016 73 10000 1 140 05:41 23.06.2020
1887 Clear 21 1000 63 0 1.97 305 03:39 23.06.2020
1888 Clear 21 1016 78 10000 2.6 70 02:56 23.06.2020
1889 Clear 21 1016 78 10000 2.6 70 02:38 23.06.2020
1890 Clear 21 1016 78 10000 4.1 30 02:20 23.06.2020
1891 Clear 22 1016 78 10000 4.6 30 01:43 23.06.2020
1892 Clear 21 1016 78 10000 4.6 20 01:19 23.06.2020
1893 Clear 22 1016 78 10000 4.6 20 00:24 23.06.2020
1894 Clear 22 1016 73 10000 3.6 20 23:57 22.06.2020
1895 Clear 22 1016 73 10000 3.6 20 23:39 22.06.2020
1896 Clear 22 1016 78 10000 3.6 30 23:19 22.06.2020
1897 Clear 22 1015 73 10000 4.1 30 22:57 22.06.2020
1898 Clear 22 1015 73 10000 4.1 30 22:39 22.06.2020
1899 Clouds 22 1015 73 10000 4.1 30 22:19 22.06.2020
1900 Clouds 22 1015 73 10000 4.1 30 21:57 22.06.2020
1901 Clouds 22 1015 73 10000 4.1 30 21:38 22.06.2020
1902 Clear 23 1015 73 10000 4.1 20 21:20 22.06.2020
1903 Clouds 23 1015 73 10000 3.1 40 20:44 22.06.2020
1904 Clouds 23 999 63 0 0.89 336 20:25 22.06.2020
1905 Clouds 24 999 62 0 2.21 11 19:58 22.06.2020
1906 Clouds 24 999 62 0 1.34 356 19:38 22.06.2020
1907 Clouds 24 1015 73 10000 4.1 30 19:18 22.06.2020
1908 Clouds 23 1015 73 10000 5.1 20 18:42 22.06.2020
1909 Clouds 23 1015 73 10000 5.1 20 18:23 22.06.2020
1910 Clouds 24 1015 73 10000 5.7 10 17:57 22.06.2020
1911 Clouds 23 1015 73 10000 6.2 20 17:39 22.06.2020
1912 Clouds 24 1015 73 10000 6.2 20 17:21 22.06.2020
1913 Clouds 24 1015 69 10000 6.2 20 16:57 22.06.2020
1914 Clouds 24 1015 73 10000 6.7 10 16:38 22.06.2020
1915 Clouds 25 999 65 0 1.34 345 16:18 22.06.2020
1916 Clouds 24 1015 73 10000 6.2 10 15:44 22.06.2020
1917 Clouds 25 1015 73 10000 6.2 10 15:26 22.06.2020
1918 Clouds 24 1015 78 10000 6.2 10 14:58 22.06.2020
1919 Clouds 25 1015 69 10000 5.1 360 14:38 22.06.2020
1920 Clouds 25 1015 69 10000 5.1 360 14:19 22.06.2020
1921 Clouds 25 1015 73 10000 4.6 350 13:54 22.06.2020
1922 Clouds 26 999 53 0 2.68 359 13:36 22.06.2020
1923 Clouds 25 1014 69 10000 4.1 360 13:18 22.06.2020
1924 Clouds 25 1014 69 10000 3.1 350 12:41 22.06.2020
1925 Clouds 25 1014 69 10000 3.1 350 12:22 22.06.2020
1926 Clouds 25 998 59 0 0.45 7 11:38 22.06.2020
1927 Clouds 24 1014 73 10000 2.1 340 11:20 22.06.2020
1928 Clouds 24 1014 73 10000 2.1 10 10:57 22.06.2020
1929 Clouds 24 1014 73 10000 2.1 10 10:57 22.06.2020
1930 Clouds 24 1014 73 10000 2.1 340 10:39 22.06.2020
1931 Clouds 24 1014 73 10000 2.1 340 10:19 22.06.2020
1932 Clouds 23 1014 73 10000 2.6 340 09:59 22.06.2020
1933 Clouds 23 1014 73 10000 2.6 350 09:41 22.06.2020
1934 Clouds 23 1014 73 10000 2.6 350 09:20 22.06.2020
1935 Clouds 21 1014 78 10000 2.6 20 08:57 22.06.2020
1936 Rain 22 998 81 0 0.89 356 08:38 22.06.2020
1937 Clouds 22 1014 83 10000 3.1 350 08:20 22.06.2020
1938 Clouds 22 1014 78 10000 4.1 340 07:50 22.06.2020
1939 Clouds 22 1014 78 10000 4.1 340 07:31 22.06.2020
1940 Rain 21 998 76 0 2.08 321 06:44 22.06.2020
1941 Clouds 20 1013 83 10000 1 0 06:26 22.06.2020
1942 Clouds 20 1013 82 10000 1 180 05:53 22.06.2020
1943 Clouds 20 1013 77 10000 2.6 160 04:22 22.06.2020
1944 Clouds 20 1013 83 10000 1.5 190 02:54 22.06.2020
1945 Clouds 21 1014 88 10000 1.5 280 01:25 22.06.2020
1946 Clouds 21 1014 88 10000 2.1 260 00:41 22.06.2020
1947 Clouds 21 1014 88 10000 2.1 280 23:59 21.06.2020
1948 Clouds 21 1014 83 10000 3.6 260 23:39 21.06.2020
1949 Clouds 21 1014 88 10000 3.6 250 23:21 21.06.2020
1950 Clouds 21 1014 88 10000 3.6 250 22:57 21.06.2020
1951 Clouds 21 1014 83 10000 3.6 230 22:38 21.06.2020
1952 Clouds 21 1014 88 10000 4.6 250 22:19 21.06.2020
1953 Clouds 21 1014 88 10000 4.6 250 21:58 21.06.2020
1954 Clouds 23 1014 83 10000 4.6 260 21:39 21.06.2020
1955 Clouds 23 1014 83 10000 4.6 260 21:39 21.06.2020
1956 Clouds 21 1014 83 10000 4.6 260 21:21 21.06.2020
1957 Clouds 22 1014 78 10000 4.6 260 20:58 21.06.2020
1958 Clouds 22 1014 73 10000 4.1 250 20:38 21.06.2020
1959 Clouds 24 1014 73 10000 4.1 250 20:19 21.06.2020
1960 Clouds 24 1014 73 10000 4.1 240 19:56 21.06.2020
1961 Clouds 22 997 52 0 0.45 327 19:38 21.06.2020
1962 Clear 23 998 53 0 1.34 12 19:19 21.06.2020
1963 Clear 23 997 53 0 0.89 314 18:54 21.06.2020
1964 Clear 23 997 49 0 1.34 321 18:36 21.06.2020
1965 Clear 23 1014 69 10000 3.6 270 18:18 21.06.2020
1966 Clouds 22 1015 69 10000 4.1 260 17:39 21.06.2020
1967 Clouds 22 1015 69 10000 4.1 260 17:39 21.06.2020
1968 Clouds 23 1015 69 10000 4.1 260 17:20 21.06.2020
1969 Clouds 23 1015 73 10000 4.1 270 16:43 21.06.2020
1970 Clouds 23 1015 73 10000 4.1 270 16:24 21.06.2020
1971 Clouds 24 1015 73 10000 4.1 270 15:59 21.06.2020
1972 Clouds 24 1015 73 10000 4.6 280 15:37 21.06.2020
1973 Clouds 25 1015 73 10000 4.6 280 15:19 21.06.2020
1974 Clouds 25 1016 69 10000 5.1 290 14:39 21.06.2020
1975 Clouds 25 1016 69 10000 5.1 290 14:20 21.06.2020
1976 Clouds 25 1016 69 10000 4.6 290 13:59 21.06.2020
1977 Clouds 24 1016 69 10000 3.6 290 13:41 21.06.2020
1978 Clouds 24 1016 69 10000 3.6 290 13:22 21.06.2020
1979 Clouds 24 1016 69 10000 4.6 290 12:56 21.06.2020
1980 Clouds 25 1016 73 10000 3.1 290 12:37 21.06.2020
1981 Clear 25 999 52 0 0.89 339 12:19 21.06.2020
1982 Clouds 24 1016 73 10000 2.1 260 11:42 21.06.2020
1983 Clouds 24 1016 73 10000 2.1 260 11:42 21.06.2020
1984 Clear 25 999 61 0 0.89 349 11:23 21.06.2020
1985 Clouds 24 1015 69 10000 2.1 250 10:58 21.06.2020
1986 Clouds 24 1015 69 10000 2.1 240 10:39 21.06.2020
1987 Clouds 24 1015 69 10000 2.1 240 10:21 21.06.2020
1988 Clouds 23 1015 73 10000 3.1 240 09:44 21.06.2020
1989 Clouds 22 1015 73 10000 3.1 240 09:24 21.06.2020
1990 Clouds 22 1015 73 10000 2.1 230 08:58 21.06.2020
1991 Clouds 21 1015 73 10000 1.5 200 08:40 21.06.2020
1992 Clouds 23 1015 73 10000 1.5 200 08:20 21.06.2020
1993 Clouds 21 1015 73 10000 1.5 170 07:58 21.06.2020
1994 Clouds 22 1015 77 10000 1.5 190 07:39 21.06.2020
1995 Clear 22 999 70 0 1.62 299 07:18 21.06.2020
1996 Clear 21 999 72 0 1.62 299 06:45 21.06.2020
1997 Clear 20 1015 72 10000 1.5 140 05:57 21.06.2020
1998 Clear 20 1015 68 10000 1.5 140 04:45 21.06.2020
1999 Clear 20 1016 64 10000 1.5 180 03:20 21.06.2020
2000 Clear 20 1016 72 10000 2.6 180 02:46 21.06.2020
2001 Clear 21 1016 77 10000 2.6 190 01:48 21.06.2020
2002 Clear 21 1016 73 10000 2.6 200 01:20 21.06.2020
2003 Clear 21 1017 73 10000 2.6 200 00:46 21.06.2020
2004 Clear 21 1017 68 10000 2.1 190 00:27 21.06.2020
2005 Clear 21 1017 73 10000 2.1 200 23:57 20.06.2020
2006 Clear 21 1017 68 10000 2.1 190 23:37 20.06.2020
2007 Clear 21 1017 68 10000 2.1 190 23:18 20.06.2020
2008 Clear 21 1017 73 10000 2.1 190 22:55 20.06.2020
2009 Clear 22 1017 68 10000 1.5 270 22:36 20.06.2020
2010 Clear 21 1017 68 10000 1.5 270 22:18 20.06.2020
2011 Clear 21 1016 73 10000 3.1 280 21:54 20.06.2020
2012 Clear 22 1016 73 10000 3.1 290 21:36 20.06.2020
2013 Clear 22 1016 73 10000 3.1 290 21:18 20.06.2020
2014 Clear 22 1016 64 10000 3.1 290 20:54 20.06.2020
2015 Clear 23 1000 60 0 1.34 328 20:36 20.06.2020
2016 Clear 23 1000 59 0 0.89 324 20:18 20.06.2020
2017 Clouds 23 1016 64 10000 3.1 310 19:41 20.06.2020
2018 Clear 24 1000 46 0 3.59 328 19:21 20.06.2020
2019 Clouds 24 1017 69 10000 4.1 330 18:43 20.06.2020
2020 Clouds 23 1017 69 10000 4.1 330 18:21 20.06.2020
2021 Clouds 23 1017 69 10000 4.6 330 17:58 20.06.2020
2022 Clouds 23 1017 69 10000 3.6 320 17:40 20.06.2020
2023 Clouds 23 1017 69 10000 3.6 320 17:40 20.06.2020
2024 Clouds 23 1017 69 10000 3.6 320 17:21 20.06.2020
2025 Clouds 24 1017 69 10000 4.1 320 16:56 20.06.2020
2026 Clouds 23 1017 73 10000 3.6 310 16:38 20.06.2020
2027 Clouds 23 1017 73 10000 3.6 310 16:18 20.06.2020
2028 Clear 23 1017 69 10000 4.1 310 15:42 20.06.2020
2029 Clear 25 1000 56 0 1.34 323 15:18 20.06.2020
2030 Clear 25 1017 64 10000 4.1 310 14:55 20.06.2020
2031 Clear 25 1017 64 10000 4.6 310 14:36 20.06.2020
2032 Clear 25 1017 64 10000 4.6 310 14:18 20.06.2020
2033 Clear 24 1017 64 10000 5.1 310 13:41 20.06.2020
2034 Clear 24 1017 64 10000 5.1 310 13:19 20.06.2020
2035 Clear 26 1000 51 0 4.94 318 12:43 20.06.2020
2036 Clear 25 1017 64 10000 3.6 310 12:22 20.06.2020
2037 Clear 26 1000 40 0 4.21 321 11:58 20.06.2020
2038 Clear 25 1016 64 10000 2.6 320 11:38 20.06.2020
2039 Clear 25 1016 64 10000 2.6 320 11:20 20.06.2020
2040 Clear 25 1016 69 10000 2.1 340 10:55 20.06.2020
2041 Clear 25 1016 69 10000 3.1 10 10:37 20.06.2020
2042 Clear 25 1016 69 10000 3.1 10 10:18 20.06.2020
2043 Clear 23 1015 69 10000 5.7 40 09:40 20.06.2020
2044 Clear 22 1015 69 10000 5.7 40 09:22 20.06.2020
2045 Clear 22 1015 73 10000 5.7 50 08:56 20.06.2020
2046 Clear 23 1000 71 0 0.45 2 08:37 20.06.2020
2047 Clear 22 1000 79 0 0.89 358 08:18 20.06.2020
2048 Clear 22 1000 82 0 3.51 355 07:44 20.06.2020
2049 Clear 22 1000 81 0 2.02 35 07:25 20.06.2020
2050 Clear 21 1014 78 10000 6.7 50 06:24 20.06.2020
2051 Clear 21 1014 73 10000 6.7 50 05:55 20.06.2020
2052 Clear 21 1014 78 10000 6.7 50 05:30 20.06.2020
2053 Clear 22 1014 78 10000 7.7 40 02:56 20.06.2020
2054 Clouds 22 1014 78 10000 8.2 50 01:52 20.06.2020
2055 Clouds 22 1014 83 10000 9.8 40 01:33 20.06.2020
2056 Clouds 23 1013 64 10000 7.2 50 00:22 20.06.2020
2057 Clouds 23 1013 78 10000 9.3 60 23:58 19.06.2020
2058 Clouds 23 1013 78 10000 10.3 60 23:39 19.06.2020
2059 Clouds 23 1013 78 10000 10.3 60 23:19 19.06.2020
2060 Clouds 23 1012 78 10000 10.8 60 22:42 19.06.2020
2061 Clouds 24 998 72 0 3.45 87 22:24 19.06.2020
2062 Clouds 24 998 67 0 3.45 87 21:59 19.06.2020
2063 Clouds 24 998 63 0 3.43 83 21:39 19.06.2020
2064 Clouds 24 998 63 0 3.43 83 21:39 19.06.2020
2065 Clear 24 1011 83 10000 11.8 60 21:18 19.06.2020
2066 Clouds 24 1011 78 10000 10.8 50 20:59 19.06.2020
2067 Clouds 26 1011 65 10000 9.8 50 20:40 19.06.2020
2068 Clouds 25 1011 65 10000 9.8 50 20:21 19.06.2020
2069 Clouds 25 1011 65 10000 9.8 50 20:21 19.06.2020
2070 Clouds 25 1011 65 10000 9.8 50 20:21 19.06.2020
2071 Clouds 27 1011 25 10000 7.2 80 19:59 19.06.2020
2072 Clouds 27 1011 28 10000 10.3 70 19:41 19.06.2020
2073 Clear 27 1011 28 10000 10.3 70 19:23 19.06.2020
2074 Clear 27 1011 25 10000 10.3 80 18:58 19.06.2020
2075 Clear 27 1011 27 10000 10.8 70 18:38 19.06.2020
2076 Clear 29 1011 27 10000 10.8 70 18:20 19.06.2020
2077 Clouds 28 1011 45 10000 10.3 60 17:42 19.06.2020
2078 Clear 28 1011 44 10000 11.8 70 17:23 19.06.2020
2079 Clear 29 1011 44 10000 11.8 70 16:57 19.06.2020
2080 Clear 29 1011 48 10000 12.3 50 16:39 19.06.2020
2081 Clear 30 1011 69 10000 12.9 50 16:20 19.06.2020
2082 Clear 30 1011 69 10000 12.9 50 15:45 19.06.2020
2083 Clear 30 1012 65 10000 11.8 60 15:25 19.06.2020
2084 Clear 30 1012 65 10000 11.3 60 14:58 19.06.2020
2085 Clear 29 1012 73 10000 10.8 40 14:39 19.06.2020
2086 Clouds 28 1012 73 10000 10.8 40 14:21 19.06.2020
2087 Clouds 29 1013 65 10000 8.7 50 13:58 19.06.2020
2088 Clouds 30 1013 69 10000 7.2 40 13:40 19.06.2020
2089 Clouds 29 998 55 0 0.89 331 13:22 19.06.2020
2090 Clouds 28 1013 73 10000 3.6 30 12:45 19.06.2020
2091 Clouds 29 998 48 0 3.86 89 12:21 19.06.2020
2092 Clouds 29 998 52 0 3.86 89 11:55 19.06.2020
2093 Clouds 29 999 51 0 3.86 89 11:36 19.06.2020
2094 Clouds 28 999 50 0 4.15 83 11:18 19.06.2020
2095 Clouds 28 999 55 0 4.15 83 10:41 19.06.2020
2096 Clouds 27 1015 65 10000 4.1 230 10:21 19.06.2020
2097 Clouds 26 1015 73 10000 2.1 250 09:55 19.06.2020
2098 Clouds 26 1015 64 10000 1.5 30 09:37 19.06.2020
2099 Clouds 25 1015 64 10000 1.5 30 09:18 19.06.2020
2100 Clouds 26 1001 61 0 2.36 81 08:41 19.06.2020
2101 Clouds 25 1001 57 0 1.92 111 08:23 19.06.2020
2102 Clouds 24 1001 65 0 1.92 111 07:41 19.06.2020
2103 Clouds 24 1001 69 0 2.63 146 07:22 19.06.2020
2104 Clouds 23 1000 70 0 2.63 146 06:52 19.06.2020
2105 Clouds 22 1000 70 0 2.23 114 06:22 19.06.2020
2106 Clouds 21 1000 71 0 2.23 114 05:34 19.06.2020
2107 Clouds 22 999 78 0 2.41 97 04:21 19.06.2020
2108 Clouds 23 999 56 0 2.53 140 02:24 19.06.2020
2109 Clouds 23 1000 54 0 2.97 135 00:46 19.06.2020
2110 Clouds 24 1015 64 10000 1 0 00:22 19.06.2020
2111 Clouds 24 1000 57 0 2.76 134 23:58 18.06.2020
2112 Clouds 23 1016 64 10000 2.1 210 23:40 18.06.2020
2113 Clouds 24 1016 64 10000 2.1 210 23:22 18.06.2020
2114 Clouds 23 1015 69 10000 4.6 240 22:41 18.06.2020
2115 Clouds 23 1015 69 10000 4.6 240 22:41 18.06.2020
2116 Clouds 24 1001 61 0 2.87 116 22:21 18.06.2020
2117 Clouds 23 1014 73 10000 5.1 260 21:58 18.06.2020
2118 Clouds 23 1014 73 10000 5.1 260 21:58 18.06.2020
2119 Clear 23 1014 57 10000 1.5 0 21:38 18.06.2020
2120 Clear 25 1014 57 10000 1.5 0 21:19 18.06.2020
2121 Clear 25 1014 42 10000 5.1 60 20:44 18.06.2020
2122 Clouds 24 1014 42 10000 5.1 60 20:22 18.06.2020
2123 Clouds 25 1014 47 10000 7.7 60 19:59 18.06.2020
2124 Clouds 25 1014 44 10000 7.2 60 19:41 18.06.2020
2125 Clouds 25 1014 44 10000 7.2 60 19:20 18.06.2020
2126 Clouds 26 1014 47 10000 7.7 60 18:57 18.06.2020
2127 Clouds 26 1014 51 10000 6.2 60 18:36 18.06.2020
2128 Clouds 26 1014 51 10000 6.2 60 18:18 18.06.2020
2129 Clouds 27 1015 57 10000 4.1 40 17:43 18.06.2020
2130 Clouds 27 1015 57 10000 4.1 40 17:24 18.06.2020
2131 Clouds 27 1015 57 10000 3.6 40 16:55 18.06.2020
2132 Clouds 27 1015 61 10000 5.1 30 16:37 18.06.2020
2133 Clouds 26 1015 61 10000 5.1 30 16:18 18.06.2020
2134 Clouds 27 1015 42 10000 6.2 50 15:40 18.06.2020
2135 Clouds 27 1015 42 10000 6.2 50 15:21 18.06.2020
2136 Clouds 27 1015 47 10000 6.2 40 14:58 18.06.2020
2137 Clouds 27 1015 51 10000 5.7 40 14:39 18.06.2020
2138 Clouds 27 1015 51 10000 5.7 40 14:21 18.06.2020
2139 Clouds 27 1015 57 10000 5.7 40 13:55 18.06.2020
2140 Clouds 26 1015 69 10000 5.1 40 13:37 18.06.2020
2141 Clouds 26 1015 69 10000 5.1 40 13:18 18.06.2020
2142 Clouds 26 1016 69 10000 4.1 30 12:54 18.06.2020
2143 Clouds 26 1016 69 10000 4.1 30 12:36 18.06.2020
2144 Clouds 27 1000 47 0 1.68 26 12:18 18.06.2020
2145 Clouds 27 1000 49 0 1.68 26 11:44 18.06.2020
2146 Clouds 26 1000 50 0 1.34 10 11:21 18.06.2020
2147 Clouds 26 1000 50 0 1.34 10 10:41 18.06.2020
2148 Clouds 26 1000 49 0 0.53 31 10:20 18.06.2020
2149 Clouds 25 1000 51 0 0.53 31 09:57 18.06.2020
2150 Clouds 25 1000 53 0 0.53 31 09:39 18.06.2020
2151 Clear 24 1000 57 0 0.71 353 09:21 18.06.2020
2152 Clear 24 1000 62 0 0.71 353 08:40 18.06.2020
2153 Clear 23 1000 66 0 0.35 36 08:21 18.06.2020
2154 Clear 21 1015 73 10000 0.5 0 07:47 18.06.2020
2155 Clouds 21 1015 77 10000 1 170 07:27 18.06.2020
2156 Clouds 20 1015 77 10000 1.5 160 06:59 18.06.2020
2157 Clear 19 1015 77 10000 1.5 170 06:22 18.06.2020
2158 Clear 19 1015 77 10000 1 180 04:26 18.06.2020
2159 Clear 20 1015 82 10000 3.1 70 02:51 18.06.2020
2160 Clear 21 1016 82 10000 2.6 40 01:30 18.06.2020
2161 Clear 21 1016 88 10000 2.1 70 00:58 18.06.2020
2162 Clear 21 1016 88 10000 1 0 00:39 18.06.2020
2163 Clear 21 1016 88 10000 1 0 00:20 18.06.2020
2164 Clear 21 1016 83 10000 1 270 23:44 17.06.2020
2165 Clear 21 1016 83 10000 1 270 23:21 17.06.2020
2166 Clear 21 1016 83 10000 2.6 310 22:57 17.06.2020
2167 Clear 21 1015 88 10000 2.6 310 22:39 17.06.2020
2168 Clear 22 1015 78 10000 2.1 270 22:20 17.06.2020
2169 Clear 21 1015 78 10000 2.1 270 21:55 17.06.2020
2170 Clear 21 1015 83 10000 1.5 260 21:37 17.06.2020
2171 Clear 22 999 67 0 0.45 2 21:18 17.06.2020
2172 Clear 23 1015 78 10000 3.1 250 20:38 17.06.2020
2173 Clear 23 999 63 0 0.45 236 20:20 17.06.2020
2174 Clear 24 999 63 0 3.58 282 19:57 17.06.2020
2175 Clear 24 999 63 0 0.45 356 19:38 17.06.2020
2176 Clear 24 999 64 0 0.89 356 19:19 17.06.2020
2177 Clear 24 1014 78 10000 9.8 290 18:45 17.06.2020
2178 Clear 25 998 58 0 0.89 358 18:27 17.06.2020
2179 Clear 25 1014 78 10000 9.8 290 17:46 17.06.2020
2180 Clear 27 998 50 0 0.89 304 17:23 17.06.2020
2181 Clear 25 1014 73 10000 9.3 290 16:58 17.06.2020
2182 Clear 25 1014 73 10000 8.7 290 16:39 17.06.2020
2183 Clear 25 1014 73 10000 7.2 280 16:21 17.06.2020
2184 Clear 25 1014 73 10000 7.2 280 15:58 17.06.2020
2185 Clear 26 1014 73 10000 8.7 280 15:39 17.06.2020
2186 Clear 28 998 45 0 0.45 284 15:20 17.06.2020
2187 Clear 26 1014 78 10000 9.3 280 14:58 17.06.2020
2188 Clouds 25 1014 83 10000 9.8 280 14:39 17.06.2020
2189 Clouds 26 1014 83 10000 9.8 280 14:19 17.06.2020
2190 Clear 26 1014 83 10000 9.8 280 13:56 17.06.2020
2191 Clear 25 1014 78 10000 9.3 290 13:37 17.06.2020
2192 Clear 26 1014 78 10000 9.3 290 13:19 17.06.2020
2193 Clear 26 1014 78 10000 7.7 280 12:42 17.06.2020
2194 Clear 26 1014 78 10000 7.7 280 12:23 17.06.2020
2195 Clear 26 1014 78 10000 5.7 280 11:57 17.06.2020
2196 Clear 26 1014 78 10000 4.6 290 11:37 17.06.2020
2197 Clear 26 1014 78 10000 4.6 290 11:18 17.06.2020
2198 Clear 27 1014 50 10000 5.7 220 10:38 17.06.2020
2199 Clear 26 1014 50 10000 6.7 210 10:19 17.06.2020
2200 Clear 26 1014 50 10000 6.7 210 09:58 17.06.2020
2201 Clear 26 1014 57 10000 7.2 210 09:40 17.06.2020
2202 Clear 24 1014 57 10000 7.2 210 09:20 17.06.2020
2203 Clear 23 1014 56 10000 7.2 210 08:45 17.06.2020
2204 Clear 24 1014 56 10000 7.2 220 08:20 17.06.2020
2205 Clear 23 1013 56 10000 5.7 210 07:56 17.06.2020
2206 Clear 23 1014 60 10000 6.2 210 07:37 17.06.2020
2207 Clear 23 1014 60 10000 6.2 210 07:19 17.06.2020
2208 Clear 22 1013 53 10000 7.2 220 06:55 17.06.2020
2209 Clear 22 1013 53 10000 6.7 210 06:36 17.06.2020
2210 Clear 20 1013 53 10000 6.7 210 06:18 17.06.2020
2211 Clear 20 1013 49 10000 5.1 210 04:39 17.06.2020
2212 Clear 20 1014 52 10000 2.6 200 02:49 17.06.2020
2213 Clear 20 1014 68 10000 3.6 210 01:29 17.06.2020
2214 Clear 20 1014 72 10000 1.5 150 00:38 17.06.2020
2215 Clear 20 1014 72 10000 1.5 150 00:19 17.06.2020
2216 Clear 20 1014 72 10000 1.5 120 23:55 16.06.2020
2217 Clear 21 1014 68 10000 1.5 300 23:37 16.06.2020
2218 Clear 21 1014 68 10000 1.5 300 23:18 16.06.2020
2219 Clear 21 1014 73 10000 3.1 260 22:40 16.06.2020
2220 Clear 21 1014 73 10000 3.1 260 22:19 16.06.2020
2221 Clear 22 1014 73 10000 1.5 230 21:58 16.06.2020
2222 Clear 22 1014 77 10000 2.6 200 21:40 16.06.2020
2223 Clear 22 1014 77 10000 2.6 200 21:22 16.06.2020
2224 Clear 22 1014 73 10000 4.6 270 20:57 16.06.2020
2225 Clear 23 1014 78 10000 4.6 270 20:39 16.06.2020
2226 Clouds 24 999 59 0 0.89 320 20:18 16.06.2020
2227 Clouds 24 999 56 0 2.87 270 19:56 16.06.2020
2228 Clouds 24 1014 78 10000 6.2 270 19:37 16.06.2020
2229 Clouds 24 1014 78 10000 6.2 270 19:18 16.06.2020
2230 Clouds 24 1014 78 10000 6.2 270 18:44 16.06.2020
2231 Clouds 24 1015 78 10000 6.2 270 18:21 16.06.2020
2232 Clouds 24 1015 78 10000 6.2 270 17:58 16.06.2020
2233 Clouds 24 1015 78 10000 6.7 270 17:39 16.06.2020
2234 Clouds 24 1015 78 10000 6.7 270 17:21 16.06.2020
2235 Clouds 24 1014 78 10000 5.1 260 16:58 16.06.2020
2236 Clouds 25 1015 78 10000 5.7 270 16:39 16.06.2020
2237 Clouds 24 1015 78 10000 5.7 270 16:19 16.06.2020
2238 Clouds 23 1015 78 10000 5.1 270 15:57 16.06.2020
2239 Clouds 24 1015 78 10000 4.1 270 15:39 16.06.2020
2240 Clouds 25 1015 78 10000 4.1 270 15:21 16.06.2020
2241 Clouds 25 1015 78 10000 4.1 260 14:56 16.06.2020
2242 Clouds 25 999 47 0 2.24 10 14:37 16.06.2020
2243 Clear 26 999 50 0 1.79 353 14:19 16.06.2020
2244 Clear 25 999 55 0 1.34 343 13:45 16.06.2020
2245 Clear 25 999 58 0 1.79 319 13:24 16.06.2020
2246 Clear 25 999 59 0 1.34 6 12:43 16.06.2020
2247 Clear 24 999 58 0 1.34 1 12:23 16.06.2020
2248 Clear 24 999 56 0 0.45 4 11:59 16.06.2020
2249 Clear 24 999 56 0 0.89 298 11:40 16.06.2020
2250 Clouds 24 999 55 0 1.34 313 11:22 16.06.2020
2251 Clouds 24 999 56 0 5.55 297 10:59 16.06.2020
2252 Clouds 24 999 59 0 1.34 272 10:39 16.06.2020
2253 Clouds 24 999 59 0 1.79 290 10:20 16.06.2020
2254 Clouds 24 999 59 0 0.89 342 09:45 16.06.2020
2255 Clouds 23 1015 73 10000 6.2 270 09:23 16.06.2020
2256 Clouds 23 1015 73 10000 7.2 280 08:55 16.06.2020
2257 Clouds 23 1015 73 10000 6.7 280 08:34 16.06.2020
2258 Clear 22 1015 73 10000 5.7 280 07:55 16.06.2020
2259 Clear 22 999 76 0 0.89 302 07:37 16.06.2020
2260 Clear 22 999 77 0 4.21 269 07:19 16.06.2020
2261 Clear 22 999 77 0 0.45 348 06:34 16.06.2020
2262 Clear 22 1014 78 10000 6.7 270 05:52 16.06.2020
2263 Clear 22 1015 73 10000 4.6 230 05:19 16.06.2020
2264 Clear 22 1015 73 10000 4.6 210 04:26 16.06.2020
2265 Clear 22 1015 73 10000 3.6 190 02:46 16.06.2020
2266 Clear 20 1016 68 10000 5.1 210 01:34 16.06.2020
2267 Clear 20 1016 68 10000 5.1 220 00:58 16.06.2020
2268 Clear 20 1016 73 10000 4.1 210 00:27 16.06.2020
2269 Clear 22 1016 73 10000 3.6 220 23:57 15.06.2020
2270 Clear 22 1016 73 10000 3.6 220 23:57 15.06.2020
2271 Clear 22 1016 68 10000 4.1 200 23:38 15.06.2020
2272 Clear 22 1016 68 10000 4.1 200 23:20 15.06.2020
2273 Clear 22 1016 73 10000 3.6 210 22:42 15.06.2020
2274 Clear 22 1016 73 10000 3.6 210 22:23 15.06.2020
2275 Clear 22 1016 78 10000 3.6 210 21:58 15.06.2020
2276 Clouds 22 1016 83 10000 5.1 240 21:38 15.06.2020
2277 Clouds 23 1016 83 10000 5.1 240 21:20 15.06.2020
2278 Clouds 22 1016 83 10000 4.6 250 20:59 15.06.2020
2279 Clouds 22 1016 83 10000 3.6 230 20:39 15.06.2020
2280 Clouds 23 1016 83 10000 3.6 230 20:20 15.06.2020
2281 Clouds 24 1016 83 10000 5.1 250 19:59 15.06.2020
2282 Clouds 24 1016 83 10000 5.1 250 19:59 15.06.2020
2283 Clouds 24 1016 83 10000 4.6 260 19:40 15.06.2020
2284 Clouds 24 1016 83 10000 4.6 260 19:21 15.06.2020
2285 Clouds 24 1016 78 10000 4.6 270 18:57 15.06.2020
2286 Clouds 23 1016 78 10000 4.6 270 18:39 15.06.2020
2287 Clouds 23 1016 78 10000 4.6 270 18:19 15.06.2020
2288 Clouds 23 1016 78 10000 4.6 280 17:57 15.06.2020
2289 Clouds 22 1016 78 10000 4.6 280 17:39 15.06.2020
2290 Clouds 23 1016 78 10000 4.6 280 17:19 15.06.2020
2291 Clouds 24 1016 78 10000 4.1 290 16:43 15.06.2020
2292 Clouds 24 1016 78 10000 4.1 290 16:20 15.06.2020
2293 Clouds 24 1016 78 10000 5.1 270 15:58 15.06.2020
2294 Clouds 24 1016 78 10000 5.1 270 15:40 15.06.2020
2295 Clear 26 1000 48 0 0.89 12 15:20 15.06.2020
2296 Clear 25 1017 73 10000 5.1 280 14:56 15.06.2020
2297 Clear 25 1000 53 0 6.53 304 14:37 15.06.2020
2298 Clear 25 1000 55 0 1.34 274 14:18 15.06.2020
2299 Clear 25 1001 60 0 0.45 307 13:42 15.06.2020
2300 Clear 25 1001 59 0 1.34 327 13:24 15.06.2020
2301 Clear 25 1001 59 0 1.34 327 13:24 15.06.2020
2302 Clear 25 1000 56 0 3.13 349 12:59 15.06.2020
2303 Clear 25 1001 50 0 0.45 252 12:41 15.06.2020
2304 Clear 24 1017 73 10000 5.1 260 12:21 15.06.2020
2305 Clear 23 1000 59 0 6.18 306 11:46 15.06.2020
2306 Clear 23 1001 55 0 5.74 306 11:26 15.06.2020
2307 Clear 24 1016 73 10000 2.6 250 10:57 15.06.2020
2308 Clear 24 1001 52 0 0.45 330 10:38 15.06.2020
2309 Clear 24 1000 54 0 5.14 304 10:19 15.06.2020
2310 Clear 24 1000 55 0 5.14 304 09:42 15.06.2020
2311 Clear 23 1016 73 10000 2.1 250 09:22 15.06.2020
2312 Clear 23 1015 73 10000 1 0 08:45 15.06.2020
2313 Clouds 23 1000 57 0 4.51 321 08:26 15.06.2020
2314 Clouds 22 1000 68 0 4.51 321 07:52 15.06.2020
2315 Clouds 21 1000 74 0 3.69 303 07:34 15.06.2020
2316 Clouds 20 1000 75 0 3.69 303 06:58 15.06.2020
2317 Clouds 18 1015 59 10000 2.1 200 06:27 15.06.2020
2318 Clouds 19 1014 59 10000 2.1 180 05:51 15.06.2020
2319 Clouds 18 1014 59 10000 1.5 220 05:29 15.06.2020
2320 Clouds 19 1014 77 10000 1.5 120 04:22 15.06.2020
2321 Clouds 19 1015 82 10000 0.5 0 03:48 15.06.2020
2322 Clouds 20 1015 77 10000 1 0 02:56 15.06.2020
2323 Clouds 20 1014 82 10000 2.1 110 02:26 15.06.2020
2324 Clouds 20 1015 72 10000 1 0 01:44 15.06.2020
2325 Clouds 20 1015 72 10000 1 0 01:24 15.06.2020
2326 Clouds 20 1015 73 10000 2.1 170 00:44 15.06.2020
2327 Clouds 20 1015 73 10000 2.1 170 00:23 15.06.2020
2328 Clouds 20 1015 77 10000 2.6 150 23:57 14.06.2020
2329 Clouds 20 1015 77 10000 1 0 23:39 14.06.2020
2330 Clouds 20 1015 77 10000 1 0 23:21 14.06.2020
2331 Clouds 20 1015 77 10000 1 160 22:56 14.06.2020
2332 Clouds 20 1015 77 10000 2.1 240 22:37 14.06.2020
2333 Clear 20 1015 77 10000 2.1 240 22:18 14.06.2020
2334 Clear 21 1015 77 10000 2.6 260 21:56 14.06.2020
2335 Clear 21 1015 77 10000 2.1 280 21:37 14.06.2020
2336 Clear 21 999 76 0 0.45 279 21:18 14.06.2020
2337 Clear 22 1015 78 10000 2.6 280 20:56 14.06.2020
2338 Clear 22 999 77 0 1.53 304 20:37 14.06.2020
2339 Clear 22 999 78 0 1.94 326 20:18 14.06.2020
2340 Clear 22 999 76 0 1.94 326 19:56 14.06.2020
2341 Clear 23 999 71 0 1.94 326 19:37 14.06.2020
2342 Clear 23 998 69 0 2.56 332 19:18 14.06.2020
2343 Clear 24 999 68 0 0.45 4 18:55 14.06.2020
2344 Clouds 23 1014 73 10000 4.1 310 18:37 14.06.2020
2345 Clouds 23 1014 73 10000 4.1 310 18:18 14.06.2020
2346 Clouds 23 1014 73 10000 4.1 320 17:55 14.06.2020
2347 Clouds 23 1015 78 10000 4.1 320 17:37 14.06.2020
2348 Clear 24 998 73 0 0.89 342 17:18 14.06.2020
2349 Clear 24 999 73 0 0.89 1 16:40 14.06.2020
2350 Clear 24 999 75 0 0.89 354 16:20 14.06.2020
2351 Clear 24 999 79 0 0.89 359 15:57 14.06.2020
2352 Clear 24 999 78 0 1.34 14 15:39 14.06.2020
2353 Clear 24 999 77 0 1.79 13 15:18 14.06.2020
2354 Clouds 24 1015 78 10000 4.6 340 14:57 14.06.2020
2355 Clouds 25 1015 78 10000 4.6 340 14:37 14.06.2020
2356 Clouds 24 1015 78 10000 4.6 340 14:18 14.06.2020
2357 Clouds 25 1015 83 10000 3.6 340 13:41 14.06.2020
2358 Clouds 25 1015 83 10000 3.6 340 13:22 14.06.2020
2359 Clouds 25 1015 83 10000 3.1 350 12:59 14.06.2020
2360 Clouds 25 1015 78 10000 3.6 340 12:41 14.06.2020
2361 Clouds 25 1015 78 10000 3.6 340 12:41 14.06.2020
2362 Clouds 25 1015 78 10000 3.6 340 12:23 14.06.2020
2363 Clouds 25 1015 83 10000 3.1 340 11:59 14.06.2020
2364 Clouds 25 1015 83 10000 2.1 340 11:40 14.06.2020
2365 Clouds 24 1015 83 10000 2.1 340 11:22 14.06.2020
2366 Clouds 24 1015 88 10000 2.1 340 10:59 14.06.2020
2367 Clouds 24 1015 88 10000 3.1 320 10:39 14.06.2020
2368 Clouds 25 1015 88 10000 3.1 320 10:18 14.06.2020
2369 Clear 24 1015 88 10000 3.1 10 09:43 14.06.2020
2370 Clear 24 1015 88 10000 3.1 10 09:23 14.06.2020
2371 Clouds 23 1015 88 10000 2.6 30 08:42 14.06.2020
2372 Clouds 22 1015 88 10000 2.6 30 08:22 14.06.2020
2373 Clouds 22 1015 94 10000 3.6 20 07:55 14.06.2020
2374 Clouds 21 1014 88 10000 1 0 07:35 14.06.2020
2375 Clear 21 1014 88 10000 0.5 0 06:58 14.06.2020
2376 Clear 20 1014 83 10000 2.1 220 05:56 14.06.2020
2377 Clear 20 1014 88 10000 4.1 240 05:34 14.06.2020
2378 Clear 20 1014 83 10000 3.1 100 04:41 14.06.2020
2379 Clear 20 1014 83 10000 3.6 70 03:55 14.06.2020
2380 Clear 21 1014 88 10000 5.1 20 02:43 14.06.2020
2381 Clear 21 1014 88 10000 5.1 20 02:23 14.06.2020
2382 Clear 22 1015 78 10000 2.6 40 01:30 14.06.2020
2383 Clear 21 1015 68 10000 4.1 90 00:49 14.06.2020
2384 Clear 22 1014 78 10000 5.7 50 00:29 14.06.2020
2385 Clear 22 1015 73 10000 5.1 50 23:49 13.06.2020
2386 Clear 22 1015 69 10000 5.1 50 23:31 13.06.2020
2387 Clear 22 1015 69 10000 5.1 50 22:59 13.06.2020
2388 Clear 22 1015 88 10000 3.6 50 22:38 13.06.2020
2389 Clear 22 1015 88 10000 3.6 50 22:19 13.06.2020
2390 Clear 22 1014 88 10000 6.7 360 21:58 13.06.2020
2391 Clear 23 1014 88 10000 8.2 350 21:40 13.06.2020
2392 Clear 24 999 62 0 2.07 38 21:21 13.06.2020
2393 Clear 24 999 59 0 2.07 38 20:57 13.06.2020
2394 Clear 24 1013 78 10000 6.7 20 20:39 13.06.2020
2395 Clouds 25 998 60 0 2.74 111 20:18 13.06.2020
2396 Clouds 25 998 57 0 2.74 111 19:40 13.06.2020
2397 Clouds 26 998 57 0 4.1 105 19:20 13.06.2020
2398 Clouds 26 1012 61 10000 7.7 70 18:59 13.06.2020
2399 Clouds 25 1012 65 10000 9.8 70 18:40 13.06.2020
2400 Clouds 27 998 60 0 3.99 91 18:20 13.06.2020
2401 Clouds 25 998 74 0 0.45 15 17:57 13.06.2020
2402 Clouds 25 998 70 0 1.34 357 17:39 13.06.2020
2403 Clouds 27 1014 65 10000 5.7 40 17:20 13.06.2020
2404 Clouds 25 1013 57 10000 1 0 16:55 13.06.2020
2405 Clouds 26 1013 57 10000 1 0 16:37 13.06.2020
2406 Clouds 26 1013 57 10000 1 0 16:18 13.06.2020
2407 Clouds 28 1012 54 10000 5.7 30 15:42 13.06.2020
2408 Clouds 30 1012 54 10000 5.7 30 15:22 13.06.2020
2409 Clouds 30 1013 65 10000 4.6 40 14:45 13.06.2020
2410 Clouds 28 1013 57 10000 3.6 10 14:26 13.06.2020
2411 Clouds 30 998 38 0 2.66 43 13:58 13.06.2020
2412 Clouds 29 1014 61 10000 2.1 280 13:40 13.06.2020
2413 Clouds 29 1014 61 10000 2.1 280 13:21 13.06.2020
2414 Clouds 28 1014 50 10000 4.1 230 12:44 13.06.2020
2415 Clouds 26 1014 50 10000 4.1 230 12:26 13.06.2020
2416 Clouds 25 1015 53 10000 4.1 240 11:57 13.06.2020
2417 Clouds 25 1015 53 10000 2.6 200 11:38 13.06.2020
2418 Clouds 25 1015 53 10000 2.6 200 11:19 13.06.2020
2419 Clouds 24 1016 69 10000 1.5 270 10:56 13.06.2020
2420 Clouds 23 1016 60 10000 1 0 10:37 13.06.2020
2421 Clouds 24 1016 60 10000 1 0 10:18 13.06.2020
2422 Clouds 24 1016 64 10000 1.5 10 09:42 13.06.2020
2423 Clouds 23 1016 64 10000 1.5 10 09:21 13.06.2020
2424 Clouds 24 1015 60 10000 1.5 50 08:48 13.06.2020
2425 Clouds 23 1000 71 0 4.05 309 08:30 13.06.2020
2426 Clouds 22 1000 72 0 4.05 309 07:50 13.06.2020
2427 Clouds 22 1000 67 0 0.45 10 07:27 13.06.2020
2428 Clouds 22 1000 59 0 1.54 256 06:49 13.06.2020
2429 Clouds 22 1000 64 0 0.89 160 06:28 13.06.2020
2430 Clouds 21 1013 64 10000 3.1 230 05:42 13.06.2020
2431 Clear 21 998 71 0 0.96 173 05:23 13.06.2020
2432 Clear 20 997 71 0 0.86 178 03:47 13.06.2020
2433 Clear 20 997 71 0 0.7 157 02:54 13.06.2020
2434 Clear 21 997 73 0 1.59 143 02:29 13.06.2020
2435 Clouds 22 998 73 0 2.56 128 01:41 13.06.2020
2436 Clear 21 998 73 0 2.34 119 01:18 13.06.2020
2437 Clear 21 998 73 0 2.34 119 00:42 13.06.2020
2438 Clear 21 998 73 0 2.77 122 00:23 13.06.2020
2439 Clear 21 1013 68 10000 1.5 60 23:41 12.06.2020
2440 Clear 22 1013 68 10000 1.5 60 23:19 12.06.2020
2441 Clear 22 1013 68 10000 1.5 60 23:19 12.06.2020
2442 Clear 22 1013 68 10000 3.1 220 22:56 12.06.2020
2443 Clear 22 1013 83 10000 4.1 230 22:38 12.06.2020
2444 Clear 22 1013 83 10000 4.1 230 22:19 12.06.2020
2445 Clear 23 1012 69 10000 4.6 230 21:47 12.06.2020
2446 Clear 23 1012 69 10000 4.6 230 21:24 12.06.2020
2447 Clear 23 1012 78 10000 3.6 220 20:58 12.06.2020
2448 Clear 23 1012 60 10000 1 0 20:39 12.06.2020
2449 Clear 23 1012 60 10000 1 0 20:21 12.06.2020
2450 Clear 24 1012 54 10000 1.5 50 19:54 12.06.2020
2451 Clear 24 1012 61 10000 3.6 40 19:36 12.06.2020
2452 Clear 24 1012 61 10000 3.6 40 19:18 12.06.2020
2453 Clear 26 1012 54 10000 5.7 60 18:37 12.06.2020
2454 Clear 26 1012 65 10000 5.7 50 18:18 12.06.2020
2455 Clear 26 1012 65 10000 5.7 50 17:46 12.06.2020
2456 Clear 27 1012 54 10000 5.7 60 17:27 12.06.2020
2457 Clear 27 1012 57 10000 6.2 60 16:58 12.06.2020
2458 Clear 26 1012 57 10000 8.2 60 16:40 12.06.2020
2459 Clear 27 1012 54 10000 8.2 60 16:19 12.06.2020
2460 Clear 26 1012 47 10000 7.7 70 15:45 12.06.2020
2461 Clear 26 1012 47 10000 7.7 70 15:20 12.06.2020
2462 Clear 26 1012 50 10000 7.7 60 14:55 12.06.2020
2463 Clear 26 1012 50 10000 8.2 60 14:36 12.06.2020
2464 Clear 26 1012 50 10000 8.2 60 14:18 12.06.2020
2465 Clear 25 1013 53 10000 8.2 60 13:41 12.06.2020
2466 Clear 25 1013 53 10000 8.2 60 13:20 12.06.2020
2467 Clear 25 998 56 0 2.48 84 12:40 12.06.2020
2468 Clear 25 998 56 0 3 80 12:20 12.06.2020
2469 Clear 24 1013 60 10000 5.7 40 11:57 12.06.2020
2470 Clear 24 998 57 0 0.45 259 11:38 12.06.2020
2471 Clear 24 1013 64 10000 4.1 30 11:19 12.06.2020
2472 Clear 23 1013 64 10000 3.1 20 10:45 12.06.2020
2473 Clear 23 1013 56 10000 2.1 270 10:24 12.06.2020
2474 Clear 22 998 56 0 2.21 106 09:45 12.06.2020
2475 Clear 22 1013 60 10000 2.1 250 09:21 12.06.2020
2476 Clear 22 998 65 0 2.75 101 08:44 12.06.2020
2477 Clear 22 998 68 0 2.66 108 08:25 12.06.2020
2478 Clear 20 998 73 0 2.66 108 07:44 12.06.2020
2479 Clear 19 1012 72 10000 2.1 150 07:25 12.06.2020
2480 Clear 19 998 76 0 2.06 121 06:55 12.06.2020
2481 Clear 19 1012 72 10000 4.1 60 06:30 12.06.2020
2482 Clear 18 1012 77 10000 3.6 70 05:53 12.06.2020
2483 Clear 18 1012 68 10000 1.5 90 05:30 12.06.2020
2484 Clear 17 997 74 0 1.75 128 04:55 12.06.2020
2485 Clear 18 1013 72 10000 2.1 190 03:24 12.06.2020
2486 Clear 18 1013 68 10000 1.5 170 01:55 12.06.2020
2487 Clear 19 1013 63 10000 1.5 130 01:27 12.06.2020
2488 Clear 19 1013 63 10000 2.1 180 00:45 12.06.2020
2489 Clear 19 1013 63 10000 2.1 180 00:25 12.06.2020
2490 Clear 19 1013 68 10000 2.1 170 23:59 11.06.2020
2491 Clear 20 1013 68 10000 2.1 210 23:41 11.06.2020
2492 Clear 20 1013 68 10000 2.1 210 23:21 11.06.2020
2493 Clear 20 1013 72 10000 1 160 22:59 11.06.2020
2494 Clear 20 1013 73 10000 3.1 30 22:39 11.06.2020
2495 Clear 20 1013 73 10000 3.1 30 22:20 11.06.2020
2496 Clear 20 1012 68 10000 4.1 50 21:56 11.06.2020
2497 Clear 21 1012 68 10000 5.7 50 21:38 11.06.2020
2498 Clear 20 1012 68 10000 5.7 50 21:20 11.06.2020
2499 Clear 20 1012 68 10000 5.7 50 21:20 11.06.2020
2500 Clear 21 1012 64 10000 6.7 50 20:45 11.06.2020
2501 Clouds 22 997 65 0 1.56 94 20:22 11.06.2020
2502 Clouds 22 1012 60 10000 6.2 50 19:58 11.06.2020
2503 Clouds 22 1012 60 10000 6.2 40 19:40 11.06.2020
2504 Clouds 23 1012 60 10000 6.2 40 19:22 11.06.2020
2505 Clouds 22 1012 64 10000 5.1 30 18:42 11.06.2020
2506 Clouds 23 1013 64 10000 3.1 10 18:24 11.06.2020
2507 Clouds 23 1013 64 10000 3.1 10 17:57 11.06.2020
2508 Clouds 23 1013 64 10000 3.1 10 17:38 11.06.2020
2509 Clouds 23 1013 60 10000 3.1 350 17:20 11.06.2020
2510 Clouds 23 1013 64 10000 3.1 330 16:57 11.06.2020
2511 Clouds 22 1013 64 10000 3.1 330 16:38 11.06.2020
2512 Clouds 23 1013 64 10000 3.1 330 16:20 11.06.2020
2513 Clouds 23 1013 64 10000 3.1 330 15:43 11.06.2020
2514 Clouds 23 1014 64 10000 3.1 330 15:25 11.06.2020
2515 Clouds 22 1014 64 10000 3.1 330 14:58 11.06.2020
2516 Clouds 23 998 60 0 2.67 314 14:39 11.06.2020
2517 Clouds 23 998 61 0 0.45 303 14:20 11.06.2020
2518 Clouds 24 998 58 0 0.45 282 13:55 11.06.2020
2519 Clouds 24 998 56 0 2.13 335 13:37 11.06.2020
2520 Clouds 25 998 49 0 2.54 320 13:18 11.06.2020
2521 Clouds 25 998 49 0 2.54 320 13:18 11.06.2020
2522 Clouds 24 998 50 0 2.54 320 12:55 11.06.2020
2523 Clouds 25 998 51 0 2.54 320 12:37 11.06.2020
2524 Clouds 24 998 53 0 2.63 308 12:18 11.06.2020
2525 Clouds 23 1014 64 10000 2.6 280 11:56 11.06.2020
2526 Clouds 23 1014 64 10000 2.6 280 11:37 11.06.2020
2527 Clouds 24 998 51 0 2.23 300 11:18 11.06.2020
2528 Clouds 23 1014 64 10000 4.6 250 10:43 11.06.2020
2529 Clouds 22 1014 64 10000 3.6 250 10:20 11.06.2020
2530 Clouds 23 1014 64 10000 4.6 240 09:58 11.06.2020
2531 Clouds 22 998 53 0 1.76 280 09:39 11.06.2020
2532 Clouds 21 1014 64 10000 4.6 240 09:21 11.06.2020
2533 Clear 21 1014 64 10000 4.1 230 08:42 11.06.2020
2534 Clouds 20 1014 64 10000 3.1 210 08:19 11.06.2020
2535 Clouds 20 1014 60 10000 2.6 190 07:42 11.06.2020
2536 Clouds 19 1014 72 10000 3.1 190 07:24 11.06.2020
2537 Clouds 18 1014 72 10000 2.6 180 06:37 11.06.2020
2538 Clouds 17 1014 68 10000 3.1 190 05:58 11.06.2020
2539 Clouds 18 1014 72 10000 2.6 190 04:49 11.06.2020
2540 Clouds 19 1014 63 10000 4.1 180 03:25 11.06.2020
2541 Clouds 19 1015 63 10000 3.6 170 02:49 11.06.2020
2542 Clouds 19 1015 68 10000 4.1 200 01:57 11.06.2020
2543 Clouds 19 1015 72 10000 2.6 180 01:35 11.06.2020
2544 Clouds 19 1015 68 10000 2.6 210 00:59 11.06.2020
2545 Clouds 19 1015 68 10000 4.6 250 00:39 11.06.2020
2546 Clear 19 1015 68 10000 4.6 250 00:20 11.06.2020
2547 Clear 19 1015 68 10000 4.6 260 23:43 10.06.2020
2548 Clouds 19 1015 68 10000 3.6 260 23:23 10.06.2020
2549 Clouds 19 1015 68 10000 4.1 270 22:56 10.06.2020
2550 Clouds 19 1015 68 10000 4.1 270 22:37 10.06.2020
2551 Clear 20 1015 72 10000 3.6 270 22:18 10.06.2020
2552 Clear 19 1015 72 10000 3.6 260 21:55 10.06.2020
2553 Clear 20 1015 72 10000 3.6 260 21:37 10.06.2020
2554 Clear 20 1015 72 10000 4.6 280 21:18 10.06.2020
2555 Clear 21 1015 68 10000 4.6 280 20:55 10.06.2020
2556 Clear 21 1015 68 10000 4.6 280 20:37 10.06.2020
2557 Clear 21 999 56 0 0.45 5 20:18 10.06.2020
2558 Clear 22 1015 64 10000 4.6 280 19:39 10.06.2020
2559 Clear 22 999 51 0 3.51 285 19:18 10.06.2020
2560 Clear 22 1015 64 10000 6.2 270 18:57 10.06.2020
2561 Clear 22 1015 64 10000 6.2 270 18:38 10.06.2020
2562 Clear 22 1015 64 10000 6.2 270 18:19 10.06.2020
2563 Clear 22 1015 68 10000 4.6 270 17:55 10.06.2020
2564 Clear 22 1015 68 10000 4.6 270 17:36 10.06.2020
2565 Clear 22 1015 64 10000 5.1 280 17:18 10.06.2020
2566 Clear 22 1015 68 10000 5.7 270 16:55 10.06.2020
2567 Clear 22 1015 68 10000 5.7 270 16:37 10.06.2020
2568 Clear 22 1016 64 10000 5.1 270 16:18 10.06.2020
2569 Clear 22 1016 68 10000 6.2 260 15:39 10.06.2020
2570 Clear 22 1016 68 10000 6.2 280 15:21 10.06.2020
2571 Clear 24 1016 64 10000 4.6 270 14:56 10.06.2020
2572 Clear 22 1016 64 10000 4.6 270 14:37 10.06.2020
2573 Clouds 22 1016 64 10000 4.6 280 14:19 10.06.2020
2574 Clouds 23 1016 68 10000 6.2 280 13:40 10.06.2020
2575 Clouds 23 1016 68 10000 6.2 280 13:21 10.06.2020
2576 Clear 23 1000 61 0 0.89 10 12:43 10.06.2020
2577 Clouds 23 1016 73 10000 7.7 280 12:20 10.06.2020
2578 Clouds 23 1015 77 10000 7.7 280 11:57 10.06.2020
2579 Clouds 22 1015 77 10000 7.7 280 11:39 10.06.2020
2580 Clear 23 999 67 0 0.45 273 11:19 10.06.2020
2581 Clouds 23 1015 77 10000 7.7 280 10:57 10.06.2020
2582 Clear 24 999 64 0 1.34 5 10:39 10.06.2020
2583 Clouds 23 999 66 0 3.75 304 10:20 10.06.2020
2584 Clouds 23 1015 68 10000 3.6 230 09:41 10.06.2020
2585 Clouds 20 1014 68 10000 4.6 230 09:22 10.06.2020
2586 Clouds 22 1014 64 10000 4.6 230 08:44 10.06.2020
2587 Clouds 19 1014 64 10000 5.1 210 08:24 10.06.2020
2588 Clouds 19 1014 64 10000 5.1 190 07:57 10.06.2020
2589 Clouds 21 1014 64 10000 5.1 190 07:38 10.06.2020
2590 Clouds 19 1014 68 10000 5.1 200 07:18 10.06.2020
2591 Clear 19 999 70 0 4.05 262 06:44 10.06.2020
2592 Clouds 19 1014 68 10000 4.6 190 06:22 10.06.2020
2593 Clear 19 1013 72 10000 5.7 190 05:55 10.06.2020
2594 Clear 19 1013 72 10000 4.6 200 05:23 10.06.2020
2595 Clear 19 1013 68 10000 4.6 200 04:34 10.06.2020
2596 Clear 19 1014 68 10000 4.6 200 02:55 10.06.2020
2597 Clear 19 1014 77 10000 4.6 210 01:59 10.06.2020
2598 Clear 19 1014 77 10000 4.6 210 01:35 10.06.2020
2599 Clouds 20 1014 72 10000 3.6 220 00:39 10.06.2020
2600 Clear 20 1014 77 10000 5.7 260 00:21 10.06.2020
2601 Clear 20 1014 73 10000 6.7 260 23:55 09.06.2020
2602 Clear 20 1014 73 10000 6.7 260 23:37 09.06.2020
2603 Clear 21 1014 73 10000 7.2 270 23:18 09.06.2020
2604 Clear 21 1014 77 10000 5.7 260 22:55 09.06.2020
2605 Clear 20 1014 77 10000 5.7 260 22:36 09.06.2020
2606 Clouds 20 1014 73 10000 4.6 250 22:18 09.06.2020
2607 Clouds 20 1014 68 10000 3.1 240 21:55 09.06.2020
2608 Clouds 20 1014 68 10000 3.1 240 21:36 09.06.2020
2609 Clouds 20 1013 68 10000 4.6 270 21:18 09.06.2020
2610 Clouds 21 1013 73 10000 5.1 270 20:56 09.06.2020
2611 Clouds 21 1013 73 10000 5.1 270 20:37 09.06.2020
2612 Clear 21 997 66 0 0.45 2 20:18 09.06.2020
2613 Clear 22 997 65 0 0.89 306 19:55 09.06.2020
2614 Clear 22 997 66 0 0.89 358 19:36 09.06.2020
2615 Clouds 22 1013 73 10000 5.1 260 19:18 09.06.2020
2616 Clouds 22 1013 73 10000 5.7 270 18:43 09.06.2020
2617 Clear 23 996 52 0 0.89 343 18:25 09.06.2020
2618 Clouds 23 1013 73 10000 5.7 270 17:57 09.06.2020
2619 Clouds 22 1013 73 10000 5.7 270 17:38 09.06.2020
2620 Clouds 22 1013 73 10000 5.7 270 17:38 09.06.2020
2621 Clouds 23 1013 78 10000 7.2 280 17:20 09.06.2020
2622 Clouds 23 1012 73 10000 8.2 280 16:55 09.06.2020
2623 Clouds 21 1012 73 10000 8.2 280 16:36 09.06.2020
2624 Clouds 22 1012 83 10000 8.2 280 16:18 09.06.2020
2625 Clouds 22 1012 83 10000 5.1 280 15:39 09.06.2020
2626 Clouds 24 996 59 0 6.77 284 15:21 09.06.2020
2627 Clouds 24 1012 83 10000 4.1 280 14:57 09.06.2020
2628 Clouds 24 1012 83 10000 4.1 280 14:37 09.06.2020
2629 Clouds 23 1012 83 10000 5.7 290 14:18 09.06.2020
2630 Clear 24 996 69 0 1.34 340 13:43 09.06.2020
2631 Clear 24 996 69 0 0.45 314 13:22 09.06.2020
2632 Clouds 24 1012 83 10000 6.2 290 12:59 09.06.2020
2633 Clear 25 997 68 0 5.67 284 12:41 09.06.2020
2634 Clear 24 1012 78 10000 5.1 290 12:19 09.06.2020
2635 Clouds 24 1012 78 10000 5.1 280 11:56 09.06.2020
2636 Clouds 24 1012 78 10000 5.1 280 11:56 09.06.2020
2637 Clouds 24 1012 78 10000 5.1 280 11:37 09.06.2020
2638 Clear 24 1012 73 10000 4.1 270 11:19 09.06.2020
2639 Clear 24 1011 78 10000 3.6 270 10:45 09.06.2020
2640 Clear 23 1011 78 10000 3.6 270 10:45 09.06.2020
2641 Clear 23 1011 83 10000 4.6 250 10:25 09.06.2020
2642 Clear 23 996 75 0 1.34 9 09:57 09.06.2020
2643 Clear 23 996 74 0 3.34 269 09:38 09.06.2020
2644 Clear 23 996 74 0 2.46 256 09:18 09.06.2020
2645 Clear 21 996 76 0 2.46 256 08:39 09.06.2020
2646 Clear 21 996 76 0 2.46 256 08:39 09.06.2020
2647 Clear 21 996 76 0 2.46 256 08:39 09.06.2020
2648 Clear 22 1010 68 10000 0.5 0 08:20 09.06.2020
2649 Clear 21 1010 73 10000 0.5 0 07:42 09.06.2020
2650 Clear 21 995 83 0 3.18 232 07:22 09.06.2020
2651 Clear 20 995 84 0 3.18 232 06:55 09.06.2020
2652 Clear 20 995 85 0 3.18 232 06:36 09.06.2020
2653 Clear 18 1010 88 10000 2.1 170 05:37 09.06.2020
2654 Clear 19 1011 82 10000 4.1 210 03:55 09.06.2020
2655 Clear 20 1010 82 10000 2.1 80 02:22 09.06.2020
2656 Clear 20 1011 77 10000 1.5 120 01:37 09.06.2020
2657 Clear 20 1011 77 10000 1.5 120 01:18 09.06.2020
2658 Clear 20 1011 83 10000 2.1 130 00:42 09.06.2020
2659 Clear 21 1011 77 10000 1.5 180 00:19 09.06.2020
2660 Clear 21 1011 83 10000 0.5 0 23:42 08.06.2020
2661 Clear 21 1010 83 10000 0.5 180 23:21 08.06.2020
2662 Clear 21 1010 83 10000 0.5 180 22:59 08.06.2020
2663 Clear 21 1010 83 10000 0.5 0 22:38 08.06.2020
2664 Clear 21 1010 83 10000 1 280 22:20 08.06.2020
2665 Clear 22 1010 73 10000 1.5 280 21:56 08.06.2020
2666 Clear 22 1010 73 10000 1.5 280 21:37 08.06.2020
2667 Clear 22 1010 78 10000 1.5 270 21:19 08.06.2020
2668 Clear 22 1010 78 10000 2.1 270 20:55 08.06.2020
2669 Clear 21 1009 78 10000 1 330 20:36 08.06.2020
2670 Clear 22 1009 78 10000 1 330 20:18 08.06.2020
2671 Clear 23 1009 73 10000 1 310 19:43 08.06.2020
2672 Rain 23 1009 78 10000 2.1 300 19:21 08.06.2020
2673 Rain 23 1009 73 10000 1.5 10 18:44 08.06.2020
2674 Rain 23 1009 73 10000 2.1 360 18:21 08.06.2020
2675 Rain 24 1009 78 10000 3.1 30 17:58 08.06.2020
2676 Rain 23 1009 78 10000 3.1 30 17:40 08.06.2020
2677 Clear 23 1009 78 10000 3.1 30 17:22 08.06.2020
2678 Clear 23 1010 78 10000 2.6 30 16:58 08.06.2020
2679 Clear 23 1010 78 10000 2.6 30 16:58 08.06.2020
2680 Clear 23 1010 78 10000 2.6 30 16:39 08.06.2020
2681 Rain 23 1010 78 10000 2.6 30 16:21 08.06.2020
2682 Rain 23 1010 78 10000 2.6 10 15:43 08.06.2020
2683 Clear 25 1010 78 10000 2.6 10 15:22 08.06.2020
2684 Clear 26 1010 73 10000 3.1 310 14:58 08.06.2020
2685 Clear 26 1010 73 10000 3.1 310 14:58 08.06.2020
2686 Clear 24 1010 73 10000 3.1 310 14:39 08.06.2020
2687 Clear 25 994 57 0 3.71 322 14:19 08.06.2020
2688 Clear 25 995 59 0 3.71 322 13:43 08.06.2020
2689 Clear 25 1010 69 10000 2.1 280 13:23 08.06.2020
2690 Clear 25 994 49 0 4.43 310 12:43 08.06.2020
2691 Clear 25 994 48 0 4.5 309 12:20 08.06.2020
2692 Clear 25 994 50 0 0.45 322 11:59 08.06.2020
2693 Clear 25 994 49 0 0.45 50 11:40 08.06.2020
2694 Clear 25 994 47 0 1.34 344 11:22 08.06.2020
2695 Clear 25 994 49 0 0.45 20 11:22 08.06.2020
2696 Clear 25 994 48 0 0.45 342 10:58 08.06.2020
2697 Clear 25 994 50 0 3.75 307 10:38 08.06.2020
2698 Clear 25 994 53 0 1.36 283 10:20 08.06.2020
2699 Clear 25 994 53 0 1.36 283 10:20 08.06.2020
2700 Clear 24 994 53 0 1.36 283 09:57 08.06.2020
2701 Clear 24 994 55 0 1.36 283 09:39 08.06.2020
2702 Clear 22 1009 78 10000 3.1 320 09:20 08.06.2020
2703 Clear 23 994 64 0 3.45 258 08:44 08.06.2020
2704 Clouds 22 994 71 0 2.54 186 08:21 08.06.2020
2705 Clouds 20 994 86 0 2.54 186 07:46 08.06.2020
2706 Rain 19 995 88 0 3.93 163 07:22 08.06.2020
2707 Rain 20 995 87 0 3.93 163 06:50 08.06.2020
2708 Rain 20 1010 88 10000 2.1 80 06:28 08.06.2020
2709 Clouds 20 1010 82 10000 1 0 05:47 08.06.2020
2710 Clouds 21 1011 73 10000 2.6 150 04:29 08.06.2020
2711 Clouds 22 1011 68 10000 1 0 02:32 08.06.2020
2712 Rain 21 1012 73 10000 2.6 220 01:46 08.06.2020
2713 Clouds 23 1012 53 10000 2.6 230 01:26 08.06.2020
2714 Clouds 22 1011 68 10000 2.1 190 00:30 08.06.2020
2715 Clouds 22 1011 73 10000 2.1 190 23:42 07.06.2020
2716 Rain 22 1010 78 10000 2.1 170 23:20 07.06.2020
2717 Rain 22 1010 77 10000 2.1 140 22:59 07.06.2020
2718 Rain 22 1010 77 10000 2.1 140 22:39 07.06.2020
2719 Rain 22 1010 83 10000 3.6 330 22:19 07.06.2020
2720 Rain 23 1009 78 10000 2.1 0 21:59 07.06.2020
2721 Rain 23 1009 78 10000 2.1 0 21:38 07.06.2020
2722 Rain 23 1009 78 10000 2.1 0 21:38 07.06.2020
2723 Clear 23 994 70 0 2.23 92 21:20 07.06.2020
2724 Clear 23 995 69 0 2.02 116 20:56 07.06.2020
2725 Clear 23 995 67 0 2.23 92 20:37 07.06.2020
2726 Clouds 23 995 65 0 0.8 93 20:18 07.06.2020
2727 Clouds 23 995 61 0 0.8 93 19:55 07.06.2020
2728 Clouds 23 995 59 0 0.8 93 19:37 07.06.2020
2729 Clouds 24 1010 64 10000 5.7 70 19:18 07.06.2020
2730 Clouds 24 1010 60 10000 8.2 80 18:54 07.06.2020
2731 Clouds 24 1010 60 10000 8.2 80 18:36 07.06.2020
2732 Clouds 24 1010 64 10000 6.7 60 18:18 07.06.2020
2733 Clouds 25 995 58 0 1.34 355 17:41 07.06.2020
2734 Clouds 27 1010 39 10000 5.1 220 17:22 07.06.2020
2735 Clouds 26 994 50 0 3.51 109 16:45 07.06.2020
2736 Clouds 25 1009 61 10000 2.1 0 16:23 07.06.2020
2737 Clouds 27 1009 39 10000 4.6 190 15:59 07.06.2020
2738 Clouds 26 1009 39 10000 4.6 190 15:36 07.06.2020
2739 Clouds 27 1010 64 10000 2.6 20 15:18 07.06.2020
2740 Clouds 25 1011 64 10000 3.1 40 14:38 07.06.2020
2741 Clouds 24 1011 64 10000 4.1 60 14:19 07.06.2020
2742 Clouds 23 1011 73 10000 4.1 40 13:47 07.06.2020
2743 Clouds 23 1011 73 10000 4.1 40 13:47 07.06.2020
2744 Clouds 23 1011 73 10000 4.1 40 13:47 07.06.2020
2745 Clouds 23 1011 78 10000 4.1 40 13:21 07.06.2020
2746 Clouds 24 1012 78 10000 3.6 30 12:55 07.06.2020
2747 Clouds 24 1012 78 10000 3.6 40 12:36 07.06.2020
2748 Clouds 25 1012 78 10000 3.6 40 12:18 07.06.2020
2749 Clouds 25 996 59 0 1.89 260 11:54 07.06.2020
2750 Clouds 24 1011 78 10000 5.1 30 11:36 07.06.2020
2751 Clouds 25 996 58 0 1.39 251 11:18 07.06.2020
2752 Clouds 24 996 58 0 1.39 251 10:42 07.06.2020
2753 Clouds 24 996 60 0 1.27 224 10:20 07.06.2020
2754 Clouds 24 996 61 0 1.27 224 09:57 07.06.2020
2755 Clouds 24 996 60 0 1.27 224 09:38 07.06.2020
2756 Clouds 23 1011 77 10000 2.6 20 09:20 07.06.2020
2757 Clouds 23 996 64 0 1.49 160 08:48 07.06.2020
2758 Clouds 22 996 67 0 1.53 170 08:24 07.06.2020
2759 Clouds 21 996 71 0 1.53 170 07:50 07.06.2020
2760 Clouds 21 996 74 0 1.53 170 07:29 07.06.2020
2761 Clouds 19 996 76 0 1.55 147 06:48 07.06.2020
2762 Clouds 18 1011 72 10000 0.5 0 05:41 07.06.2020
2763 Clouds 18 1011 82 10000 2.6 200 04:20 07.06.2020
2764 Clouds 19 1011 82 10000 1.5 320 02:35 07.06.2020
2765 Clouds 19 1011 77 10000 1.5 60 01:55 07.06.2020
2766 Clouds 19 1011 72 10000 0.5 0 01:25 07.06.2020
2767 Clouds 19 1012 72 10000 1 0 00:46 07.06.2020
2768 Clouds 19 1012 77 10000 2.1 160 00:19 07.06.2020
2769 Clouds 19 1012 82 10000 2.1 210 23:57 06.06.2020
2770 Clouds 19 1012 82 10000 2.1 210 23:37 06.06.2020
2771 Clouds 19 1012 82 10000 1.5 200 23:19 06.06.2020
2772 Clouds 20 1012 77 10000 1.5 200 22:56 06.06.2020
2773 Clouds 20 1012 77 10000 1.5 200 22:37 06.06.2020
2774 Clouds 20 1012 82 10000 1 0 22:18 06.06.2020
2775 Clouds 20 1012 88 10000 5.1 270 21:44 06.06.2020
2776 Clouds 21 997 75 0 2.86 274 21:22 06.06.2020
2777 Clouds 21 1012 77 10000 2.6 270 20:57 06.06.2020
2778 Clouds 21 1012 77 10000 2.6 270 20:38 06.06.2020
2779 Clear 22 996 70 0 3.04 280 20:18 06.06.2020
2780 Clear 22 996 68 0 0.45 352 19:57 06.06.2020
2781 Clear 23 996 67 0 0.45 8 19:37 06.06.2020
2782 Clear 23 996 64 0 3.25 282 19:19 06.06.2020
2783 Clear 23 1011 83 10000 6.7 290 18:43 06.06.2020
2784 Clear 23 1011 77 10000 7.2 280 18:24 06.06.2020
2785 Clear 22 1012 77 10000 6.2 290 17:58 06.06.2020
2786 Clear 22 1012 77 10000 6.2 290 17:39 06.06.2020
2787 Clear 22 1012 77 10000 5.7 290 17:19 06.06.2020
2788 Clear 22 1012 77 10000 5.1 280 16:44 06.06.2020
2789 Clear 22 1012 77 10000 5.1 280 16:22 06.06.2020
2790 Clear 22 1012 77 10000 6.2 270 15:56 06.06.2020
2791 Clear 22 1012 77 10000 6.2 270 15:37 06.06.2020
2792 Clouds 22 1012 77 10000 5.7 280 15:19 06.06.2020
2793 Clear 23 1012 77 10000 4.6 270 14:43 06.06.2020
2794 Clouds 22 1012 77 10000 4.6 260 14:25 06.06.2020
2795 Clouds 23 996 54 0 4.6 302 13:59 06.06.2020
2796 Clouds 23 1012 77 10000 4.6 260 13:40 06.06.2020
2797 Clouds 22 997 58 0 0.45 306 13:18 06.06.2020
2798 Clouds 23 1012 73 10000 4.1 260 12:43 06.06.2020
2799 Clouds 22 996 58 0 4.23 304 12:24 06.06.2020
2800 Clouds 22 996 59 0 0.89 12 11:59 06.06.2020
2801 Clouds 22 1011 73 10000 4.1 250 11:39 06.06.2020
2802 Clouds 21 996 61 0 0.45 302 11:20 06.06.2020
2803 Clouds 21 996 63 0 0.45 311 10:59 06.06.2020
2804 Clouds 22 1011 73 10000 3.6 270 10:39 06.06.2020
2805 Clouds 22 1011 73 10000 2.6 260 10:21 06.06.2020
2806 Clouds 21 995 70 0 1.79 311 09:58 06.06.2020
2807 Clouds 20 995 73 0 0.45 287 09:40 06.06.2020
2808 Clouds 20 1011 73 10000 3.6 290 09:21 06.06.2020
2809 Clouds 19 1011 77 10000 5.1 280 08:41 06.06.2020
2810 Clouds 19 1010 77 10000 3.6 280 08:20 06.06.2020
2811 Clouds 18 1010 77 10000 4.6 290 07:46 06.06.2020
2812 Clouds 20 1010 77 10000 4.1 290 07:23 06.06.2020
2813 Rain 18 994 80 0 6.57 286 06:49 06.06.2020
2814 Rain 18 994 82 0 0.45 304 06:31 06.06.2020
2815 Clouds 18 1009 77 10000 7.7 280 05:58 06.06.2020
2816 Clouds 18 1009 77 10000 7.7 280 05:30 06.06.2020
2817 Clouds 20 1009 72 10000 9.8 280 04:46 06.06.2020
2818 Clear 20 1009 77 10000 9.8 270 03:21 06.06.2020
2819 Clear 20 1009 73 10000 9.8 270 01:58 06.06.2020
2820 Clear 20 1008 73 10000 10.3 270 01:20 06.06.2020
2821 Clear 21 1008 73 10000 9.8 280 00:46 06.06.2020
2822 Clear 21 1008 77 10000 9.8 270 00:27 06.06.2020
2823 Clear 21 1008 77 10000 9.3 260 23:58 05.06.2020
2824 Clear 21 1008 77 10000 9.3 260 23:39 05.06.2020
2825 Clear 21 1008 77 10000 9.3 260 23:19 05.06.2020
2826 Clear 21 1008 73 10000 7.7 260 22:56 05.06.2020
2827 Clear 21 1008 73 10000 7.7 260 22:37 05.06.2020
2828 Clear 21 1008 77 10000 5.7 250 22:19 05.06.2020
2829 Clear 21 1007 83 10000 5.1 240 21:42 05.06.2020
2830 Clouds 21 1007 83 10000 5.7 250 21:22 05.06.2020
2831 Clouds 21 1007 83 10000 5.1 260 20:58 05.06.2020
2832 Clouds 21 1007 83 10000 5.1 260 20:39 05.06.2020
2833 Clouds 21 991 77 0 6.4 283 20:21 05.06.2020
2834 Clouds 21 1006 83 10000 5.7 260 19:43 05.06.2020
2835 Clouds 21 990 74 0 0.89 325 19:24 05.06.2020
2836 Clouds 21 1006 77 10000 7.7 270 18:57 05.06.2020
2837 Clouds 21 1006 77 10000 7.7 270 18:39 05.06.2020
2838 Clouds 21 990 74 0 1.34 182 18:20 05.06.2020
2839 Clouds 21 990 72 0 1.34 330 17:58 05.06.2020
2840 Clouds 22 990 72 0 1.34 275 17:39 05.06.2020
2841 Rain 22 990 67 0 2.24 343 17:19 05.06.2020
2842 Clouds 21 1006 77 10000 8.2 260 16:39 05.06.2020
2843 Clouds 22 1005 77 10000 7.7 260 16:21 05.06.2020
2844 Rain 20 1005 77 10000 8.2 260 15:57 05.06.2020
2845 Rain 19 1005 77 10000 8.2 260 15:37 05.06.2020
2846 Clouds 18 1005 68 10000 7.2 210 15:19 05.06.2020
2847 Clouds 18 1005 72 10000 5.7 210 14:55 05.06.2020
2848 Clouds 19 1005 72 10000 5.7 210 14:37 05.06.2020
2849 Rain 20 989 82 0 5.21 275 14:19 05.06.2020
2850 Rain 18 990 99 0 0.45 347 13:42 05.06.2020
2851 Rain 18 990 99 0 4.18 279 13:23 05.06.2020
2852 Rain 19 1006 88 9000 1.5 190 12:43 05.06.2020
2853 Rain 17 1006 93 9000 2.1 70 12:20 05.06.2020
2854 Rain 18 1007 93 5000 3.1 180 11:57 05.06.2020
2855 Rain 17 1007 93 5000 3.1 180 11:39 05.06.2020
2856 Rain 19 1007 93 9000 1.5 190 11:20 05.06.2020
2857 Rain 19 1006 88 6000 2.6 130 10:55 05.06.2020
2858 Rain 19 1006 88 6000 2.6 130 10:36 05.06.2020
2859 Rain 19 1006 93 9000 2.1 200 10:18 05.06.2020
2860 Rain 20 1008 93 8000 4.1 200 09:55 05.06.2020
2861 Rain 20 1008 93 8000 4.1 200 09:36 05.06.2020
2862 Rain 20 1008 88 7000 5.7 230 09:18 05.06.2020
2863 Rain 20 1008 88 7000 5.7 230 09:18 05.06.2020
2864 Rain 21 1007 83 6000 10.8 260 08:41 05.06.2020
2865 Rain 21 991 70 0 0.45 353 08:20 05.06.2020
2866 Rain 21 990 64 0 3.13 266 07:58 05.06.2020
2867 Rain 22 990 67 0 3.13 266 07:39 05.06.2020
2868 Clouds 23 1005 73 10000 6.2 270 07:20 05.06.2020
2869 Clouds 21 1005 68 10000 5.7 230 05:58 05.06.2020
2870 Clouds 22 1005 68 10000 6.7 220 05:19 05.06.2020
2871 Rain 23 989 71 0 1.34 250 03:54 05.06.2020
2872 Clouds 22 1005 57 10000 3.6 240 02:56 05.06.2020
2873 Rain 22 990 68 0 2.94 204 02:24 05.06.2020
2874 Rain 22 992 66 0 0.89 234 01:55 05.06.2020
2875 Rain 22 1006 44 10000 14.4 190 01:27 05.06.2020
2876 Clouds 23 1006 44 10000 11.8 200 00:42 05.06.2020
2877 Rain 22 1006 47 10000 8.7 220 00:21 05.06.2020
2878 Rain 23 1005 47 10000 7.7 220 23:46 04.06.2020
2879 Rain 23 1005 47 10000 7.7 220 23:46 04.06.2020
2880 Rain 23 1005 47 10000 7.7 220 23:28 04.06.2020
2881 Rain 23 1005 39 10000 8.2 210 22:56 04.06.2020
2882 Rain 23 1004 34 10000 7.7 210 22:37 04.06.2020
2883 Clear 23 1004 34 10000 7.7 210 22:18 04.06.2020
2884 Clear 24 1004 30 10000 10.3 190 21:56 04.06.2020
2885 Clear 24 1004 30 10000 10.3 190 21:37 04.06.2020
2886 Clear 24 1004 30 10000 9.3 190 21:19 04.06.2020
2887 Clear 24 1004 28 10000 8.2 190 20:54 04.06.2020
2888 Clear 25 1004 28 10000 9.3 200 20:36 04.06.2020
2889 Clear 25 1004 28 10000 9.3 200 20:18 04.06.2020
2890 Clear 25 1004 28 10000 9.3 190 19:39 04.06.2020
2891 Clear 25 1004 28 10000 9.3 190 19:39 04.06.2020
2892 Clear 27 1004 28 10000 9.3 190 19:21 04.06.2020
2893 Clear 27 1004 27 10000 7.7 200 18:56 04.06.2020
2894 Clear 27 1004 27 10000 7.7 200 18:38 04.06.2020
2895 Clear 27 1005 25 10000 8.2 200 18:20 04.06.2020
2896 Clear 26 1006 61 10000 3.6 0 17:42 04.06.2020
2897 Clear 27 1006 78 10000 4.6 30 17:21 04.06.2020
2898 Clear 27 1006 69 10000 4.6 30 16:56 04.06.2020
2899 Clear 27 1006 69 10000 4.6 30 16:38 04.06.2020
2900 Clouds 27 1006 64 10000 4.1 40 16:18 04.06.2020
2901 Clouds 28 1006 69 10000 6.2 50 15:43 04.06.2020
2902 Clear 28 1006 54 10000 6.2 50 15:24 04.06.2020
2903 Clear 29 991 41 0 2.84 119 14:41 04.06.2020
2904 Clouds 28 991 51 0 0.45 7 14:22 04.06.2020
2905 Clouds 28 992 52 0 1.34 8 13:57 04.06.2020
2906 Clouds 28 992 53 0 1.34 352 13:38 04.06.2020
2907 Clouds 28 992 45 0 1.8 115 13:20 04.06.2020
2908 Clouds 28 992 40 0 1.79 8 12:58 04.06.2020
2909 Clouds 28 992 40 0 1.79 8 12:58 04.06.2020
2910 Clouds 28 992 40 0 0.89 20 12:40 04.06.2020
2911 Clouds 27 992 43 0 1.34 9 12:21 04.06.2020
2912 Clouds 27 992 44 0 1.79 355 11:54 04.06.2020
2913 Clouds 26 993 44 0 0.45 2 11:36 04.06.2020
2914 Clouds 26 993 43 0 1.34 356 11:18 04.06.2020
2915 Clouds 25 992 40 0 0.45 334 10:39 04.06.2020
2916 Clouds 25 993 42 0 1.77 137 10:21 04.06.2020
2917 Clouds 24 993 43 0 1.77 137 09:56 04.06.2020
2918 Clouds 21 1009 53 10000 3.1 40 09:37 04.06.2020
2919 Clouds 20 1009 68 10000 3.1 30 09:18 04.06.2020
2920 Clouds 21 1009 68 10000 2.6 40 08:38 04.06.2020
2921 Clouds 21 1009 46 10000 2.6 210 08:20 04.06.2020
2922 Clouds 20 994 64 0 1.93 163 07:32 04.06.2020
2923 Clouds 19 994 65 0 2.13 174 06:57 04.06.2020
2924 Clouds 19 994 66 0 2.13 174 06:39 04.06.2020
2925 Clouds 17 994 68 0 2.13 171 06:18 04.06.2020
2926 Clouds 17 1009 72 10000 4.1 210 05:33 04.06.2020
2927 Clouds 17 1009 72 10000 4.1 210 05:33 04.06.2020
2928 Clouds 18 1010 68 10000 4.1 210 03:50 04.06.2020
2929 Clouds 19 1010 56 10000 3.6 210 02:21 04.06.2020
2930 Clouds 19 1010 56 10000 3.6 210 02:21 04.06.2020
2931 Clouds 19 1010 72 10000 2.1 200 01:39 04.06.2020
2932 Clouds 19 1010 68 10000 1 0 01:18 04.06.2020
2933 Clouds 20 1010 68 10000 2.1 190 00:19 04.06.2020
2934 Clouds 20 1010 68 10000 2.1 200 23:39 03.06.2020
2935 Clouds 21 1011 68 10000 3.1 220 23:19 03.06.2020
2936 Clouds 21 1011 68 10000 4.6 210 22:56 03.06.2020
2937 Clouds 21 1011 68 10000 4.6 210 22:38 03.06.2020
2938 Clouds 21 1010 68 10000 2.1 180 22:18 03.06.2020
2939 Clouds 22 1010 64 10000 2.6 240 21:55 03.06.2020
2940 Clouds 22 1010 64 10000 2.6 240 21:36 03.06.2020
2941 Clouds 22 1010 68 10000 2.1 0 21:18 03.06.2020
2942 Clouds 21 1010 56 10000 4.6 70 20:42 03.06.2020
2943 Clear 23 1010 53 10000 7.2 70 20:21 03.06.2020
2944 Clear 22 1010 56 10000 8.7 50 19:57 03.06.2020
2945 Clear 22 1010 56 10000 8.7 50 19:39 03.06.2020
2946 Clear 23 1010 56 10000 8.7 50 19:20 03.06.2020
2947 Clear 23 1010 56 10000 8.7 50 18:58 03.06.2020
2948 Clear 22 1010 56 10000 8.7 50 18:40 03.06.2020
2949 Clear 22 1010 60 10000 8.7 50 18:19 03.06.2020
2950 Clear 23 1010 56 10000 8.7 50 17:45 03.06.2020
2951 Clear 23 1010 53 10000 8.7 50 17:23 03.06.2020
2952 Clear 24 1010 53 10000 9.3 50 16:58 03.06.2020
2953 Clear 25 1010 53 10000 9.3 50 16:39 03.06.2020
2954 Clear 25 1010 53 10000 9.3 50 16:19 03.06.2020
2955 Clear 24 1011 57 10000 8.7 50 15:55 03.06.2020
2956 Clear 24 1011 57 10000 8.7 50 15:36 03.06.2020
2957 Clear 24 1011 57 10000 8.7 50 15:36 03.06.2020
2958 Clouds 24 1011 57 10000 8.2 50 15:18 03.06.2020
2959 Clouds 24 1011 60 10000 8.2 40 14:42 03.06.2020
2960 Clouds 24 1011 60 10000 9.3 50 14:22 03.06.2020
2961 Clear 24 1011 56 10000 8.7 50 13:40 03.06.2020
2962 Clear 24 1012 64 10000 8.2 40 13:21 03.06.2020
2963 Clear 24 1012 60 10000 8.2 40 12:56 03.06.2020
2964 Clear 24 1012 60 10000 8.2 40 12:38 03.06.2020
2965 Clear 24 1012 64 10000 7.7 40 12:18 03.06.2020
2966 Clear 24 1012 60 10000 6.2 40 11:43 03.06.2020
2967 Clear 23 1012 60 10000 5.7 40 11:24 03.06.2020
2968 Clear 23 1012 60 10000 2.1 350 10:43 03.06.2020
2969 Clouds 23 1012 64 10000 2.1 310 10:25 03.06.2020
2970 Clouds 23 1012 60 10000 2.1 260 09:55 03.06.2020
2971 Clouds 23 1012 60 10000 2.1 260 09:36 03.06.2020
2972 Clear 19 1012 64 10000 2.6 260 09:18 03.06.2020
2973 Clear 20 1012 60 10000 2.6 230 08:46 03.06.2020
2974 Clouds 20 1012 56 10000 2.1 200 08:21 03.06.2020
2975 Clouds 21 1012 60 10000 1.5 150 07:46 03.06.2020
2976 Clouds 20 1012 63 10000 1.5 170 07:24 03.06.2020
2977 Clouds 19 997 63 0 0.88 132 06:58 03.06.2020
2978 Clouds 19 997 63 0 0.88 132 06:40 03.06.2020
2979 Clouds 19 1011 68 10000 1 330 06:21 03.06.2020
2980 Clouds 19 1011 59 10000 1 0 05:42 03.06.2020
2981 Clouds 19 1011 56 10000 2.6 60 04:19 03.06.2020
2982 Clouds 19 1011 56 10000 2.6 100 03:41 03.06.2020
2983 Clouds 20 1012 60 10000 3.6 80 02:33 03.06.2020
2984 Clouds 20 1013 60 10000 1 0 01:34 03.06.2020
2985 Clouds 20 1013 56 10000 3.1 50 00:38 03.06.2020
2986 Clouds 21 1013 56 10000 3.1 50 00:19 03.06.2020
2987 Clouds 21 1013 52 10000 4.1 70 23:43 02.06.2020
2988 Clouds 21 1013 49 10000 4.1 80 23:24 02.06.2020
2989 Clouds 21 1013 56 10000 5.7 70 22:40 02.06.2020
2990 Clouds 21 1012 56 10000 6.2 60 22:19 02.06.2020
2991 Clouds 21 1012 56 10000 6.7 60 21:57 02.06.2020
2992 Clouds 21 1012 56 10000 6.7 60 21:39 02.06.2020
2993 Clear 21 1012 60 10000 7.2 60 21:21 02.06.2020
2994 Clear 21 1012 60 10000 7.2 60 21:21 02.06.2020
2995 Clouds 21 1012 60 10000 7.2 60 21:21 02.06.2020
2996 -273 0 0 0 0 0 20:59 02.06.2020
2997 Clear 21 1012 60 10000 7.7 50 20:41 02.06.2020
2998 Clouds 21 1012 60 10000 7.7 50 20:22 02.06.2020
2999 Clouds 22 1012 60 10000 8.2 40 19:46 02.06.2020
3000 Clouds 22 1012 60 10000 8.2 40 19:26 02.06.2020
3001 Clouds 22 1013 60 10000 7.7 50 18:59 02.06.2020
3002 Clouds 21 1013 60 10000 7.7 50 18:40 02.06.2020
3003 Clouds 22 1013 53 10000 8.2 40 18:21 02.06.2020
3004 Clouds 23 1013 60 10000 8.2 40 17:59 02.06.2020
3005 Clouds 23 1013 60 10000 8.2 40 17:40 02.06.2020
3006 Clouds 23 1013 60 10000 8.2 40 17:21 02.06.2020
3007 Clouds 23 1013 60 10000 8.7 40 16:56 02.06.2020
3008 Clouds 23 1013 60 10000 8.7 40 16:38 02.06.2020
3009 Clouds 23 1013 60 10000 8.2 40 16:19 02.06.2020
3010 Clouds 24 1014 53 10000 7.7 40 15:42 02.06.2020
3011 Clouds 23 1014 60 10000 7.2 40 15:23 02.06.2020
3012 Clouds 23 1014 64 10000 6.7 40 14:49 02.06.2020
3013 Clouds 23 1015 60 10000 6.2 40 14:30 02.06.2020
3014 Clouds 23 1015 56 10000 6.2 40 13:58 02.06.2020
3015 Clouds 23 1015 56 10000 6.2 40 13:38 02.06.2020
3016 Clouds 24 1000 37 0 2.72 44 13:19 02.06.2020
3017 Clouds 24 1015 56 10000 6.2 40 12:58 02.06.2020
3018 Clouds 24 1000 39 0 2.72 44 12:39 02.06.2020
3019 Clouds 22 1015 60 10000 6.2 40 12:20 02.06.2020
3020 Clouds 23 1015 56 10000 6.2 40 11:55 02.06.2020
3021 Clouds 23 1015 56 10000 6.2 40 11:36 02.06.2020
3022 Clear 23 1015 60 10000 6.7 40 11:18 02.06.2020
3023 Clear 22 1015 64 10000 6.7 40 10:46 02.06.2020
3024 Clear 23 1000 61 0 2.09 73 10:28 02.06.2020
3025 Clouds 22 1015 56 10000 5.1 70 09:56 02.06.2020
3026 Clouds 22 1015 56 10000 5.1 70 09:37 02.06.2020
3027 Clouds 20 1015 60 10000 5.7 60 09:19 02.06.2020
3028 Clouds 19 1015 60 10000 5.1 70 08:46 02.06.2020
3029 Clouds 21 1015 68 10000 4.6 70 08:20 02.06.2020
3030 Clear 20 1000 84 0 1.39 91 07:46 02.06.2020
3031 Clear 19 1000 86 0 1.05 123 07:25 02.06.2020
3032 Clear 18 1000 86 0 1.05 123 06:43 02.06.2020
3033 Clouds 17 1014 82 10000 0.5 0 05:57 02.06.2020
3034 Clouds 17 1014 82 10000 1.5 220 04:58 02.06.2020
3035 Clouds 18 1015 72 10000 2.1 60 03:21 02.06.2020
3036 Clear 18 1015 77 10000 2.6 80 02:24 02.06.2020
3037 Clear 18 1015 77 10000 3.6 70 01:21 02.06.2020
3038 Clear 18 1015 77 10000 3.1 50 00:25 02.06.2020
3039 Clear 18 1015 77 10000 3.1 60 23:55 01.06.2020
3040 Clear 18 1015 77 10000 3.1 60 23:36 01.06.2020
3041 Clear 18 1015 72 10000 2.6 60 23:18 01.06.2020
3042 Clear 19 1015 72 10000 3.1 70 22:41 01.06.2020
3043 Clear 19 1015 68 10000 2.6 90 22:21 01.06.2020
3044 Clear 19 1015 68 10000 2.6 90 22:21 01.06.2020
3045 Clear 19 1015 68 10000 2.6 90 21:58 01.06.2020
3046 Clear 20 1015 72 10000 2.1 50 21:39 01.06.2020
3047 Clouds 20 1014 72 10000 4.1 60 21:19 01.06.2020
3048 Clouds 20 1014 72 10000 5.1 50 20:55 01.06.2020
3049 Clouds 20 1014 72 10000 5.1 50 20:55 01.06.2020
3050 Clouds 20 1014 72 10000 5.1 50 20:37 01.06.2020
3051 Clouds 21 1014 68 10000 6.2 40 20:19 01.06.2020
3052 Clouds 21 1014 68 10000 6.2 40 19:43 01.06.2020
3053 Clouds 22 1000 58 0 2.58 360 19:21 01.06.2020
3054 Clouds 22 1000 53 0 0.45 357 18:59 01.06.2020
3055 Clouds 22 1014 64 10000 6.2 30 18:39 01.06.2020
3056 Clouds 22 1015 64 10000 5.7 30 18:20 01.06.2020
3057 Clouds 22 1015 64 10000 5.7 30 17:58 01.06.2020
3058 Clouds 22 1015 64 10000 5.7 30 17:40 01.06.2020
3059 Clear 22 1015 64 10000 6.7 30 17:19 01.06.2020
3060 Clear 22 1015 64 10000 6.7 30 16:42 01.06.2020
3061 Clear 22 1015 64 10000 5.7 20 16:22 01.06.2020
3062 Clear 22 1015 68 10000 5.1 10 15:57 01.06.2020
3063 Clear 23 1015 68 10000 5.1 10 15:39 01.06.2020
3064 Clear 23 1015 64 10000 4.6 10 15:19 01.06.2020
3065 Clear 23 1015 64 10000 4.6 10 14:57 01.06.2020
3066 Clear 22 1016 64 10000 4.6 20 14:39 01.06.2020
3067 Clouds 23 1016 64 10000 4.6 20 14:21 01.06.2020
3068 Clear 23 1001 54 0 1.34 2 13:54 01.06.2020
3069 Clouds 23 1016 60 10000 4.1 20 13:36 01.06.2020
3070 Clouds 23 1016 60 10000 4.1 20 13:18 01.06.2020
3071 Clouds 22 1016 64 10000 4.6 20 12:54 01.06.2020
3072 Clouds 22 1016 64 10000 5.1 30 12:36 01.06.2020
3073 Clouds 22 1016 64 10000 5.1 30 12:18 01.06.2020
3074 Clouds 22 1016 64 10000 4.6 30 11:38 01.06.2020
3075 Clear 22 1001 59 0 0.45 21 11:19 01.06.2020
3076 Clear 22 1001 63 0 2.15 18 10:57 01.06.2020
3077 Clear 22 1001 62 0 2.15 18 10:37 01.06.2020
3078 Clouds 21 1015 64 10000 4.1 40 10:18 01.06.2020
3079 Clouds 21 1016 72 10000 1.5 320 09:46 01.06.2020
3080 Clouds 18 1016 72 10000 1.5 320 09:27 01.06.2020
3081 Clouds 19 1016 72 10000 1.5 260 08:59 01.06.2020
3082 Clouds 20 1015 64 10000 1.5 40 08:40 01.06.2020
3083 Clouds 18 1015 64 10000 1.5 40 08:22 01.06.2020
3084 Clear 18 1015 68 10000 2.1 60 07:42 01.06.2020
3085 Clear 18 1001 82 0 0.8 171 07:24 01.06.2020
3086 Clear 17 1001 82 0 0.8 171 06:51 01.06.2020
3087 Clear 16 1015 68 10000 2.1 70 05:58 01.06.2020
3088 Clear 16 1015 72 10000 3.1 70 05:22 01.06.2020
3089 Clear 16 1015 72 10000 3.1 70 04:18 01.06.2020
3090 Clear 16 1015 72 10000 2.6 80 03:42 01.06.2020
3091 Clear 17 1016 68 10000 2.1 70 02:57 01.06.2020
3092 Clear 17 1016 68 10000 2.6 70 01:47 01.06.2020
3093 Clear 17 1016 68 10000 3.1 80 01:26 01.06.2020
3094 Clear 17 1016 72 10000 2.6 70 00:56 01.06.2020
3095 Clear 17 1016 68 10000 4.1 50 00:38 01.06.2020
3096 Clear 17 1016 68 10000 4.1 50 00:19 01.06.2020
3097 Clouds 17 1016 63 10000 4.6 60 23:42 31.05.2020
3098 Clouds 17 1016 59 10000 4.1 50 23:23 31.05.2020
3099 Clouds 17 1016 59 10000 4.1 50 22:59 31.05.2020
3100 Clouds 18 1015 59 10000 4.1 50 22:41 31.05.2020
3101 Clouds 18 1015 59 10000 4.1 50 22:22 31.05.2020
3102 Clouds 18 1015 63 10000 4.6 50 21:57 31.05.2020
3103 Clouds 18 1015 63 10000 3.6 40 21:39 31.05.2020
3104 Clouds 18 1015 63 10000 3.6 40 21:21 31.05.2020
3105 Clouds 19 1015 68 10000 4.6 30 20:47 31.05.2020
3106 Clear 19 1000 69 0 2.02 341 20:25 31.05.2020
3107 Clouds 19 1014 68 10000 5.1 20 19:56 31.05.2020
3108 Clouds 20 1014 64 10000 4.6 30 19:38 31.05.2020
3109 Clear 20 1000 66 0 0.45 6 19:20 31.05.2020
3110 Clear 20 999 62 0 2.53 336 18:58 31.05.2020
3111 Clouds 21 1014 60 10000 4.1 20 18:39 31.05.2020
3112 Clouds 21 1014 60 10000 4.1 20 18:21 31.05.2020
3113 Clouds 21 1015 60 10000 4.1 360 17:42 31.05.2020
3114 Clouds 21 1015 60 10000 4.1 360 17:24 31.05.2020
3115 Clouds 20 1015 60 10000 4.1 360 16:42 31.05.2020
3116 Clouds 21 1015 60 10000 4.1 360 16:22 31.05.2020
3117 Clouds 21 1015 64 10000 4.1 350 15:57 31.05.2020
3118 Clear 21 1000 65 0 1.34 30 15:37 31.05.2020
3119 Clouds 21 1015 64 10000 3.6 360 15:19 31.05.2020
3120 Clouds 21 1015 64 10000 3.1 330 14:44 31.05.2020
3121 Clouds 21 1015 64 10000 3.1 330 14:19 31.05.2020
3122 Clear 22 1000 65 0 2.24 347 13:56 31.05.2020
3123 Clear 21 1000 67 0 3.83 334 13:37 31.05.2020
3124 Rain 21 1000 69 0 0.89 9 13:19 31.05.2020
3125 Rain 21 1000 69 0 0.89 11 12:55 31.05.2020
3126 Rain 21 1000 68 0 0.45 9 12:37 31.05.2020
3127 Clear 21 1000 69 0 1.34 356 12:18 31.05.2020
3128 Clear 21 1000 70 0 1.34 355 12:18 31.05.2020
3129 Clear 21 1000 70 0 3.6 340 11:44 31.05.2020
3130 Rain 21 1000 68 0 3.81 344 11:21 31.05.2020
3131 Rain 20 1000 67 0 3.81 344 10:55 31.05.2020
3132 Rain 20 1000 69 0 3.81 344 10:37 31.05.2020
3133 Rain 20 1000 74 0 3.71 342 10:18 31.05.2020
3134 Rain 20 1000 77 0 3.71 342 09:42 31.05.2020
3135 Rain 19 1000 79 0 3.14 330 09:22 31.05.2020
3136 Rain 19 1000 80 0 0.89 349 08:56 31.05.2020
3137 Rain 18 1000 82 0 3.56 345 08:36 31.05.2020
3138 Rain 18 1000 83 0 2.64 312 08:18 31.05.2020
3139 Rain 18 999 74 0 2.64 312 07:39 31.05.2020
3140 Clear 18 999 73 0 2.08 272 07:18 31.05.2020
3141 Clear 18 999 73 0 2.08 272 06:49 31.05.2020
3142 Clear 18 999 74 0 2.08 272 06:31 31.05.2020
3143 Clear 17 1013 82 10000 0.5 0 05:40 31.05.2020
3144 Clear 17 1014 88 10000 2.1 200 04:22 31.05.2020
3145 Clear 18 1014 82 10000 3.1 210 03:48 31.05.2020
3146 Clear 17 1014 88 10000 2.6 200 02:59 31.05.2020
3147 Clear 18 1014 88 10000 0.5 0 01:48 31.05.2020
3148 Clouds 18 1014 88 10000 1.5 150 01:00 31.05.2020
3149 Clouds 18 1014 82 10000 2.6 60 00:29 31.05.2020
3150 Drizzle 18 1014 88 10000 2.1 50 23:55 30.05.2020
3151 Rain 18 1015 82 9000 4.1 40 23:36 30.05.2020
3152 Rain 19 1015 82 9000 4.1 40 23:18 30.05.2020
3153 Clouds 20 1014 68 10000 5.7 50 22:41 30.05.2020
3154 Clouds 20 1014 68 10000 5.7 50 22:22 30.05.2020
3155 Clouds 20 1013 64 10000 4.1 60 21:56 30.05.2020
3156 Clouds 20 1013 68 10000 4.6 60 21:37 30.05.2020
3157 Clouds 20 1013 68 10000 4.6 60 21:18 30.05.2020
3158 Clouds 21 1013 60 10000 4.1 50 20:56 30.05.2020
3159 Clouds 21 1013 64 10000 4.6 50 20:37 30.05.2020
3160 Clouds 21 1013 64 10000 4.6 50 20:19 30.05.2020
3161 Clouds 21 1013 64 10000 5.1 50 19:42 30.05.2020
3162 Clouds 22 1013 64 10000 5.1 50 19:21 30.05.2020
3163 Clouds 20 1013 60 10000 6.2 50 18:45 30.05.2020
3164 Clouds 22 1013 60 10000 6.2 50 18:24 30.05.2020
3165 Clouds 21 1013 60 10000 6.7 40 17:55 30.05.2020
3166 Clouds 21 1013 60 10000 6.2 40 17:37 30.05.2020
3167 Clouds 21 1013 60 10000 6.2 40 17:18 30.05.2020
3168 Clouds 22 1013 56 10000 6.7 40 16:41 30.05.2020
3169 Clouds 22 1013 56 10000 6.7 40 16:22 30.05.2020
3170 Clouds 22 1013 56 10000 7.2 40 15:48 30.05.2020
3171 Clouds 22 1013 60 10000 6.7 40 15:29 30.05.2020
3172 Clouds 21 1013 60 10000 7.2 30 14:48 30.05.2020
3173 Clouds 21 1013 60 10000 7.2 30 14:30 30.05.2020
3174 Clouds 21 1014 56 10000 6.2 30 13:47 30.05.2020
3175 Clouds 21 1014 56 10000 6.2 30 13:27 30.05.2020
3176 Clouds 21 1014 53 10000 4.1 30 12:57 30.05.2020
3177 Clouds 20 1014 56 10000 3.6 20 12:39 30.05.2020
3178 Clouds 22 1014 56 10000 3.6 20 12:19 30.05.2020
3179 Clouds 22 1015 52 10000 2.1 340 11:41 30.05.2020
3180 Clouds 22 1015 52 10000 2.1 340 11:23 30.05.2020
3181 Clouds 22 999 53 0 1.34 355 10:58 30.05.2020
3182 Clouds 21 999 54 0 0.45 18 10:58 30.05.2020
3183 Clouds 22 999 53 0 1.19 6 10:38 30.05.2020
3184 Clouds 21 1015 56 10000 1.5 320 10:20 30.05.2020
3185 Clouds 22 1000 53 0 0.53 12 09:44 30.05.2020
3186 Clouds 18 1015 59 10000 2.6 240 09:25 30.05.2020
3187 Clouds 19 1015 59 10000 3.6 250 08:44 30.05.2020
3188 Clouds 19 1015 59 10000 3.6 250 08:44 30.05.2020
3189 Clouds 18 1015 59 10000 1.5 190 08:26 30.05.2020
3190 Clouds 19 1015 52 10000 0.5 0 07:40 30.05.2020
3191 Clouds 18 1000 59 0 1.2 185 07:19 30.05.2020
3192 Clouds 17 1014 59 10000 1.5 180 06:30 30.05.2020
3193 Clouds 16 1014 72 10000 2.6 220 05:52 30.05.2020
3194 Clouds 16 1014 55 10000 1 0 05:19 30.05.2020
3195 Clouds 15 1015 55 10000 1.5 200 02:56 30.05.2020
3196 Clear 17 1016 55 10000 2.1 200 02:23 30.05.2020
3197 Clear 18 1016 48 10000 1.5 110 01:20 30.05.2020
3198 Clear 18 1016 52 10000 2.1 200 00:36 30.05.2020
3199 Clear 19 1016 49 10000 3.1 170 00:18 30.05.2020
3200 Clear 19 1016 42 10000 3.1 180 23:38 29.05.2020
3201 Clear 19 1016 42 10000 3.1 180 23:20 29.05.2020
3202 Clear 19 1016 42 10000 3.1 180 23:20 29.05.2020
3203 Clear 19 1016 52 10000 1.5 230 22:56 29.05.2020
3204 Clear 19 1016 45 10000 2.6 80 22:37 29.05.2020
3205 Clear 19 1016 45 10000 2.6 80 22:18 29.05.2020
3206 Clear 20 1016 49 10000 4.1 60 21:41 29.05.2020
3207 Clear 20 1016 49 10000 4.1 60 21:21 29.05.2020
3208 Clear 20 1016 52 10000 5.7 50 20:58 29.05.2020
3209 Clear 20 1016 56 10000 5.1 40 20:40 29.05.2020
3210 Clear 21 1016 56 10000 5.1 40 20:19 29.05.2020
3211 Clear 22 1016 52 10000 4.6 40 19:44 29.05.2020
3212 Clear 20 1016 52 10000 4.6 40 19:26 29.05.2020
3213 Clear 19 1017 49 10000 5.1 40 18:49 29.05.2020
3214 Clear 19 1017 49 10000 5.1 40 18:24 29.05.2020
3215 Clear 19 1017 53 10000 5.7 40 17:59 29.05.2020
3216 Clear 19 1017 53 10000 5.7 40 17:40 29.05.2020
3217 Clear 20 1017 53 10000 5.7 40 17:21 29.05.2020
3218 Clear 20 1017 53 10000 5.7 40 16:58 29.05.2020
3219 Clear 21 1017 53 10000 6.7 40 16:40 29.05.2020
3220 Clear 21 1017 53 10000 6.7 40 16:21 29.05.2020
3221 Clouds 21 1018 53 10000 6.2 40 15:42 29.05.2020
3222 Clouds 23 1018 53 10000 6.2 40 15:22 29.05.2020
3223 Clouds 21 1018 53 10000 6.2 40 14:59 29.05.2020
3224 Clouds 22 1018 53 10000 6.2 40 14:39 29.05.2020
3225 Clouds 22 1018 53 10000 6.2 40 14:39 29.05.2020
3226 Clouds 22 1018 53 10000 6.2 40 14:20 29.05.2020
3227 Clouds 23 1018 56 10000 5.7 40 13:43 29.05.2020
3228 Clouds 23 1018 56 10000 5.7 40 13:23 29.05.2020
3229 Clear 24 1003 47 0 2.01 24 12:58 29.05.2020
3230 Clouds 23 1019 53 10000 3.6 20 12:39 29.05.2020
3231 Clouds 23 1019 53 10000 3.6 20 12:39 29.05.2020
3232 Clear 23 1003 48 0 0.45 15 12:20 29.05.2020
3233 Clouds 22 1019 60 10000 4.1 280 11:44 29.05.2020
3234 Clouds 22 1019 60 10000 4.1 280 11:25 29.05.2020
3235 Clear 23 1004 48 0 0.89 5 10:55 29.05.2020
3236 Clear 22 1019 60 10000 4.1 250 10:36 29.05.2020
3237 Clear 22 1019 60 10000 4.1 250 10:36 29.05.2020
3238 Clear 22 1004 48 0 0.25 319 10:18 29.05.2020
3239 Clear 22 1004 53 0 0.25 319 09:41 29.05.2020
3240 Clear 19 1019 59 10000 2.6 240 09:19 29.05.2020
3241 Clear 19 1019 59 10000 2.6 240 08:48 29.05.2020
3242 Clear 18 1019 59 10000 4.1 220 08:26 29.05.2020
3243 Clear 18 1004 67 0 0.9 199 07:52 29.05.2020
3244 Clear 18 1019 63 10000 1.5 160 07:33 29.05.2020
3245 Clear 17 1005 68 0 1.01 200 06:58 29.05.2020
3246 Clear 17 1005 66 0 1.01 200 06:40 29.05.2020
3247 Clear 16 1019 72 10000 1.5 150 06:22 29.05.2020
3248 Clear 16 1019 72 10000 2.1 200 05:40 29.05.2020
3249 Clear 17 1020 63 10000 1.5 160 02:20 29.05.2020
3250 Clear 17 1020 63 10000 1.5 160 02:20 29.05.2020
3251 Clear 18 1021 55 10000 2.1 150 01:28 29.05.2020
3252 Clear 17 1021 63 10000 2.6 160 00:54 29.05.2020
3253 Clear 18 1021 63 10000 3.1 160 00:33 29.05.2020
3254 Clear 18 1021 68 10000 2.1 160 23:58 28.05.2020
3255 Clear 18 1021 63 10000 1.5 150 23:39 28.05.2020
3256 Clear 18 1021 63 10000 1.5 150 23:18 28.05.2020
3257 Clear 19 1021 64 10000 0.5 0 22:42 28.05.2020
3258 Clear 19 1021 64 10000 0.5 0 22:24 28.05.2020
3259 Clear 19 1021 68 10000 0.5 0 21:56 28.05.2020
3260 Clear 19 1021 64 10000 1 20 21:38 28.05.2020
3261 Clear 19 1021 64 10000 1 20 21:19 28.05.2020
3262 Clear 20 1021 64 10000 1.5 10 20:56 28.05.2020
3263 Clear 20 1022 60 10000 2.6 350 20:37 28.05.2020
3264 Clear 21 1022 60 10000 2.6 350 20:18 28.05.2020
3265 Clear 21 1022 60 10000 3.1 350 19:43 28.05.2020
3266 Clear 22 1022 56 10000 2.6 360 19:21 28.05.2020
3267 Clear 21 1022 56 10000 2.6 360 18:58 28.05.2020
3268 Clear 20 1022 53 10000 3.1 350 18:40 28.05.2020
3269 Clear 22 1022 53 10000 3.1 350 18:22 28.05.2020
3270 Clear 21 1022 56 10000 3.1 360 17:41 28.05.2020
3271 Clear 21 1022 56 10000 3.1 360 17:22 28.05.2020
3272 Clear 21 1023 56 10000 4.1 360 16:57 28.05.2020
3273 Clear 21 1023 53 10000 4.1 360 16:37 28.05.2020
3274 Clear 21 1023 53 10000 4.1 360 16:19 28.05.2020
3275 Clear 21 1023 56 10000 4.1 360 15:42 28.05.2020
3276 Clear 21 1023 56 10000 4.1 360 15:24 28.05.2020
3277 Clear 21 1024 56 10000 3.6 350 14:55 28.05.2020
3278 Clear 23 1024 56 10000 3.6 350 14:36 28.05.2020
3279 Clear 23 1024 56 10000 3.6 350 14:18 28.05.2020
3280 Clear 23 1009 35 0 2.68 5 13:40 28.05.2020
3281 Clear 23 1009 34 0 1.34 7 13:20 28.05.2020
3282 Clouds 22 1024 60 10000 3.1 320 12:42 28.05.2020
3283 Clouds 20 1024 60 10000 3.1 320 12:19 28.05.2020
3284 Clouds 21 1024 64 10000 2.1 310 11:44 28.05.2020
3285 Clouds 21 1024 68 10000 2.1 270 11:25 28.05.2020
3286 Clear 21 1009 40 0 2.24 10 10:57 28.05.2020
3287 Clear 21 1009 40 0 2.24 10 10:57 28.05.2020
3288 Clear 21 1009 46 0 1.34 359 10:39 28.05.2020
3289 Clear 21 1009 47 0 1.34 348 10:19 28.05.2020
3290 Clear 21 1010 52 0 0.45 350 09:39 28.05.2020
3291 Clear 21 1010 54 0 0.89 349 09:20 28.05.2020
3292 Clear 20 1010 64 0 1.44 348 08:50 28.05.2020
3293 Clear 20 1010 70 0 0.5 26 08:26 28.05.2020
3294 Clear 19 1010 75 0 0.5 26 07:45 28.05.2020
3295 Clear 18 1011 76 0 0.87 70 07:26 28.05.2020
3296 Clear 18 1011 76 0 0.87 70 06:59 28.05.2020
3297 Clear 17 1010 76 0 0.87 70 06:37 28.05.2020
3298 Clear 17 1025 67 10000 1.5 180 05:58 28.05.2020
3299 Clear 17 1024 72 10000 1.5 210 05:36 28.05.2020
3300 Clear 17 1024 68 10000 3.6 70 04:29 28.05.2020
3301 Clear 17 1025 68 10000 3.1 70 03:46 28.05.2020
3302 Clear 18 1025 59 10000 3.6 70 02:45 28.05.2020
3303 Clear 18 1025 59 10000 2.6 70 01:53 28.05.2020
3304 Clear 18 1025 55 10000 2.6 90 00:55 28.05.2020
3305 Clear 18 1025 52 10000 1.5 120 00:37 28.05.2020
3306 Clear 18 1025 52 10000 1.5 120 00:18 28.05.2020
3307 Clear 18 1025 52 10000 3.1 70 23:39 27.05.2020
3308 Clear 18 1025 52 10000 3.1 70 23:21 27.05.2020
3309 Clear 18 1025 52 10000 3.1 70 23:21 27.05.2020
3310 Clear 18 1025 55 10000 3.1 80 22:58 27.05.2020
3311 Clear 18 1025 55 10000 4.6 60 22:40 27.05.2020
3312 Clear 18 1025 55 10000 4.6 60 22:21 27.05.2020
3313 Clear 19 1024 55 10000 5.1 60 21:42 27.05.2020
3314 Clear 19 1024 55 10000 5.1 60 21:24 27.05.2020
3315 Clouds 19 1024 52 10000 5.7 50 20:59 27.05.2020
3316 Clouds 19 1024 52 10000 6.2 50 20:41 27.05.2020
3317 Clouds 19 1024 52 10000 6.2 50 20:21 27.05.2020
3318 Clouds 20 1024 56 10000 6.2 40 19:57 27.05.2020
3319 Clouds 20 1024 56 10000 5.7 50 19:39 27.05.2020
3320 Clouds 20 1024 56 10000 5.7 50 19:19 27.05.2020
3321 Clouds 20 1024 56 10000 7.2 40 18:40 27.05.2020
3322 Clouds 19 1024 56 10000 7.2 40 18:19 27.05.2020
3323 Clouds 20 1024 56 10000 6.7 40 17:56 27.05.2020
3324 Clouds 19 1024 60 10000 6.7 40 17:37 27.05.2020
3325 Clouds 19 1024 60 10000 6.7 40 17:18 27.05.2020
3326 Clouds 19 1024 52 10000 6.2 40 16:54 27.05.2020
3327 Clear 20 1024 49 10000 7.2 40 16:36 27.05.2020
3328 Clear 21 1024 49 10000 7.2 40 16:18 27.05.2020
3329 Clear 20 1024 46 10000 7.7 50 15:40 27.05.2020
3330 Clear 20 1024 46 10000 7.7 50 15:21 27.05.2020
3331 Clouds 21 1024 43 10000 8.2 50 14:43 27.05.2020
3332 Clouds 21 1024 43 10000 8.2 50 14:22 27.05.2020
3333 Clouds 20 1024 49 10000 8.7 50 13:55 27.05.2020
3334 Clouds 22 1024 49 10000 8.7 50 13:36 27.05.2020
3335 Clouds 22 1024 49 10000 8.7 50 13:18 27.05.2020
3336 Clouds 22 1024 49 10000 7.7 50 12:40 27.05.2020
3337 Clouds 21 1024 49 10000 7.2 40 12:22 27.05.2020
3338 Clouds 19 1024 52 10000 6.2 40 11:40 27.05.2020
3339 Clouds 19 1024 52 10000 6.2 40 11:40 27.05.2020
3340 Clouds 20 1024 52 10000 6.2 40 11:22 27.05.2020
3341 Clouds 19 1024 52 10000 6.2 40 10:58 27.05.2020
3342 Clouds 20 1024 49 10000 5.1 40 10:39 27.05.2020
3343 Clouds 20 1024 49 10000 5.1 40 10:20 27.05.2020
3344 Clear 20 1023 52 10000 5.1 40 09:41 27.05.2020
3345 Clear 18 1023 52 10000 5.1 40 09:22 27.05.2020
3346 Clear 19 1023 52 10000 5.1 40 09:22 27.05.2020
3347 Clear 20 1023 46 10000 4.6 70 08:56 27.05.2020
3348 Clear 20 1023 46 10000 5.7 60 08:38 27.05.2020
3349 Clouds 19 1023 46 10000 5.7 60 08:19 27.05.2020
3350 Clouds 18 1023 52 10000 4.6 80 07:51 27.05.2020
3351 Clouds 18 1022 52 10000 3.6 80 07:51 27.05.2020
3352 Clouds 18 1022 52 10000 3.6 80 07:33 27.05.2020
3353 Clouds 17 1022 55 10000 3.6 80 06:52 27.05.2020
3354 Clouds 17 1022 55 10000 3.6 90 06:24 27.05.2020
3355 Clouds 17 1022 56 10000 5.7 70 05:49 27.05.2020
3356 Clouds 18 1022 56 10000 6.2 60 05:23 27.05.2020
3357 Clouds 18 1022 55 10000 4.6 70 02:42 27.05.2020
3358 Clouds 18 1022 55 10000 4.6 70 02:18 27.05.2020
3359 Clouds 19 1022 49 10000 4.1 70 01:31 27.05.2020
3360 Clouds 19 1023 52 10000 4.1 60 00:47 27.05.2020
3361 Clouds 19 1023 56 10000 4.1 60 00:20 27.05.2020
3362 Clouds 19 1022 64 10000 5.1 70 23:57 26.05.2020
3363 Clouds 20 1022 68 10000 4.6 70 23:39 26.05.2020
3364 Clouds 20 1022 68 10000 4.6 70 23:20 26.05.2020
3365 Clouds 20 1022 60 10000 5.7 60 22:42 26.05.2020
3366 Clouds 20 1022 60 10000 5.7 60 22:23 26.05.2020
3367 Clouds 20 1022 60 10000 6.2 50 21:59 26.05.2020
3368 Clouds 20 1022 60 10000 6.2 50 21:59 26.05.2020
3369 Clouds 20 1021 60 10000 4.1 60 21:40 26.05.2020
3370 Clear 21 1021 60 10000 4.1 60 21:22 26.05.2020
3371 Clear 21 1021 56 10000 5.1 70 20:58 26.05.2020
3372 Clear 21 1022 56 10000 6.2 60 20:39 26.05.2020
3373 Clear 22 1022 56 10000 6.2 60 20:20 26.05.2020
3374 Clear 22 1021 68 10000 6.7 60 19:41 26.05.2020
3375 Clear 23 1007 60 0 2.93 60 19:20 26.05.2020
3376 Clear 22 1021 69 10000 6.7 60 18:58 26.05.2020
3377 Clear 22 1021 69 10000 7.2 50 18:39 26.05.2020
3378 Clear 23 1021 69 10000 7.2 50 18:20 26.05.2020
3379 Clear 23 1021 73 10000 7.2 50 17:42 26.05.2020
3380 Clear 24 1021 73 10000 7.2 50 17:23 26.05.2020
3381 Clear 24 1021 73 10000 6.7 40 16:49 26.05.2020
3382 Clear 24 1022 73 10000 6.2 40 16:23 26.05.2020
3383 Clear 24 1022 73 10000 6.2 40 15:59 26.05.2020
3384 Clear 24 1022 73 10000 4.6 40 15:40 26.05.2020
3385 Clear 24 1022 73 10000 4.6 40 15:20 26.05.2020
3386 Clear 24 1022 73 10000 4.6 40 15:20 26.05.2020
3387 Clear 24 1022 73 10000 4.6 30 14:55 26.05.2020
3388 Clear 24 1022 69 10000 5.1 40 14:36 26.05.2020
3389 Clear 24 1022 78 10000 4.6 40 14:18 26.05.2020
3390 Clear 24 1007 51 0 1.34 10 13:41 26.05.2020
3391 Clear 24 1007 50 0 1.34 12 13:22 26.05.2020
3392 Clear 24 1007 46 0 1.34 14 12:44 26.05.2020
3393 Clear 24 1007 43 0 1.34 8 12:23 26.05.2020
3394 Clear 24 1007 42 0 1.79 7 11:59 26.05.2020
3395 Clear 24 1007 44 0 1.34 7 11:40 26.05.2020
3396 Clear 24 1007 48 0 0.89 342 11:19 26.05.2020
3397 Clear 24 1007 55 0 2.63 15 10:47 26.05.2020
3398 Clear 23 1007 59 0 1.95 7 10:19 26.05.2020
3399 Clear 23 1007 61 0 0.45 5 09:57 26.05.2020
3400 Clear 23 1007 60 0 1.34 352 09:57 26.05.2020
3401 Clear 23 1007 62 0 0.89 1 09:37 26.05.2020
3402 Clouds 22 1022 82 10000 2.6 250 09:18 26.05.2020
3403 Clouds 20 1022 82 10000 2.6 250 09:18 26.05.2020
3404 Clear 22 1007 74 0 1.32 25 08:40 26.05.2020
3405 Clouds 21 1022 77 10000 2.6 220 08:22 26.05.2020
3406 Clear 21 1007 83 0 0.59 31 07:43 26.05.2020
3407 Clear 20 1007 84 0 0.39 132 07:23 26.05.2020
3408 Clear 19 1007 83 0 0.39 132 06:53 26.05.2020
3409 Clear 16 1007 81 0 0.78 132 06:31 26.05.2020
3410 Clear 16 1006 77 0 0.78 132 05:43 26.05.2020
3411 Clear 17 1006 77 0 0.94 101 05:21 26.05.2020
3412 Clear 17 1007 79 0 0.94 101 04:48 26.05.2020
3413 Clear 17 1006 80 0 1.17 78 04:30 26.05.2020
3414 Clear 17 1007 79 0 1.17 78 03:49 26.05.2020
3415 Clear 18 1006 76 0 0.45 352 02:40 26.05.2020
3416 Clear 18 1007 79 0 1.29 80 01:47 26.05.2020
3417 Clear 18 1007 85 0 0.9 109 00:48 26.05.2020
3418 Clear 20 1021 88 10000 5.7 240 00:29 26.05.2020
3419 Clear 20 1021 88 10000 5.7 240 23:59 25.05.2020
3420 Clear 20 1021 88 10000 5.7 240 23:39 25.05.2020
3421 Clear 21 1021 88 10000 5.7 240 23:20 25.05.2020
3422 Clear 21 1006 60 0 1.73 146 22:56 25.05.2020
3423 Clear 21 1006 60 0 1.73 146 22:56 25.05.2020
3424 Clear 21 1021 77 10000 5.1 220 22:38 25.05.2020
3425 Clear 21 1021 77 10000 5.1 220 22:20 25.05.2020
3426 Clear 22 1020 83 10000 3.1 240 21:59 25.05.2020
3427 Clear 22 1020 88 10000 4.1 240 21:39 25.05.2020
3428 Clear 20 1020 88 10000 4.1 240 21:20 25.05.2020
3429 Clear 22 1020 88 10000 3.1 270 20:59 25.05.2020
3430 Clear 21 1020 78 10000 1.5 350 20:41 25.05.2020
3431 Clear 23 1020 78 10000 1.5 350 20:20 25.05.2020
3432 Clear 23 1005 56 0 2.12 105 19:58 25.05.2020
3433 Clear 23 1020 69 10000 3.6 40 19:38 25.05.2020
3434 Clear 24 1020 69 10000 3.6 40 19:18 25.05.2020
3435 Clear 23 1020 69 10000 5.1 40 18:43 25.05.2020
3436 Clear 24 1020 69 10000 5.1 40 18:22 25.05.2020
3437 Clear 24 1020 73 10000 3.6 30 17:57 25.05.2020
3438 Clear 24 1020 69 10000 4.1 40 17:39 25.05.2020
3439 Clear 25 1020 69 10000 4.1 40 17:21 25.05.2020
3440 Clear 25 1021 69 10000 5.7 40 16:56 25.05.2020
3441 Clear 25 1021 69 10000 5.7 40 16:56 25.05.2020
3442 Clear 25 1021 60 10000 6.2 40 16:37 25.05.2020
3443 Clear 25 1021 60 10000 6.2 40 16:19 25.05.2020
3444 Clear 25 1021 60 10000 6.7 40 15:42 25.05.2020
3445 Clear 25 1021 60 10000 6.7 40 15:19 25.05.2020
3446 Clear 23 1021 57 10000 6.2 40 14:44 25.05.2020
3447 Clouds 23 1021 57 10000 6.2 40 14:26 25.05.2020
3448 Clouds 23 1021 69 10000 6.7 40 13:59 25.05.2020
3449 Clouds 25 1007 50 0 2.69 49 13:39 25.05.2020
3450 Clouds 25 1007 50 0 2.2 34 13:20 25.05.2020
3451 Clouds 24 1007 49 0 2.2 34 12:57 25.05.2020
3452 Clouds 24 1007 49 0 2.2 34 12:57 25.05.2020
3453 Clouds 24 1007 53 0 2.2 34 12:37 25.05.2020
3454 Clouds 25 1007 54 0 0.89 4 12:19 25.05.2020
3455 Clouds 25 1007 52 0 1.34 21 11:39 25.05.2020
3456 Clouds 25 1007 39 0 1.22 42 11:20 25.05.2020
3457 Clouds 24 1007 40 0 1.22 42 10:56 25.05.2020
3458 Clouds 24 1007 41 0 1.22 42 10:37 25.05.2020
3459 Clouds 24 1007 44 0 1.21 70 10:18 25.05.2020
3460 Clouds 23 1007 46 0 1.21 70 09:54 25.05.2020
3461 Clouds 23 1007 46 0 1.21 70 09:36 25.05.2020
3462 Clouds 22 1022 73 10000 2.1 30 09:18 25.05.2020
3463 Clouds 22 1022 72 10000 1.5 250 08:39 25.05.2020
3464 Clouds 22 1007 58 0 0.67 129 08:20 25.05.2020
3465 Clouds 21 1007 59 0 0.67 129 07:48 25.05.2020
3466 Clouds 21 1007 59 0 0.62 122 07:26 25.05.2020
3467 Clouds 19 1007 60 0 0.62 122 06:56 25.05.2020
3468 Clouds 18 1022 68 10000 1.5 190 06:35 25.05.2020
3469 Clouds 18 1022 72 10000 2.6 180 05:24 25.05.2020
3470 Clouds 19 1022 77 10000 2.1 240 03:26 25.05.2020
3471 Clouds 20 1022 72 10000 3.6 270 02:47 25.05.2020
3472 Clouds 19 1022 77 10000 2.1 230 02:18 25.05.2020
3473 Clouds 20 1022 77 10000 4.1 220 01:41 25.05.2020
3474 Clouds 21 1023 77 10000 4.6 220 00:47 25.05.2020
3475 Clouds 21 1023 77 10000 4.1 220 00:26 25.05.2020
3476 Clouds 21 1023 72 10000 1.5 190 23:58 24.05.2020
3477 Clouds 21 1023 73 10000 1 0 23:39 24.05.2020
3478 Clouds 21 1023 73 10000 1 0 23:20 24.05.2020
3479 Clouds 21 1023 68 10000 2.1 100 22:55 24.05.2020
3480 Clouds 21 1023 68 10000 2.1 100 22:55 24.05.2020
3481 Clouds 21 1023 78 10000 3.1 40 22:37 24.05.2020
3482 Clouds 22 1023 78 10000 3.1 40 22:18 24.05.2020
3483 Clouds 21 1022 68 10000 3.6 50 21:54 24.05.2020
3484 Clouds 21 1022 64 10000 4.6 70 21:36 24.05.2020
3485 Clouds 21 1023 64 10000 5.7 70 21:18 24.05.2020
3486 Clouds 22 1023 68 10000 5.1 60 20:41 24.05.2020
3487 Clear 22 1023 68 10000 4.6 50 20:19 24.05.2020
3488 Clear 22 1023 68 10000 4.6 50 19:56 24.05.2020
3489 Clear 23 1023 73 10000 5.1 40 19:36 24.05.2020
3490 Clear 23 1023 73 10000 5.1 40 19:18 24.05.2020
3491 Clear 23 1023 64 10000 4.6 60 18:42 24.05.2020
3492 Clear 24 1023 64 10000 4.6 60 18:23 24.05.2020
3493 Clear 24 1023 69 10000 5.1 40 17:57 24.05.2020
3494 Clear 24 1023 64 10000 5.1 40 17:38 24.05.2020
3495 Clear 24 1023 64 10000 5.1 40 17:19 24.05.2020
3496 Clear 24 1023 69 10000 4.1 30 16:56 24.05.2020
3497 Clear 24 1023 69 10000 4.1 30 16:56 24.05.2020
3498 Clear 24 1023 69 10000 4.1 30 16:36 24.05.2020
3499 Clear 24 1023 69 10000 4.1 30 16:18 24.05.2020
3500 Clear 24 1023 68 10000 3.6 30 15:55 24.05.2020
3501 Clear 25 1024 64 10000 3.6 10 15:36 24.05.2020
3502 Clear 25 1024 64 10000 3.6 10 15:18 24.05.2020
3503 Clear 25 1024 64 10000 3.6 10 15:18 24.05.2020
3504 Clear 25 1024 56 10000 2.6 20 14:41 24.05.2020
3505 Clear 24 1024 56 10000 2.6 20 14:22 24.05.2020
3506 Clear 26 1009 44 0 1.96 357 13:56 24.05.2020
3507 Clear 25 1025 56 10000 3.1 20 13:38 24.05.2020
3508 Clear 25 1025 56 10000 3.1 20 13:19 24.05.2020
3509 Clear 25 1010 50 0 2.01 351 12:57 24.05.2020
3510 Clear 25 1010 48 0 2.01 351 12:38 24.05.2020
3511 Clear 25 1010 52 0 2.59 349 12:19 24.05.2020
3512 Clear 25 1010 50 0 2.59 349 11:55 24.05.2020
3513 Clear 24 1010 48 0 2.59 349 11:37 24.05.2020
3514 Clear 24 1010 47 0 2.29 344 11:19 24.05.2020
3515 Clear 24 1010 47 0 2.29 344 11:19 24.05.2020
3516 Clear 24 1010 46 0 2.29 344 10:43 24.05.2020
3517 Clear 24 1010 46 0 1.08 343 10:23 24.05.2020
3518 Clear 24 1009 52 0 1.08 343 09:59 24.05.2020
3519 Clear 24 1009 53 0 1.08 343 09:41 24.05.2020
3520 Clear 23 1010 56 0 0.23 251 09:18 24.05.2020
3521 Clear 22 1010 53 0 0.23 212 08:43 24.05.2020
3522 Clear 22 1010 52 0 0.46 167 08:25 24.05.2020
3523 Clear 21 1010 55 0 0.46 167 07:59 24.05.2020
3524 Clear 21 1010 55 0 0.46 167 07:41 24.05.2020
3525 Clear 20 1010 54 0 0.83 172 07:21 24.05.2020
3526 Clear 19 1024 63 10000 0.5 0 06:45 24.05.2020
3527 Clear 17 1024 63 10000 2.1 210 05:50 24.05.2020
3528 Clear 17 1024 59 10000 1 190 04:51 24.05.2020
3529 Clear 18 1024 72 10000 0.5 170 03:41 24.05.2020
3530 Clear 19 1025 72 10000 0.5 0 02:30 24.05.2020
3531 Clear 19 1025 77 10000 0.5 0 01:39 24.05.2020
3532 Clear 20 1025 82 10000 1.5 230 00:39 24.05.2020
3533 Clear 20 1025 82 10000 1.5 230 00:20 24.05.2020
3534 Clear 20 1025 77 10000 3.6 220 23:43 23.05.2020
3535 Clear 21 1025 77 10000 3.6 220 23:21 23.05.2020
3536 Clear 21 1025 77 10000 3.6 220 22:57 23.05.2020
3537 Clear 21 1025 77 10000 2.6 210 22:38 23.05.2020
3538 Clear 21 1025 77 10000 2.6 210 22:19 23.05.2020
3539 Clear 21 1025 77 10000 2.6 240 21:57 23.05.2020
3540 Clear 21 1025 73 10000 1 220 21:37 23.05.2020
3541 Clear 22 1025 73 10000 1 220 21:19 23.05.2020
3542 Clear 22 1025 73 10000 1 220 21:19 23.05.2020
3543 Clear 22 1025 60 10000 4.1 70 20:56 23.05.2020
3544 Clear 22 1025 68 10000 5.7 70 20:37 23.05.2020
3545 Clear 22 1025 68 10000 5.7 70 20:18 23.05.2020
3546 Clear 22 1025 77 10000 4.1 350 19:41 23.05.2020
3547 Clear 23 1025 77 10000 4.1 350 19:19 23.05.2020
3548 Clear 22 1025 73 10000 4.1 320 18:57 23.05.2020
3549 Clear 23 1025 68 10000 4.1 340 18:39 23.05.2020
3550 Clear 23 1025 68 10000 4.1 340 18:21 23.05.2020
3551 Clear 23 1025 68 10000 5.7 10 17:55 23.05.2020
3552 Clear 24 1025 47 10000 8.2 50 17:37 23.05.2020
3553 Clear 25 1025 47 10000 8.2 50 17:19 23.05.2020
3554 Clear 25 1025 44 10000 8.2 60 16:55 23.05.2020
3555 Clear 25 1025 53 10000 8.7 60 16:37 23.05.2020
3556 Clear 25 1025 53 10000 8.7 60 16:18 23.05.2020
3557 Clear 25 1026 53 10000 8.2 50 15:42 23.05.2020
3558 Clear 25 1026 53 10000 8.2 50 15:23 23.05.2020
3559 Clear 25 1026 60 10000 7.7 40 14:55 23.05.2020
3560 Clear 25 1026 56 10000 7.7 40 14:37 23.05.2020
3561 Clouds 25 1027 68 10000 7.2 40 14:19 23.05.2020
3562 Clouds 25 1027 68 10000 5.1 30 13:40 23.05.2020
3563 Clouds 26 1027 68 10000 5.1 30 13:19 23.05.2020
3564 Clouds 25 1027 73 10000 3.1 10 12:54 23.05.2020
3565 Clouds 25 1027 68 10000 3.6 20 12:36 23.05.2020
3566 Clouds 24 1027 68 10000 3.6 20 12:18 23.05.2020
3567 Clouds 25 1027 68 10000 2.6 330 11:42 23.05.2020
3568 Clouds 24 1027 68 10000 2.6 330 11:20 23.05.2020
3569 Clouds 24 1027 68 10000 2.1 330 10:56 23.05.2020
3570 Clouds 24 1027 72 10000 2.6 250 10:38 23.05.2020
3571 Clear 23 1027 72 10000 2.6 250 10:19 23.05.2020
3572 Clear 23 1027 60 10000 2.6 240 09:56 23.05.2020
3573 Clear 22 1026 60 10000 2.6 230 09:38 23.05.2020
3574 Clear 20 1026 60 10000 2.6 230 09:19 23.05.2020
3575 Clear 20 1026 55 10000 2.6 190 08:42 23.05.2020
3576 Clear 20 1012 65 0 0.82 122 08:19 23.05.2020
3577 Clear 19 1012 73 0 0.82 122 07:46 23.05.2020
3578 Clear 19 1012 71 0 1.48 144 07:28 23.05.2020
3579 Clear 17 1012 66 0 1.48 144 06:45 23.05.2020
3580 Clear 16 1025 63 10000 1.5 140 06:19 23.05.2020
3581 Clear 16 1025 55 10000 3.6 100 04:40 23.05.2020
3582 Clear 17 1025 68 10000 4.6 60 03:27 23.05.2020
3583 Clear 18 1025 68 10000 4.6 70 02:48 23.05.2020
3584 Clear 18 1025 63 10000 1.5 140 01:53 23.05.2020
3585 Clear 19 1025 59 10000 5.1 80 01:20 23.05.2020
3586 Clear 19 1025 59 10000 5.1 80 00:45 23.05.2020
3587 Clear 19 1025 59 10000 5.1 70 00:22 23.05.2020
3588 Clear 20 1025 56 10000 6.7 60 23:55 22.05.2020
3589 Clear 20 1024 56 10000 5.1 60 23:36 22.05.2020
3590 Clear 20 1024 56 10000 5.1 60 23:18 22.05.2020
3591 Clear 20 1024 64 10000 6.2 50 22:42 22.05.2020
3592 Clear 20 1024 64 10000 6.2 50 22:21 22.05.2020
3593 Clear 20 1024 68 10000 6.2 60 21:55 22.05.2020
3594 Clear 20 1024 64 10000 6.2 70 21:37 22.05.2020
3595 Clear 21 1024 64 10000 6.2 70 21:19 22.05.2020
3596 Clear 21 1024 56 10000 6.2 60 20:45 22.05.2020
3597 Clear 21 1023 60 10000 6.7 60 20:21 22.05.2020
3598 Clear 22 1023 60 10000 7.2 60 19:45 22.05.2020
3599 Clear 22 1023 56 10000 7.2 70 19:26 22.05.2020
3600 Clear 22 1023 56 10000 7.2 60 18:58 22.05.2020
3601 Clear 22 1023 56 10000 7.7 50 18:39 22.05.2020
3602 Clear 22 1023 56 10000 7.7 50 18:19 22.05.2020
3603 Clear 23 1023 46 10000 6.2 50 17:41 22.05.2020
3604 Clear 23 1023 46 10000 6.2 50 17:20 22.05.2020
3605 Clear 24 1023 49 10000 6.7 50 16:59 22.05.2020
3606 Clear 23 1023 64 10000 6.7 40 16:41 22.05.2020
3607 Clear 24 1023 56 10000 7.2 40 16:20 22.05.2020
3608 Clear 24 1023 56 10000 7.2 40 16:20 22.05.2020
3609 Clear 24 1023 56 10000 7.2 40 15:57 22.05.2020
3610 Clear 24 1023 53 10000 7.7 40 15:38 22.05.2020
3611 Clear 23 1023 60 10000 7.2 40 15:18 22.05.2020
3612 Clear 23 1023 60 10000 7.2 40 14:41 22.05.2020
3613 Clear 23 1023 60 10000 7.2 40 14:23 22.05.2020
3614 Clear 24 1023 60 10000 6.2 40 13:44 22.05.2020
3615 Clear 24 1023 68 10000 5.7 30 13:20 22.05.2020
3616 Clear 24 1022 68 10000 4.6 20 12:44 22.05.2020
3617 Clear 22 1022 68 10000 3.6 360 12:25 22.05.2020
3618 Clear 22 1022 68 10000 2.1 350 11:56 22.05.2020
3619 Clear 23 1022 77 10000 2.6 290 11:37 22.05.2020
3620 Clear 23 1022 77 10000 2.6 290 11:19 22.05.2020
3621 Clear 23 1021 77 10000 2.6 270 10:41 22.05.2020
3622 Clear 23 1021 77 10000 2.6 270 10:22 22.05.2020
3623 Clear 22 1021 77 10000 2.6 260 09:59 22.05.2020
3624 Clear 22 1020 77 10000 1.5 260 09:40 22.05.2020
3625 Clear 21 1020 77 10000 1.5 260 09:18 22.05.2020
3626 Clear 21 1020 82 10000 2.6 230 08:43 22.05.2020
3627 Clouds 20 1020 82 10000 2.6 230 08:20 22.05.2020
3628 Clouds 18 1020 77 10000 2.6 230 07:56 22.05.2020
3629 Clouds 18 1006 72 0 1.5 53 07:24 22.05.2020
3630 Clouds 18 1006 73 0 1.5 53 06:56 22.05.2020
3631 Clouds 18 1006 73 0 1.5 53 06:35 22.05.2020
3632 Clouds 17 1019 82 10000 1 0 05:39 22.05.2020
3633 Clouds 17 1019 82 10000 1 0 04:51 22.05.2020
3634 Clouds 17 1019 82 10000 1.5 140 04:24 22.05.2020
3635 Clouds 17 1019 82 10000 2.1 120 03:47 22.05.2020
3636 Clear 17 1019 82 10000 2.1 70 02:59 22.05.2020
3637 Clear 18 1019 77 10000 3.1 50 01:56 22.05.2020
3638 Clear 18 1019 77 10000 2.6 70 01:28 22.05.2020
3639 Clear 18 1019 77 10000 2.6 70 00:46 22.05.2020
3640 Clear 18 1018 77 10000 2.6 70 00:27 22.05.2020
3641 Clear 18 1018 82 10000 2.1 40 23:42 21.05.2020
3642 Clear 18 1018 82 10000 2.1 40 23:24 21.05.2020
3643 Clear 19 1017 82 10000 2.1 50 22:58 21.05.2020
3644 Clear 19 1017 77 10000 2.1 50 22:38 21.05.2020
3645 Clear 19 1017 77 10000 2.1 50 22:20 21.05.2020
3646 Clear 19 1016 77 10000 2.1 50 21:56 21.05.2020
3647 Clear 19 1016 77 10000 3.1 30 21:38 21.05.2020
3648 Clear 20 1016 77 10000 3.1 40 21:18 21.05.2020
3649 Clear 20 1015 77 10000 3.1 40 20:42 21.05.2020
3650 Clear 20 1001 60 0 1.8 359 20:22 21.05.2020
3651 Clouds 21 1015 73 10000 4.6 30 19:41 21.05.2020
3652 Clear 21 1000 59 0 2.67 7 19:21 21.05.2020
3653 Clear 22 1000 59 0 2.67 7 18:59 21.05.2020
3654 Clouds 21 1014 73 10000 4.6 30 18:39 21.05.2020
3655 Clouds 22 1014 73 10000 4.6 30 18:19 21.05.2020
3656 Clouds 21 1014 77 10000 5.1 20 17:57 21.05.2020
3657 Clouds 22 1014 77 10000 4.6 10 17:39 21.05.2020
3658 Clouds 22 1014 77 10000 4.6 10 17:21 21.05.2020
3659 Clouds 21 1014 83 10000 4.6 350 16:45 21.05.2020
3660 Clouds 21 1014 83 10000 4.6 350 16:23 21.05.2020
3661 Clouds 21 1014 83 10000 4.6 340 15:45 21.05.2020
3662 Clouds 21 1014 83 10000 5.1 350 15:24 21.05.2020
3663 Clouds 21 1014 83 10000 4.6 350 14:56 21.05.2020
3664 Clouds 23 1014 83 10000 5.1 350 14:36 21.05.2020
3665 Clouds 22 1014 83 10000 3.6 360 14:18 21.05.2020
3666 Clouds 22 1014 83 10000 3.6 360 13:40 21.05.2020
3667 Clouds 22 1014 83 10000 3.6 360 13:22 21.05.2020
3668 Clouds 22 1013 83 10000 3.1 330 12:55 21.05.2020
3669 Clouds 22 1013 83 10000 1.5 280 12:36 21.05.2020
3670 Clouds 22 1013 83 10000 1.5 280 12:18 21.05.2020
3671 Clouds 22 1012 88 10000 2.1 270 11:41 21.05.2020
3672 Clouds 22 1012 88 10000 2.1 270 11:23 21.05.2020
3673 Clouds 22 1012 88 10000 2.1 280 10:57 21.05.2020
3674 Clouds 21 1012 88 10000 2.1 250 10:39 21.05.2020
3675 Clouds 22 1012 88 10000 2.1 250 10:19 21.05.2020
3676 Clouds 21 1011 88 10000 2.1 270 09:43 21.05.2020
3677 Clouds 18 1011 88 10000 2.1 270 09:25 21.05.2020
3678 Clouds 18 1011 88 10000 2.1 280 08:59 21.05.2020
3679 Clouds 20 1011 88 10000 2.6 280 08:40 21.05.2020
3680 Clouds 20 1011 88 10000 2.6 280 08:22 21.05.2020
3681 Clouds 19 1011 88 10000 4.6 280 07:44 21.05.2020
3682 Rain 19 996 85 0 3.35 247 07:25 21.05.2020
3683 Rain 18 996 86 0 3.35 247 06:48 21.05.2020
3684 Clouds 18 1010 88 10000 5.7 260 05:53 21.05.2020
3685 Clouds 18 1010 82 10000 5.7 260 04:53 21.05.2020
3686 Rain 19 1011 82 10000 6.2 260 03:21 21.05.2020
3687 Clouds 19 1011 82 10000 4.6 260 02:38 21.05.2020
3688 Clouds 19 1011 82 10000 4.6 260 02:20 21.05.2020
3689 Clouds 19 1011 82 10000 4.1 230 01:42 21.05.2020
3690 Clouds 19 1011 82 10000 4.1 230 01:19 21.05.2020
3691 Clouds 19 1011 82 10000 4.6 240 00:45 21.05.2020
3692 Clouds 19 1011 82 10000 4.6 240 00:45 21.05.2020
3693 Clouds 19 1011 77 10000 4.6 240 00:22 21.05.2020
3694 Clouds 19 1011 77 10000 5.1 260 23:41 20.05.2020
3695 Clouds 19 1011 77 10000 5.1 260 23:20 20.05.2020
3696 Clouds 19 1011 77 10000 4.6 250 22:57 20.05.2020
3697 Clouds 19 1011 82 10000 4.1 250 22:38 20.05.2020
3698 Clouds 19 1011 82 10000 4.1 250 22:20 20.05.2020
3699 Clouds 19 1011 82 10000 5.7 260 21:40 20.05.2020
3700 Clouds 19 1011 82 10000 5.7 260 21:21 20.05.2020
3701 Clouds 19 1010 82 10000 6.7 270 20:44 20.05.2020
3702 Clouds 19 996 79 0 0.45 238 20:24 20.05.2020
3703 Clouds 19 996 78 0 4.29 258 19:57 20.05.2020
3704 Clouds 19 995 77 0 4.29 258 19:38 20.05.2020
3705 Clouds 20 995 77 0 0.89 341 19:19 20.05.2020
3706 Clouds 18 1010 88 10000 7.2 280 18:43 20.05.2020
3707 Clouds 18 1010 88 10000 7.2 280 18:24 20.05.2020
3708 Clouds 20 1010 88 10000 8.2 270 17:43 20.05.2020
3709 Clouds 19 994 73 0 1.34 32 17:24 20.05.2020
3710 Clouds 19 994 73 0 1.34 32 17:24 20.05.2020
3711 Clouds 19 1010 88 10000 8.7 270 16:58 20.05.2020
3712 Clouds 18 1010 82 10000 7.2 280 16:39 20.05.2020
3713 Clouds 19 1010 82 10000 7.2 280 16:21 20.05.2020
3714 Clouds 21 1010 82 10000 7.2 280 15:55 20.05.2020
3715 Clouds 19 1010 77 10000 5.7 270 15:36 20.05.2020
3716 Rain 20 995 66 0 0.89 344 15:18 20.05.2020
3717 Rain 20 994 63 0 1.79 322 14:38 20.05.2020
3718 Clouds 19 1010 82 10000 7.7 270 14:19 20.05.2020
3719 Clouds 21 1010 82 10000 5.7 270 13:40 20.05.2020
3720 Rain 20 995 69 0 7.8 272 13:18 20.05.2020
3721 Rain 20 994 72 0 1.34 291 12:42 20.05.2020
3722 Clouds 20 1010 88 10000 8.7 270 12:21 20.05.2020
3723 Clouds 21 1010 82 10000 8.2 260 11:39 20.05.2020
3724 Clouds 17 1010 82 10000 8.2 260 11:20 20.05.2020
3725 Clouds 19 1009 77 10000 7.7 260 10:58 20.05.2020
3726 Rain 20 994 67 0 1.34 8 10:40 20.05.2020
3727 Clouds 19 1009 82 10000 6.2 250 10:19 20.05.2020
3728 Rain 19 994 70 0 0.45 315 09:41 20.05.2020
3729 Clouds 16 1009 77 10000 7.2 250 09:21 20.05.2020
3730 Rain 18 1009 82 10000 7.2 250 08:42 20.05.2020
3731 Clouds 18 1009 82 10000 7.2 250 08:42 20.05.2020
3732 Clouds 18 1009 82 10000 7.2 250 08:20 20.05.2020
3733 Clouds 17 1009 82 10000 7.7 250 07:54 20.05.2020
3734 Clouds 17 1009 82 10000 7.7 250 07:54 20.05.2020
3735 Rain 17 1009 82 10000 8.7 260 07:36 20.05.2020
3736 Rain 19 1009 82 10000 8.7 260 07:18 20.05.2020
3737 Rain 19 1009 82 10000 8.7 260 06:24 20.05.2020
3738 Rain 18 1008 88 10000 11.8 260 05:18 20.05.2020
3739 Rain 19 1009 82 9000 9.8 230 04:19 20.05.2020
3740 Rain 19 1009 82 10000 8.2 230 03:37 20.05.2020
3741 Rain 19 1010 82 10000 6.7 230 01:58 20.05.2020
3742 Rain 19 1011 82 8000 6.2 220 01:24 20.05.2020
3743 Clouds 19 1011 82 10000 5.1 200 00:42 20.05.2020
3744 Clouds 19 1011 82 10000 5.1 200 00:23 20.05.2020
3745 Rain 19 1012 88 7000 5.1 200 23:39 19.05.2020
3746 Rain 18 1012 88 7000 5.1 200 23:19 19.05.2020
3747 Rain 19 1012 82 10000 5.7 210 22:55 19.05.2020
3748 Rain 19 1012 77 10000 6.7 210 22:37 19.05.2020
3749 Rain 19 1012 77 10000 6.7 210 22:18 19.05.2020
3750 Clouds 19 1012 72 10000 6.2 220 21:55 19.05.2020
3751 Clouds 19 1012 68 10000 6.2 220 21:36 19.05.2020
3752 Clouds 19 1012 68 10000 6.2 220 21:18 19.05.2020
3753 Clouds 19 1012 68 10000 7.7 220 20:56 19.05.2020
3754 Clouds 19 1012 72 10000 8.2 230 20:38 19.05.2020
3755 Clouds 20 997 70 0 3.88 202 20:19 19.05.2020
3756 Clouds 20 997 69 0 3.88 202 19:39 19.05.2020
3757 Clear 21 997 64 0 4.09 235 19:20 19.05.2020
3758 Clear 22 997 61 0 4.09 235 18:55 19.05.2020
3759 Clear 22 997 61 0 1.34 330 18:36 19.05.2020
3760 Clear 22 997 59 0 1.34 3 18:18 19.05.2020
3761 Clear 22 997 68 0 4.8 258 17:40 19.05.2020
3762 Clouds 20 1012 77 10000 7.7 270 17:20 19.05.2020
3763 Clear 23 997 65 0 5.17 268 16:56 19.05.2020
3764 Clouds 22 1012 77 10000 8.2 280 16:37 19.05.2020
3765 Clouds 22 1012 77 10000 8.2 280 16:19 19.05.2020
3766 Clouds 22 1013 77 10000 5.1 290 15:44 19.05.2020
3767 Clouds 22 1013 77 10000 5.1 290 15:21 19.05.2020
3768 Clouds 22 1013 77 10000 5.7 280 14:55 19.05.2020
3769 Clear 22 1014 77 10000 6.2 290 14:37 19.05.2020
3770 Clear 22 1014 77 10000 6.2 290 14:37 19.05.2020
3771 Clouds 23 998 67 0 3.78 290 14:19 19.05.2020
3772 Clouds 22 998 66 0 1.34 333 13:56 19.05.2020
3773 Clouds 22 999 66 0 3.96 287 13:37 19.05.2020
3774 Clouds 22 1014 77 10000 5.7 290 13:19 19.05.2020
3775 Clouds 22 999 68 0 0.45 359 12:56 19.05.2020
3776 Clouds 22 1014 77 10000 5.1 300 12:36 19.05.2020
3777 Clouds 22 1014 77 10000 5.1 300 12:18 19.05.2020
3778 Clouds 22 1014 77 10000 5.1 300 12:18 19.05.2020
3779 Clouds 22 999 71 0 1.79 9 11:42 19.05.2020
3780 Clouds 21 1014 77 10000 3.1 290 11:22 19.05.2020
3781 Clouds 21 1014 77 10000 2.6 290 10:57 19.05.2020
3782 Clouds 22 999 67 0 1.34 337 10:57 19.05.2020
3783 Clouds 21 1014 77 10000 2.1 260 10:39 19.05.2020
3784 Clouds 20 1014 72 10000 3.1 250 10:21 19.05.2020
3785 Clouds 20 1014 72 10000 3.1 230 09:44 19.05.2020
3786 Clouds 19 1014 72 10000 3.1 230 09:25 19.05.2020
3787 Clear 17 1014 82 10000 2.6 240 08:48 19.05.2020
3788 Clouds 19 1014 82 10000 1.5 290 08:25 19.05.2020
3789 Clouds 17 999 84 0 0.52 266 07:57 19.05.2020
3790 Clouds 18 1015 82 10000 3.1 190 07:37 19.05.2020
3791 Clouds 17 1015 82 10000 3.1 190 07:19 19.05.2020
3792 Clouds 15 1000 85 0 2.13 243 06:40 19.05.2020
3793 Clouds 15 1000 87 0 1.1 267 06:18 19.05.2020
3794 Clouds 16 1000 86 0 1.1 267 05:39 19.05.2020
3795 Clouds 16 1000 81 0 2.33 264 04:50 19.05.2020
3796 Clouds 17 1000 75 0 3.09 255 02:59 19.05.2020
3797 Clouds 17 1000 70 0 3.9 265 01:21 19.05.2020
3798 Clouds 17 1001 74 0 3.9 265 00:40 19.05.2020
3799 Clouds 19 1016 82 10000 4.1 250 00:18 19.05.2020
3800 Clouds 19 1016 82 10000 4.1 250 23:40 18.05.2020
3801 Clouds 18 1016 82 10000 4.1 250 23:20 18.05.2020
3802 Clouds 18 1015 82 10000 4.6 260 22:59 18.05.2020
3803 Clouds 18 1016 88 10000 5.1 260 22:39 18.05.2020
3804 Clouds 18 1016 88 10000 5.1 260 22:20 18.05.2020
3805 Clouds 18 1015 88 10000 6.7 260 21:43 18.05.2020
3806 Clouds 19 1015 88 10000 6.7 260 21:22 18.05.2020
3807 Clouds 19 1014 88 10000 6.2 270 20:58 18.05.2020
3808 Clouds 19 1014 88 10000 7.2 280 20:38 18.05.2020
3809 Clouds 20 998 85 0 1.34 80 20:20 18.05.2020
3810 Clouds 20 997 85 0 1.79 352 19:56 18.05.2020
3811 Clouds 20 997 83 0 2.68 2 19:38 18.05.2020
3812 Clouds 21 997 82 0 1.34 236 19:18 18.05.2020
3813 Clouds 22 996 79 0 0.89 303 18:44 18.05.2020
3814 Clouds 22 996 73 0 0.89 344 18:22 18.05.2020
3815 Clouds 23 996 65 0 1.34 277 17:40 18.05.2020
3816 Clouds 22 1012 88 10000 7.7 280 17:18 18.05.2020
3817 Clouds 22 1012 88 10000 7.7 280 16:56 18.05.2020
3818 Clouds 22 1012 88 10000 6.2 290 16:38 18.05.2020
3819 Clouds 23 1012 88 10000 6.2 290 16:18 18.05.2020
3820 Clouds 23 1012 88 10000 5.1 260 15:56 18.05.2020
3821 Clouds 22 1012 94 10000 4.6 270 15:37 18.05.2020
3822 Clouds 25 996 62 0 5.82 291 15:19 18.05.2020
3823 Clouds 25 996 63 0 5.82 291 14:43 18.05.2020
3824 Clouds 26 996 62 0 4.51 287 14:24 18.05.2020
3825 Clouds 25 996 60 0 4.51 287 13:58 18.05.2020
3826 Clouds 25 996 59 0 4.51 287 13:39 18.05.2020
3827 Clouds 26 995 56 0 3.23 269 13:19 18.05.2020
3828 Clouds 26 995 53 0 3.23 269 12:56 18.05.2020
3829 Clouds 25 1014 53 0 2.24 90 12:37 18.05.2020
3830 Clouds 27 995 51 0 0.45 356 12:18 18.05.2020
3831 Clouds 28 996 46 0 3.28 277 11:47 18.05.2020
3832 Clouds 26 1011 83 10000 2.1 70 11:27 18.05.2020
3833 Clouds 26 1011 78 10000 7.7 40 10:58 18.05.2020
3834 Clouds 25 1011 73 10000 7.7 40 10:40 18.05.2020
3835 Clouds 25 1011 73 10000 7.7 40 10:22 18.05.2020
3836 Clouds 23 1012 57 10000 9.3 70 09:43 18.05.2020
3837 Clouds 24 997 62 0 0.45 355 09:24 18.05.2020
3838 Clouds 24 1013 53 10000 8.7 70 08:45 18.05.2020
3839 Clouds 24 1013 53 10000 8.7 70 08:26 18.05.2020
3840 Clouds 23 999 59 0 2.8 77 07:54 18.05.2020
3841 Clouds 22 998 62 0 0.45 359 07:26 18.05.2020
3842 Clouds 22 999 66 0 2.86 92 06:51 18.05.2020
3843 Clouds 23 999 63 0 2.86 92 06:33 18.05.2020
3844 Clouds 20 1008 46 0 6.26 217 05:49 18.05.2020
3845 Clouds 21 1008 44 0 9.39 234 04:52 18.05.2020
3846 Clouds 21 1008 42 0 10.28 221 03:31 18.05.2020
3847 Clouds 22 1013 41 0 4.02 33 02:22 18.05.2020
3848 Clouds 23 1000 66 0 2.59 62 00:55 18.05.2020
3849 Clouds 22 1013 50 10000 10.3 70 00:25 18.05.2020
3850 Clouds 22 1013 50 10000 10.3 70 23:57 17.05.2020
3851 Clouds 22 1013 50 10000 10.3 70 23:39 17.05.2020
3852 Clouds 22 1014 60 10000 8.2 70 23:20 17.05.2020
3853 Clouds 22 1014 60 10000 8.2 70 22:56 17.05.2020
3854 Clouds 22 1014 73 10000 8.7 60 22:37 17.05.2020
3855 Clouds 22 1014 73 10000 8.7 60 22:19 17.05.2020
3856 Clouds 22 1014 77 10000 7.7 60 21:55 17.05.2020
3857 Clouds 23 1014 83 10000 8.2 60 21:37 17.05.2020
3858 Clouds 22 1014 83 10000 8.2 60 21:18 17.05.2020
3859 Clouds 22 1013 78 10000 10.3 40 20:42 17.05.2020
3860 Clouds 23 1013 78 10000 10.3 40 20:21 17.05.2020
3861 Clouds 22 1013 69 10000 9.8 50 19:57 17.05.2020
3862 Clouds 24 1013 44 10000 8.2 70 19:38 17.05.2020
3863 Clouds 24 1013 44 10000 8.2 70 19:19 17.05.2020
3864 Clouds 24 1014 60 10000 7.7 70 18:42 17.05.2020
3865 Clouds 25 1014 60 10000 7.7 70 18:23 17.05.2020
3866 Clouds 26 1014 50 10000 6.2 60 17:59 17.05.2020
3867 Clouds 25 1014 64 10000 5.7 40 17:39 17.05.2020
3868 Clouds 26 1014 64 10000 5.7 40 17:21 17.05.2020
3869 Clouds 26 1014 73 10000 2.6 330 16:40 17.05.2020
3870 Clouds 26 1014 73 10000 2.6 330 16:21 17.05.2020
3871 Clouds 26 1014 69 10000 2.1 360 15:59 17.05.2020
3872 Clouds 26 1014 69 10000 2.1 360 15:59 17.05.2020
3873 Clouds 26 1014 64 10000 1.5 10 15:39 17.05.2020
3874 Clouds 26 1014 64 10000 1.5 10 15:21 17.05.2020
3875 Clouds 26 1015 73 10000 1.5 30 14:54 17.05.2020
3876 Clouds 25 1015 83 10000 6.7 280 14:36 17.05.2020
3877 Clouds 25 1015 83 10000 6.7 280 14:18 17.05.2020
3878 Clouds 25 1015 69 10000 1.5 0 13:40 17.05.2020
3879 Clouds 26 1015 69 10000 1.5 0 13:20 17.05.2020
3880 Clouds 21 998 68 0 2.32 118 04:53 17.05.2020
3881 Clouds 23 997 62 0 1.3 8 03:19 17.05.2020
3882 Clouds 21 1017 65 0 0.95 122 02:22 17.05.2020
3883 Clouds 22 1017 63 0 0.95 122 01:49 17.05.2020
3884 Clouds 22 1017 61 0 0.31 92 00:43 17.05.2020
3885 Clouds 22 1012 60 10000 3.6 50 00:21 17.05.2020
3886 Clouds 23 1012 60 10000 3.6 50 23:42 16.05.2020
3887 Clouds 23 1012 60 10000 3.6 50 23:21 16.05.2020
3888 Clouds 22 1011 68 10000 3.6 30 22:59 16.05.2020
3889 Clouds 22 1010 73 10000 3.6 40 22:41 16.05.2020
3890 Clouds 23 1010 73 10000 3.6 40 22:20 16.05.2020
3891 Clouds 24 1010 53 10000 5.1 60 21:55 16.05.2020
3892 Clouds 25 1009 53 10000 6.2 60 21:37 16.05.2020
3893 Clouds 25 1009 53 10000 6.2 60 21:18 16.05.2020
3894 Clouds 26 1009 39 10000 5.7 250 20:54 16.05.2020
3895 Clouds 29 1008 37 10000 6.2 240 20:36 16.05.2020
3896 Clouds 28 1008 37 10000 6.2 240 20:18 16.05.2020
3897 Clouds 30 1008 13 10000 7.7 190 19:40 16.05.2020
3898 Clouds 31 1008 13 10000 7.7 190 19:22 16.05.2020
3899 Clouds 31 1008 13 10000 7.7 180 18:55 16.05.2020
3900 Clouds 32 1008 12 10000 7.7 200 18:36 16.05.2020
3901 Clouds 32 1008 12 10000 7.7 200 18:18 16.05.2020
3902 Clouds 32 1008 16 10000 7.7 210 17:40 16.05.2020
3903 Clouds 32 1008 16 10000 7.7 210 17:20 16.05.2020
3904 Clouds 34 1008 11 10000 8.7 190 16:42 16.05.2020
3905 Clouds 34 1008 11 10000 8.7 190 16:23 16.05.2020
3906 Clouds 35 1008 10 10000 7.7 190 15:58 16.05.2020
3907 Clouds 35 1008 10 10000 8.7 190 15:40 16.05.2020
3908 Clouds 35 1008 10 10000 8.2 160 15:20 16.05.2020
3909 Clouds 35 1008 10 10000 8.2 160 14:55 16.05.2020
3910 Clouds 34 1009 11 10000 6.2 140 14:37 16.05.2020
3911 Clouds 34 1009 11 10000 6.2 140 14:19 16.05.2020
3912 Clouds 33 995 40 0 4.85 155 13:42 16.05.2020
3913 Clouds 33 995 45 0 4.56 138 13:23 16.05.2020
3914 Clouds 32 995 49 0 4.56 138 12:57 16.05.2020
3915 Clouds 31 1010 40 10000 6.2 60 12:39 16.05.2020
3916 Clouds 30 996 51 0 3.9 132 12:18 16.05.2020
3917 Clouds 29 1010 33 10000 7.2 80 11:41 16.05.2020
3918 Clouds 29 1010 33 10000 7.2 80 11:41 16.05.2020
3919 Clouds 29 996 55 0 3.66 124 11:22 16.05.2020
3920 Clouds 29 1010 35 10000 7.7 80 10:57 16.05.2020
3921 Clouds 29 1010 35 10000 8.7 80 10:38 16.05.2020
3922 Clouds 27 1010 35 10000 8.7 80 10:19 16.05.2020
3923 Clouds 28 1010 34 10000 8.7 70 09:46 16.05.2020
3924 Clouds 24 1010 36 10000 9.8 90 09:28 16.05.2020
3925 Clouds 23 998 69 0 5.16 107 08:46 16.05.2020
3926 Clouds 23 998 73 0 6.43 106 08:24 16.05.2020
3927 Clouds 22 1010 56 10000 12.3 70 07:59 16.05.2020
3928 Clouds 22 998 78 0 6.43 106 07:40 16.05.2020
3929 Clouds 23 998 72 0 6.17 103 07:21 16.05.2020
3930 Clouds 23 998 55 0 6.17 103 06:47 16.05.2020
3931 Clouds 22 1012 60 0 1.34 115 06:19 16.05.2020
3932 Clouds 22 1013 60 0 0.45 67 05:42 16.05.2020
3933 Clouds 23 998 47 0 4.86 101 05:20 16.05.2020
3934 Clouds 21 999 91 0 4.15 98 03:27 16.05.2020
3935 Clouds 21 999 96 0 4.15 98 02:45 16.05.2020
3936 Clouds 22 999 96 0 4.09 82 02:19 16.05.2020
3937 Clouds 22 1000 92 0 4.09 82 01:40 16.05.2020
3938 Clouds 21 1000 88 0 2.76 83 00:57 16.05.2020
3939 Clouds 21 1000 81 0 2.76 83 00:39 16.05.2020
3940 Clouds 21 1014 88 10000 1 0 00:19 16.05.2020
3941 Clouds 21 1014 88 10000 1 0 23:39 15.05.2020
3942 Clouds 20 1014 88 10000 1 0 23:19 15.05.2020
3943 Clouds 20 1013 82 10000 1 0 22:42 15.05.2020
3944 Clouds 22 1013 82 10000 1 0 22:21 15.05.2020
3945 Clouds 22 1014 82 10000 1.5 200 21:57 15.05.2020
3946 Clouds 21 1013 82 10000 3.6 220 21:39 15.05.2020
3947 Clouds 21 1013 82 10000 3.6 220 21:21 15.05.2020
3948 Clouds 21 1013 77 10000 3.6 220 20:56 15.05.2020
3949 Clouds 21 1013 77 10000 2.6 220 20:37 15.05.2020
3950 Clouds 21 1013 77 10000 2.6 220 20:19 15.05.2020
3951 Clouds 21 1013 77 10000 4.6 240 19:43 15.05.2020
3952 Clouds 21 1013 73 10000 3.6 240 19:24 15.05.2020
3953 Clouds 24 1013 73 10000 3.6 240 18:54 15.05.2020
3954 Clouds 24 1013 57 10000 7.2 80 18:36 15.05.2020
3955 Clouds 23 1000 55 0 3.43 91 18:18 15.05.2020
3956 Clouds 24 1014 68 10000 7.7 60 17:38 15.05.2020
3957 Clouds 23 1000 47 0 0.45 257 17:19 15.05.2020
3958 Clouds 23 1000 48 0 4.18 96 16:56 15.05.2020
3959 Clouds 25 1014 64 10000 10.3 60 16:38 15.05.2020
3960 Clouds 24 1001 43 0 4.42 96 16:18 15.05.2020
3961 Clouds 22 1015 60 10000 10.3 60 15:41 15.05.2020
3962 Clouds 22 1015 60 10000 10.3 60 15:21 15.05.2020
3963 Clouds 24 1001 40 0 3.43 87 14:58 15.05.2020
3964 Clouds 27 1015 64 10000 8.2 50 14:40 15.05.2020
3965 Clouds 25 1015 64 10000 8.2 50 14:22 15.05.2020
3966 Clouds 24 1001 34 0 2.37 15 13:43 15.05.2020
3967 Clouds 23 1015 64 10000 8.2 50 13:22 15.05.2020
3968 -273 0 0 0 0 0 12:59 15.05.2020
3969 Clouds 24 1001 36 0 2.58 341 12:39 15.05.2020
3970 Clouds 24 1001 36 0 2.58 341 12:39 15.05.2020
3971 Clouds 24 1001 36 0 2.06 344 12:18 15.05.2020
3972 Clouds 24 1001 36 0 2.06 344 11:56 15.05.2020
3973 Clouds 24 1001 37 0 2.06 344 11:37 15.05.2020
3974 Clouds 24 1001 38 0 2.26 329 11:19 15.05.2020
3975 Clouds 24 1001 39 0 2.26 329 10:56 15.05.2020
3976 Clouds 24 1001 40 0 2.26 329 10:38 15.05.2020
3977 Clouds 24 1001 39 0 1.52 321 10:19 15.05.2020
3978 Clouds 23 1001 36 0 1.52 321 09:40 15.05.2020
3979 Clouds 21 1016 56 10000 1 0 09:20 15.05.2020
3980 Clouds 21 1016 60 10000 1.5 180 08:59 15.05.2020
3981 Clouds 19 1016 64 10000 1.5 240 08:38 15.05.2020
3982 Clouds 19 1016 64 10000 1.5 240 08:19 15.05.2020
3983 Clouds 19 1015 64 10000 2.1 210 07:46 15.05.2020
3984 Clouds 20 1017 34 0 3.58 315 07:28 15.05.2020
3985 Clouds 19 1017 33 0 3.13 315 06:57 15.05.2020
3986 Clouds 17 1016 67 0 4.47 315 05:55 15.05.2020
3987 Clouds 18 1015 62 0 6.26 315 04:38 15.05.2020
3988 Clouds 19 1007 54 0 0.45 221 03:49 15.05.2020
3989 Clouds 21 1007 58 0 4.72 257 02:40 15.05.2020
3990 Clouds 19 1007 61 0 1.34 206 01:32 15.05.2020
3991 Clouds 21 1007 53 0 0.45 51 00:57 15.05.2020
3992 Clouds 21 1007 47 0 2.68 76 00:39 15.05.2020
3993 Clouds 24 1009 47 10000 12.3 250 00:20 15.05.2020
3994 Clouds 25 1009 47 10000 12.3 250 23:40 14.05.2020
3995 Clouds 25 1009 47 10000 12.3 250 23:18 14.05.2020
3996 Clouds 25 1009 47 10000 12.3 250 23:18 14.05.2020
3997 Clouds 28 1008 37 10000 8.7 230 22:42 14.05.2020
3998 Clouds 28 1008 37 10000 8.7 230 22:23 14.05.2020
3999 Clouds 34 1005 17 10000 8.7 200 21:58 14.05.2020
4000 Clouds 34 1005 17 10000 8.7 210 21:40 14.05.2020
4001 Clouds 27 1005 44 10000 8.7 250 21:19 14.05.2020
4002 Clouds 27 1005 44 10000 8.7 250 20:56 14.05.2020
4003 Clouds 26 1005 61 10000 2.1 0 20:38 14.05.2020
4004 Clouds 26 1005 61 10000 2.1 0 20:19 14.05.2020
4005 Clouds 27 1006 44 10000 2.6 0 19:56 14.05.2020
4006 Clouds 26 1005 57 10000 3.1 0 19:37 14.05.2020
4007 Clouds 28 1005 57 10000 3.1 0 19:19 14.05.2020
4008 Clouds 28 1005 64 10000 4.1 40 18:54 14.05.2020
4009 Clouds 28 1005 50 10000 3.6 60 18:36 14.05.2020
4010 Clouds 30 990 25 0 3.18 150 18:18 14.05.2020
4011 Clouds 31 990 23 0 0.89 354 17:55 14.05.2020
4012 Clouds 31 990 22 0 0.89 356 17:36 14.05.2020
4013 Clouds 31 1005 29 10000 7.7 230 17:18 14.05.2020
4014 Clouds 31 1005 29 10000 8.7 230 16:39 14.05.2020
4015 Clouds 30 1005 29 10000 8.7 230 16:20 14.05.2020
4016 Clouds 28 1005 50 10000 5.7 250 15:57 14.05.2020
4017 Clouds 30 1005 24 10000 5.7 230 15:39 14.05.2020
4018 Clouds 32 1005 30 10000 5.7 0 15:19 14.05.2020
4019 Clouds 32 1005 30 10000 5.7 0 14:56 14.05.2020
4020 Clouds 34 1004 15 10000 9.3 200 14:38 14.05.2020
4021 Clouds 34 1004 15 10000 9.3 200 14:19 14.05.2020
4022 Clouds 34 1004 15 10000 9.3 210 13:55 14.05.2020
4023 Clouds 33 1004 16 10000 7.2 190 13:37 14.05.2020
4024 Clouds 34 1004 16 10000 7.2 190 13:18 14.05.2020
4025 Clouds 34 1005 18 10000 5.1 0 12:56 14.05.2020
4026 Clouds 31 1005 37 10000 6.2 60 12:37 14.05.2020
4027 Clouds 29 1005 37 10000 6.2 60 12:18 14.05.2020
4028 Clouds 28 1005 42 10000 6.7 70 11:55 14.05.2020
4029 Clouds 28 1005 37 10000 3.1 0 11:37 14.05.2020
4030 Clouds 28 1005 37 10000 3.1 0 11:19 14.05.2020
4031 Clouds 31 1003 14 10000 10.8 200 10:41 14.05.2020
4032 Clouds 37 1003 14 10000 10.8 200 10:22 14.05.2020
4033 Clouds 38 1003 10 10000 8.2 160 09:43 14.05.2020
4034 Clouds 38 1003 10 10000 8.2 160 09:24 14.05.2020
4035 Clouds 38 1002 10 10000 6.7 180 08:56 14.05.2020
4036 Clouds 37 1002 11 10000 4.6 160 08:37 14.05.2020
4037 Clouds 37 1002 11 10000 4.6 160 08:18 14.05.2020
4038 Clouds 26 1006 31 0 7.12 167 07:44 14.05.2020
4039 Clouds 26 1006 31 0 6.59 153 07:21 14.05.2020
4040 Clouds 24 1007 31 0 6.59 153 06:43 14.05.2020
4041 Clouds 27 1007 27 0 2.24 45 06:23 14.05.2020
4042 Clouds 20 973 47 0 6.63 137 05:37 14.05.2020
4043 Clouds 22 1009 44 0 4.71 143 04:45 14.05.2020
4044 Clouds 21 974 40 0 3.9 143 03:37 14.05.2020
4045 Rain 22 1009 60 0 3.58 152 02:57 14.05.2020
4046 Rain 23 994 58 0 2.71 107 02:34 14.05.2020
4047 Clouds 23 995 59 0 1.84 162 01:48 14.05.2020
4048 Clouds 22 1015 54 0 0.89 180 00:53 14.05.2020
4049 Clouds 22 998 58 0 0.45 340 00:27 14.05.2020
4050 Clouds 23 998 54 0 1.79 12 23:45 13.05.2020
4051 Clouds 22 997 59 0 1.33 280 23:23 13.05.2020
4052 Clouds 22 997 58 0 1.33 280 22:59 13.05.2020
4053 Clouds 23 997 59 0 1.33 280 22:41 13.05.2020
4054 Clouds 22 997 59 0 0.49 254 22:21 13.05.2020
4055 Clouds 22 997 61 0 0.45 1 21:58 13.05.2020
4056 Clouds 23 997 60 0 3.13 4 21:39 13.05.2020
4057 Clouds 22 1011 77 10000 9.3 350 21:19 13.05.2020
4058 Clouds 24 1009 56 10000 3.1 60 20:55 13.05.2020
4059 Clouds 22 1009 56 10000 3.1 60 20:55 13.05.2020
4060 Clouds 24 1008 56 10000 4.1 70 20:37 13.05.2020
4061 Clouds 26 1008 60 10000 4.1 60 20:18 13.05.2020
4062 Clouds 25 993 37 0 0.45 253 19:41 13.05.2020
4063 Clouds 26 994 38 0 5.39 129 19:22 13.05.2020
4064 Clouds 26 994 37 0 5.39 129 18:44 13.05.2020
4065 Clouds 26 994 35 0 4.24 123 18:22 13.05.2020
4066 Clouds 26 994 36 0 1.34 243 18:22 13.05.2020
4067 Clouds 27 1009 44 10000 8.2 80 17:58 13.05.2020
4068 Clouds 28 995 27 0 4.24 123 17:38 13.05.2020
4069 Clouds 28 996 25 0 2.61 142 17:18 13.05.2020
4070 Clouds 30 995 19 0 0.89 13 16:40 13.05.2020
4071 Clouds 32 1009 34 10000 7.7 180 16:19 13.05.2020
4072 Clouds 32 1008 9 10000 9.8 190 15:55 13.05.2020
4073 Clouds 33 1007 8 10000 10.3 180 15:37 13.05.2020
4074 Clouds 32 1007 9 10000 10.8 180 15:18 13.05.2020
4075 Clouds 32 1007 9 10000 13.9 170 14:42 13.05.2020
4076 Rain 33 1007 9 10000 13.9 170 14:24 13.05.2020
4077 Rain 33 1007 35 10000 12.9 180 13:59 13.05.2020
4078 Rain 33 1007 35 10000 12.9 180 13:59 13.05.2020
4079 Rain 33 1008 11 10000 14.4 170 13:41 13.05.2020
4080 Rain 33 1008 11 10000 14.4 170 13:22 13.05.2020
4081 Rain 33 1008 34 10000 13.9 180 12:59 13.05.2020
4082 Rain 33 1008 34 10000 13.9 170 12:41 13.05.2020
4083 Clouds 30 1008 36 10000 13.9 170 12:20 13.05.2020
4084 Clouds 29 1010 10 10000 11.3 190 11:56 13.05.2020
4085 Clouds 29 1008 11 10000 9.8 190 11:38 13.05.2020
4086 Clouds 29 1008 11 10000 9.8 190 11:20 13.05.2020
4087 Clouds 28 1008 22 10000 4.6 110 10:58 13.05.2020
4088 Clouds 25 1008 64 10000 3.6 10 10:38 13.05.2020
4089 Clouds 25 1008 64 10000 3.6 10 10:19 13.05.2020
4090 Clouds 25 1009 64 10000 5.7 30 09:47 13.05.2020
4091 Clouds 23 1009 56 10000 5.7 40 09:24 13.05.2020
4092 Clouds 22 1010 64 10000 4.6 10 08:58 13.05.2020
4093 Clouds 23 1010 53 10000 2.6 0 08:39 13.05.2020
4094 Clear 22 1010 53 10000 2.6 0 08:20 13.05.2020
4095 Clear 21 1010 46 10000 2.6 50 07:52 13.05.2020
4096 Clear 21 997 72 0 2.36 154 07:32 13.05.2020
4097 Clear 20 997 73 0 2.36 154 06:52 13.05.2020
4098 Clear 21 998 74 0 0.45 346 06:34 13.05.2020
4099 Clear 19 998 74 0 3.5 148 05:43 13.05.2020
4100 Clear 19 998 76 0 3.86 133 03:58 13.05.2020
4101 Clear 19 999 77 0 3.49 130 02:38 13.05.2020
4102 Clouds 19 999 76 0 4.19 122 01:46 13.05.2020
4103 Clouds 19 1000 79 0 3.96 117 00:58 13.05.2020
4104 Clouds 20 1014 82 10000 1.5 270 00:25 13.05.2020
4105 Clouds 20 1014 82 10000 1.5 270 23:59 12.05.2020
4106 Clouds 20 1014 82 10000 1.5 270 23:39 12.05.2020
4107 Clouds 20 1014 82 10000 1.5 270 23:20 12.05.2020
4108 Clouds 20 1014 72 10000 3.6 220 22:42 12.05.2020
4109 Clouds 20 1014 72 10000 3.6 220 22:22 12.05.2020
4110 Clouds 20 1014 68 10000 3.1 220 21:57 12.05.2020
4111 Clouds 21 1013 73 10000 1 0 21:38 12.05.2020
4112 Clouds 21 1013 73 10000 1 0 21:38 12.05.2020
4113 Clouds 20 1013 73 10000 1 0 21:20 12.05.2020
4114 -273 0 0 0 0 0 20:59 12.05.2020
4115 Clouds 20 1014 68 10000 4.1 60 20:40 12.05.2020
4116 Clear 21 1014 68 10000 4.1 60 20:21 12.05.2020
4117 Clear 21 1014 68 10000 4.6 60 19:58 12.05.2020
4118 Clear 21 1014 73 10000 7.7 50 19:40 12.05.2020
4119 Clear 21 1014 73 10000 7.7 50 19:21 12.05.2020
4120 Clear 22 1015 68 10000 7.2 60 18:56 12.05.2020
4121 Clear 22 1015 64 10000 6.2 60 18:38 12.05.2020
4122 Clear 23 1015 64 10000 6.2 60 18:20 12.05.2020
4123 Clear 23 1015 64 10000 3.6 20 17:43 12.05.2020
4124 Clear 23 1015 64 10000 3.6 20 17:24 12.05.2020
4125 Clear 23 1015 68 10000 2.1 360 16:47 12.05.2020
4126 Clear 23 1015 68 10000 2.1 360 16:26 12.05.2020
4127 Clear 23 1016 73 10000 3.1 350 15:57 12.05.2020
4128 Clear 23 1016 73 10000 3.1 350 15:38 12.05.2020
4129 Clear 23 1016 73 10000 3.1 350 15:19 12.05.2020
4130 Clear 26 1001 41 0 2.5 320 14:57 12.05.2020
4131 Clear 25 1001 42 0 2.5 320 14:38 12.05.2020
4132 Clear 23 1016 82 10000 4.6 330 14:20 12.05.2020
4133 Clear 23 1016 77 10000 3.6 330 13:58 12.05.2020
4134 Clear 25 1001 43 0 2.36 320 13:40 12.05.2020
4135 Clear 25 1001 39 0 2.58 318 13:20 12.05.2020
4136 Clear 25 1001 40 0 2.58 318 12:57 12.05.2020
4137 Clear 25 1016 73 10000 4.6 310 12:39 12.05.2020
4138 Clear 25 1001 40 0 2.44 316 12:21 12.05.2020
4139 Clear 25 1001 47 0 2.44 316 11:58 12.05.2020
4140 Clear 25 1001 40 0 2.44 316 11:39 12.05.2020
4141 Clear 25 1001 41 0 1.92 307 11:21 12.05.2020
4142 Clear 25 1001 46 0 1.92 307 10:58 12.05.2020
4143 Clear 25 1001 47 0 1.92 307 10:40 12.05.2020
4144 Clear 25 1001 43 0 1.37 285 10:21 12.05.2020
4145 Clear 23 1015 64 10000 4.6 250 09:59 12.05.2020
4146 Clear 23 1015 64 10000 4.6 240 09:39 12.05.2020
4147 Clear 19 1015 64 10000 4.6 240 09:20 12.05.2020
4148 Clear 19 1015 68 10000 4.1 240 08:57 12.05.2020
4149 Clear 19 1014 43 10000 3.1 220 08:38 12.05.2020
4150 Clear 20 1014 43 10000 3.1 220 08:19 12.05.2020
4151 Clear 17 1000 48 0 1.44 240 07:41 12.05.2020
4152 Clear 18 1000 48 0 2.15 240 07:22 12.05.2020
4153 Clear 19 1000 49 0 2.15 240 06:49 12.05.2020
4154 Clear 17 1000 50 0 2.42 241 06:27 12.05.2020
4155 Clear 17 999 50 0 2.42 241 05:50 12.05.2020
4156 Clear 17 999 50 0 2.42 241 05:30 12.05.2020
4157 Clear 17 999 50 0 2.41 219 03:27 12.05.2020
4158 Clear 17 999 51 0 2.41 219 02:44 12.05.2020
4159 Clear 17 999 51 0 2.39 226 02:24 12.05.2020
4160 Clear 18 999 52 0 2.18 230 01:27 12.05.2020
4161 Clear 19 1014 46 10000 3.1 170 00:28 12.05.2020
4162 Clear 19 1014 46 10000 3.1 170 23:59 11.05.2020
4163 Clear 19 1014 46 10000 3.1 170 23:40 11.05.2020
4164 Clear 19 1014 46 10000 3.1 170 23:21 11.05.2020
4165 Clear 19 1013 52 10000 3.1 170 22:59 11.05.2020
4166 Clear 19 1013 52 10000 3.1 170 22:59 11.05.2020
4167 Clear 19 1013 59 10000 3.6 180 22:40 11.05.2020
4168 Clear 20 1013 59 10000 3.6 180 22:20 11.05.2020
4169 Clear 19 1013 68 10000 2.1 210 21:58 11.05.2020
4170 Clear 19 1013 72 10000 2.6 190 21:40 11.05.2020
4171 Clear 17 1013 72 10000 2.6 190 21:19 11.05.2020
4172 Clear 18 1013 72 10000 2.6 190 21:19 11.05.2020
4173 Clear 18 1013 77 10000 2.6 220 20:59 11.05.2020
4174 Clear 18 1013 68 10000 2.6 230 20:40 11.05.2020
4175 Clouds 20 1013 68 10000 2.6 230 20:21 11.05.2020
4176 Clouds 21 1012 68 10000 2.6 230 19:56 11.05.2020
4177 Clouds 18 1012 68 10000 3.6 260 19:38 11.05.2020
4178 Clouds 20 1012 68 10000 3.6 260 19:19 11.05.2020
4179 Clouds 19 1012 68 10000 2.6 220 18:55 11.05.2020
4180 Clouds 20 1012 68 10000 2.6 240 18:37 11.05.2020
4181 Clouds 21 1012 68 10000 2.6 240 18:18 11.05.2020
4182 Clouds 20 1012 72 10000 2.6 250 17:55 11.05.2020
4183 Clouds 21 1012 77 10000 2.6 260 17:36 11.05.2020
4184 Clouds 21 1012 77 10000 2.6 260 17:18 11.05.2020
4185 Clouds 22 1012 77 10000 5.7 290 16:42 11.05.2020
4186 Clouds 22 1012 77 10000 5.7 290 16:22 11.05.2020
4187 Clouds 22 1012 77 10000 5.7 290 15:58 11.05.2020
4188 Clouds 22 1011 77 10000 5.7 290 15:39 11.05.2020
4189 Clouds 22 1011 77 10000 5.7 290 15:19 11.05.2020
4190 Clouds 22 1011 72 10000 6.2 290 14:55 11.05.2020
4191 Clouds 22 1011 72 10000 6.2 290 14:37 11.05.2020
4192 Clouds 22 1011 72 10000 6.2 290 14:18 11.05.2020
4193 Clouds 22 1011 77 10000 8.2 300 13:42 11.05.2020
4194 Clouds 22 1011 77 10000 8.2 300 13:22 11.05.2020
4195 Clouds 22 1011 77 10000 8.2 290 12:58 11.05.2020
4196 Clouds 22 1011 82 10000 7.2 300 12:40 11.05.2020
4197 Clouds 22 1011 82 10000 7.2 300 12:22 11.05.2020
4198 Clouds 22 1010 82 10000 6.7 300 11:57 11.05.2020
4199 Clouds 22 1010 68 10000 3.1 250 11:38 11.05.2020
4200 Clouds 22 1010 68 10000 3.1 250 11:20 11.05.2020
4201 Clouds 22 1010 56 10000 3.1 230 10:56 11.05.2020
4202 Clouds 22 1010 56 10000 4.1 220 10:38 11.05.2020
4203 Clouds 22 1010 56 10000 4.1 220 10:19 11.05.2020
4204 Clouds 22 1009 60 10000 6.2 210 09:56 11.05.2020
4205 Clouds 24 1009 64 10000 6.7 200 09:37 11.05.2020
4206 Clouds 20 1009 64 10000 6.7 200 09:18 11.05.2020
4207 Clouds 19 1009 68 10000 6.2 200 08:40 11.05.2020
4208 Clouds 18 1009 68 10000 6.2 200 08:22 11.05.2020
4209 Clouds 20 1009 68 10000 7.7 200 07:54 11.05.2020
4210 Clouds 21 995 62 0 3.37 139 07:36 11.05.2020
4211 Clouds 19 995 63 0 3.01 168 07:18 11.05.2020
4212 Clouds 19 994 62 0 2.74 197 06:33 11.05.2020
4213 Clouds 18 994 60 0 2.74 197 05:49 11.05.2020
4214 Clouds 18 994 62 0 1.7 214 05:20 11.05.2020
4215 Clouds 18 994 79 0 1.86 278 03:51 11.05.2020
4216 Clouds 19 994 71 0 2.55 285 02:36 11.05.2020
4217 Clouds 19 993 64 0 4.13 263 01:55 11.05.2020
4218 Clouds 19 993 57 0 1.34 310 00:57 11.05.2020
4219 Clouds 20 993 44 0 3.23 222 00:38 11.05.2020
4220 Clouds 21 1007 60 10000 3.1 220 00:18 11.05.2020
4221 Clouds 21 1007 60 10000 3.1 220 23:39 10.05.2020
4222 Clouds 21 1007 60 10000 3.1 220 23:19 10.05.2020
4223 Clouds 21 1007 68 10000 3.1 200 22:54 10.05.2020
4224 Clouds 21 1007 77 10000 1.5 210 22:36 10.05.2020
4225 Clear 21 1007 77 10000 1.5 210 22:18 10.05.2020
4226 Clear 21 1007 77 10000 1.5 210 22:18 10.05.2020
4227 Clear 20 1007 77 10000 1 0 21:42 10.05.2020
4228 Clear 20 1007 77 10000 1 0 21:18 10.05.2020
4229 Clear 20 1007 82 10000 3.6 240 20:43 10.05.2020
4230 Clear 21 1007 82 10000 3.6 240 20:24 10.05.2020
4231 Clear 21 1007 83 10000 5.1 240 19:57 10.05.2020
4232 Clear 21 1007 73 10000 4.6 230 19:38 10.05.2020
4233 Clear 21 1007 73 10000 4.6 230 19:20 10.05.2020
4234 Clear 23 1008 78 10000 5.1 270 18:56 10.05.2020
4235 Clear 25 1008 64 10000 3.1 240 18:36 10.05.2020
4236 Clear 24 994 33 0 3.41 97 18:18 10.05.2020
4237 Clear 24 994 33 0 3.41 97 18:18 10.05.2020
4238 Clear 22 1009 64 10000 4.6 50 17:58 10.05.2020
4239 Clear 24 1009 64 10000 8.7 60 17:39 10.05.2020
4240 Clear 25 1009 64 10000 8.7 60 17:20 10.05.2020
4241 Clear 22 1010 69 10000 8.7 60 16:44 10.05.2020
4242 Clear 23 1010 69 10000 8.7 60 16:21 10.05.2020
4243 Clear 25 1011 73 10000 7.7 50 15:58 10.05.2020
4244 Clear 24 1010 69 10000 8.2 60 15:40 10.05.2020
4245 Clear 25 1010 69 10000 8.2 60 15:22 10.05.2020
4246 Clear 25 1011 68 10000 7.7 50 14:56 10.05.2020
4247 Clear 25 1011 77 10000 6.7 40 14:37 10.05.2020
4248 Clouds 25 1011 77 10000 6.7 40 14:19 10.05.2020
4249 Clouds 25 1011 77 10000 6.7 40 14:19 10.05.2020
4250 Clouds 24 1011 77 10000 5.7 40 13:58 10.05.2020
4251 Clouds 24 1011 77 10000 5.7 40 13:37 10.05.2020
4252 Clouds 25 997 56 0 0.89 41 13:19 10.05.2020
4253 Clouds 25 997 58 0 0.45 286 12:56 10.05.2020
4254 Clouds 24 997 58 0 0.89 41 12:37 10.05.2020
4255 Clouds 23 997 56 0 0.59 106 12:19 10.05.2020
4256 Clouds 23 997 56 0 0.59 106 12:19 10.05.2020
4257 Clouds 23 997 53 0 0.59 106 11:54 10.05.2020
4258 Clouds 23 997 51 0 0.59 106 11:36 10.05.2020
4259 Clouds 23 1011 77 10000 4.1 30 11:18 10.05.2020
4260 Clouds 23 997 53 0 0.38 171 10:42 10.05.2020
4261 Clouds 22 1011 77 10000 1.5 330 10:24 10.05.2020
4262 Clouds 21 1011 82 10000 1.5 250 09:43 10.05.2020
4263 Clouds 19 1011 82 10000 1.5 250 09:24 10.05.2020
4264 Clouds 20 1012 82 10000 2.1 250 08:59 10.05.2020
4265 Clouds 19 997 79 0 1.57 205 08:41 10.05.2020
4266 Clouds 20 1012 77 10000 2.1 200 08:22 10.05.2020
4267 Clouds 19 998 83 0 1.27 220 07:43 10.05.2020
4268 Clouds 18 998 83 0 2.43 99 07:19 10.05.2020
4269 Clouds 18 998 83 0 2.43 99 06:51 10.05.2020
4270 Clouds 19 998 82 0 1.89 123 06:27 10.05.2020
4271 Clouds 18 998 82 0 0.45 351 05:48 10.05.2020
4272 Clouds 19 998 83 0 1.01 193 04:48 10.05.2020
4273 Clouds 19 998 83 0 1.01 193 04:29 10.05.2020
4274 Clouds 19 998 83 0 0.77 195 03:51 10.05.2020
4275 Clouds 18 998 83 0 0.85 189 03:30 10.05.2020
4276 Clouds 19 999 82 0 1.65 256 02:25 10.05.2020
4277 Clouds 19 999 83 0 1.65 256 01:59 10.05.2020
4278 Clouds 19 1000 83 0 1.65 256 01:59 10.05.2020
4279 Clouds 19 999 83 0 1.65 256 01:40 10.05.2020
4280 Clouds 19 1000 83 0 1.24 206 01:19 10.05.2020
4281 Clouds 19 1000 83 0 1.24 206 00:53 10.05.2020
4282 Clouds 19 1014 68 10000 4.6 220 00:22 10.05.2020
4283 Clouds 19 1014 68 10000 4.6 220 23:57 09.05.2020
4284 Clouds 19 1000 83 0 1.53 107 23:38 09.05.2020
4285 Clouds 20 1014 68 10000 4.6 220 23:19 09.05.2020
4286 Clouds 20 1014 68 10000 4.6 220 23:19 09.05.2020
4287 Clouds 20 1014 72 10000 4.6 220 22:41 09.05.2020
4288 Clouds 19 1014 72 10000 4.6 220 22:23 09.05.2020
4289 Clouds 19 1014 72 10000 4.1 220 21:58 09.05.2020
4290 Clouds 19 1014 68 10000 5.1 220 21:40 09.05.2020
4291 Clouds 19 1014 68 10000 5.1 220 21:20 09.05.2020
4292 Clouds 19 1014 77 10000 5.1 220 20:57 09.05.2020
4293 Clouds 19 1014 77 10000 3.6 230 20:38 09.05.2020
4294 Clouds 20 1014 77 10000 3.6 230 20:20 09.05.2020
4295 Clouds 21 1014 73 10000 3.6 260 19:55 09.05.2020
4296 Clouds 21 1014 60 10000 5.1 70 19:37 09.05.2020
4297 Clouds 21 1014 60 10000 5.1 70 19:18 09.05.2020
4298 Clouds 21 1014 60 10000 6.2 60 18:42 09.05.2020
4299 Clouds 21 1014 60 10000 6.2 60 18:42 09.05.2020
4300 Clouds 22 1014 60 10000 6.2 60 18:23 09.05.2020
4301 Clouds 22 1015 73 10000 5.1 50 17:45 09.05.2020
4302 Clouds 22 1015 60 10000 6.7 60 17:23 09.05.2020
4303 Clouds 22 1015 60 10000 7.2 70 16:57 09.05.2020
4304 Clouds 22 1015 60 10000 6.7 60 16:38 09.05.2020
4305 Clouds 22 1015 60 10000 6.7 60 16:38 09.05.2020
4306 Clouds 22 1015 60 10000 6.7 60 16:19 09.05.2020
4307 Clouds 22 1016 56 10000 5.7 50 15:43 09.05.2020
4308 Clouds 24 1016 56 10000 5.7 50 15:22 09.05.2020
4309 Clouds 22 1002 53 0 1.54 61 14:56 09.05.2020
4310 Clouds 23 1002 52 0 1.54 61 14:37 09.05.2020
4311 Clouds 23 1002 54 0 0.45 274 14:18 09.05.2020
4312 Clouds 23 1002 56 0 1.47 87 14:18 09.05.2020
4313 Clouds 23 1017 68 10000 3.6 30 13:56 09.05.2020
4314 Clouds 22 1002 62 0 0.89 289 13:38 09.05.2020
4315 Clouds 22 1003 63 0 0.45 273 13:18 09.05.2020
4316 Clouds 22 1018 77 10000 2.6 10 12:40 09.05.2020
4317 Clear 22 1003 64 0 1.95 81 12:22 09.05.2020
4318 Clear 21 1004 64 0 1.95 81 11:45 09.05.2020
4319 Clear 21 1004 65 0 1.89 88 11:20 09.05.2020
4320 Clear 21 1017 82 10000 2.6 280 10:56 09.05.2020
4321 Clear 20 1003 67 0 1.89 88 10:38 09.05.2020
4322 Clouds 20 1003 67 0 2.24 103 10:20 09.05.2020
4323 Clouds 20 1003 68 0 2.24 103 09:54 09.05.2020
4324 Clouds 20 1003 68 0 2.24 103 09:36 09.05.2020
4325 Clouds 19 1017 77 10000 3.1 240 09:18 09.05.2020
4326 Clouds 18 1018 82 10000 1 220 08:43 09.05.2020
4327 Clouds 18 1018 82 10000 1 220 08:25 09.05.2020
4328 Clouds 17 1018 87 10000 1.5 180 07:48 09.05.2020
4329 Clear 17 1004 84 0 2.52 125 07:30 09.05.2020
4330 Clear 16 1004 85 0 2.52 125 06:45 09.05.2020
4331 Clear 16 1004 84 0 1.7 122 06:21 09.05.2020
4332 Clear 14 1004 83 0 1.7 122 05:44 09.05.2020
4333 Clear 15 1005 82 0 1.37 133 03:44 09.05.2020
4334 Clear 15 1005 84 0 1.4 144 02:55 09.05.2020
4335 Clouds 14 1005 83 0 1.31 192 02:30 09.05.2020
4336 Clouds 15 1005 80 0 1.28 200 01:51 09.05.2020
4337 Clouds 15 1006 79 0 1.75 193 01:23 09.05.2020
4338 Clouds 15 1006 79 0 1.75 193 00:46 09.05.2020
4339 Clouds 17 1020 77 10000 1.5 100 00:28 09.05.2020
4340 Clouds 17 1020 77 10000 1.5 100 23:48 08.05.2020
4341 Clouds 17 1020 77 10000 1.5 100 23:28 08.05.2020
4342 Clouds 17 1020 82 10000 3.6 70 22:57 08.05.2020
4343 Clouds 17 1020 77 10000 4.6 70 22:39 08.05.2020
4344 Clouds 18 1020 77 10000 4.6 70 22:19 08.05.2020
4345 Clouds 18 1020 72 10000 4.1 50 21:58 08.05.2020
4346 Clouds 18 1020 72 8000 5.7 50 21:39 08.05.2020
4347 Clouds 18 1020 72 8000 5.7 50 21:18 08.05.2020
4348 Clouds 19 1020 72 10000 5.1 40 20:56 08.05.2020
4349 Clouds 19 1020 77 10000 4.6 30 20:38 08.05.2020
4350 Clouds 19 1020 77 10000 4.6 30 20:20 08.05.2020
4351 Clouds 20 1020 72 10000 4.1 40 19:43 08.05.2020
4352 Clouds 20 1020 72 10000 4.1 40 19:22 08.05.2020
4353 Clouds 18 1020 72 10000 3.1 10 18:50 08.05.2020
4354 Clouds 18 1020 72 10000 3.1 10 18:31 08.05.2020
4355 Clouds 19 1020 72 10000 3.6 20 17:55 08.05.2020
4356 Clouds 19 1021 68 10000 3.1 360 17:37 08.05.2020
4357 Clouds 19 1021 68 10000 2.6 340 17:18 08.05.2020
4358 Clouds 19 1021 68 10000 3.1 330 16:42 08.05.2020
4359 Clouds 21 1021 68 10000 3.1 330 16:24 08.05.2020
4360 Clouds 20 1021 64 10000 2.6 330 15:55 08.05.2020
4361 Clouds 21 1022 68 10000 2.6 340 15:36 08.05.2020
4362 Clouds 21 1022 68 10000 2.6 340 15:18 08.05.2020
4363 Clouds 21 1022 68 10000 4.1 10 14:41 08.05.2020
4364 Clouds 22 1022 68 10000 4.1 10 14:20 08.05.2020
4365 Clouds 23 1007 60 0 2.24 7 13:58 08.05.2020
4366 Clouds 22 1007 62 0 2.24 19 13:39 08.05.2020
4367 Clouds 22 1022 68 10000 3.1 10 13:39 08.05.2020
4368 Clouds 22 1007 61 0 1.34 9 13:19 08.05.2020
4369 Clouds 22 1022 68 10000 3.1 360 12:45 08.05.2020
4370 Clouds 21 1007 48 0 1.2 329 12:25 08.05.2020
4371 Clouds 22 1007 52 0 1.2 329 11:55 08.05.2020
4372 Clouds 21 1022 68 10000 2.6 320 11:37 08.05.2020
4373 Clouds 21 1022 68 10000 2.6 320 11:37 08.05.2020
4374 Clouds 21 1022 68 10000 3.1 280 11:18 08.05.2020
4375 Clouds 21 1022 68 10000 3.1 280 10:54 08.05.2020
4376 Clouds 21 1022 68 10000 3.1 280 10:54 08.05.2020
4377 Clouds 21 1008 60 0 0.96 332 10:36 08.05.2020
4378 Clouds 21 1008 67 0 0.86 275 10:18 08.05.2020
4379 Clouds 20 1022 68 10000 4.6 200 09:41 08.05.2020
4380 Clouds 16 1022 68 10000 4.6 200 09:19 08.05.2020
4381 Clouds 17 1022 77 10000 4.1 220 08:51 08.05.2020
4382 Clouds 16 1022 77 10000 2.1 170 08:25 08.05.2020
4383 Clouds 15 1022 77 10000 2.1 180 07:55 08.05.2020
4384 Clear 15 1008 91 0 1.8 211 07:37 08.05.2020
4385 Clear 15 1008 91 0 1.16 161 07:19 08.05.2020
4386 Clear 16 1007 92 0 1.16 161 06:39 08.05.2020
4387 Clear 13 1007 91 0 0.7 141 06:20 08.05.2020
4388 Clear 13 1007 89 0 0.45 136 05:29 08.05.2020
4389 Clear 16 1007 88 0 1.48 188 03:23 08.05.2020
4390 Clear 16 1007 88 0 1.73 168 02:29 08.05.2020
4391 Clear 15 1007 86 0 1.76 167 01:40 08.05.2020
4392 Clear 17 1007 86 0 1.69 132 01:20 08.05.2020
4393 Clear 17 1007 84 0 1.69 132 00:47 08.05.2020
4394 Clear 17 1020 77 10000 5.7 70 00:27 08.05.2020
4395 Clear 17 1020 77 10000 5.7 70 23:56 07.05.2020
4396 Clear 17 1020 77 10000 5.7 70 23:37 07.05.2020
4397 Clear 17 1020 77 10000 5.1 80 23:19 07.05.2020
4398 Clear 18 1019 72 10000 6.7 70 22:41 07.05.2020
4399 Clear 18 1019 72 10000 6.7 70 22:20 07.05.2020
4400 Clear 18 1019 72 10000 7.2 60 21:57 07.05.2020
4401 Clear 18 1018 68 10000 7.7 60 21:38 07.05.2020
4402 Clear 19 1018 68 10000 7.7 60 21:20 07.05.2020
4403 Clear 19 1018 68 10000 7.7 60 20:57 07.05.2020
4404 Clouds 19 1018 68 10000 8.7 60 20:38 07.05.2020
4405 Clear 19 1005 77 0 2.6 85 20:19 07.05.2020
4406 Clear 20 1005 74 0 2.6 85 19:47 07.05.2020
4407 Clear 20 1004 74 0 3.05 75 19:23 07.05.2020
4408 Clouds 21 1018 77 10000 7.7 60 18:57 07.05.2020
4409 Clear 20 1017 73 10000 9.8 60 18:38 07.05.2020
4410 Clear 20 1017 73 10000 9.8 60 18:38 07.05.2020
4411 Clear 20 1017 73 10000 9.3 60 18:20 07.05.2020
4412 Clear 21 1017 68 10000 9.3 60 17:41 07.05.2020
4413 Clear 21 1017 68 10000 9.3 50 17:20 07.05.2020
4414 Clear 21 1017 68 10000 9.3 50 16:43 07.05.2020
4415 Clear 20 1017 68 10000 9.3 50 16:20 07.05.2020
4416 Clear 20 1017 73 10000 9.8 50 15:58 07.05.2020
4417 Clear 21 1018 68 10000 9.8 50 15:39 07.05.2020
4418 Clear 21 1018 68 10000 9.8 50 15:19 07.05.2020
4419 Clear 20 1017 73 10000 9.3 50 14:59 07.05.2020
4420 Clear 20 1017 73 10000 8.2 50 14:41 07.05.2020
4421 Clouds 20 1017 73 10000 8.2 50 14:18 07.05.2020
4422 Clouds 21 1017 77 10000 7.7 40 13:42 07.05.2020
4423 Clouds 21 1003 68 0 2.5 29 13:24 07.05.2020
4424 Clouds 20 1017 77 10000 6.2 30 12:44 07.05.2020
4425 Clouds 20 1017 77 10000 6.2 30 12:20 07.05.2020
4426 Clouds 20 1003 75 0 2.24 21 11:58 07.05.2020
4427 Clouds 20 1003 73 0 2.24 21 11:38 07.05.2020
4428 Clouds 20 1002 74 0 2.57 11 11:20 07.05.2020
4429 Clouds 20 1002 75 0 0.89 356 10:41 07.05.2020
4430 Clouds 20 1002 76 0 2.46 3 10:22 07.05.2020
4431 Clouds 19 1002 76 0 2.46 3 09:41 07.05.2020
4432 Clouds 19 1015 82 10000 5.7 30 09:20 07.05.2020
4433 Clouds 18 1015 88 10000 4.1 20 08:57 07.05.2020
4434 Clouds 18 1001 83 0 2.18 6 08:38 07.05.2020
4435 Clouds 18 1001 85 0 2.01 344 08:20 07.05.2020
4436 Clouds 18 1001 87 0 0.89 352 07:45 07.05.2020
4437 Clouds 16 1001 87 0 1.55 305 07:26 07.05.2020
4438 Clouds 15 1001 86 0 1.55 305 06:48 07.05.2020
4439 Clouds 15 1000 86 0 1.19 281 06:24 07.05.2020
4440 Clouds 16 1000 87 0 0.99 303 05:30 07.05.2020
4441 Clouds 17 999 90 0 1.32 305 03:55 07.05.2020
4442 Clouds 17 999 90 0 1.32 305 03:55 07.05.2020
4443 Clouds 18 999 92 0 1.71 297 03:25 07.05.2020
4444 Clouds 18 999 95 0 1.71 297 02:53 07.05.2020
4445 Clouds 18 999 98 0 2.17 299 01:44 07.05.2020
4446 Clouds 18 1000 98 0 2.68 300 01:24 07.05.2020
4447 Clouds 19 999 99 0 2.68 300 00:46 07.05.2020
4448 Clouds 18 1013 88 10000 2.1 290 00:27 07.05.2020
4449 Clouds 17 999 98 0 2.61 294 00:27 07.05.2020
4450 Clouds 19 999 97 0 2.61 294 23:47 06.05.2020
4451 Clouds 19 998 97 0 1.68 257 23:26 06.05.2020
4452 Clouds 19 998 95 0 1.68 257 22:58 06.05.2020
4453 Clouds 19 998 91 0 1.68 257 22:40 06.05.2020
4454 Clouds 20 998 90 0 1.11 214 22:20 06.05.2020
4455 Clouds 19 998 90 0 1.11 214 21:58 06.05.2020
4456 Clouds 20 1012 88 10000 3.1 330 21:40 06.05.2020
4457 Clouds 20 1012 88 10000 3.1 330 21:40 06.05.2020
4458 Clouds 20 1012 88 10000 3.1 330 21:21 06.05.2020
4459 Clouds 20 1012 88 10000 4.1 310 20:43 06.05.2020
4460 Clouds 20 998 81 0 0.75 173 20:25 06.05.2020
4461 Clouds 21 1012 82 10000 2.6 300 19:59 06.05.2020
4462 Clouds 21 1012 77 10000 1.5 310 19:39 06.05.2020
4463 Clouds 22 997 71 0 0.56 348 19:21 06.05.2020
4464 Clouds 22 997 68 0 0.56 348 18:59 06.05.2020
4465 Clouds 22 1012 64 10000 4.1 50 18:41 06.05.2020
4466 Clouds 23 997 61 0 1.79 26 18:22 06.05.2020
4467 Clouds 23 1011 73 10000 4.1 40 17:59 06.05.2020
4468 Clouds 24 996 46 0 1.79 4 17:40 06.05.2020
4469 Clouds 22 1011 77 10000 3.1 30 17:22 06.05.2020
4470 Clouds 23 1011 83 10000 3.1 360 16:59 06.05.2020
4471 Clouds 24 1011 78 10000 1.5 320 16:41 06.05.2020
4472 Clouds 24 1011 78 10000 1.5 320 16:21 06.05.2020
4473 Clouds 24 1011 77 10000 4.1 20 15:59 06.05.2020
4474 Clouds 23 1012 77 10000 4.1 40 15:41 06.05.2020
4475 Clear 26 1012 77 10000 4.1 40 15:22 06.05.2020
4476 Clear 25 1012 77 10000 3.6 30 14:56 06.05.2020
4477 Clouds 27 997 35 0 0.45 5 14:37 06.05.2020
4478 Clouds 26 1011 68 10000 4.1 40 14:18 06.05.2020
4479 Clouds 25 1011 73 10000 5.7 40 13:56 06.05.2020
4480 Clouds 21 1011 73 10000 5.1 40 13:36 06.05.2020
4481 Clouds 25 1011 73 10000 5.1 40 13:18 06.05.2020
4482 Clouds 25 1011 68 10000 3.6 40 12:42 06.05.2020
4483 Clouds 27 997 40 0 0.95 147 12:23 06.05.2020
4484 Clouds 27 997 42 0 0.45 341 11:41 06.05.2020
4485 Clouds 27 997 44 0 1.61 159 11:21 06.05.2020
4486 Clouds 26 997 44 0 1.61 159 10:58 06.05.2020
4487 Clouds 25 997 45 0 1.61 159 10:38 06.05.2020
4488 Clouds 25 997 48 0 0.81 131 10:19 06.05.2020
4489 Clouds 22 1012 72 10000 3.1 40 09:45 06.05.2020
4490 Clouds 20 1012 72 10000 3.1 40 09:24 06.05.2020
4491 Clouds 21 1012 64 10000 3.1 30 08:55 06.05.2020
4492 Clouds 21 1012 49 10000 2.6 60 08:36 06.05.2020
4493 Clouds 21 1012 49 10000 2.6 60 08:18 06.05.2020
4494 Clouds 19 998 63 0 2.11 184 07:40 06.05.2020
4495 Clouds 18 999 64 0 2.92 164 07:21 06.05.2020
4496 Clouds 17 999 63 0 2.92 164 06:56 06.05.2020
4497 Clouds 17 999 63 0 2.92 164 06:38 06.05.2020
4498 Clouds 17 999 62 0 2.44 148 06:18 06.05.2020
4499 Clouds 17 1000 62 0 2.44 148 05:37 06.05.2020
4500 Clouds 17 999 61 0 0.5 286 04:40 06.05.2020
4501 Clouds 17 999 60 0 0.7 223 03:47 06.05.2020
4502 Clouds 17 1000 60 0 1.56 201 03:22 06.05.2020
4503 Clouds 18 1000 61 0 1.56 201 02:30 06.05.2020
4504 Clouds 19 1001 62 0 1.44 194 01:56 06.05.2020
4505 Clouds 18 1001 62 0 1.44 194 01:34 06.05.2020
4506 Clouds 18 1002 61 0 2.37 165 00:55 06.05.2020
4507 Clouds 18 1017 77 10000 1 200 00:31 06.05.2020
4508 Clouds 19 1017 77 10000 1 200 23:58 05.05.2020
4509 Clouds 19 1017 77 10000 1 200 23:39 05.05.2020
4510 Clouds 19 1017 77 10000 1 200 23:19 05.05.2020
4511 Clouds 19 1017 82 10000 1 40 22:42 05.05.2020
4512 Clouds 20 1017 82 10000 1 40 22:20 05.05.2020
4513 Clouds 20 1017 72 10000 0.5 0 21:59 05.05.2020
4514 Clouds 20 1017 72 10000 1 0 21:40 05.05.2020
4515 Clouds 20 1017 72 10000 1 0 21:21 05.05.2020
4516 Clouds 20 1016 72 10000 2.1 40 20:59 05.05.2020
4517 Clouds 20 1016 72 10000 2.1 340 20:39 05.05.2020
4518 Clouds 20 1016 72 10000 2.1 340 20:19 05.05.2020
4519 Clouds 21 1015 40 10000 3.1 60 19:57 05.05.2020
4520 Clouds 20 1015 56 10000 2.6 40 19:37 05.05.2020
4521 Clouds 21 1015 56 10000 2.6 40 19:18 05.05.2020
4522 Clouds 21 1016 56 10000 5.1 60 18:55 05.05.2020
4523 Clouds 21 1016 53 10000 6.2 70 18:37 05.05.2020
4524 Clouds 23 1016 53 10000 6.2 70 18:19 05.05.2020
4525 Clouds 22 1016 46 10000 5.1 50 17:43 05.05.2020
4526 Clouds 23 1016 46 10000 5.1 50 17:25 05.05.2020
4527 Clouds 22 1016 73 10000 4.6 40 16:58 05.05.2020
4528 Clouds 23 1017 68 10000 4.1 40 16:37 05.05.2020
4529 Clouds 23 1017 68 10000 4.1 40 16:18 05.05.2020
4530 Clouds 23 1017 60 10000 4.6 40 15:56 05.05.2020
4531 Clouds 25 1003 49 0 0.68 81 15:38 05.05.2020
4532 Clear 25 1003 48 0 0.88 92 15:19 05.05.2020
4533 Clear 25 1003 50 0 0.88 92 14:43 05.05.2020
4534 Clear 24 1003 49 0 1.04 110 14:25 05.05.2020
4535 Clear 24 1003 51 0 1.03 108 13:59 05.05.2020
4536 -273 0 0 0 0 0 13:59 05.05.2020
4537 Clear 24 1003 56 0 1.03 108 13:41 05.05.2020
4538 Clear 24 1003 53 0 1.12 89 13:21 05.05.2020
4539 Clear 24 1003 50 0 1.12 89 12:59 05.05.2020
4540 Clear 24 1004 50 0 1.12 89 12:59 05.05.2020
4541 Clear 23 1004 49 0 1.12 89 12:40 05.05.2020
4542 Clear 23 1004 50 0 1.06 97 12:20 05.05.2020
4543 Clear 23 1004 50 0 1.06 97 11:59 05.05.2020
4544 Clear 22 1004 55 0 1.13 114 11:40 05.05.2020
4545 Clear 22 1004 52 0 1.13 114 11:19 05.05.2020
4546 Clear 22 1004 51 0 1.13 114 10:54 05.05.2020
4547 Clear 22 1004 53 0 1.13 114 10:36 05.05.2020
4548 Clear 21 1004 54 0 1.17 109 10:18 05.05.2020
4549 Clear 21 1004 56 0 1.17 109 09:44 05.05.2020
4550 Clear 20 1018 68 10000 2.6 60 09:25 05.05.2020
4551 Clear 19 1018 77 10000 1 330 08:56 05.05.2020
4552 Clear 19 1004 56 0 0.38 178 08:37 05.05.2020
4553 Clear 19 1004 56 0 1.13 190 08:18 05.05.2020
4554 Clear 17 1004 65 0 1.13 190 07:43 05.05.2020
4555 Clear 16 1004 66 0 1.24 173 07:19 05.05.2020
4556 Clear 16 1004 67 0 1.24 173 06:51 05.05.2020
4557 Clear 14 1003 65 0 1.35 161 06:30 05.05.2020
4558 Clear 14 1003 63 0 1.35 161 05:51 05.05.2020
4559 Clear 15 1004 64 0 1.4 160 04:54 05.05.2020
4560 Clear 16 1004 67 0 1.71 159 02:37 05.05.2020
4561 Clear 16 1004 68 0 1.78 162 00:56 05.05.2020
4562 Clear 16 1004 68 0 1.78 162 00:31 05.05.2020
4563 Clear 17 1018 88 10000 1 170 23:48 04.05.2020
4564 Clear 17 1018 88 10000 1 170 23:48 04.05.2020
4565 Clear 17 1018 88 10000 1 170 23:26 04.05.2020
4566 Clear 18 1018 88 10000 1.5 230 22:59 04.05.2020
4567 Clear 18 1018 82 10000 2.1 260 22:41 04.05.2020
4568 Clear 17 1018 77 10000 2.6 90 22:21 04.05.2020
4569 Clear 18 1018 82 10000 2.1 260 22:21 04.05.2020
4570 Clear 18 1018 77 10000 2.6 90 21:57 04.05.2020
4571 Clear 18 1018 77 10000 5.1 50 21:37 04.05.2020
4572 Clear 18 1018 77 10000 5.1 50 21:19 04.05.2020
4573 Clear 18 1018 77 10000 5.1 50 21:19 04.05.2020
4574 Clear 18 1017 82 10000 6.7 50 20:41 04.05.2020
4575 Clear 18 1017 82 10000 6.7 50 20:41 04.05.2020
4576 Clear 18 1017 82 10000 6.7 50 20:41 04.05.2020
4577 Clear 18 1017 82 10000 6.7 50 20:41 04.05.2020
4578 Clear 18 1017 82 10000 6.7 50 20:41 04.05.2020
4579 Clear 20 1017 82 10000 6.7 50 20:20 04.05.2020
4580 Clear 20 1017 77 10000 6.7 50 19:56 04.05.2020
4581 Clear 21 1017 77 10000 6.7 40 19:37 04.05.2020
4582 Clear 21 1017 77 10000 6.7 40 19:18 04.05.2020
4583 Clear 21 1018 72 10000 6.7 40 18:39 04.05.2020
4584 Clear 21 1018 72 10000 6.7 40 18:39 04.05.2020
4585 Clear 21 1018 72 10000 6.7 40 18:20 04.05.2020
4586 Clear 21 1018 77 10000 6.7 40 17:56 04.05.2020
4587 Clear 21 1018 77 10000 6.7 40 17:38 04.05.2020
4588 Clear 21 1018 77 10000 6.7 40 17:20 04.05.2020
4589 Clear 22 1018 77 10000 5.7 30 16:56 04.05.2020
4590 Clear 22 1018 77 10000 6.2 30 16:37 04.05.2020
4591 Clear 22 1018 77 10000 6.2 30 16:19 04.05.2020
4592 Clear 22 1018 77 10000 5.7 40 15:40 04.05.2020
4593 Clear 22 1018 77 10000 5.7 40 15:22 04.05.2020
4594 Clear 22 1018 77 10000 5.7 30 14:49 04.05.2020
4595 Clear 22 1018 77 10000 5.1 30 14:22 04.05.2020
4596 Clear 22 1018 77 10000 5.1 30 14:22 04.05.2020
4597 Clear 22 1018 77 10000 5.1 30 14:22 04.05.2020
4598 Clear 22 1018 77 10000 5.1 30 14:22 04.05.2020
4599 Clear 23 1003 63 0 1.34 1 13:21 04.05.2020
4600 Clear 23 1003 63 0 1.34 1 13:21 04.05.2020
4601 Clear 23 1003 63 0 0.45 352 12:44 04.05.2020
4602 Clear 23 1003 63 0 0.89 355 12:44 04.05.2020
4603 Clear 22 1003 63 0 2.26 19 12:44 04.05.2020
4604 Clear 20 1018 82 10000 2.1 10 11:27 04.05.2020
4605 Clear 20 1018 82 10000 2.1 10 11:27 04.05.2020
4606 Clear 20 1018 82 10000 2.1 10 11:27 04.05.2020
4607 Clear 20 1018 82 10000 2.1 10 11:27 04.05.2020
4608 Clear 20 1018 82 10000 2.1 10 11:27 04.05.2020
4609 Clouds 18 1017 82 10000 1.5 10 09:28 04.05.2020
4610 Clouds 18 1017 82 10000 1.5 10 09:28 04.05.2020
4611 Clear 17 1016 87 10000 1.5 200 07:54 04.05.2020
4612 Clear 17 1016 87 10000 1.5 200 07:34 04.05.2020
4613 Clouds 15 1001 87 0 1.01 283 05:52 04.05.2020
4614 Clouds 15 1001 83 0 1.42 273 04:52 04.05.2020
4615 Clear 15 1001 79 0 1.45 258 02:54 04.05.2020
4616 Clear 15 1001 75 0 1.58 272 01:39 04.05.2020
4617 Clear 18 1015 82 10000 1 230 00:18 04.05.2020
4618 Clear 18 1015 82 10000 1 230 23:44 03.05.2020
4619 Clouds 18 1015 82 10000 1 230 23:23 03.05.2020
4620 Clouds 18 1015 82 10000 2.1 200 22:44 03.05.2020
4621 Clear 19 1015 82 10000 2.1 200 22:25 03.05.2020
4622 Clear 19 1014 77 10000 2.6 220 21:56 03.05.2020
4623 Clear 19 1014 77 10000 2.1 240 21:38 03.05.2020
4624 Clear 19 1014 77 10000 2.1 240 21:20 03.05.2020
4625 Clear 19 1014 77 10000 2.1 240 21:20 03.05.2020
4626 Clear 19 1014 82 10000 2.1 200 21:20 03.05.2020
4627 Clear 20 1014 82 10000 3.6 220 20:42 03.05.2020
4628 Clear 20 999 66 0 4.05 273 20:21 03.05.2020
4629 Clear 18 1014 82 10000 4.6 180 19:49 03.05.2020
4630 Clear 19 1014 82 10000 3.1 210 19:31 03.05.2020
4631 Clear 20 1014 77 10000 3.1 230 18:58 03.05.2020
4632 Clear 19 1014 88 10000 3.1 240 18:38 03.05.2020
4633 Clear 19 1014 88 10000 3.1 240 18:38 03.05.2020
4634 Clear 19 1014 88 10000 3.1 240 18:38 03.05.2020
4635 Clear 19 1014 88 10000 3.1 240 18:38 03.05.2020
4636 Clear 19 1014 88 10000 3.1 240 18:38 03.05.2020
4637 Clear 21 1014 88 10000 4.6 250 18:19 03.05.2020
4638 Clear 21 1014 88 10000 3.1 240 18:19 03.05.2020
4639 Clear 21 1014 88 10000 3.1 240 18:19 03.05.2020
4640 Clear 21 1014 88 10000 3.1 240 18:19 03.05.2020
4641 Clear 21 1014 82 10000 5.1 260 17:41 03.05.2020
4642 Clear 21 1014 82 10000 5.1 260 17:21 03.05.2020
4643 Clear 20 1014 82 10000 5.7 260 16:45 03.05.2020
4644 Clouds 19 1014 82 10000 5.7 260 16:21 03.05.2020
4645 Clouds 20 1014 82 10000 5.7 250 15:59 03.05.2020
4646 Clouds 20 1014 82 10000 6.2 260 15:40 03.05.2020
4647 Clouds 20 1014 82 10000 6.2 260 15:20 03.05.2020
4648 Clouds 22 1014 82 10000 7.2 270 14:58 03.05.2020
4649 Clouds 24 999 60 0 1.34 176 14:40 03.05.2020
4650 Clouds 24 999 60 0 1.34 176 14:40 03.05.2020
4651 Clear 24 999 60 0 1.34 18 14:21 03.05.2020
4652 Clear 23 999 63 0 1.34 344 13:55 03.05.2020
4653 Clouds 23 999 63 0 6.68 277 13:22 03.05.2020
4654 Clouds 23 999 63 0 6.68 277 13:22 03.05.2020
4655 Clouds 23 999 61 0 1.79 335 12:45 03.05.2020
4656 Clouds 22 1014 77 10000 5.7 240 12:18 03.05.2020
4657 Clouds 22 1014 72 10000 4.6 230 11:56 03.05.2020
4658 Clouds 22 1014 72 10000 4.1 220 11:37 03.05.2020
4659 Clouds 23 999 59 0 2.68 275 11:19 03.05.2020
4660 Clouds 23 999 59 0 2.68 275 11:19 03.05.2020
4661 Clouds 22 1014 72 10000 4.1 230 10:47 03.05.2020
4662 Clouds 22 1014 72 10000 3.6 230 10:47 03.05.2020
4663 Clouds 22 1014 72 10000 4.1 230 10:47 03.05.2020
4664 Clouds 22 1014 72 10000 4.1 230 10:47 03.05.2020
4665 Clear 22 999 66 0 0.45 5 09:58 03.05.2020
4666 Clear 22 1000 67 0 5.07 270 09:38 03.05.2020
4667 Clouds 20 1014 68 10000 4.1 220 08:56 03.05.2020
4668 Clouds 18 1014 77 10000 5.1 230 08:27 03.05.2020
4669 Clouds 20 999 67 0 0.89 345 07:40 03.05.2020
4670 Clouds 18 999 73 0 0.45 274 06:30 03.05.2020
4671 Clouds 18 999 72 0 1.34 278 06:30 03.05.2020
4672 Clouds 18 999 72 0 1.34 278 06:30 03.05.2020
4673 Clouds 18 999 73 0 0.45 274 06:30 03.05.2020
4674 Clouds 18 999 73 0 0.45 274 06:30 03.05.2020
4675 Clouds 18 999 75 0 0.45 329 05:49 03.05.2020
4676 Clouds 18 999 75 0 1.34 292 05:28 03.05.2020
4677 Clouds 18 999 75 0 1.34 292 05:28 03.05.2020
4678 Clouds 18 999 75 0 1.34 292 05:28 03.05.2020
4679 Clouds 18 999 75 0 1.34 292 05:28 03.05.2020
4680 Clouds 18 1000 73 0 4.63 270 04:27 03.05.2020
4681 Clouds 17 999 77 0 1.34 348 03:29 03.05.2020
4682 Clouds 17 999 74 0 0.89 6 02:30 03.05.2020
4683 Clouds 18 999 70 0 0.45 325 01:46 03.05.2020
4684 Clouds 18 999 69 0 0.89 284 01:27 03.05.2020
4685 Clouds 17 999 68 0 4.63 249 00:56 03.05.2020
4686 Clouds 17 999 67 0 0.89 334 00:38 03.05.2020
4687 Clouds 18 1014 68 10000 4.6 210 00:19 03.05.2020
4688 Clouds 21 1014 68 10000 4.6 210 23:44 02.05.2020
4689 Clouds 18 1014 68 10000 4.6 210 23:25 02.05.2020
4690 Clouds 21 1014 68 10000 4.6 200 22:56 02.05.2020
4691 Clouds 18 1014 68 10000 4.6 220 22:37 02.05.2020
4692 Clouds 16 1014 68 10000 5.1 210 22:18 02.05.2020
4693 Clouds 19 1013 68 10000 5.7 220 21:40 02.05.2020
4694 Clear 18 1013 68 10000 5.7 220 21:19 02.05.2020
4695 Clouds 17 1013 68 10000 5.7 220 20:57 02.05.2020
4696 Clouds 17 1013 68 10000 5.7 230 20:37 02.05.2020
4697 Clouds 17 1013 68 10000 5.7 230 20:19 02.05.2020
4698 Clouds 18 1013 64 10000 5.7 220 19:57 02.05.2020
4699 Clouds 18 1013 72 10000 5.1 220 19:38 02.05.2020
4700 Clouds 18 1013 72 10000 5.1 220 19:19 02.05.2020
4701 Clouds 19 1013 64 10000 5.1 230 18:56 02.05.2020
4702 Clouds 19 1013 60 10000 6.7 220 18:37 02.05.2020
4703 Clouds 20 1013 60 10000 6.7 220 18:19 02.05.2020
4704 Clouds 20 1014 64 10000 5.7 220 17:54 02.05.2020
4705 Clouds 21 1014 60 10000 6.2 230 17:36 02.05.2020
4706 Clouds 20 1014 60 10000 6.2 230 17:18 02.05.2020
4707 Clouds 20 1014 64 10000 4.6 230 16:41 02.05.2020
4708 Clouds 20 1014 64 10000 4.6 230 16:23 02.05.2020
4709 Clouds 22 1014 60 10000 6.7 230 15:44 02.05.2020
4710 Clear 21 1014 60 10000 6.7 230 15:21 02.05.2020
4711 -273 0 0 0 0 0 14:59 02.05.2020
4712 Clear 21 1015 56 10000 6.2 230 14:40 02.05.2020
4713 Clear 21 1015 56 10000 6.2 230 14:22 02.05.2020
4714 Clouds 22 1015 50 10000 6.7 220 13:41 02.05.2020
4715 Clouds 22 1015 50 10000 6.7 220 13:23 02.05.2020
4716 Clouds 22 1015 50 10000 6.7 220 12:56 02.05.2020
4717 Clouds 22 1015 53 10000 6.7 210 12:38 02.05.2020
4718 Clouds 21 1015 53 10000 6.7 210 12:20 02.05.2020
4719 Clouds 23 1015 53 10000 6.7 210 11:55 02.05.2020
4720 Clouds 23 1001 45 0 1.79 218 11:36 02.05.2020
4721 Clouds 23 1000 47 0 1.34 234 11:18 02.05.2020
4722 Clouds 23 1000 45 0 0.89 327 10:39 02.05.2020
4723 Clouds 23 1000 45 0 4.76 254 10:21 02.05.2020
4724 Clouds 23 1000 44 0 0.45 340 09:58 02.05.2020
4725 Clouds 23 1015 56 10000 7.2 210 09:39 02.05.2020
4726 Clouds 18 1015 56 10000 7.2 210 09:21 02.05.2020
4727 Clouds 18 1015 60 10000 6.2 220 08:51 02.05.2020
4728 Clouds 17 1015 60 10000 5.7 210 08:31 02.05.2020
4729 Clouds 16 1015 63 10000 5.7 210 07:49 02.05.2020
4730 Clouds 18 1001 57 0 0.89 305 07:30 02.05.2020
4731 Clouds 18 1000 58 0 5.26 224 06:54 02.05.2020
4732 Clouds 17 1000 56 0 4.19 227 06:23 02.05.2020
4733 Clouds 17 1000 55 0 0.89 344 05:27 02.05.2020
4734 Clouds 17 1000 55 0 4.27 222 04:26 02.05.2020
4735 Clouds 17 1001 56 0 0.89 327 03:36 02.05.2020
4736 Clouds 16 1001 54 0 0.89 7 02:40 02.05.2020
4737 Clouds 16 1002 53 0 4.42 231 01:52 02.05.2020
4738 Clouds 17 1002 52 0 0.89 278 01:18 02.05.2020
4739 Clouds 17 1002 52 0 4.42 221 00:41 02.05.2020
4740 Clouds 19 1016 56 10000 5.7 210 00:19 02.05.2020
4741 Clouds 19 1016 56 10000 5.7 210 23:40 01.05.2020
4742 Clouds 19 1016 56 10000 5.7 210 23:20 01.05.2020
4743 Clouds 19 1016 63 10000 5.7 210 22:58 01.05.2020
4744 Clouds 18 1016 63 10000 4.1 200 22:38 01.05.2020
4745 Clouds 18 1016 63 10000 4.1 200 22:19 01.05.2020
4746 Clouds 18 1016 63 10000 4.1 210 21:57 01.05.2020
4747 Clear 18 1016 63 10000 4.1 200 21:39 01.05.2020
4748 Clear 19 1016 63 10000 4.1 200 21:19 01.05.2020
4749 Clear 19 1016 68 10000 4.6 220 20:57 01.05.2020
4750 Clear 16 1016 77 10000 5.1 250 20:38 01.05.2020
4751 Clear 16 1016 77 10000 5.1 250 20:19 01.05.2020
4752 Clear 17 1016 72 10000 3.1 240 19:54 01.05.2020
4753 Clear 17 1016 77 10000 5.7 260 19:36 01.05.2020
4754 Clear 19 1016 77 10000 5.7 260 19:18 01.05.2020
4755 Clear 19 1016 77 10000 5.1 250 18:54 01.05.2020
4756 Clear 20 1016 68 10000 5.1 240 18:36 01.05.2020
4757 Clear 19 1016 56 10000 4.6 230 18:18 01.05.2020
4758 Clear 19 1016 60 10000 4.1 220 17:40 01.05.2020
4759 Clear 19 1016 60 10000 4.1 220 17:21 01.05.2020
4760 Clear 19 1016 72 10000 4.1 210 16:57 01.05.2020
4761 Clear 19 1016 72 10000 3.6 230 16:38 01.05.2020
4762 Clear 20 1016 72 10000 3.6 230 16:20 01.05.2020
4763 Clear 20 1017 77 10000 3.6 240 15:57 01.05.2020
4764 Clear 20 1017 82 10000 4.1 240 15:38 01.05.2020
4765 Clear 20 1017 82 10000 4.6 240 15:19 01.05.2020
4766 Clear 20 1017 82 10000 5.1 240 14:43 01.05.2020
4767 Clear 20 1017 82 10000 5.1 240 14:24 01.05.2020
4768 Clear 22 1017 82 10000 6.7 260 13:54 01.05.2020
4769 Clear 21 1002 46 0 0.45 344 13:36 01.05.2020
4770 Clouds 21 1003 49 0 1.34 153 13:18 01.05.2020
4771 Clouds 21 1017 77 10000 3.6 250 12:40 01.05.2020
4772 Clouds 18 1017 77 10000 3.6 250 12:21 01.05.2020
4773 Clouds 18 1017 68 10000 3.1 230 11:59 01.05.2020
4774 Clouds 20 1017 77 10000 3.6 240 11:41 01.05.2020
4775 Clouds 18 1017 77 10000 3.6 240 11:21 01.05.2020
4776 Clouds 20 1017 77 10000 5.1 250 10:56 01.05.2020
4777 Clouds 20 1017 72 10000 7.2 220 10:37 01.05.2020
4778 Clouds 19 1017 72 10000 7.2 220 10:19 01.05.2020
4779 Clouds 21 1016 68 10000 8.2 210 09:42 01.05.2020
4780 Clouds 16 1016 68 10000 8.2 210 09:19 01.05.2020
4781 Clouds 18 1016 68 10000 8.2 220 08:47 01.05.2020
4782 Clouds 18 1016 68 10000 7.2 220 08:28 01.05.2020
4783 Clouds 18 1016 59 10000 6.7 220 07:59 01.05.2020
4784 Clear 16 1002 56 0 4.58 230 07:40 01.05.2020
4785 Clear 16 1001 55 0 4.91 224 07:20 01.05.2020
4786 Clear 16 1001 55 0 4.51 223 06:30 01.05.2020
4787 Clear 16 1001 54 0 4.35 220 05:26 01.05.2020
4788 Clear 16 1002 56 0 4.18 218 04:19 01.05.2020
4789 Clouds 16 1002 66 0 0.45 293 02:57 01.05.2020
4790 Clouds 15 1002 68 0 4.04 216 02:38 01.05.2020
4791 Clouds 15 1002 71 0 3.57 220 01:54 01.05.2020
4792 Clouds 15 1002 71 0 3.5 217 01:27 01.05.2020
4793 Clouds 14 1003 70 0 3.5 217 00:41 01.05.2020
4794 Clouds 14 1003 70 0 3.5 217 00:41 01.05.2020
4795 Clouds 15 1003 71 0 3.5 217 00:41 01.05.2020
4796 Clouds 16 1017 67 10000 5.7 220 00:22 01.05.2020
4797 Clouds 16 1017 67 10000 5.7 220 23:57 30.04.2020
4798 Clouds 16 1017 67 10000 5.7 220 23:39 30.04.2020
4799 Clouds 16 1017 67 10000 5.7 220 23:21 30.04.2020
4800 Clouds 16 1017 63 10000 4.6 230 22:59 30.04.2020
4801 Clouds 16 1017 72 10000 4.1 230 22:40 30.04.2020
4802 Clouds 17 1017 68 10000 3.1 230 22:19 30.04.2020
4803 Clouds 17 1017 68 10000 3.1 230 21:55 30.04.2020
4804 Clouds 17 1016 67 10000 3.1 200 21:36 30.04.2020
4805 Clouds 17 1016 67 10000 3.1 200 21:18 30.04.2020
4806 Clouds 17 1016 77 10000 3.1 240 20:41 30.04.2020
4807 Clouds 17 1016 77 10000 3.1 240 20:19 30.04.2020
4808 Clouds 17 1016 77 10000 3.1 240 20:19 30.04.2020
4809 Clouds 17 1016 82 10000 2.1 240 19:47 30.04.2020
4810 Clear 18 1002 57 0 0.45 8 19:27 30.04.2020
4811 Clouds 17 1016 82 10000 4.1 270 18:59 30.04.2020
4812 Clouds 18 1016 82 10000 5.7 280 18:39 30.04.2020
4813 Clouds 18 1016 82 10000 5.7 280 18:21 30.04.2020
4814 Clouds 18 1016 82 10000 6.2 290 17:59 30.04.2020
4815 Clouds 18 1016 82 10000 5.7 280 17:40 30.04.2020
4816 Clouds 18 1016 82 10000 5.7 280 17:21 30.04.2020
4817 Clouds 18 1016 82 10000 6.7 290 16:57 30.04.2020
4818 Clouds 19 1017 82 10000 6.7 280 16:39 30.04.2020
4819 Clouds 19 1017 82 10000 6.7 280 16:19 30.04.2020
4820 Clouds 19 1017 82 10000 7.7 280 15:48 30.04.2020
4821 Clouds 19 1017 82 10000 7.7 290 15:25 30.04.2020
4822 Clouds 18 1017 82 10000 7.2 290 14:58 30.04.2020
4823 Clouds 19 1017 82 10000 6.7 280 14:39 30.04.2020
4824 Clouds 21 1017 82 10000 6.7 280 14:19 30.04.2020
4825 Clouds 20 1016 82 10000 6.7 280 13:56 30.04.2020
4826 Clouds 20 1002 56 0 1.34 16 13:38 30.04.2020
4827 Clouds 20 1016 82 10000 6.7 280 13:19 30.04.2020
4828 Clouds 20 1002 50 0 0.45 266 12:41 30.04.2020
4829 Clear 20 1002 54 0 1.34 343 12:21 30.04.2020
4830 Clear 19 1002 58 0 4.32 288 11:58 30.04.2020
4831 Clear 19 1002 60 0 4.32 288 11:37 30.04.2020
4832 Clear 19 1002 62 0 3.57 274 11:18 30.04.2020
4833 Clear 19 1002 61 0 0.45 12 10:54 30.04.2020
4834 Clouds 20 1016 77 10000 4.1 240 10:36 30.04.2020
4835 Clear 19 1002 63 0 3.39 261 10:18 30.04.2020
4836 Clear 18 1002 66 0 3.39 261 09:41 30.04.2020
4837 Clouds 17 1016 72 10000 4.6 220 09:22 30.04.2020
4838 Clouds 17 1016 72 10000 4.1 210 08:49 30.04.2020
4839 Clouds 14 1016 77 10000 3.6 230 08:27 30.04.2020
4840 Clouds 16 1016 77 10000 3.6 230 07:58 30.04.2020
4841 Clear 14 1002 75 0 3.73 241 07:40 30.04.2020
4842 Clear 14 1002 76 0 3.56 235 07:21 30.04.2020
4843 Clear 16 1002 76 0 3.56 235 06:38 30.04.2020
4844 Clear 13 1001 74 0 3.71 233 05:49 30.04.2020
4845 Clear 13 1001 74 0 0.45 1 05:26 30.04.2020
4846 Clear 14 1001 74 0 3.73 236 04:29 30.04.2020
4847 Clear 15 1002 68 0 3.68 236 02:57 30.04.2020
4848 Clear 15 1001 67 0 3.68 236 02:57 30.04.2020
4849 Clear 15 1002 67 0 3.81 237 02:29 30.04.2020
4850 Clear 15 1002 65 0 3.82 236 01:48 30.04.2020
4851 Clear 15 1002 66 0 3.62 227 01:20 30.04.2020
4852 Clear 15 1016 67 10000 3.6 180 00:37 30.04.2020
4853 Clear 16 1016 67 10000 3.6 180 00:18 30.04.2020
4854 Clear 15 1016 72 10000 3.1 180 23:42 29.04.2020
4855 Clear 16 1016 72 10000 3.1 180 23:24 29.04.2020
4856 Clear 15 1016 72 10000 4.1 200 22:59 29.04.2020
4857 Clear 16 1016 72 10000 3.6 180 22:39 29.04.2020
4858 Clear 16 1016 72 10000 3.6 180 22:20 29.04.2020
4859 Clear 15 1016 77 10000 4.1 210 21:39 29.04.2020
4860 Clear 16 1016 77 10000 4.1 210 21:21 29.04.2020
4861 Clear 16 1015 77 10000 3.1 220 20:59 29.04.2020
4862 Clear 16 1015 77 10000 3.1 220 20:59 29.04.2020
4863 Clear 17 1015 77 10000 4.6 270 20:40 29.04.2020
4864 Clear 17 1001 60 0 3.85 267 20:19 29.04.2020
4865 Clear 17 1015 77 10000 5.1 270 19:57 29.04.2020
4866 Clear 17 1015 77 10000 5.1 280 19:39 29.04.2020
4867 Clear 18 1001 58 0 4.66 274 19:18 29.04.2020
4868 Clear 18 1015 77 10000 5.1 280 18:42 29.04.2020
4869 Clear 18 1015 77 10000 5.1 280 18:42 29.04.2020
4870 Clear 19 1001 47 0 1.34 5 18:22 29.04.2020
4871 Clear 18 1015 68 10000 3.6 240 17:56 29.04.2020
4872 Clear 18 1015 77 10000 5.7 280 17:38 29.04.2020
4873 Clear 18 1015 77 10000 5.7 280 17:20 29.04.2020
4874 Clear 18 1015 77 10000 6.7 280 16:38 29.04.2020
4875 Clear 18 1015 77 10000 6.7 280 16:19 29.04.2020
4876 Clear 18 1015 77 10000 7.2 290 15:57 29.04.2020
4877 Clouds 18 1015 72 10000 6.2 270 15:39 29.04.2020
4878 Clouds 19 1015 72 10000 6.2 270 15:20 29.04.2020
4879 Clear 20 1001 64 0 1.34 1 14:56 29.04.2020
4880 Clouds 19 1001 63 0 5.57 273 14:38 29.04.2020
4881 Clouds 19 1001 62 0 5.57 273 14:18 29.04.2020
4882 Clouds 19 1002 66 0 5.57 273 13:42 29.04.2020
4883 Clouds 19 1002 67 0 5.26 270 13:20 29.04.2020
4884 Clouds 19 1002 71 0 0.89 325 12:57 29.04.2020
4885 Clouds 18 1002 70 0 0.45 23 12:39 29.04.2020
4886 Clouds 19 1002 67 0 0.45 288 12:18 29.04.2020
4887 Clouds 16 1017 77 10000 3.6 240 11:40 29.04.2020
4888 Clouds 16 1017 77 10000 3.6 240 11:21 29.04.2020
4889 Clouds 19 1003 68 0 3.86 242 10:58 29.04.2020
4890 Clouds 18 1003 67 0 0.45 225 10:37 29.04.2020
4891 Clouds 18 1003 68 0 4.91 231 10:19 29.04.2020
4892 Rain 17 1002 70 0 4.91 231 09:42 29.04.2020
4893 Rain 17 1017 72 10000 4.6 200 09:23 29.04.2020
4894 Clouds 16 1016 82 10000 6.2 210 08:56 29.04.2020
4895 Clouds 16 1016 82 10000 6.2 210 08:56 29.04.2020
4896 Clouds 16 1016 82 10000 8.2 220 08:37 29.04.2020
4897 Clouds 16 1016 82 10000 8.2 220 08:19 29.04.2020
4898 Clouds 15 1002 71 0 4.31 236 07:41 29.04.2020
4899 Clouds 15 1001 70 0 0.45 7 07:23 29.04.2020
4900 Clouds 15 1001 70 0 3.8 223 06:50 29.04.2020
4901 Clouds 15 1001 70 0 0.89 301 06:30 29.04.2020
4902 Rain 15 1001 77 0 1.34 28 05:21 29.04.2020
4903 Rain 15 1001 77 0 1.34 336 04:45 29.04.2020
4904 Rain 15 1001 82 0 1.79 329 04:18 29.04.2020
4905 Rain 15 1001 71 0 4.01 224 02:42 29.04.2020
4906 Clouds 17 1001 64 0 0.45 247 01:44 29.04.2020
4907 Clouds 17 1001 56 0 0.89 264 01:23 29.04.2020
4908 Rain 17 1002 58 0 1.34 230 00:41 29.04.2020
4909 Rain 18 1016 68 10000 6.2 210 00:19 29.04.2020
4910 Clouds 18 1016 68 10000 6.2 210 00:19 29.04.2020
4911 Rain 18 1016 68 10000 6.2 210 23:50 28.04.2020
4912 Clouds 18 1016 68 10000 6.2 210 23:24 28.04.2020
4913 Clouds 18 1016 72 10000 4.1 210 22:57 28.04.2020
4914 Clouds 18 1015 72 10000 5.7 220 22:37 28.04.2020
4915 Clouds 18 1015 72 10000 5.7 220 22:18 28.04.2020
4916 Clouds 19 1015 68 10000 5.1 210 21:55 28.04.2020
4917 Clouds 18 1015 64 10000 5.1 210 21:37 28.04.2020
4918 Clouds 18 1015 64 10000 5.1 210 21:19 28.04.2020
4919 Clouds 17 1015 63 10000 3.6 190 20:55 28.04.2020
4920 Clouds 18 1001 86 0 1.85 282 20:36 28.04.2020
4921 Clouds 18 1001 85 0 1.85 282 20:18 28.04.2020
4922 Clouds 18 1001 84 0 1.85 282 19:42 28.04.2020
4923 Rain 18 1001 86 0 1.06 194 19:22 28.04.2020
4924 Clouds 19 1016 88 10000 3.1 220 18:59 28.04.2020
4925 Clouds 19 1016 88 10000 5.1 300 18:40 28.04.2020
4926 Clouds 19 1016 88 10000 5.1 300 18:19 28.04.2020
4927 Rain 18 1002 82 0 0.45 321 18:19 28.04.2020
4928 Rain 19 1002 80 0 0.95 238 17:57 28.04.2020
4929 Rain 19 1002 81 0 0.95 238 17:36 28.04.2020
4930 Rain 19 1002 79 0 1.23 184 17:18 28.04.2020
4931 Rain 19 1002 79 0 1.23 184 17:18 28.04.2020
4932 Rain 19 1002 75 0 1.23 184 16:43 28.04.2020
4933 Clouds 19 1002 73 0 1.73 268 16:23 28.04.2020
4934 Clouds 19 1002 71 0 1.73 268 15:58 28.04.2020
4935 Clouds 19 1002 70 0 1.73 268 15:39 28.04.2020
4936 Clouds 19 1002 70 0 1.73 268 15:39 28.04.2020
4937 Clouds 21 1016 77 10000 2.6 60 15:21 28.04.2020
4938 Rain 20 1002 61 0 0.89 351 14:59 28.04.2020
4939 Rain 22 1015 56 10000 1.5 0 14:41 28.04.2020
4940 Rain 21 1015 56 10000 1.5 0 14:21 28.04.2020
4941 Rain 22 1002 60 0 0.89 9 13:58 28.04.2020
4942 Rain 22 1002 63 0 2.02 287 13:38 28.04.2020
4943 Clouds 21 1002 61 0 1.22 300 13:19 28.04.2020
4944 Clouds 22 1002 60 0 1.22 300 12:46 28.04.2020
4945 Clouds 22 1002 61 0 2.25 279 12:27 28.04.2020
4946 Clouds 21 1002 63 0 2.25 279 11:59 28.04.2020
4947 Clouds 22 1016 53 10000 5.7 220 11:39 28.04.2020
4948 Clouds 21 1003 64 0 1.56 256 11:20 28.04.2020
4949 Clouds 20 1002 68 0 1.56 256 10:39 28.04.2020
4950 Clouds 20 1002 71 0 1.6 244 10:19 28.04.2020
4951 Clouds 20 1002 76 0 1.6 244 09:59 28.04.2020
4952 Clouds 19 1002 80 0 1.6 244 09:40 28.04.2020
4953 Clouds 19 1016 64 10000 3.1 180 09:22 28.04.2020
4954 Clouds 18 1015 64 10000 3.6 180 08:46 28.04.2020
4955 Clouds 18 1015 64 10000 3.6 180 08:46 28.04.2020
4956 Clouds 17 1015 63 10000 3.1 180 08:27 28.04.2020
4957 Clouds 17 1002 99 0 1.46 198 07:58 28.04.2020
4958 Clouds 16 1002 99 0 1.46 198 07:38 28.04.2020
4959 Clouds 16 1002 99 0 1.78 194 07:18 28.04.2020
4960 Clear 14 1002 99 0 1.66 189 06:28 28.04.2020
4961 Clear 14 1002 99 0 1.66 189 05:45 28.04.2020
4962 Clear 14 1001 99 0 1.72 190 05:26 28.04.2020
4963 Clear 13 1002 99 0 1.75 195 04:33 28.04.2020
4964 Clear 14 1002 98 0 1.55 195 02:37 28.04.2020
4965 Clouds 14 1002 97 0 1.55 212 01:25 28.04.2020
4966 Clouds 14 1002 97 0 1.55 212 01:25 28.04.2020
4967 Clouds 14 1002 97 0 1.55 212 00:59 28.04.2020
4968 Clouds 15 1015 82 10000 1 180 00:27 28.04.2020
4969 Clouds 16 1015 82 10000 1 180 23:48 27.04.2020
4970 Clouds 16 1015 82 10000 1 180 23:25 27.04.2020
4971 Clouds 16 1015 82 10000 1 180 22:58 27.04.2020
4972 Clouds 16 1015 82 10000 1 0 22:40 27.04.2020
4973 Clouds 16 1015 82 10000 1 0 22:22 27.04.2020
4974 Clouds 16 1015 88 10000 1.5 180 21:56 27.04.2020
4975 Clouds 17 1015 82 10000 4.1 290 21:38 27.04.2020
4976 Clouds 17 1015 82 10000 4.1 290 21:18 27.04.2020
4977 Clouds 17 1015 82 10000 2.1 190 20:55 27.04.2020
4978 Clouds 17 1014 82 10000 2.1 260 20:37 27.04.2020
4979 Clouds 18 1014 82 10000 2.1 260 20:18 27.04.2020
4980 Clouds 18 1014 82 10000 4.6 260 19:40 27.04.2020
4981 Rain 18 1001 81 0 1.98 292 19:22 27.04.2020
4982 Rain 18 1001 81 0 1.98 292 18:59 27.04.2020
4983 Clouds 20 1014 77 10000 1.5 260 18:40 27.04.2020
4984 Clouds 18 1014 77 10000 1.5 260 18:19 27.04.2020
4985 Clouds 18 1015 77 10000 1.5 270 17:58 27.04.2020
4986 Clouds 18 1014 77 10000 3.6 290 17:39 27.04.2020
4987 Clouds 18 1014 77 10000 4.6 290 17:19 27.04.2020
4988 Rain 18 1014 77 10000 4.1 300 16:40 27.04.2020
4989 Rain 18 1014 77 10000 4.1 300 16:40 27.04.2020
4990 Rain 19 1014 77 10000 4.1 300 16:22 27.04.2020
4991 Rain 19 1015 82 10000 2.6 300 15:57 27.04.2020
4992 Rain 19 1015 82 10000 4.1 310 15:38 27.04.2020
4993 Rain 19 1015 82 10000 4.1 310 15:19 27.04.2020
4994 Rain 19 1015 77 10000 4.6 310 14:58 27.04.2020
4995 Rain 19 1015 82 10000 4.1 300 14:40 27.04.2020
4996 Rain 19 1015 82 10000 4.1 300 14:19 27.04.2020
4997 Rain 19 1015 77 10000 3.1 300 13:56 27.04.2020
4998 Rain 19 1015 77 10000 1.5 280 13:36 27.04.2020
4999 Rain 19 1015 77 10000 1.5 280 13:18 27.04.2020
5000 Rain 20 1015 77 10000 2.6 250 12:42 27.04.2020
5001 Clear 20 1001 70 0 0.89 9 12:21 27.04.2020
5002 Clear 20 1001 71 0 1.79 5 11:42 27.04.2020
5003 Clear 20 1015 82 10000 2.6 240 11:22 27.04.2020
5004 Clear 20 1015 82 10000 3.1 250 10:59 27.04.2020
5005 Clear 19 1014 88 10000 3.1 250 10:40 27.04.2020
5006 Clear 20 1014 88 10000 3.1 250 10:22 27.04.2020
5007 Clear 19 1014 88 10000 3.1 240 09:55 27.04.2020
5008 Clear 18 1014 88 10000 3.1 250 09:36 27.04.2020
5009 Clear 17 1014 88 10000 3.1 250 09:18 27.04.2020
5010 Clear 17 1014 88 10000 2.1 250 08:46 27.04.2020
5011 Clear 15 1014 88 10000 2.1 250 08:27 27.04.2020
5012 Clear 15 1000 99 0 1.44 211 07:45 27.04.2020
5013 Clear 15 1000 99 0 1.44 211 07:23 27.04.2020
5014 Clear 15 1000 99 0 1.44 211 06:58 27.04.2020
5015 Clear 13 1000 99 0 1.14 228 06:30 27.04.2020
5016 Clear 13 1000 99 0 1.14 228 05:55 27.04.2020
5017 Clear 13 1000 99 0 1.14 228 05:18 27.04.2020
5018 Clear 13 1000 99 0 1.14 228 04:39 27.04.2020
5019 Clear 13 1000 99 0 1.14 228 03:45 27.04.2020
5020 Clear 13 999 99 0 1.88 240 02:30 27.04.2020
5021 Clear 14 1000 99 0 1.8 231 01:20 27.04.2020
5022 Clear 13 999 99 0 1.8 231 00:40 27.04.2020
5023 Clear 15 1013 87 10000 0.5 0 00:18 27.04.2020
5024 Clear 14 1013 87 10000 0.5 0 23:55 26.04.2020
5025 Clear 15 1013 87 10000 0.5 0 23:36 26.04.2020
5026 Clear 15 1013 87 10000 0.5 0 23:36 26.04.2020
5027 Clear 15 1012 87 10000 0.5 0 23:18 26.04.2020
5028 Clear 14 1012 87 10000 1.5 210 22:40 26.04.2020
5029 Clear 15 1012 87 10000 1.5 210 22:21 26.04.2020
5030 Clear 15 1012 87 10000 1 180 21:59 26.04.2020
5031 Clear 16 1011 82 10000 1 0 21:40 26.04.2020
5032 Rain 16 1011 82 10000 1 0 21:19 26.04.2020
5033 Rain 15 1011 88 10000 1.5 100 20:59 26.04.2020
5034 Clouds 16 1011 88 10000 2.1 350 20:39 26.04.2020
5035 Clouds 16 1011 88 10000 2.1 350 20:20 26.04.2020
5036 Clouds 16 1011 88 10000 2.1 50 19:58 26.04.2020
5037 Clouds 16 1011 88 10000 1.5 10 19:37 26.04.2020
5038 Rain 17 1011 88 10000 1.5 10 19:19 26.04.2020
5039 Rain 17 1011 82 10000 1.5 40 18:44 26.04.2020
5040 Clouds 17 1011 82 10000 1.5 40 18:25 26.04.2020
5041 Clouds 17 1011 82 10000 1.5 40 18:25 26.04.2020
5042 Clouds 17 1010 82 10000 2.6 50 17:56 26.04.2020
5043 Clouds 17 1010 88 10000 3.6 60 17:38 26.04.2020
5044 Clouds 18 1010 88 10000 3.6 60 17:18 26.04.2020
5045 Rain 17 1010 88 10000 3.6 50 16:40 26.04.2020
5046 Clouds 18 1010 88 10000 3.6 50 16:21 26.04.2020
5047 Rain 17 1010 82 10000 4.1 50 15:58 26.04.2020
5048 Rain 17 1010 72 10000 4.1 50 15:38 26.04.2020
5049 Rain 18 1010 72 10000 4.1 50 15:20 26.04.2020
5050 Clouds 18 1010 77 10000 3.1 40 14:55 26.04.2020
5051 Clouds 19 1010 64 10000 2.1 220 14:36 26.04.2020
5052 Rain 18 1010 64 10000 2.1 220 14:18 26.04.2020
5053 Rain 18 1011 60 10000 4.6 200 13:43 26.04.2020
5054 Clouds 18 1011 60 10000 4.6 200 13:23 26.04.2020
5055 Clouds 19 1011 60 10000 5.1 200 12:58 26.04.2020
5056 Clouds 18 1011 63 10000 4.6 200 12:40 26.04.2020
5057 Clouds 19 1011 63 10000 4.6 200 12:21 26.04.2020
5058 Clouds 18 1011 60 10000 6.2 210 11:59 26.04.2020
5059 Clouds 18 1011 60 10000 6.2 200 11:40 26.04.2020
5060 Clouds 19 1011 60 10000 6.2 200 11:21 26.04.2020
5061 Clouds 18 1010 59 10000 6.2 190 10:56 26.04.2020
5062 Clouds 19 1010 59 10000 5.7 200 10:37 26.04.2020
5063 Clouds 18 1010 59 10000 5.7 200 10:18 26.04.2020
5064 Rain 15 1010 72 10000 4.1 240 09:40 26.04.2020
5065 Rain 15 1010 72 10000 4.1 240 09:21 26.04.2020
5066 Clouds 15 1010 72 10000 4.1 250 08:56 26.04.2020
5067 Clouds 17 1010 67 10000 4.6 210 08:37 26.04.2020
5068 Clouds 17 1010 67 10000 4.6 210 08:18 26.04.2020
5069 Clouds 16 1009 77 10000 6.2 230 07:46 26.04.2020
5070 Rain 14 995 83 0 2.35 185 07:21 26.04.2020
5071 Rain 14 995 83 0 2.35 185 06:43 26.04.2020
5072 Rain 14 996 81 0 2.68 121 05:57 26.04.2020
5073 Rain 15 996 81 0 2.68 121 05:38 26.04.2020
5074 Rain 15 996 80 0 2.68 121 04:58 26.04.2020
5075 Rain 14 996 80 0 2.68 121 04:22 26.04.2020
5076 Clouds 15 997 79 0 1.7 171 02:51 26.04.2020
5077 Clouds 15 997 79 0 1.45 171 02:31 26.04.2020
5078 Clouds 15 997 78 0 1.45 171 01:51 26.04.2020
5079 Clouds 17 997 77 0 1.45 171 01:27 26.04.2020
5080 Clouds 15 997 77 0 1.45 171 00:40 26.04.2020
5081 Clouds 15 1011 72 10000 0.5 0 00:19 26.04.2020
5082 Clouds 15 1011 72 10000 0.5 0 23:39 25.04.2020
5083 Clouds 15 1011 72 10000 0.5 0 23:21 25.04.2020
5084 Clouds 17 1012 63 10000 1 0 22:58 25.04.2020
5085 Clouds 15 1011 72 10000 2.6 210 22:40 25.04.2020
5086 Clouds 15 1011 72 10000 2.6 210 22:19 25.04.2020
5087 Clouds 17 1011 59 10000 2.1 180 21:54 25.04.2020
5088 Clouds 16 1011 67 10000 1.5 200 21:36 25.04.2020
5089 Clouds 16 1011 67 10000 1.5 200 21:18 25.04.2020
5090 Clouds 16 1011 63 10000 3.1 210 20:42 25.04.2020
5091 Clouds 16 1011 63 10000 3.1 210 20:22 25.04.2020
5092 Clouds 16 1011 72 10000 4.6 210 19:55 25.04.2020
5093 Clouds 17 1011 77 10000 2.1 40 19:37 25.04.2020
5094 Clouds 17 1011 77 10000 2.1 40 19:19 25.04.2020
5095 Clouds 17 1011 68 10000 3.6 40 18:41 25.04.2020
5096 Clouds 17 1011 68 10000 3.6 40 18:21 25.04.2020
5097 Clouds 19 1011 49 10000 4.1 60 17:58 25.04.2020
5098 Clouds 18 1011 49 10000 4.6 60 17:38 25.04.2020
5099 Clouds 18 1011 49 10000 4.6 60 17:19 25.04.2020
5100 Clouds 18 1011 43 10000 4.6 60 16:57 25.04.2020
5101 Clouds 19 1011 43 10000 4.6 70 16:38 25.04.2020
5102 Clouds 19 1011 43 10000 4.6 70 16:19 25.04.2020
5103 Clouds 19 1012 46 10000 5.1 60 15:42 25.04.2020
5104 Clouds 19 1012 46 10000 5.1 60 15:21 25.04.2020
5105 Clouds 21 1012 46 10000 4.6 40 14:58 25.04.2020
5106 Clouds 21 1012 46 10000 4.6 40 14:58 25.04.2020
5107 Clouds 20 1012 40 10000 4.6 40 14:39 25.04.2020
5108 Clouds 19 1012 40 10000 4.6 40 14:20 25.04.2020
5109 Clouds 20 1013 49 10000 4.1 40 13:55 25.04.2020
5110 Clouds 20 1013 52 10000 5.1 40 13:37 25.04.2020
5111 Clouds 20 1013 52 10000 5.1 40 13:18 25.04.2020
5112 Clouds 19 1014 59 10000 4.1 40 12:42 25.04.2020
5113 Clouds 19 1014 59 10000 4.1 40 12:21 25.04.2020
5114 Clouds 19 1014 72 10000 2.6 350 11:59 25.04.2020
5115 Clouds 19 1014 67 10000 3.1 20 11:41 25.04.2020
5116 Clouds 18 1014 67 10000 3.1 20 11:23 25.04.2020
5117 Clouds 19 1014 59 10000 3.1 20 10:54 25.04.2020
5118 Clouds 18 1014 59 10000 2.1 20 10:36 25.04.2020
5119 Clouds 18 1014 59 10000 2.1 20 10:18 25.04.2020
5120 Clouds 17 1014 67 10000 1 0 09:41 25.04.2020
5121 Clear 16 1014 67 10000 1 0 09:21 25.04.2020
5122 Clear 14 1014 71 10000 1.5 210 08:41 25.04.2020
5123 Clear 13 1014 71 10000 1.5 210 08:22 25.04.2020
5124 Clear 13 1014 81 10000 2.1 200 07:59 25.04.2020
5125 Clear 12 1001 77 0 1.74 153 07:41 25.04.2020
5126 Clear 12 1001 77 0 1.74 153 06:57 25.04.2020
5127 Clear 13 1001 77 0 1.74 153 06:38 25.04.2020
5128 Clear 12 1000 76 0 1.18 171 05:42 25.04.2020
5129 Clear 11 1001 76 0 1.04 151 05:24 25.04.2020
5130 Clear 11 1001 76 0 1.04 151 03:56 25.04.2020
5131 Clear 12 1002 77 0 1.13 171 02:36 25.04.2020
5132 Clear 12 1002 80 0 1.13 171 01:56 25.04.2020
5133 Clear 12 1002 80 0 1.13 171 01:38 25.04.2020
5134 Clear 12 1002 80 0 1.13 171 01:19 25.04.2020
5135 Clear 12 1002 79 0 1.13 171 00:39 25.04.2020
5136 Clear 13 1015 77 10000 4.6 60 00:18 25.04.2020
5137 Clear 13 1015 77 10000 4.6 60 23:41 24.04.2020
5138 Clear 14 1015 77 10000 4.6 60 23:20 24.04.2020
5139 Clear 13 1015 72 10000 3.6 60 22:41 24.04.2020
5140 Clear 14 1015 72 10000 3.6 60 22:21 24.04.2020
5141 Clear 14 1015 72 10000 4.1 50 21:59 24.04.2020
5142 Clear 14 1015 72 10000 4.1 50 21:59 24.04.2020
5143 Clear 14 1015 77 10000 4.1 60 21:41 24.04.2020
5144 Clear 15 1015 77 10000 4.1 60 21:23 24.04.2020
5145 Clear 14 1015 77 10000 3.6 50 20:59 24.04.2020
5146 Clear 15 1015 72 10000 4.1 60 20:40 24.04.2020
5147 Clear 15 1015 72 10000 4.1 50 20:19 24.04.2020
5148 Clear 16 1015 72 10000 4.1 50 19:54 24.04.2020
5149 Clear 16 1015 72 10000 4.1 40 19:36 24.04.2020
5150 Clear 18 1015 68 10000 4.1 30 19:18 24.04.2020
5151 Clear 17 1015 68 10000 4.1 30 18:40 24.04.2020
5152 Rain 17 1015 68 10000 4.1 30 18:22 24.04.2020
5153 Rain 17 1015 72 10000 3.6 30 17:43 24.04.2020
5154 Rain 17 1015 72 10000 3.6 30 17:24 24.04.2020
5155 Clouds 17 1015 72 10000 4.1 20 16:59 24.04.2020
5156 Clouds 18 1015 72 10000 4.1 30 16:41 24.04.2020
5157 Clouds 18 1015 72 10000 4.1 30 16:22 24.04.2020
5158 Clouds 18 1016 72 10000 4.1 30 15:59 24.04.2020
5159 Clouds 18 1016 72 10000 4.6 20 15:38 24.04.2020
5160 Clouds 18 1016 72 10000 4.6 20 15:19 24.04.2020
5161 Clouds 18 1016 77 10000 4.1 10 14:40 24.04.2020
5162 Clouds 18 1016 77 10000 4.1 10 14:40 24.04.2020
5163 Clouds 17 1016 77 10000 4.1 10 14:22 24.04.2020
5164 Clouds 18 1016 77 10000 4.6 20 13:57 24.04.2020
5165 Clouds 18 1016 77 10000 4.6 20 13:57 24.04.2020
5166 Clouds 18 1016 77 10000 3.6 10 13:39 24.04.2020
5167 Clouds 18 1016 77 10000 3.6 10 13:20 24.04.2020
5168 Clouds 17 1016 77 10000 2.6 350 12:42 24.04.2020
5169 Clouds 17 1016 77 10000 2.6 350 12:24 24.04.2020
5170 Clouds 15 1016 82 10000 1.5 320 11:58 24.04.2020
5171 Clouds 16 1017 82 10000 1.5 310 11:39 24.04.2020
5172 Clouds 17 1017 82 10000 1.5 310 11:20 24.04.2020
5173 Clouds 16 1016 87 10000 2.1 280 10:55 24.04.2020
5174 Clouds 16 1016 82 10000 2.6 270 10:37 24.04.2020
5175 Clouds 16 1016 82 10000 2.6 270 10:19 24.04.2020
5176 Clouds 16 1016 82 10000 2.1 250 09:45 24.04.2020
5177 Clouds 13 1016 82 10000 2.1 250 09:24 24.04.2020
5178 Clouds 16 1016 82 10000 1.5 230 08:58 24.04.2020
5179 Clouds 15 1016 77 10000 1.5 160 08:39 24.04.2020
5180 Clouds 15 1016 87 10000 1.5 180 08:18 24.04.2020
5181 Clear 13 1002 91 0 0.75 243 07:46 24.04.2020
5182 Clear 12 1002 92 0 0.75 243 07:26 24.04.2020
5183 Clear 12 1002 90 0 0.75 243 06:57 24.04.2020
5184 Clear 14 1002 88 0 0.75 243 06:37 24.04.2020
5185 Clear 12 1002 88 0 0.4 281 05:48 24.04.2020
5186 Clear 13 1002 89 0 0.4 281 04:33 24.04.2020
5187 Clear 12 1002 91 0 0.53 259 03:24 24.04.2020
5188 Clear 12 1002 91 0 0.53 259 02:41 24.04.2020
5189 Clear 12 1002 92 0 0.58 242 02:20 24.04.2020
5190 Clear 12 1002 92 0 0.58 242 01:37 24.04.2020
5191 Clear 12 1003 91 0 0.58 242 00:43 24.04.2020
5192 Clouds 12 1003 91 0 0.33 204 00:18 24.04.2020
5193 Clouds 12 1003 90 0 0.33 204 23:44 23.04.2020
5194 Clouds 13 1003 90 0 0.33 204 23:26 23.04.2020
5195 Clouds 12 1003 89 0 0.33 204 22:55 23.04.2020
5196 Clouds 12 1003 89 0 0.33 204 22:37 23.04.2020
5197 Clouds 12 1003 88 0 0.33 204 22:19 23.04.2020
5198 Clouds 13 1003 88 0 0.33 204 21:56 23.04.2020
5199 Clouds 13 1003 88 0 0.33 204 21:38 23.04.2020
5200 Clouds 13 1003 87 0 1.09 33 21:20 23.04.2020
5201 Clouds 13 1002 87 0 0.89 358 20:54 23.04.2020
5202 Clouds 13 1002 87 0 0.89 358 20:54 23.04.2020
5203 Clouds 14 1002 86 0 1.09 33 20:36 23.04.2020
5204 Clouds 13 1002 86 0 1.09 33 20:36 23.04.2020
5205 Clouds 15 1015 77 10000 4.1 30 20:18 23.04.2020
5206 Clouds 15 1015 77 10000 4.1 30 19:42 23.04.2020
5207 Clouds 16 1015 77 10000 4.1 30 19:23 23.04.2020
5208 -273 0 0 0 0 0 19:00 23.04.2020
5209 Clouds 16 1015 77 10000 4.1 40 19:00 23.04.2020
5210 Clouds 16 1015 77 10000 4.1 40 18:40 23.04.2020
5211 Clouds 16 1014 77 10000 4.6 20 18:21 23.04.2020
5212 Clouds 17 1014 77 10000 4.6 20 17:57 23.04.2020
5213 Clouds 16 1014 77 10000 4.6 30 17:39 23.04.2020
5214 Clouds 16 1014 77 10000 4.6 30 17:20 23.04.2020
5215 Clouds 16 1014 77 10000 4.1 30 16:44 23.04.2020
5216 Clouds 16 1014 77 10000 4.1 30 16:44 23.04.2020
5217 Clouds 17 1014 77 10000 4.1 30 16:21 23.04.2020
5218 Clouds 16 1014 77 10000 4.1 30 15:59 23.04.2020
5219 Clouds 16 1014 77 10000 4.6 40 15:40 23.04.2020
5220 Clouds 16 1014 77 10000 4.6 40 15:22 23.04.2020
5221 Clouds 16 1014 77 10000 4.6 20 14:54 23.04.2020
5222 Clouds 16 1014 77 10000 3.6 30 14:36 23.04.2020
5223 Clouds 16 1014 77 10000 3.6 30 14:18 23.04.2020
5224 Clouds 18 1015 72 10000 3.6 20 13:40 23.04.2020
5225 Clouds 17 1015 72 10000 3.6 20 13:22 23.04.2020
5226 Clouds 17 1015 77 10000 3.1 30 12:57 23.04.2020
5227 Clouds 18 1015 77 10000 3.6 20 12:38 23.04.2020
5228 Clouds 16 1015 77 10000 3.6 20 12:20 23.04.2020
5229 Clouds 17 1014 77 10000 3.1 20 11:47 23.04.2020
5230 Clouds 16 1014 82 10000 3.1 10 11:27 23.04.2020
5231 Clouds 15 1014 77 10000 2.1 360 10:58 23.04.2020
5232 Clouds 16 1014 82 10000 2.1 10 10:39 23.04.2020
5233 Clouds 17 1014 82 10000 2.1 10 10:20 23.04.2020
5234 Rain 15 1000 82 0 2.73 20 09:40 23.04.2020
5235 Rain 14 1000 83 0 0.45 347 09:18 23.04.2020
5236 Rain 13 1000 88 0 1.03 318 08:50 23.04.2020
5237 Rain 13 1000 92 0 1.03 318 08:30 23.04.2020
5238 Rain 12 1000 93 0 1.03 318 07:57 23.04.2020
5239 Rain 13 1000 93 0 1.03 318 07:39 23.04.2020
5240 Rain 13 1000 93 0 1.03 318 07:39 23.04.2020
5241 Rain 12 999 93 0 1.03 318 07:19 23.04.2020
5242 Rain 12 999 92 0 1.03 318 06:44 23.04.2020
5243 Clouds 10 999 93 0 0.77 203 05:50 23.04.2020
5244 Clouds 10 999 93 0 0.77 203 05:21 23.04.2020
5245 Rain 12 998 90 0 1.33 161 03:32 23.04.2020
5246 Clouds 11 998 89 0 1.52 144 02:23 23.04.2020
5247 Clouds 11 998 87 0 1.52 144 01:38 23.04.2020
5248 Clouds 11 999 86 0 1.52 144 00:55 23.04.2020
5249 Clouds 11 999 86 0 1.76 108 00:28 23.04.2020
5250 Clouds 12 999 87 0 1.76 108 23:58 22.04.2020
5251 Clouds 12 999 86 0 1.76 108 23:40 22.04.2020
5252 Clouds 13 998 83 0 0.45 272 23:19 22.04.2020
5253 Clouds 13 998 86 0 1.76 108 22:40 22.04.2020
5254 Clouds 12 998 87 0 1.76 108 22:20 22.04.2020
5255 Clouds 12 998 85 0 1.76 108 21:59 22.04.2020
5256 Rain 12 998 85 0 2.27 118 21:40 22.04.2020
5257 Rain 12 998 85 0 2.29 59 21:22 22.04.2020
5258 Rain 13 998 85 0 2.29 59 20:59 22.04.2020
5259 Rain 12 998 86 0 2.29 59 20:41 22.04.2020
5260 Rain 14 1010 67 10000 4.6 170 20:19 22.04.2020
5261 Rain 14 1010 67 10000 4.6 170 19:57 22.04.2020
5262 Rain 14 1010 67 10000 4.6 170 19:37 22.04.2020
5263 Rain 14 1010 67 10000 4.6 170 19:18 22.04.2020
5264 Rain 14 1010 72 10000 6.7 180 18:56 22.04.2020
5265 Rain 15 1010 63 10000 8.7 190 18:38 22.04.2020
5266 Rain 15 1010 63 10000 8.7 190 18:20 22.04.2020
5267 Rain 15 1011 77 10000 8.2 190 17:43 22.04.2020
5268 Rain 16 1011 77 10000 8.2 190 17:25 22.04.2020
5269 Rain 15 1011 77 10000 6.2 180 16:58 22.04.2020
5270 Drizzle 17 1012 77 10000 5.7 200 16:39 22.04.2020
5271 Drizzle 17 1012 77 10000 5.7 200 16:20 22.04.2020
5272 Clouds 18 1011 68 10000 8.2 240 15:41 22.04.2020
5273 Clouds 18 1011 68 10000 8.2 240 15:22 22.04.2020
5274 Clouds 18 1011 56 10000 5.7 220 14:58 22.04.2020
5275 Clouds 19 1011 56 10000 5.1 220 14:38 22.04.2020
5276 Clouds 19 1011 56 10000 5.1 220 14:19 22.04.2020
5277 Clouds 19 1011 63 10000 5.1 230 13:45 22.04.2020
5278 Clouds 18 1012 77 10000 6.2 250 13:21 22.04.2020
5279 Clouds 17 1012 77 10000 6.2 250 12:57 22.04.2020
5280 Clouds 17 1012 77 10000 7.2 240 12:39 22.04.2020
5281 Clouds 20 1012 77 10000 7.2 240 12:21 22.04.2020
5282 Clouds 19 1012 68 10000 6.7 220 11:40 22.04.2020
5283 Clouds 20 1012 68 10000 6.7 220 11:20 22.04.2020
5284 Clouds 20 1011 63 10000 7.2 210 10:59 22.04.2020
5285 Clouds 20 1011 59 10000 6.2 210 10:39 22.04.2020
5286 Clouds 19 1011 59 10000 6.2 210 10:19 22.04.2020
5287 Clear 17 998 63 0 0.79 256 09:39 22.04.2020
5288 Clear 16 997 63 0 3.19 221 09:20 22.04.2020
5289 Clear 16 997 65 0 3.19 221 08:56 22.04.2020
5290 Clear 16 997 65 0 3.19 221 08:56 22.04.2020
5291 Clear 15 997 68 0 3.19 221 08:38 22.04.2020
5292 Clear 14 997 68 0 3.19 221 08:19 22.04.2020
5293 Clear 14 996 68 0 3.19 221 07:52 22.04.2020
5294 Clear 14 996 69 0 3.19 221 07:24 22.04.2020
5295 Clear 14 996 70 0 3.19 221 06:53 22.04.2020
5296 Clear 13 996 70 0 4.68 213 06:18 22.04.2020
5297 Clear 13 996 71 0 4.68 213 05:35 22.04.2020
5298 Clear 13 996 68 0 4.68 213 04:20 22.04.2020
5299 Clouds 15 996 66 0 0.89 336 02:43 22.04.2020
5300 Clouds 14 996 78 0 4.81 214 01:50 22.04.2020
5301 Clouds 14 996 76 0 4.81 214 01:25 22.04.2020
5302 Clouds 15 996 72 0 0.45 282 00:47 22.04.2020
5303 Rain 15 996 74 0 0.45 356 00:22 22.04.2020
5304 Rain 15 996 80 0 1.34 334 23:59 21.04.2020
5305 Rain 15 996 85 0 0.45 335 23:40 21.04.2020
5306 Rain 15 995 85 0 1.79 316 23:18 21.04.2020
5307 Rain 15 995 89 0 4.1 217 22:40 21.04.2020
5308 Rain 14 995 91 0 0.89 296 22:21 21.04.2020
5309 Rain 15 995 95 0 0.45 300 21:59 21.04.2020
5310 Rain 14 995 95 0 4.1 217 21:40 21.04.2020
5311 Rain 15 994 99 0 3.57 223 21:22 21.04.2020
5312 Rain 15 994 96 0 3.57 223 20:55 21.04.2020
5313 Rain 15 993 93 0 3.57 223 20:37 21.04.2020
5314 Rain 16 1006 88 7000 7.7 220 20:19 21.04.2020
5315 Rain 16 1006 88 7000 7.7 220 19:40 21.04.2020
5316 Rain 16 1006 88 7000 7.7 220 19:40 21.04.2020
5317 Rain 16 1006 88 7000 7.7 220 19:19 21.04.2020
5318 Rain 16 1006 88 10000 6.2 210 18:57 21.04.2020
5319 Rain 16 1006 88 10000 5.7 210 18:38 21.04.2020
5320 Rain 16 1006 88 10000 5.7 210 18:19 21.04.2020
5321 Clouds 16 1006 88 7000 7.7 210 17:55 21.04.2020
5322 Rain 16 1005 88 5000 6.7 210 17:37 21.04.2020
5323 Rain 17 1005 88 5000 6.7 210 17:18 21.04.2020
5324 Rain 16 1005 93 7000 6.2 200 16:39 21.04.2020
5325 Rain 16 1005 93 7000 6.2 200 16:19 21.04.2020
5326 Rain 14 1005 88 10000 6.7 190 15:57 21.04.2020
5327 Rain 14 1005 88 10000 6.2 200 15:39 21.04.2020
5328 Rain 15 1005 88 10000 6.2 200 15:21 21.04.2020
5329 Rain 18 1005 88 10000 8.2 220 14:57 21.04.2020
5330 Rain 18 1005 88 10000 8.2 220 14:57 21.04.2020
5331 Clouds 19 1005 77 10000 8.2 220 14:39 21.04.2020
5332 Clouds 19 1005 77 10000 8.2 220 14:20 21.04.2020
5333 Clouds 19 1005 77 10000 7.7 200 13:41 21.04.2020
5334 Clouds 20 1005 77 10000 7.7 200 13:22 21.04.2020
5335 Clouds 19 1005 77 10000 7.7 210 12:55 21.04.2020
5336 Clouds 19 1004 82 10000 7.2 200 12:37 21.04.2020
5337 Clouds 17 1004 77 10000 8.7 200 12:18 21.04.2020
5338 Clouds 17 1004 77 10000 8.7 200 11:55 21.04.2020
5339 Clouds 17 1004 77 10000 8.7 200 11:36 21.04.2020
5340 Clouds 17 1004 77 10000 8.7 200 11:18 21.04.2020
5341 Rain 17 1003 77 10000 8.2 200 10:55 21.04.2020
5342 Rain 17 1003 82 9000 7.2 200 10:37 21.04.2020
5343 Rain 17 1003 82 9000 7.2 200 10:19 21.04.2020
5344 Rain 16 989 78 0 4.23 177 09:37 21.04.2020
5345 Rain 16 989 77 0 4.59 175 09:19 21.04.2020
5346 Rain 16 989 77 0 4.59 175 08:56 21.04.2020
5347 Rain 16 989 77 0 4.59 175 08:38 21.04.2020
5348 Rain 16 989 78 0 4.59 175 08:18 21.04.2020
5349 Rain 16 988 79 0 4.59 175 07:43 21.04.2020
5350 Rain 15 988 78 0 4.59 175 07:21 21.04.2020
5351 Rain 16 988 77 0 4.59 175 06:44 21.04.2020
5352 Rain 15 988 77 0 4.44 164 06:19 21.04.2020
5353 Rain 15 988 80 0 4.44 164 05:48 21.04.2020
5354 Rain 15 988 75 0 4.44 164 03:48 21.04.2020
5355 Clouds 15 988 74 0 5.14 162 03:27 21.04.2020
5356 Clouds 15 989 71 0 5.77 159 01:46 21.04.2020
5357 Rain 15 989 74 0 0.45 2 00:53 21.04.2020
5358 Clouds 16 989 71 0 6 164 00:32 21.04.2020
5359 Clouds 17 989 68 0 0.45 346 23:44 20.04.2020
5360 Clouds 17 989 64 0 6 164 23:25 20.04.2020
5361 Clouds 18 989 61 0 6 164 22:57 20.04.2020
5362 Clouds 18 989 61 0 6 164 22:38 20.04.2020
5363 Clouds 18 989 59 0 1.34 354 22:19 20.04.2020
5364 Clouds 19 989 56 0 6 164 21:57 20.04.2020
5365 Clouds 19 988 56 0 0.45 1 21:38 20.04.2020
5366 Clouds 18 988 55 0 5.24 148 21:19 20.04.2020
5367 Clouds 19 988 55 0 5.24 148 20:57 20.04.2020
5368 Clouds 19 988 55 0 5.24 148 20:38 20.04.2020
5369 Clouds 20 1001 43 10000 6.7 180 20:18 20.04.2020
5370 Clouds 20 1001 43 10000 6.7 180 19:57 20.04.2020
5371 Clouds 20 1001 43 10000 6.7 180 19:38 20.04.2020
5372 Clouds 20 1001 43 10000 6.7 180 19:19 20.04.2020
5373 Clouds 20 1001 46 10000 7.7 170 18:42 20.04.2020
5374 Clouds 20 1001 46 10000 7.7 170 18:22 20.04.2020
5375 Clouds 21 1001 44 10000 8.7 180 17:55 20.04.2020
5376 Clouds 21 1000 47 10000 7.7 180 17:37 20.04.2020
5377 Clouds 21 1000 47 10000 7.7 180 17:19 20.04.2020
5378 Clouds 24 1001 44 10000 5.1 170 16:58 20.04.2020
5379 Clouds 19 1001 41 10000 8.7 190 16:39 20.04.2020
5380 Clouds 21 1001 41 10000 8.7 190 16:18 20.04.2020
5381 Clouds 20 1001 38 10000 4.6 130 15:43 20.04.2020
5382 Clouds 21 1001 38 10000 4.6 130 15:23 20.04.2020
5383 Clouds 21 1002 41 10000 9.8 150 14:56 20.04.2020
5384 Rain 21 989 47 0 8.52 167 14:38 20.04.2020
5385 Clouds 22 1003 46 10000 5.7 160 14:18 20.04.2020
5386 Clouds 23 1003 31 10000 8.2 180 13:41 20.04.2020
5387 Rain 20 1008 44 0 4.92 135 13:23 20.04.2020
5388 Rain 21 1008 37 0 5.81 112 12:58 20.04.2020
5389 Rain 21 1007 38 0 3.58 270 12:39 20.04.2020
5390 Clouds 21 990 49 0 5.46 165 12:18 20.04.2020
5391 Clouds 21 991 50 0 5.46 165 11:40 20.04.2020
5392 Clouds 21 991 49 0 5.46 165 11:22 20.04.2020
5393 Clouds 19 990 50 0 5.46 165 10:57 20.04.2020
5394 Clouds 19 990 49 0 5.46 165 10:38 20.04.2020
5395 Clouds 21 990 50 0 5.46 165 10:19 20.04.2020
5396 Clouds 21 991 53 0 5.46 165 09:56 20.04.2020
5397 Clouds 20 991 56 0 4.24 134 09:37 20.04.2020
5398 Clouds 21 991 62 0 3.24 127 09:19 20.04.2020
5399 Clouds 20 991 65 0 3.24 127 08:41 20.04.2020
5400 Clouds 19 991 68 0 0.45 214 08:22 20.04.2020
5401 Clouds 19 991 69 0 3.24 127 07:52 20.04.2020
5402 Clouds 18 991 69 0 3.24 127 07:29 20.04.2020
5403 Clouds 18 991 70 0 0.89 242 06:58 20.04.2020
5404 Clouds 18 990 69 0 2.12 123 06:36 20.04.2020
5405 Clouds 18 991 71 0 2.12 123 05:43 20.04.2020
5406 Clouds 19 993 81 0 0.45 253 04:21 20.04.2020
5407 Clouds 19 994 75 0 2.8 114 02:46 20.04.2020
5408 Clouds 19 994 69 0 3.35 122 01:54 20.04.2020
5409 Clouds 19 995 70 0 3.35 122 01:28 20.04.2020
5410 Clouds 19 996 85 0 3.35 122 00:37 20.04.2020
5411 Clouds 19 997 86 0 2.52 132 23:59 19.04.2020
5412 Clouds 19 997 87 0 2.52 132 23:39 19.04.2020
5413 Clouds 19 997 87 0 2.52 132 23:20 19.04.2020
5414 Clouds 19 998 88 0 2.52 132 22:43 19.04.2020
5415 Clouds 18 998 89 0 2.52 132 22:23 19.04.2020
5416 Clouds 18 998 88 0 2.52 132 21:59 19.04.2020
5417 Clouds 18 998 88 0 2.52 132 21:40 19.04.2020
5418 Rain 18 998 87 0 1.49 110 21:21 19.04.2020
5419 Rain 18 998 87 0 1.49 110 20:55 19.04.2020
5420 Rain 19 998 80 0 1.49 110 20:37 19.04.2020
5421 Rain 19 1010 72 10000 5.1 80 20:19 19.04.2020
5422 Rain 19 1010 72 10000 5.1 80 19:41 19.04.2020
5423 Rain 20 1010 72 10000 5.1 80 19:23 19.04.2020
5424 Rain 21 1011 72 10000 6.2 70 18:58 19.04.2020
5425 Rain 21 1011 72 10000 6.2 70 18:40 19.04.2020
5426 Rain 22 1011 68 10000 5.1 60 18:21 19.04.2020
5427 Rain 22 1011 68 10000 5.1 60 17:59 19.04.2020
5428 Rain 21 1011 73 10000 5.1 60 17:41 19.04.2020
5429 Rain 21 1011 73 10000 5.1 60 17:22 19.04.2020
5430 Rain 21 1011 73 10000 4.6 60 16:59 19.04.2020
5431 Rain 23 998 61 0 1.89 57 16:39 19.04.2020
5432 Rain 22 1012 61 0 2.68 111 16:21 19.04.2020
5433 Rain 22 1012 61 0 4.47 109 15:54 19.04.2020
5434 Rain 22 1013 64 0 3.13 99 15:36 19.04.2020
5435 Clouds 23 999 63 0 1.21 85 15:18 19.04.2020
5436 Clouds 25 999 64 0 1.12 92 14:38 19.04.2020
5437 Clouds 23 999 67 0 1.12 92 14:20 19.04.2020
5438 Clouds 23 1000 67 0 1.12 92 13:56 19.04.2020
5439 Clouds 23 1000 68 0 1.12 92 13:36 19.04.2020
5440 Clouds 22 1000 68 0 1.12 92 13:18 19.04.2020
5441 Clouds 23 1000 69 0 1.12 92 12:43 19.04.2020
5442 Clouds 23 1000 69 0 1.23 74 12:24 19.04.2020
5443 Clouds 22 1001 73 0 1.23 74 11:39 19.04.2020
5444 Clouds 21 1001 74 0 1.23 74 11:20 19.04.2020
5445 Clouds 21 1001 75 0 1.23 74 10:59 19.04.2020
5446 Clouds 20 1002 77 0 1.23 74 10:41 19.04.2020
5447 Clouds 20 1002 78 0 1.23 74 10:41 19.04.2020
5448 Clouds 20 1002 80 0 1.23 74 10:20 19.04.2020
5449 Clouds 19 1002 84 0 1.23 74 09:55 19.04.2020
5450 Clouds 19 1002 86 0 1.23 74 09:36 19.04.2020
5451 Clouds 19 1002 89 0 1.4 132 09:18 19.04.2020
5452 Clouds 17 1002 95 0 1.95 121 08:39 19.04.2020
5453 Clouds 17 1002 97 0 1.4 132 08:20 19.04.2020
5454 Clouds 16 1002 99 0 1.95 121 07:45 19.04.2020
5455 Clouds 16 1002 99 0 1.4 132 07:25 19.04.2020
5456 Clouds 15 1002 99 0 1.95 121 06:55 19.04.2020
5457 Clouds 15 1002 98 0 1.12 149 06:19 19.04.2020
5458 Clouds 15 1001 97 0 1.09 122 04:57 19.04.2020
5459 Clouds 15 1001 95 0 1.12 149 03:34 19.04.2020
5460 Clouds 16 1002 93 0 1.98 167 02:22 19.04.2020
5461 Clouds 16 1002 92 0 1.98 167 01:58 19.04.2020
5462 Clouds 16 1003 91 0 1.98 167 01:22 19.04.2020
5463 Clouds 17 1003 90 0 1.98 167 00:41 19.04.2020
5464 Clouds 17 1003 88 0 1.33 126 00:19 19.04.2020
5465 Clouds 17 1004 88 0 1.33 126 23:42 18.04.2020
5466 Clouds 17 1004 87 0 1.33 126 23:19 18.04.2020
5467 Clouds 17 1004 87 0 1.33 126 22:43 18.04.2020
5468 Clouds 17 1004 86 0 1.33 126 22:24 18.04.2020
5469 Clouds 17 1005 86 0 1.33 126 21:59 18.04.2020
5470 Clouds 17 1004 85 0 1.33 126 21:41 18.04.2020
5471 Clouds 18 1004 84 0 1.31 119 21:22 18.04.2020
5472 Clouds 18 1004 83 0 1.31 119 20:58 18.04.2020
5473 Clouds 18 1004 83 0 1.31 119 20:40 18.04.2020
5474 Clouds 18 1016 82 10000 2.6 300 20:20 18.04.2020
5475 Clouds 18 1016 82 10000 2.6 300 19:42 18.04.2020
5476 Clouds 18 1016 82 10000 2.6 300 19:24 18.04.2020
5477 Clouds 19 1016 68 10000 3.1 60 18:40 18.04.2020
5478 Clouds 20 1016 68 10000 3.1 60 18:20 18.04.2020
5479 Clouds 19 1016 72 10000 4.6 40 17:58 18.04.2020
5480 Clouds 19 1016 67 0 3.58 112 17:40 18.04.2020
5481 Clouds 20 1016 72 10000 6.2 50 17:20 18.04.2020
5482 Clouds 20 1017 64 0 3.58 93 16:43 18.04.2020
5483 Clouds 20 1017 62 0 4.92 137 16:22 18.04.2020
5484 Clouds 20 1017 62 0 5.36 95 15:56 18.04.2020
5485 Clouds 21 1018 61 0 4.02 110 15:37 18.04.2020
5486 Clear 22 1004 62 0 0.45 263 15:19 18.04.2020
5487 Clouds 21 1004 67 0 2.65 40 14:44 18.04.2020
5488 Clouds 21 1004 67 0 2.65 40 14:44 18.04.2020
5489 Clouds 21 1004 68 0 2.65 40 14:24 18.04.2020
5490 Clouds 20 1005 72 0 2.65 40 13:44 18.04.2020
5491 Clouds 20 1005 72 0 0.45 283 13:25 18.04.2020
5492 Clouds 20 1005 73 0 2.65 40 12:56 18.04.2020
5493 Clouds 20 1006 73 0 2.65 40 12:38 18.04.2020
5494 Clear 20 1006 72 0 1.6 67 12:19 18.04.2020
5495 Clear 20 1006 73 0 1.6 67 11:42 18.04.2020
5496 Clear 19 1006 73 0 1.6 67 11:22 18.04.2020
5497 Clear 19 1006 73 0 1.6 67 10:57 18.04.2020
5498 Clear 19 1006 75 0 1.6 67 10:37 18.04.2020
5499 Clear 18 1006 76 0 1.6 67 10:18 18.04.2020
5500 Clear 18 1006 82 0 1.74 67 09:41 18.04.2020
5501 Clouds 17 1006 84 0 1.44 130 09:23 18.04.2020
5502 Clouds 16 1006 89 0 1.44 130 08:44 18.04.2020
5503 Clouds 16 1005 92 0 1.44 130 08:26 18.04.2020
5504 Clouds 15 1005 94 0 1.44 130 07:58 18.04.2020
5505 Clouds 14 1005 94 0 1.44 130 07:36 18.04.2020
5506 Clouds 14 1005 93 0 1.44 130 06:55 18.04.2020
5507 Clouds 13 1004 92 0 1.61 141 06:25 18.04.2020
5508 Clouds 13 1004 90 0 1.61 141 05:36 18.04.2020
5509 Clouds 13 1004 89 0 1.61 141 04:46 18.04.2020
5510 Clouds 14 1004 89 0 1.61 141 04:25 18.04.2020
5511 Clouds 14 1005 88 0 0.66 124 02:48 18.04.2020
5512 Clouds 14 1005 88 0 0.86 129 02:23 18.04.2020
5513 Clouds 14 1005 88 0 0.86 129 01:53 18.04.2020
5514 Clouds 14 1005 87 0 0.86 129 01:34 18.04.2020
5515 Clouds 15 1006 86 0 0.86 129 00:44 18.04.2020
5516 Clouds 15 1006 85 0 1.43 139 00:22 18.04.2020
5517 Clouds 15 1006 85 0 1.43 139 23:55 17.04.2020
5518 Clouds 15 1006 85 0 1.43 139 23:37 17.04.2020
5519 Clouds 15 1006 84 0 1.43 139 23:18 17.04.2020
5520 Clouds 16 1006 83 0 1.43 139 22:55 17.04.2020
5521 Clouds 16 1006 83 0 1.43 139 22:36 17.04.2020
5522 Clouds 16 1006 83 0 1.43 139 22:18 17.04.2020
5523 Clouds 16 1006 82 0 1.43 139 21:41 17.04.2020
5524 Clouds 16 1006 82 0 1.8 95 21:21 17.04.2020
5525 Clouds 17 1005 82 0 1.8 95 20:56 17.04.2020
5526 Clouds 17 1005 80 0 1.8 95 20:37 17.04.2020
5527 Clouds 17 1005 79 0 1.8 95 20:18 17.04.2020
5528 Clouds 17 1005 76 0 1.8 95 19:56 17.04.2020
5529 Clouds 18 1005 75 0 1.8 95 19:38 17.04.2020
5530 Clouds 18 1005 73 0 1.8 95 19:20 17.04.2020
5531 Clouds 19 1005 70 0 1.8 95 18:42 17.04.2020
5532 Clouds 18 1018 65 0 4.92 102 18:23 17.04.2020
5533 Clouds 18 1018 64 0 4.47 105 17:55 17.04.2020
5534 Clouds 19 1018 64 0 4.47 93 17:36 17.04.2020
5535 Clouds 19 1019 64 0 3.13 84 17:18 17.04.2020
5536 Clouds 19 1019 63 0 4.47 82 16:41 17.04.2020
5537 Clouds 19 1019 62 0 4.47 75 16:22 17.04.2020
5538 Clouds 19 1019 62 0 4.47 75 16:22 17.04.2020
5539 Clouds 19 1019 62 0 5.36 98 15:41 17.04.2020
5540 Clear 19 1019 63 0 4.02 95 15:22 17.04.2020
5541 Clear 19 1020 62 0 4.47 87 14:55 17.04.2020
5542 Clear 19 1020 62 0 4.47 96 14:37 17.04.2020
5543 Clear 21 1006 59 0 2.52 45 14:19 17.04.2020
5544 Clear 20 1006 61 0 2.52 45 13:40 17.04.2020
5545 Clear 19 1020 77 10000 3.1 310 13:20 17.04.2020
5546 Clouds 19 1020 77 10000 3.1 310 12:58 17.04.2020
5547 Clouds 18 1021 77 10000 2.1 330 12:40 17.04.2020
5548 Clouds 18 1021 77 10000 2.1 330 12:21 17.04.2020
5549 Clouds 18 1021 77 10000 2.1 280 11:40 17.04.2020
5550 Clouds 18 1021 77 10000 2.1 280 11:19 17.04.2020
5551 Clouds 17 1021 77 10000 2.1 240 10:44 17.04.2020
5552 Clouds 16 1021 77 10000 2.1 240 10:23 17.04.2020
5553 Clear 15 1021 72 10000 2.1 230 09:57 17.04.2020
5554 Clear 17 1007 77 0 1.83 72 09:39 17.04.2020
5555 Clouds 15 1007 79 0 1.3 145 09:19 17.04.2020
5556 Clouds 15 1008 82 0 1.3 145 08:49 17.04.2020
5557 Clouds 14 1008 84 0 1.3 145 08:28 17.04.2020
5558 Clouds 13 1007 87 0 1.3 145 07:58 17.04.2020
5559 Clouds 13 1007 88 0 1.3 145 07:40 17.04.2020
5560 Clouds 13 1007 87 0 1.3 145 07:19 17.04.2020
5561 Clouds 13 1007 87 0 1.3 145 06:44 17.04.2020
5562 Clouds 12 1007 85 0 1.4 169 05:58 17.04.2020
5563 Clouds 14 1007 87 0 1.4 169 03:36 17.04.2020
5564 Clouds 13 1007 88 0 1.56 181 03:18 17.04.2020
5565 Clouds 14 1008 87 0 1.54 172 01:52 17.04.2020
5566 Clouds 14 1008 86 0 1.54 172 01:22 17.04.2020
5567 Clouds 14 1008 84 0 1.13 155 00:26 17.04.2020
5568 Clouds 14 1008 83 0 1.13 155 23:55 16.04.2020
5569 Clouds 14 1008 83 0 1.13 155 23:37 16.04.2020
5570 Clouds 14 1008 83 0 1.13 155 23:19 16.04.2020
5571 Clouds 14 1009 81 0 1.13 155 22:40 16.04.2020
5572 Clouds 14 1008 81 0 1.13 155 22:22 16.04.2020
5573 Clouds 14 1008 81 0 1.13 155 21:59 16.04.2020
5574 Clouds 14 1009 80 0 1.24 156 21:40 16.04.2020
5575 Clouds 14 1009 80 0 1.24 81 21:19 16.04.2020
5576 Clouds 14 1008 79 0 1.24 81 20:43 16.04.2020
5577 Clouds 15 1020 68 10000 6.2 70 20:23 16.04.2020
5578 Clouds 15 1020 68 10000 6.2 70 19:59 16.04.2020
5579 Clouds 16 1020 68 10000 6.2 70 19:39 16.04.2020
5580 Clouds 16 1020 68 10000 6.2 70 19:20 16.04.2020
5581 Clouds 16 1021 68 10000 6.2 60 18:56 16.04.2020
5582 Clouds 15 1021 68 10000 6.2 60 18:38 16.04.2020
5583 Clouds 17 1021 68 10000 7.2 70 18:20 16.04.2020
5584 Clouds 16 1021 68 10000 8.2 70 17:45 16.04.2020
5585 Clouds 16 1021 63 10000 8.7 70 17:25 16.04.2020
5586 -273 0 0 0 0 0 17:00 16.04.2020
5587 Clouds 17 1021 68 10000 7.7 60 16:41 16.04.2020
5588 Clouds 17 1021 68 10000 7.7 60 16:19 16.04.2020
5589 Clouds 18 1022 68 10000 7.2 60 15:44 16.04.2020
5590 Clouds 18 1022 63 10000 6.2 50 15:19 16.04.2020
5591 Clouds 18 1022 68 10000 5.1 40 14:58 16.04.2020
5592 Clouds 17 1022 67 10000 5.1 40 14:39 16.04.2020
5593 Clouds 18 1022 67 10000 5.1 40 14:19 16.04.2020
5594 Clouds 18 1023 67 10000 3.6 30 13:56 16.04.2020
5595 Clouds 17 1023 67 10000 3.6 30 13:36 16.04.2020
5596 Clouds 17 1023 72 10000 4.1 40 13:18 16.04.2020
5597 Clouds 17 1023 72 10000 3.6 30 12:56 16.04.2020
5598 Clouds 17 1023 72 10000 3.6 30 12:56 16.04.2020
5599 Clouds 17 1023 72 10000 3.6 30 12:37 16.04.2020
5600 Clouds 17 1023 67 10000 2.6 30 12:37 16.04.2020
5601 Clouds 17 1023 67 10000 2.6 30 12:18 16.04.2020
5602 Clouds 17 1023 67 10000 2.6 30 11:54 16.04.2020
5603 Clouds 17 1023 67 10000 2.6 30 11:36 16.04.2020
5604 Clouds 17 1023 72 10000 2.6 30 11:18 16.04.2020
5605 Clouds 16 1023 77 10000 2.1 360 10:39 16.04.2020
5606 Clouds 16 1023 72 10000 3.1 30 10:19 16.04.2020
5607 Clouds 15 1023 72 10000 2.6 50 09:58 16.04.2020
5608 Clouds 15 1023 72 10000 2.6 50 09:38 16.04.2020
5609 Clouds 14 1023 63 10000 3.6 60 09:19 16.04.2020
5610 Clouds 14 1010 80 0 1.44 161 08:42 16.04.2020
5611 Clouds 13 1010 82 0 1.44 161 08:23 16.04.2020
5612 Clouds 13 1010 84 0 1.44 161 07:46 16.04.2020
5613 Clouds 13 1010 85 0 1.44 161 07:27 16.04.2020
5614 Clouds 12 1009 84 0 1.44 161 06:46 16.04.2020
5615 Clouds 12 1009 83 0 1.59 148 06:26 16.04.2020
5616 Clouds 12 1009 81 0 1.59 148 05:49 16.04.2020
5617 Clouds 12 1008 78 0 1.52 150 04:44 16.04.2020
5618 Clouds 12 1008 75 0 1.31 170 03:24 16.04.2020
5619 Clouds 12 1008 73 0 1.31 170 02:52 16.04.2020
5620 Clouds 12 1008 72 0 1.6 170 02:32 16.04.2020
5621 Clouds 12 1009 69 0 1.6 170 01:20 16.04.2020
5622 Clouds 12 1009 68 0 1.6 170 00:37 16.04.2020
5623 Clouds 12 1009 68 0 1.41 166 00:00 16.04.2020
5624 Clouds 12 1009 67 0 1.41 166 23:41 15.04.2020
5625 Clouds 12 1009 67 0 1.41 166 23:22 15.04.2020
5626 Clouds 13 1008 67 0 1.41 166 22:41 15.04.2020
5627 Clouds 13 1008 66 0 1.41 166 22:22 15.04.2020
5628 Clouds 13 1008 67 0 1.41 166 22:22 15.04.2020
5629 Clouds 13 1008 65 0 1.41 166 22:00 15.04.2020
5630 Clouds 13 1008 65 0 1.41 166 21:41 15.04.2020
5631 Clouds 13 1008 64 0 1.69 42 21:23 15.04.2020
5632 Clouds 13 1008 61 0 1.69 42 20:59 15.04.2020
5633 Clouds 13 1007 60 0 1.69 42 20:41 15.04.2020
5634 Clouds 14 1019 55 10000 8.7 50 20:22 15.04.2020
5635 Clouds 14 1019 55 10000 8.7 50 19:57 15.04.2020
5636 Clouds 15 1019 55 10000 8.7 50 19:39 15.04.2020
5637 Clouds 15 1019 55 10000 8.7 50 19:18 15.04.2020
5638 Clouds 16 1019 55 10000 8.7 50 18:40 15.04.2020
5639 Clear 16 1019 55 10000 9.8 50 18:22 15.04.2020
5640 Clear 17 1019 55 10000 10.3 50 17:56 15.04.2020
5641 Clear 17 1019 55 10000 10.3 50 17:38 15.04.2020
5642 Clear 18 1019 59 10000 9.8 50 17:20 15.04.2020
5643 Clear 18 1019 59 10000 10.3 50 16:55 15.04.2020
5644 Clear 17 1019 59 10000 10.3 50 16:37 15.04.2020
5645 Clear 18 1019 63 10000 10.3 50 16:18 15.04.2020
5646 Clear 18 1019 63 10000 9.8 50 15:56 15.04.2020
5647 Clear 18 1019 63 10000 9.8 50 15:37 15.04.2020
5648 Clear 18 1019 63 10000 9.8 50 15:19 15.04.2020
5649 Clear 18 1019 63 10000 9.8 50 15:19 15.04.2020
5650 Clear 18 1019 63 10000 9.3 50 14:54 15.04.2020
5651 Clear 18 1019 63 10000 9.3 50 14:36 15.04.2020
5652 Clear 18 1020 67 10000 9.3 50 14:36 15.04.2020
5653 Clear 18 1020 67 10000 9.3 50 14:18 15.04.2020
5654 Clear 18 1020 67 10000 9.3 50 13:40 15.04.2020
5655 Clear 18 1019 63 10000 8.7 40 13:21 15.04.2020
5656 Clear 18 1019 59 10000 8.2 50 12:59 15.04.2020
5657 Clear 18 1019 59 10000 8.2 50 12:41 15.04.2020
5658 Clear 18 1019 63 10000 7.7 50 12:23 15.04.2020
5659 Clear 18 1019 63 10000 7.2 50 11:58 15.04.2020
5660 Clear 18 1019 63 10000 7.2 50 11:38 15.04.2020
5661 Clear 17 1019 63 10000 7.7 60 11:20 15.04.2020
5662 Clear 17 1018 63 10000 7.7 50 10:39 15.04.2020
5663 Clear 17 1018 63 10000 7.7 50 10:20 15.04.2020
5664 Clouds 16 1018 67 10000 7.7 60 09:57 15.04.2020
5665 Clouds 15 1018 67 10000 7.7 60 09:39 15.04.2020
5666 Clear 15 1005 71 0 0.89 353 09:20 15.04.2020
5667 Clear 14 1004 74 0 0.45 12 08:55 15.04.2020
5668 Clear 14 1004 76 0 0.45 326 08:37 15.04.2020
5669 Clear 14 1004 81 0 1.34 356 08:19 15.04.2020
5670 Clear 13 1003 82 0 0.45 1 07:49 15.04.2020
5671 Clear 13 1003 83 0 1.63 16 07:30 15.04.2020
5672 Clear 13 1003 77 0 1.63 16 06:32 15.04.2020
5673 Clear 13 1002 74 0 2.74 18 05:50 15.04.2020
5674 Clear 13 1001 73 0 2.74 18 04:49 15.04.2020
5675 Clear 13 1001 71 0 2.74 18 04:24 15.04.2020
5676 Clouds 13 1001 67 0 2.19 329 03:23 15.04.2020
5677 Clouds 14 1000 66 0 2.19 329 02:52 15.04.2020
5678 Clouds 14 1000 63 0 2.19 329 01:54 15.04.2020
5679 Clouds 14 1000 64 0 2.19 329 01:25 15.04.2020
5680 Clouds 14 1000 66 0 2.19 329 00:51 15.04.2020
5681 Clouds 14 999 70 0 2.19 329 00:30 15.04.2020
5682 Clouds 14 999 77 0 1.57 326 23:57 14.04.2020
5683 Clouds 14 999 76 0 1.57 326 23:39 14.04.2020
5684 Clouds 14 999 77 0 1.57 326 23:21 14.04.2020
5685 Clouds 14 998 76 0 1.57 326 22:58 14.04.2020
5686 Clouds 14 998 76 0 0.89 13 22:39 14.04.2020
5687 Clouds 15 998 75 0 1.57 326 22:21 14.04.2020
5688 Clouds 16 997 76 0 0.89 335 21:58 14.04.2020
5689 Clouds 15 997 75 0 1.57 326 21:40 14.04.2020
5690 Clouds 15 997 76 0 0.45 25 21:20 14.04.2020
5691 -273 0 0 0 0 0 21:00 14.04.2020
5692 Clouds 15 996 73 0 2.38 334 20:40 14.04.2020
5693 Clouds 16 1008 77 10000 3.1 330 20:21 14.04.2020
5694 Clouds 16 1008 77 10000 3.1 330 19:57 14.04.2020
5695 Clouds 17 1008 77 10000 3.1 330 19:38 14.04.2020
5696 -273 0 0 0 0 0 19:19 14.04.2020
5697 Clouds 18 1008 63 10000 1 0 18:41 14.04.2020
5698 Clouds 19 1008 59 10000 1 0 18:22 14.04.2020
5699 Clouds 19 1008 56 10000 1 0 17:58 14.04.2020
5700 Clouds 19 1008 56 10000 1 0 17:58 14.04.2020
5701 Clouds 19 1008 56 10000 1 0 17:39 14.04.2020
5702 Clouds 19 1007 59 10000 1 0 17:21 14.04.2020
5703 Clouds 19 1007 72 10000 1.5 330 16:58 14.04.2020
5704 Clouds 20 1007 72 10000 1.5 330 16:39 14.04.2020
5705 Clouds 20 1007 77 10000 2.6 340 16:20 14.04.2020
5706 Clouds 20 1007 77 10000 3.6 20 15:57 14.04.2020
5707 Clouds 20 1007 77 10000 3.6 20 15:38 14.04.2020
5708 Clouds 20 1007 72 10000 3.6 30 15:19 14.04.2020
5709 Clouds 21 1007 72 10000 4.1 40 14:57 14.04.2020
5710 Clouds 21 1007 72 10000 4.1 40 14:38 14.04.2020
5711 Clouds 20 1007 77 10000 3.1 30 14:20 14.04.2020
5712 Clouds 20 1007 72 10000 3.1 20 13:43 14.04.2020
5713 Clouds 20 1007 68 10000 3.6 40 13:24 14.04.2020
5714 Clouds 20 1007 72 10000 3.1 360 12:56 14.04.2020
5715 Clouds 20 1007 72 10000 3.1 360 12:38 14.04.2020
5716 Clouds 20 1007 68 10000 3.1 30 12:19 14.04.2020
5717 Clouds 20 1007 59 10000 4.1 30 11:41 14.04.2020
5718 Clouds 20 1007 59 10000 4.1 30 11:41 14.04.2020
5719 Clouds 20 1006 35 10000 2.1 60 11:22 14.04.2020
5720 Clouds 19 1007 46 10000 3.6 70 10:56 14.04.2020
5721 Clouds 20 1007 46 10000 3.6 70 10:38 14.04.2020
5722 Clouds 20 1007 55 10000 3.1 80 10:19 14.04.2020
5723 Clouds 20 1008 37 10000 1 0 09:42 14.04.2020
5724 Clouds 19 1008 48 10000 0.5 0 09:22 14.04.2020
5725 Clouds 17 1012 41 0 1.34 90 08:56 14.04.2020
5726 Clouds 18 995 40 0 3.9 143 08:37 14.04.2020
5727 Clouds 17 994 40 0 0.45 230 08:19 14.04.2020
5728 Clouds 17 995 38 0 3.9 143 07:51 14.04.2020
5729 Clouds 17 995 37 0 3.9 143 07:26 14.04.2020
5730 Clouds 16 995 36 0 0.45 322 06:45 14.04.2020
5731 Clouds 16 997 32 0 3.67 157 05:47 14.04.2020
5732 Clouds 16 996 36 0 3.67 157 03:38 14.04.2020
5733 Rain 15 997 44 0 4.29 185 02:38 14.04.2020
5734 Rain 15 997 45 0 4.29 185 01:28 14.04.2020
5735 Rain 15 998 43 0 4.29 185 00:52 14.04.2020
5736 Rain 15 998 48 0 4.29 185 00:32 14.04.2020
5737 Clouds 15 998 55 0 3.55 171 23:59 13.04.2020
5738 Clouds 15 998 57 0 3.55 171 23:39 13.04.2020
5739 Clouds 15 998 59 0 3.55 171 23:19 13.04.2020
5740 Clouds 15 999 62 0 3.55 171 22:54 13.04.2020
5741 Clouds 15 999 63 0 3.55 171 22:36 13.04.2020
5742 Clouds 15 1000 64 0 3.55 171 22:18 13.04.2020
5743 Clouds 15 1001 66 0 3.35 179 21:41 13.04.2020
5744 Clouds 15 1001 68 0 3.24 159 21:21 13.04.2020
5745 Clouds 15 1001 67 0 3.24 159 20:58 13.04.2020
5746 Clouds 16 1001 68 0 3.24 159 20:40 13.04.2020
5747 Clouds 17 1014 77 10000 4.6 60 20:19 13.04.2020
5748 Clouds 17 1014 77 10000 4.6 60 19:58 13.04.2020
5749 Clouds 16 1014 77 10000 4.6 60 19:37 13.04.2020
5750 Clouds 17 1014 77 10000 4.6 60 19:19 13.04.2020
5751 Clouds 16 1014 77 10000 4.6 60 19:19 13.04.2020
5752 Clouds 17 1015 72 10000 5.1 70 18:57 13.04.2020
5753 Clouds 17 1015 72 10000 5.1 70 18:37 13.04.2020
5754 Clouds 18 1015 68 10000 6.7 70 18:18 13.04.2020
5755 Clouds 18 1015 59 10000 6.7 70 17:56 13.04.2020
5756 Clouds 18 1015 59 10000 6.7 70 17:37 13.04.2020
5757 Clouds 18 1015 63 10000 6.7 60 17:19 13.04.2020
5758 Clouds 18 1015 68 10000 6.7 50 16:57 13.04.2020
5759 Clouds 18 1015 68 10000 6.7 50 16:37 13.04.2020
5760 Clouds 19 1016 59 10000 6.7 60 16:19 13.04.2020
5761 Clouds 19 1016 48 10000 5.7 60 15:46 13.04.2020
5762 Clouds 19 1017 63 10000 6.2 30 15:28 13.04.2020
5763 Clouds 19 1017 63 10000 6.2 30 14:59 13.04.2020
5764 Clouds 19 1017 37 10000 6.7 40 14:40 13.04.2020
5765 Clouds 19 1017 42 10000 6.2 50 14:22 13.04.2020
5766 Clouds 19 1017 42 10000 5.1 40 13:56 13.04.2020
5767 Clouds 19 1017 42 10000 5.1 40 13:38 13.04.2020
5768 Clouds 19 1018 45 10000 5.1 30 13:20 13.04.2020
5769 Clouds 19 1018 55 10000 4.6 40 12:58 13.04.2020
5770 Clouds 19 1018 55 10000 4.6 40 12:40 13.04.2020
5771 Clouds 18 1018 55 10000 3.6 40 12:20 13.04.2020
5772 Clouds 18 1018 55 10000 2.6 30 11:58 13.04.2020
5773 Clouds 18 1018 55 10000 2.6 30 11:39 13.04.2020
5774 Clouds 18 1018 42 10000 4.1 220 11:18 13.04.2020
5775 Clouds 17 1018 42 10000 4.1 230 10:55 13.04.2020
5776 Clouds 18 1018 42 10000 4.1 230 10:36 13.04.2020
5777 Clouds 18 1018 42 10000 4.6 220 10:18 13.04.2020
5778 Clouds 17 1018 39 10000 5.1 210 09:43 13.04.2020
5779 Clouds 16 1005 49 0 3.11 178 09:25 13.04.2020
5780 Clouds 14 1005 60 0 2.93 180 08:45 13.04.2020
5781 Clouds 13 1005 65 0 2.93 180 08:27 13.04.2020
5782 Clouds 13 1005 67 0 2.93 180 07:57 13.04.2020
5783 Clouds 12 1005 68 0 2.93 180 07:38 13.04.2020
5784 Clouds 12 1005 73 0 2.93 180 07:18 13.04.2020
5785 Clouds 11 1005 75 0 2.93 180 06:44 13.04.2020
5786 Clear 10 1024 78 0 2.53 177 05:53 13.04.2020
5787 Clear 11 1004 74 0 2.53 177 05:20 13.04.2020
5788 Clear 12 1004 73 0 2.53 177 04:50 13.04.2020
5789 Clear 12 1004 73 0 2.53 177 04:20 13.04.2020
5790 Clear 13 1005 74 0 2.53 177 03:43 13.04.2020
5791 Clouds 13 1005 72 0 2.48 178 02:41 13.04.2020
5792 Clouds 12 1006 71 0 2.48 178 01:48 13.04.2020
5793 Clouds 13 1006 70 0 2.48 178 01:28 13.04.2020
5794 Clouds 13 1006 70 0 2.48 178 00:51 13.04.2020
5795 Clouds 13 1006 69 0 2.48 178 00:30 13.04.2020
5796 Clear 13 1007 69 0 2.46 182 23:57 12.04.2020
5797 Clear 13 1007 67 0 2.46 182 23:39 12.04.2020
5798 Clear 13 1007 65 0 2.46 182 23:20 12.04.2020
5799 Clear 14 1007 63 0 2.46 182 22:55 12.04.2020
5800 Clear 14 1007 64 0 2.46 182 22:36 12.04.2020
5801 Clear 14 1007 65 0 2.46 182 22:18 12.04.2020
5802 Clear 14 1006 67 0 2.46 182 21:38 12.04.2020
5803 Clear 14 1026 71 0 1.03 132 21:20 12.04.2020
5804 Clear 15 1026 69 0 1.03 132 20:44 12.04.2020
5805 Clear 15 1026 69 0 1.03 132 20:44 12.04.2020
5806 Clear 15 1019 72 10000 3.6 30 20:24 12.04.2020
5807 Clear 16 1019 72 10000 3.6 30 19:59 12.04.2020
5808 Clear 17 1019 72 10000 3.6 30 19:41 12.04.2020
5809 Clear 17 1019 72 10000 3.6 30 19:20 12.04.2020
5810 Clear 18 1019 72 10000 4.1 40 18:58 12.04.2020
5811 Clear 18 1019 72 10000 4.1 40 18:58 12.04.2020
5812 Clear 18 1019 72 10000 4.1 40 18:39 12.04.2020
5813 Clear 18 1019 72 10000 4.6 30 18:19 12.04.2020
5814 Clear 19 1019 72 10000 5.1 40 17:55 12.04.2020
5815 Clear 19 1019 72 10000 5.1 40 17:37 12.04.2020
5816 Clear 19 1019 55 10000 5.1 60 17:18 12.04.2020
5817 Clear 18 1020 63 10000 5.7 50 16:42 12.04.2020
5818 Clear 19 1020 68 10000 6.2 40 16:22 12.04.2020
5819 Clear 19 1020 68 10000 6.2 50 15:55 12.04.2020
5820 Clear 19 1020 68 10000 6.2 50 15:37 12.04.2020
5821 Clear 19 1020 68 10000 6.2 40 15:18 12.04.2020
5822 Clear 20 1020 72 10000 6.2 40 14:39 12.04.2020
5823 Clear 19 1021 68 10000 5.1 50 14:21 12.04.2020
5824 Clear 19 1021 72 10000 3.1 250 13:57 12.04.2020
5825 Clear 19 1021 67 10000 4.1 250 13:37 12.04.2020
5826 Clear 19 1021 67 10000 4.1 250 13:18 12.04.2020
5827 Clear 18 1021 67 10000 1.5 300 12:45 12.04.2020
5828 Clear 18 1022 72 10000 3.1 290 12:21 12.04.2020
5829 Clear 18 1022 72 10000 3.1 10 11:58 12.04.2020
5830 Clear 18 1022 72 10000 3.1 10 11:38 12.04.2020
5831 Clear 17 1022 77 10000 2.1 10 11:18 12.04.2020
5832 Clear 17 1022 82 10000 1.5 360 10:56 12.04.2020
5833 Clear 17 1022 82 10000 1.5 360 10:37 12.04.2020
5834 Clear 17 1022 77 10000 1.5 340 10:19 12.04.2020
5835 Clear 16 1022 82 10000 0.5 290 09:56 12.04.2020
5836 Clear 16 1022 82 10000 0.5 290 09:37 12.04.2020
5837 Clear 15 1022 76 10000 1 0 09:19 12.04.2020
5838 Clear 15 1022 76 10000 1 0 09:19 12.04.2020
5839 Clear 15 1009 51 0 1.07 169 08:47 12.04.2020
5840 Clear 14 1009 53 0 1.07 169 08:29 12.04.2020
5841 Clear 13 1008 55 0 1.07 169 07:47 12.04.2020
5842 Clear 13 1008 54 0 1.07 169 07:19 12.04.2020
5843 Clear 12 1008 54 0 1.07 169 06:42 12.04.2020
5844 Clear 12 1008 55 0 0.98 187 06:22 12.04.2020
5845 Clear 12 1019 89 0 0.98 187 05:42 12.04.2020
5846 Clear 12 1021 46 0 4.47 28 04:25 12.04.2020
5847 Clear 12 1008 64 0 1.25 191 03:29 12.04.2020
5848 Clear 12 1009 63 0 1.25 191 02:47 12.04.2020
5849 Clear 12 1009 62 0 1.22 188 02:27 12.04.2020
5850 Clear 12 1009 62 0 1.22 188 01:22 12.04.2020
5851 Clear 12 1009 63 0 1.22 188 00:43 12.04.2020
5852 Clear 12 1009 69 0 1.14 185 00:21 12.04.2020
5853 Clear 13 1009 74 0 1.14 185 23:47 11.04.2020
5854 Clear 13 1009 76 0 1.14 185 23:26 11.04.2020
5855 Clear 13 1009 76 0 1.14 185 22:58 11.04.2020
5856 Clear 13 1009 76 0 1.14 185 22:37 11.04.2020
5857 Clear 13 1009 77 0 1.14 185 22:18 11.04.2020
5858 Clear 13 1009 77 0 1.14 185 21:55 11.04.2020
5859 Clear 14 1009 76 0 1.14 185 21:36 11.04.2020
5860 Clear 14 1009 75 0 0.96 6 21:18 11.04.2020
5861 Clear 14 1009 76 0 0.96 6 20:55 11.04.2020
5862 Clear 14 1009 76 0 0.96 6 20:37 11.04.2020
5863 Clear 14 1009 76 0 0.96 6 20:37 11.04.2020
5864 Clear 15 1021 77 10000 6.2 50 20:19 11.04.2020
5865 Clear 15 1021 77 10000 6.2 50 19:56 11.04.2020
5866 Clear 15 1021 77 10000 6.2 50 19:56 11.04.2020
5867 Clear 16 1021 77 10000 6.2 50 19:37 11.04.2020
5868 Clear 15 1021 77 10000 6.2 50 19:37 11.04.2020
5869 Clear 16 1021 77 10000 6.2 50 19:18 11.04.2020
5870 Clear 16 1021 77 10000 6.2 50 19:18 11.04.2020
5871 Clear 16 1021 77 10000 6.7 60 18:55 11.04.2020
5872 Clear 16 1021 77 10000 6.7 60 18:36 11.04.2020
5873 Clear 16 1021 77 10000 7.2 50 18:18 11.04.2020
5874 Clear 17 1021 77 10000 7.7 50 17:56 11.04.2020
5875 Clear 17 1021 77 10000 7.7 50 17:37 11.04.2020
5876 Clear 17 1021 77 10000 8.2 50 17:18 11.04.2020
5877 Clear 18 1021 72 10000 8.2 50 16:42 11.04.2020
5878 Clear 18 1021 72 10000 8.7 50 16:21 11.04.2020
5879 Clear 18 1021 72 10000 7.7 40 15:41 11.04.2020
5880 Clouds 18 1021 67 10000 7.7 50 15:21 11.04.2020
5881 Clouds 19 1022 63 10000 7.2 60 14:58 11.04.2020
5882 Clouds 19 1022 63 10000 7.2 60 14:40 11.04.2020
5883 Clouds 18 1022 63 10000 6.7 50 14:22 11.04.2020
5884 Clouds 18 1022 67 10000 6.2 40 13:43 11.04.2020
5885 Clouds 18 1022 67 10000 6.2 50 13:25 11.04.2020
5886 Clouds 19 1022 52 10000 6.2 50 12:59 11.04.2020
5887 Clouds 19 1022 52 10000 6.2 50 12:38 11.04.2020
5888 Clouds 17 1022 67 10000 5.7 50 12:18 11.04.2020
5889 Clouds 18 1023 72 10000 1.5 290 11:43 11.04.2020
5890 Clouds 17 1023 77 10000 2.1 280 11:22 11.04.2020
5891 Clouds 17 1022 72 10000 1.5 250 10:57 11.04.2020
5892 Clouds 17 1022 72 10000 1.5 250 10:39 11.04.2020
5893 Clouds 17 1022 76 10000 1.5 260 10:21 11.04.2020
5894 Clouds 16 1022 82 10000 1.5 250 09:57 11.04.2020
5895 Clear 16 1022 82 10000 1.5 250 09:38 11.04.2020
5896 Clear 15 1009 52 0 0.59 157 09:20 11.04.2020
5897 Clear 15 1009 58 0 0.59 157 08:43 11.04.2020
5898 Clear 14 1009 60 0 0.59 157 08:25 11.04.2020
5899 Clear 12 1009 65 0 0.59 157 07:49 11.04.2020
5900 Clear 12 1009 68 0 0.59 157 07:28 11.04.2020
5901 Clear 12 1008 67 0 0.59 157 06:47 11.04.2020
5902 Clear 11 1008 65 0 1.09 177 05:59 11.04.2020
5903 Clear 11 1008 69 0 1.09 177 04:35 11.04.2020
5904 Clear 11 1008 68 0 1.09 177 03:40 11.04.2020
5905 Clear 12 1009 70 0 1.38 184 01:53 11.04.2020
5906 Clear 12 1009 76 0 1.38 184 01:20 11.04.2020
5907 Clear 12 1009 76 0 1.38 184 00:44 11.04.2020
5908 Clear 12 1009 76 0 1.15 159 00:19 11.04.2020
5909 Clear 12 1009 76 0 1.15 159 23:56 10.04.2020
5910 Clear 12 1009 75 0 1.15 159 23:37 10.04.2020
5911 Clear 12 1009 74 0 1.15 159 23:18 10.04.2020
5912 Clear 12 1009 74 0 1.15 159 23:18 10.04.2020
5913 Clear 13 1009 70 0 1.15 159 22:43 10.04.2020
5914 Clear 13 1009 69 0 1.15 159 22:22 10.04.2020
5915 Clear 13 1009 66 0 1.15 159 21:58 10.04.2020
5916 Clear 13 1009 63 0 1.15 159 21:40 10.04.2020
5917 Clear 13 1009 61 0 0.72 35 21:20 10.04.2020
5918 Clear 13 1008 60 0 0.72 35 20:43 10.04.2020
5919 Clear 14 1021 72 10000 7.2 60 20:24 10.04.2020
5920 Clear 15 1021 72 10000 7.2 60 19:59 10.04.2020
5921 Clear 15 1021 72 10000 7.2 60 19:41 10.04.2020
5922 Clear 15 1021 72 10000 7.2 60 19:21 10.04.2020
5923 Clear 16 1020 67 10000 7.7 50 18:58 10.04.2020
5924 Clear 17 1020 67 10000 7.7 50 18:40 10.04.2020
5925 Clear 17 1020 67 10000 7.2 40 18:21 10.04.2020
5926 Clear 17 1021 63 10000 7.2 50 17:58 10.04.2020
5927 Clear 17 1021 63 10000 7.2 50 17:40 10.04.2020
5928 Clear 17 1021 67 10000 7.2 50 17:21 10.04.2020
5929 Clear 18 1021 63 10000 6.7 40 16:57 10.04.2020
5930 Clear 17 1021 63 10000 6.7 40 16:38 10.04.2020
5931 Clear 17 1021 63 10000 6.7 40 16:20 10.04.2020
5932 Clear 17 1021 63 10000 6.7 40 15:56 10.04.2020
5933 Clear 18 1021 63 10000 6.7 40 15:37 10.04.2020
5934 Clear 18 1022 67 10000 6.7 40 15:19 10.04.2020
5935 Clear 18 1022 67 10000 6.2 40 14:57 10.04.2020
5936 Clear 18 1022 67 10000 6.2 40 14:38 10.04.2020
5937 Clear 18 1022 63 10000 5.7 40 14:19 10.04.2020
5938 Clear 18 1022 59 10000 5.7 40 13:43 10.04.2020
5939 Clear 17 1022 67 10000 5.1 40 13:22 10.04.2020
5940 Clear 17 1023 72 10000 4.6 30 12:44 10.04.2020
5941 Clear 15 1023 82 10000 4.1 20 12:24 10.04.2020
5942 Clear 16 1023 82 10000 4.1 20 12:24 10.04.2020
5943 Clear 16 1023 77 10000 2.1 350 11:58 10.04.2020
5944 Clear 16 1023 77 10000 2.1 350 11:40 10.04.2020
5945 Clear 16 1023 72 10000 1.5 300 11:22 10.04.2020
5946 Clear 16 1023 72 10000 1.5 290 10:47 10.04.2020
5947 Clear 16 1023 67 10000 1.5 270 10:24 10.04.2020
5948 Clear 15 1023 67 10000 1.5 270 09:59 10.04.2020
5949 Clear 15 1022 71 10000 1.5 270 09:40 10.04.2020
5950 Clear 15 1022 71 10000 1 0 09:20 10.04.2020
5951 Clear 14 1009 55 0 0.76 187 08:44 10.04.2020
5952 Clear 13 1009 57 0 0.76 187 08:24 10.04.2020
5953 Clear 11 1009 60 0 0.76 187 07:47 10.04.2020
5954 Clear 10 1009 62 0 0.76 187 07:27 10.04.2020
5955 Clear 11 1009 62 0 0.76 187 06:52 10.04.2020
5956 Clear 9 1028 60 0 0.76 187 06:29 10.04.2020
5957 Clear 9 1029 58 0 1.07 195 05:43 10.04.2020
5958 Clear 10 1009 61 0 1.07 195 05:18 10.04.2020
5959 Clear 11 1008 59 0 1.07 195 03:55 10.04.2020
5960 Clear 10 1008 58 0 1.07 195 03:32 10.04.2020
5961 Clear 10 1009 59 0 1.07 195 03:32 10.04.2020
5962 Clear 11 1009 62 0 1.29 189 02:50 10.04.2020
5963 Clear 11 1009 64 0 1.29 189 02:31 10.04.2020
5964 Clear 11 1009 68 0 1.34 185 01:30 10.04.2020
5965 Clear 11 1009 71 0 1.34 185 00:55 10.04.2020
5966 Clear 12 1009 71 0 1.34 185 00:37 10.04.2020
5967 Clear 12 1009 72 0 1.42 177 00:18 10.04.2020
5968 Clear 12 1010 70 0 1.42 177 23:41 09.04.2020
5969 Clear 12 1010 69 0 1.42 177 23:20 09.04.2020
5970 Clear 11 1009 68 0 1.42 177 22:54 09.04.2020
5971 Clear 11 1009 66 0 1.42 177 22:36 09.04.2020
5972 Clear 12 1009 64 0 1.42 177 22:18 09.04.2020
5973 Clear 12 1009 61 0 1.5 183 21:38 09.04.2020
5974 Clear 12 1009 59 0 0.85 15 21:19 09.04.2020
5975 Clear 12 1008 57 0 0.85 15 20:45 09.04.2020
5976 Clear 13 1021 72 10000 5.1 30 20:22 09.04.2020
5977 Clear 14 1021 72 10000 5.1 30 19:58 09.04.2020
5978 Clear 15 1021 72 10000 5.1 30 19:38 09.04.2020
5979 Clear 15 1021 72 10000 5.1 30 19:19 09.04.2020
5980 Clear 15 1021 67 10000 5.1 20 18:42 09.04.2020
5981 Clear 15 1021 67 10000 5.1 20 18:42 09.04.2020
5982 Clear 15 1021 67 10000 5.7 40 18:20 09.04.2020
5983 Clear 16 1021 67 10000 5.7 40 17:43 09.04.2020
5984 Clear 16 1021 72 10000 5.7 40 17:24 09.04.2020
5985 Clear 16 1021 67 10000 6.2 40 16:58 09.04.2020
5986 Clear 16 1021 67 10000 6.2 40 16:39 09.04.2020
5987 Clear 16 1021 72 10000 6.2 40 16:19 09.04.2020
5988 Clear 16 1021 77 10000 6.2 30 15:55 09.04.2020
5989 Clear 16 1021 77 10000 6.2 30 15:37 09.04.2020
5990 Clear 16 1021 77 10000 6.2 30 15:37 09.04.2020
5991 Clear 17 1022 72 10000 5.7 20 15:18 09.04.2020
5992 Clear 17 1022 72 10000 5.1 30 14:42 09.04.2020
5993 Clear 17 1022 77 10000 5.1 20 14:21 09.04.2020
5994 Clear 18 1022 77 10000 4.6 20 13:56 09.04.2020
5995 Clear 18 1022 77 10000 4.6 20 13:38 09.04.2020
5996 Clear 17 1022 77 10000 3.6 30 13:19 09.04.2020
5997 Clear 17 1023 77 10000 3.1 20 12:43 09.04.2020
5998 Clear 16 1023 77 10000 3.6 10 12:24 09.04.2020
5999 Clear 16 1023 77 10000 3.1 10 11:59 09.04.2020
6000 Clear 16 1023 77 10000 3.1 10 11:41 09.04.2020
6001 Clear 16 1023 72 10000 2.1 330 11:20 09.04.2020
6002 Clear 16 1023 67 10000 1 300 10:57 09.04.2020
6003 Clear 16 1023 67 10000 1 300 10:39 09.04.2020
6004 Clear 16 1023 71 10000 2.1 250 10:20 09.04.2020
6005 Clear 15 1023 71 10000 2.6 240 09:55 09.04.2020
6006 Clear 14 1023 71 10000 2.6 240 09:37 09.04.2020
6007 Clear 14 1022 82 10000 1.5 190 09:19 09.04.2020
6008 Clear 13 1022 82 10000 1.5 190 08:43 09.04.2020
6009 Clear 12 1022 87 10000 1.5 140 08:23 09.04.2020
6010 Clear 10 1009 66 0 1.13 193 07:55 09.04.2020
6011 Clear 10 1009 66 0 1.13 193 07:27 09.04.2020
6012 Clear 10 1009 68 0 1.13 193 06:55 09.04.2020
6013 Clear 10 1008 73 0 1.29 197 05:59 09.04.2020
6014 Clear 10 1008 73 0 1.29 197 05:59 09.04.2020
6015 Clear 9 1008 75 0 1.29 197 05:38 09.04.2020
6016 Clear 11 1009 77 0 1.29 197 03:49 09.04.2020
6017 Clear 11 1009 73 0 1.53 209 02:25 09.04.2020
6018 Clear 11 1010 73 0 1.53 209 01:40 09.04.2020
6019 Clear 11 1010 74 0 1.53 209 01:20 09.04.2020
6020 Clear 11 1010 76 0 1.53 209 00:41 09.04.2020
6021 Clear 11 1010 75 0 1.85 199 00:19 09.04.2020
6022 Clear 11 1010 74 0 1.85 199 23:58 08.04.2020
6023 Clear 11 1010 75 0 1.85 199 23:40 08.04.2020
6024 Clear 11 1010 76 0 1.85 199 23:20 08.04.2020
6025 Clear 11 1010 76 0 1.85 199 22:43 08.04.2020
6026 Clear 11 1010 74 0 1.85 199 22:24 08.04.2020
6027 Clear 11 1010 74 0 1.85 199 21:56 08.04.2020
6028 Clear 12 1010 73 0 1.85 199 21:37 08.04.2020
6029 Clear 12 1010 72 0 0.45 252 21:19 08.04.2020
6030 Clear 12 1010 72 0 0.45 252 20:57 08.04.2020
6031 Clear 12 1009 71 0 0.45 252 20:38 08.04.2020
6032 Clear 13 1022 67 10000 2.1 360 20:20 08.04.2020
6033 Clear 14 1022 67 10000 2.1 360 19:42 08.04.2020
6034 Clear 15 1022 67 10000 2.6 360 19:22 08.04.2020
6035 Clear 15 1022 67 10000 2.6 360 18:59 08.04.2020
6036 Clear 16 1022 72 10000 2.6 360 18:40 08.04.2020
6037 Clear 15 1022 72 10000 2.6 360 18:22 08.04.2020
6038 Clear 14 1022 72 10000 3.1 350 17:44 08.04.2020
6039 Clear 15 1023 77 10000 3.6 20 17:22 08.04.2020
6040 Clear 15 1023 77 10000 3.6 20 17:22 08.04.2020
6041 Clear 15 1023 77 10000 3.6 20 16:59 08.04.2020
6042 Clear 15 1023 77 10000 3.1 10 16:41 08.04.2020
6043 Clear 15 1023 77 10000 3.1 10 16:22 08.04.2020
6044 Clear 15 1023 77 10000 3.1 10 15:55 08.04.2020
6045 Clear 16 1024 72 10000 2.6 350 15:37 08.04.2020
6046 Clear 17 1024 72 10000 2.6 340 15:18 08.04.2020
6047 Clear 16 1024 72 10000 2.6 340 14:42 08.04.2020
6048 Clear 16 1024 72 10000 2.6 350 14:24 08.04.2020
6049 Clear 16 1024 72 10000 2.6 340 13:45 08.04.2020
6050 Clear 16 1024 72 10000 2.1 340 13:23 08.04.2020
6051 Clear 16 1025 72 10000 2.6 310 13:00 08.04.2020
6052 Clear 16 1025 72 10000 2.6 310 12:41 08.04.2020
6053 Clear 17 1025 72 10000 1.5 280 12:18 08.04.2020
6054 Clear 16 1025 63 10000 2.1 260 11:55 08.04.2020
6055 Clear 16 1025 63 10000 2.1 260 11:37 08.04.2020
6056 Clear 16 1025 62 10000 2.6 260 11:19 08.04.2020
6057 Clear 16 1025 58 10000 3.6 270 10:54 08.04.2020
6058 Clear 16 1025 58 10000 3.1 260 10:36 08.04.2020
6059 Clear 15 1025 58 10000 3.1 260 10:18 08.04.2020
6060 Clear 15 1024 62 10000 3.1 250 09:42 08.04.2020
6061 Clear 14 1024 66 10000 2.6 240 09:20 08.04.2020
6062 Clear 14 1011 66 0 2.12 199 08:59 08.04.2020
6063 Clear 14 1011 66 0 2.12 199 08:59 08.04.2020
6064 Clear 14 1011 68 0 2.12 199 08:40 08.04.2020
6065 Clear 12 1011 69 0 2.12 199 08:21 08.04.2020
6066 Clear 10 1011 74 0 2.12 199 07:43 08.04.2020
6067 Clear 10 1011 74 0 2.12 199 07:43 08.04.2020
6068 Clear 10 1011 74 0 2.12 199 07:22 08.04.2020
6069 Clear 10 1011 76 0 2.12 199 06:41 08.04.2020
6070 Clear 10 1011 80 0 2.15 182 05:49 08.04.2020
6071 Clear 10 1012 89 0 1.87 153 03:22 08.04.2020
6072 Clear 11 1012 89 0 1.87 153 02:38 08.04.2020
6073 Clear 11 1012 89 0 2.2 160 02:18 08.04.2020
6074 Clear 12 1013 88 0 2.2 160 01:30 08.04.2020
6075 Clear 11 1013 88 0 2.2 160 00:52 08.04.2020
6076 Clear 11 1013 87 0 1.8 148 00:33 08.04.2020
6077 Clear 11 1012 87 0 1.8 148 23:58 07.04.2020
6078 Clear 11 1013 86 0 1.8 148 23:38 07.04.2020
6079 Clear 11 1013 85 0 1.8 148 23:20 07.04.2020
6080 Clear 12 1013 85 0 1.8 148 22:56 07.04.2020
6081 Clear 12 1012 83 0 1.8 148 22:38 07.04.2020
6082 Clear 12 1012 83 0 1.8 148 22:19 07.04.2020
6083 Clear 12 1012 81 0 1.8 148 21:54 07.04.2020
6084 Clear 12 1012 80 0 1.8 148 21:36 07.04.2020
6085 Clear 12 1012 79 0 1.64 61 21:18 07.04.2020
6086 Clear 13 1012 76 0 1.64 61 20:41 07.04.2020
6087 Clouds 13 1024 77 10000 5.7 50 20:21 07.04.2020
6088 Clouds 14 1024 77 10000 5.7 50 19:59 07.04.2020
6089 Clouds 14 1024 77 10000 5.7 50 19:38 07.04.2020
6090 Clouds 14 1024 77 10000 5.7 50 19:38 07.04.2020
6091 Clouds 15 1024 77 10000 5.7 50 19:20 07.04.2020
6092 Clouds 15 1024 77 10000 5.1 40 18:59 07.04.2020
6093 Clouds 15 1024 77 10000 5.7 40 18:41 07.04.2020
6094 Clouds 15 1024 77 10000 5.7 40 18:21 07.04.2020
6095 Clouds 15 1024 72 10000 4.6 40 17:56 07.04.2020
6096 Clouds 15 1024 72 10000 5.7 40 17:37 07.04.2020
6097 Clouds 15 1024 72 10000 5.7 40 17:19 07.04.2020
6098 Clouds 15 1024 72 10000 5.7 40 16:44 07.04.2020
6099 Clouds 15 1024 72 10000 5.7 40 16:25 07.04.2020
6100 Clouds 15 1024 72 10000 6.2 30 15:46 07.04.2020
6101 Clouds 15 1025 72 10000 5.7 30 15:26 07.04.2020
6102 Clouds 15 1025 72 10000 5.1 30 14:56 07.04.2020
6103 Clouds 15 1025 72 10000 5.1 30 14:38 07.04.2020
6104 Clouds 15 1025 72 10000 4.1 30 14:19 07.04.2020
6105 Clouds 15 1025 77 10000 4.1 30 13:42 07.04.2020
6106 Clouds 15 1025 77 10000 4.1 30 13:42 07.04.2020
6107 Clouds 15 1025 82 10000 3.6 30 13:19 07.04.2020
6108 Clouds 16 1025 82 10000 3.6 20 12:58 07.04.2020
6109 Clouds 16 1025 82 10000 3.6 20 12:39 07.04.2020
6110 Clouds 15 1025 82 10000 2.6 350 12:21 07.04.2020
6111 Clouds 15 1025 82 10000 1.5 320 11:58 07.04.2020
6112 Clouds 16 1025 82 10000 1.5 320 11:39 07.04.2020
6113 Clouds 15 1025 82 10000 2.6 260 11:19 07.04.2020
6114 Clouds 14 1025 76 10000 2.6 250 10:39 07.04.2020
6115 Clouds 15 1025 76 10000 2.1 250 10:20 07.04.2020
6116 Clouds 14 1025 76 10000 2.6 230 09:56 07.04.2020
6117 Clouds 14 1025 76 10000 2.6 230 09:38 07.04.2020
6118 Clear 13 1012 83 0 0.65 156 09:18 07.04.2020
6119 Clear 11 1012 85 0 0.65 156 08:40 07.04.2020
6120 Clear 11 1012 86 0 0.65 156 08:21 07.04.2020
6121 Clear 11 1012 86 0 0.65 156 07:55 07.04.2020
6122 Clear 11 1011 86 0 0.65 156 07:37 07.04.2020
6123 Clear 10 1011 86 0 0.65 156 07:18 07.04.2020
6124 Clear 9 1011 85 0 0.65 156 06:39 07.04.2020
6125 Clear 9 1011 84 0 0.58 168 06:18 07.04.2020
6126 Clear 10 1011 82 0 0.58 168 05:26 07.04.2020
6127 Clear 10 1011 81 0 0.58 168 04:31 07.04.2020
6128 Clouds 11 1011 84 0 1.45 171 03:23 07.04.2020
6129 Clouds 11 1011 84 0 1.45 171 02:47 07.04.2020
6130 Clouds 11 1011 85 0 1.58 172 01:43 07.04.2020
6131 Clouds 12 1011 85 0 1.58 172 01:22 07.04.2020
6132 Clouds 12 1011 87 0 1.69 148 00:26 07.04.2020
6133 Clouds 11 1011 85 0 1.69 148 23:44 06.04.2020
6134 Clouds 12 1011 85 0 1.69 148 23:23 06.04.2020
6135 Clouds 12 1011 85 0 1.69 148 22:56 06.04.2020
6136 Clouds 12 1011 84 0 1.69 148 22:37 06.04.2020
6137 Clouds 12 1011 84 0 1.69 148 22:19 06.04.2020
6138 Clouds 12 1011 83 0 1.69 148 21:56 06.04.2020
6139 Clouds 12 1010 82 0 0.84 56 21:37 06.04.2020
6140 Clouds 12 1010 81 0 0.84 56 21:18 06.04.2020
6141 Clouds 13 1010 80 0 0.84 56 20:42 06.04.2020
6142 Clouds 14 1022 77 10000 6.2 50 20:23 06.04.2020
6143 Clouds 14 1022 77 10000 6.2 50 19:58 06.04.2020
6144 Clouds 15 1022 77 10000 6.2 50 19:39 06.04.2020
6145 Clouds 15 1022 77 10000 6.2 50 19:20 06.04.2020
6146 Clouds 15 1022 77 10000 5.7 60 18:55 06.04.2020
6147 Clouds 14 1022 72 10000 5.1 60 18:36 06.04.2020
6148 Clouds 15 1022 72 10000 5.1 60 18:18 06.04.2020
6149 Clouds 16 1022 72 10000 4.6 50 17:41 06.04.2020
6150 Clouds 15 1022 72 10000 4.6 40 17:19 06.04.2020
6151 Clouds 15 1022 72 10000 4.1 40 16:50 06.04.2020
6152 Clouds 15 1022 72 10000 3.6 20 16:31 06.04.2020
6153 Clouds 16 1022 72 10000 3.6 30 15:40 06.04.2020
6154 Clouds 16 1022 72 10000 3.6 30 15:40 06.04.2020
6155 Clouds 16 1022 82 10000 2.6 360 13:45 06.04.2020
6156 Clouds 16 1022 82 10000 2.6 360 13:24 06.04.2020
6157 Clouds 16 1022 77 10000 2.6 350 12:56 06.04.2020
6158 Clouds 16 1022 77 10000 2.6 350 12:56 06.04.2020
6159 Clouds 16 1022 77 10000 2.6 350 12:56 06.04.2020
6160 Clouds 16 1022 82 10000 1.5 300 12:21 06.04.2020
6161 Clouds 16 1021 82 10000 2.6 290 11:54 06.04.2020
6162 Clouds 16 1021 82 10000 2.6 290 11:31 06.04.2020
6163 Clouds 16 1021 82 10000 2.6 290 11:31 06.04.2020
6164 Clouds 16 1021 82 10000 2.6 290 11:31 06.04.2020
6165 Clouds 16 1021 82 10000 2.6 290 11:31 06.04.2020
6166 Clouds 16 1021 82 10000 2.6 290 11:31 06.04.2020
6167 Clouds 15 1021 77 10000 1.5 310 10:50 06.04.2020
6168 Clouds 15 1021 77 10000 1.5 310 10:50 06.04.2020
6169 Clouds 15 1021 77 10000 1.5 310 10:50 06.04.2020
6170 Clouds 15 1021 82 10000 1.5 320 10:50 06.04.2020
6171 Clouds 15 1021 77 10000 1.5 310 10:50 06.04.2020
6172 Clouds 15 1021 77 10000 1.5 310 10:21 06.04.2020
6173 Clouds 15 1021 82 10000 1 0 09:47 06.04.2020
6174 Clouds 15 1021 82 10000 1 0 09:47 06.04.2020
6175 Clouds 15 1021 82 10000 1 0 09:47 06.04.2020
6176 Clouds 15 1021 82 10000 1 0 09:47 06.04.2020
6177 Clouds 15 1021 82 10000 1 0 09:47 06.04.2020
6178 Clouds 14 1021 82 10000 1 0 09:20 06.04.2020
6179 Clouds 14 1007 79 0 0.89 2 08:54 06.04.2020
6180 Clouds 13 1007 79 0 0.89 2 08:30 06.04.2020
6181 Clouds 11 1006 79 0 0.89 2 07:30 06.04.2020
6182 Clouds 11 1006 79 0 0.89 2 07:30 06.04.2020
6183 Clouds 11 1006 79 0 0.89 2 07:30 06.04.2020
6184 Clouds 11 1006 77 0 0.89 2 06:41 06.04.2020
6185 Clouds 11 1006 77 0 1.2 348 06:22 06.04.2020
6186 Clouds 11 1005 71 0 1.2 348 04:18 06.04.2020
6187 Clouds 10 1005 62 0 2.19 358 02:57 06.04.2020
6188 Clouds 11 1005 61 0 1.93 351 02:25 06.04.2020
6189 Clouds 11 1006 61 0 1.93 351 01:23 06.04.2020
6190 Clouds 12 1006 59 0 1.93 351 00:41 06.04.2020
6191 Clouds 12 1006 59 0 1.93 351 00:41 06.04.2020
6192 Clouds 12 1006 60 0 1.93 351 00:21 06.04.2020
6193 Clouds 11 1006 58 0 2.27 346 23:43 05.04.2020
6194 Clouds 11 1006 59 0 2.27 346 23:25 05.04.2020
6195 Clouds 11 1006 59 0 2.27 346 23:25 05.04.2020
6196 Clouds 11 1006 59 0 2.27 346 23:25 05.04.2020
6197 Clouds 11 1006 59 0 2.27 346 22:55 05.04.2020
6198 Clouds 11 1006 59 0 2.27 346 22:55 05.04.2020
6199 Clouds 11 1006 59 0 2.27 346 22:37 05.04.2020
6200 Clouds 10 1023 52 0 1.79 45 22:18 05.04.2020
6201 Clouds 11 1006 53 0 2.27 346 21:45 05.04.2020
6202 Clouds 11 1006 53 0 2.27 346 21:45 05.04.2020
6203 Clear 12 1005 53 0 2.38 0 21:24 05.04.2020
6204 Clouds 12 1005 53 0 2.27 346 21:24 05.04.2020
6205 Clouds 11 1005 53 0 2.76 352 21:24 05.04.2020
6206 Clear 12 1005 57 0 2.38 0 20:26 05.04.2020
6207 Clear 13 1017 63 10000 2.6 40 20:00 05.04.2020
6208 Clear 13 1017 63 10000 2.6 40 20:00 05.04.2020
6209 Clear 14 1017 63 10000 2.6 40 19:37 05.04.2020
6210 Clear 14 1017 63 10000 2.6 40 19:19 05.04.2020
6211 Clear 14 1017 67 10000 2.6 10 18:44 05.04.2020
6212 Clear 14 1017 67 10000 2.6 10 18:44 05.04.2020
6213 Clear 14 1017 67 10000 2.6 10 18:44 05.04.2020
6214 Clear 14 1017 67 10000 2.6 10 18:44 05.04.2020
6215 Clear 14 1017 67 10000 2.6 10 18:44 05.04.2020
6216 Clear 14 1017 67 10000 3.1 360 17:52 05.04.2020
6217 Clear 14 1017 67 10000 3.1 360 17:52 05.04.2020
6218 Clear 14 1017 67 10000 3.1 360 17:52 05.04.2020
6219 Clear 14 1017 67 10000 3.1 360 17:52 05.04.2020
6220 Clear 14 1017 67 10000 3.1 360 17:52 05.04.2020
6221 Clear 14 1017 72 10000 3.1 360 17:24 05.04.2020
6222 Clear 14 1017 77 10000 2.6 360 16:47 05.04.2020
6223 Clear 15 1017 77 10000 2.6 360 16:20 05.04.2020
6224 Clouds 16 1017 72 10000 2.6 330 15:51 05.04.2020
6225 Clouds 15 1017 72 10000 2.6 330 15:31 05.04.2020
6226 Clouds 16 1017 72 10000 3.1 330 14:49 05.04.2020
6227 Clouds 16 1017 72 10000 3.1 330 14:49 05.04.2020
6228 Clouds 16 1017 72 10000 3.1 330 14:24 05.04.2020
6229 Clouds 16 1018 72 10000 2.6 320 13:43 05.04.2020
6230 Clouds 16 1018 77 10000 3.6 310 12:48 05.04.2020
6231 Clouds 15 1018 82 10000 4.1 250 11:41 05.04.2020
6232 Clouds 15 1018 82 10000 4.1 250 11:20 05.04.2020
6233 Clouds 15 1018 82 10000 4.1 250 11:20 05.04.2020
6234 Clouds 15 1018 82 10000 3.6 260 10:48 05.04.2020
6235 Clouds 15 1018 82 10000 3.6 260 10:24 05.04.2020
6236 Clouds 15 1018 82 10000 3.6 260 10:24 05.04.2020
6237 Clouds 14 1018 82 10000 2.6 240 09:57 05.04.2020
6238 Clouds 14 1018 82 10000 2.6 240 09:31 05.04.2020
6239 Clouds 13 1017 82 10000 2.6 200 08:58 05.04.2020
6240 Clouds 13 1017 82 10000 2.6 200 08:58 05.04.2020
6241 Clouds 13 1017 82 10000 2.6 200 08:58 05.04.2020
6242 Clouds 13 1017 82 10000 2.6 200 08:57 05.04.2020
6243 Clouds 13 1017 82 10000 2.6 200 08:57 05.04.2020
6244 Clear 10 1003 71 0 3.78 347 07:25 05.04.2020
6245 Clear 10 1003 71 0 3.78 347 07:25 05.04.2020
6246 Clear 10 1003 71 0 3.78 347 07:25 05.04.2020
6247 Clear 10 1003 84 0 0.45 335 04:35 05.04.2020
6248 Clear 10 1003 81 0 0.89 270 03:30 05.04.2020
6249 Clear 10 1004 77 0 3.85 341 02:49 05.04.2020
6250 Clouds 11 1004 68 0 1.79 354 01:46 05.04.2020
6251 Clouds 10 1004 72 0 0.45 339 01:25 05.04.2020
6252 Clouds 10 1004 74 0 4.07 348 00:43 05.04.2020
6253 Clouds 10 1004 75 0 4.07 348 00:21 05.04.2020
6254 Clouds 10 1004 78 0 3.8 354 23:43 04.04.2020
6255 Clouds 10 1004 78 0 3.8 354 23:23 04.04.2020
6256 Clouds 10 1004 77 0 3.8 354 22:59 04.04.2020
6257 Clouds 10 1004 77 0 3.8 354 22:40 04.04.2020
6258 Clouds 10 1004 75 0 3.8 354 22:21 04.04.2020
6259 Clouds 10 1004 74 0 3.8 354 21:58 04.04.2020
6260 Clouds 11 1004 73 0 3.94 355 21:39 04.04.2020
6261 Clear 11 1003 72 0 3.67 358 21:19 04.04.2020
6262 Clear 11 1003 71 0 3.61 358 20:58 04.04.2020
6263 Clear 11 1003 70 0 3.62 359 20:39 04.04.2020
6264 Clear 11 1015 62 10000 3.6 40 20:20 04.04.2020
6265 Clear 11 1015 62 10000 3.6 40 19:57 04.04.2020
6266 Clear 12 1015 62 10000 3.6 40 19:37 04.04.2020
6267 Clear 12 1015 62 10000 3.6 40 19:18 04.04.2020
6268 Clear 12 1015 62 10000 4.6 30 18:55 04.04.2020
6269 Clear 13 1015 62 10000 4.6 30 18:37 04.04.2020
6270 Clear 13 1015 58 10000 4.6 20 18:18 04.04.2020
6271 Clear 13 1015 54 10000 4.1 10 17:41 04.04.2020
6272 Clear 13 1015 54 10000 4.1 10 17:20 04.04.2020
6273 Clear 14 1015 54 10000 4.6 20 16:56 04.04.2020
6274 Clear 14 1015 54 10000 4.6 20 16:38 04.04.2020
6275 Clear 14 1015 54 10000 5.7 20 16:19 04.04.2020
6276 Clouds 14 1015 58 10000 7.2 10 15:41 04.04.2020
6277 Clouds 14 1015 58 10000 7.2 10 15:23 04.04.2020
6278 Clouds 15 1015 58 10000 6.7 10 14:59 04.04.2020
6279 Clouds 15 1015 58 10000 6.7 360 14:40 04.04.2020
6280 Clear 15 1015 58 10000 6.7 360 14:22 04.04.2020
6281 Clear 15 1015 58 10000 6.7 360 13:55 04.04.2020
6282 Clear 15 1015 58 10000 6.2 350 13:37 04.04.2020
6283 Clear 15 1015 62 10000 5.1 350 13:19 04.04.2020
6284 Clear 14 1015 62 10000 4.6 20 12:44 04.04.2020
6285 Clear 15 1015 62 10000 4.6 20 12:23 04.04.2020
6286 Clouds 14 1015 62 10000 5.1 20 11:59 04.04.2020
6287 Clouds 14 1015 62 10000 5.1 30 11:38 04.04.2020
6288 Clouds 14 1014 62 10000 5.7 30 11:19 04.04.2020
6289 Clouds 14 1014 62 10000 5.7 30 10:56 04.04.2020
6290 Clouds 14 1014 62 10000 6.2 30 10:37 04.04.2020
6291 Clouds 14 1014 62 10000 6.2 30 10:18 04.04.2020
6292 Clouds 14 1014 62 10000 6.2 30 09:54 04.04.2020
6293 Clouds 14 1013 58 10000 6.2 40 09:36 04.04.2020
6294 Rain 13 1013 62 10000 5.7 50 09:18 04.04.2020
6295 Rain 12 1000 74 0 0.89 357 08:41 04.04.2020
6296 Rain 12 1000 81 0 0.45 344 08:20 04.04.2020
6297 Rain 11 999 87 0 3.85 12 07:44 04.04.2020
6298 Rain 11 999 87 0 3.85 12 07:26 04.04.2020
6299 Rain 11 999 87 0 0.45 348 06:51 04.04.2020
6300 Rain 11 998 85 0 4.63 15 06:20 04.04.2020
6301 Rain 11 998 87 0 0.89 352 05:42 04.04.2020
6302 Rain 11 998 89 0 1.34 351 05:24 04.04.2020
6303 Rain 11 998 86 0 4.63 15 04:31 04.04.2020
6304 Rain 11 998 86 0 0.45 356 03:51 04.04.2020
6305 Rain 11 998 87 0 0.45 339 02:52 04.04.2020
6306 Rain 11 998 87 0 0.45 359 02:33 04.04.2020
6307 Rain 11 998 86 0 1.34 350 01:55 04.04.2020
6308 Rain 11 998 86 0 3.88 33 01:25 04.04.2020
6309 Rain 11 998 87 0 3.88 33 00:50 04.04.2020
6310 Rain 11 998 88 0 1.34 359 00:30 04.04.2020
6311 Clouds 11 997 89 0 1.79 348 23:40 03.04.2020
6312 Clouds 11 997 89 0 3.17 43 23:21 03.04.2020
6313 Clouds 11 997 90 0 0.45 344 22:59 03.04.2020
6314 Clouds 11 997 91 0 3.17 43 22:39 03.04.2020
6315 Clouds 11 997 91 0 3.17 43 22:39 03.04.2020
6316 Clouds 11 997 91 0 3.17 43 22:19 03.04.2020
6317 Clouds 11 997 90 0 3.17 43 21:45 03.04.2020
6318 Rain 11 997 89 0 3.22 44 21:26 03.04.2020
6319 Rain 11 997 86 0 2.78 36 20:57 03.04.2020
6320 Rain 11 996 84 0 2.78 36 20:39 03.04.2020
6321 Clouds 11 1009 71 10000 5.7 60 20:21 03.04.2020
6322 Clouds 11 1009 71 10000 5.7 60 19:58 03.04.2020
6323 Clouds 11 1009 71 10000 5.7 60 19:39 03.04.2020
6324 Clouds 11 1009 71 10000 5.7 60 19:21 03.04.2020
6325 Clouds 11 1009 71 10000 5.7 60 18:59 03.04.2020
6326 Clouds 12 1009 71 10000 5.1 60 18:41 03.04.2020
6327 Clouds 12 1009 71 10000 5.1 60 18:41 03.04.2020
6328 Clouds 12 1009 67 10000 5.7 50 18:23 03.04.2020
6329 Clouds 12 1009 67 10000 5.7 50 17:57 03.04.2020
6330 Clouds 12 1009 67 10000 5.1 60 17:39 03.04.2020
6331 Clouds 12 1009 67 10000 6.7 50 17:18 03.04.2020
6332 Clouds 12 1009 67 10000 6.7 40 16:45 03.04.2020
6333 Clouds 12 1008 71 10000 7.2 40 16:22 03.04.2020
6334 Clouds 13 1008 71 10000 7.2 40 15:58 03.04.2020
6335 Clouds 13 1009 67 10000 6.7 50 15:40 03.04.2020
6336 Clouds 13 1008 67 10000 7.2 50 15:21 03.04.2020
6337 Clouds 13 1009 76 10000 7.2 60 14:56 03.04.2020
6338 Clouds 13 1009 76 10000 7.2 60 14:38 03.04.2020
6339 Clouds 13 1009 76 10000 7.2 60 14:20 03.04.2020
6340 Clouds 13 1009 76 10000 7.2 60 13:43 03.04.2020
6341 Clouds 13 1009 76 10000 7.2 60 13:25 03.04.2020
6342 Clouds 13 1009 82 10000 7.7 60 12:56 03.04.2020
6343 Clouds 13 1009 82 10000 7.7 60 12:37 03.04.2020
6344 Clouds 13 1009 82 10000 7.2 60 12:18 03.04.2020
6345 Clouds 12 1009 82 10000 7.2 60 11:55 03.04.2020
6346 Clouds 12 1009 82 10000 7.2 60 11:37 03.04.2020
6347 Clouds 12 1009 82 10000 7.2 60 11:18 03.04.2020
6348 Clouds 12 1009 82 10000 7.2 60 10:55 03.04.2020
6349 Clouds 11 1009 82 10000 7.2 60 10:36 03.04.2020
6350 Rain 11 1009 87 10000 6.2 60 10:18 03.04.2020
6351 Drizzle 11 1009 82 10000 6.2 110 09:40 03.04.2020
6352 Drizzle 11 1009 82 10000 6.2 110 09:40 03.04.2020
6353 Drizzle 11 1009 82 10000 6.2 110 09:22 03.04.2020
6354 Clouds 10 997 99 0 0.9 68 08:59 03.04.2020
6355 Rain 10 997 99 0 0.9 68 08:40 03.04.2020
6356 Rain 10 997 99 0 0.9 68 08:40 03.04.2020
6357 Rain 10 997 99 0 0.9 68 08:22 03.04.2020
6358 Clouds 10 996 99 0 0.9 68 07:50 03.04.2020
6359 Clouds 9 996 99 0 0.9 68 07:32 03.04.2020
6360 Clouds 9 996 99 0 0.9 68 06:50 03.04.2020
6361 Clouds 9 996 99 0 0.9 68 06:25 03.04.2020
6362 Clouds 9 996 99 0 0.99 40 05:40 03.04.2020
6363 Rain 9 997 99 0 0.99 40 03:45 03.04.2020
6364 Rain 10 997 98 0 0.84 33 03:23 03.04.2020
6365 Rain 9 998 95 0 1.05 36 02:29 03.04.2020
6366 Rain 9 998 92 0 1.05 36 01:23 03.04.2020
6367 Rain 9 998 88 0 1.05 36 00:41 03.04.2020
6368 Rain 9 998 85 0 1.94 167 00:20 03.04.2020
6369 Rain 10 999 81 0 1.94 167 23:42 02.04.2020
6370 Rain 10 999 81 0 1.94 167 23:42 02.04.2020
6371 Rain 9 999 79 0 1.94 167 23:23 02.04.2020
6372 Rain 10 999 76 0 1.94 167 22:59 02.04.2020
6373 Clouds 10 999 76 0 1.94 167 22:41 02.04.2020
6374 Clouds 10 999 76 0 1.94 167 22:20 02.04.2020
6375 Clouds 10 999 75 0 1.94 167 21:55 02.04.2020
6376 Clouds 11 999 75 0 1.94 167 21:36 02.04.2020
6377 Rain 10 999 75 0 0.98 92 21:18 02.04.2020
6378 Rain 10 998 73 0 0.98 92 20:42 02.04.2020
6379 Clouds 10 1011 66 10000 5.1 70 20:22 02.04.2020
6380 Clouds 11 1011 66 10000 5.1 70 19:55 02.04.2020
6381 Clouds 11 1011 66 10000 5.1 70 19:37 02.04.2020
6382 Clouds 11 1011 66 10000 5.1 70 19:18 02.04.2020
6383 Clouds 11 1011 66 10000 5.7 70 18:41 02.04.2020
6384 Clouds 12 1010 66 10000 7.7 60 18:21 02.04.2020
6385 Clouds 12 1010 66 10000 7.7 60 18:21 02.04.2020
6386 Clouds 12 1010 66 10000 7.7 70 17:57 02.04.2020
6387 Clouds 12 1010 66 10000 7.7 70 17:39 02.04.2020
6388 Clouds 12 1011 66 10000 5.7 60 17:20 02.04.2020
6389 Clouds 12 1011 66 10000 5.7 60 16:56 02.04.2020
6390 Rain 11 1011 71 10000 5.1 70 16:38 02.04.2020
6391 Rain 12 1011 71 10000 6.7 70 16:20 02.04.2020
6392 Rain 12 1011 71 10000 6.7 70 15:54 02.04.2020
6393 Clouds 13 1011 62 10000 7.7 60 15:36 02.04.2020
6394 Clouds 13 1011 58 10000 8.7 60 15:18 02.04.2020
6395 Clouds 13 1011 62 10000 9.3 60 14:40 02.04.2020
6396 Clouds 13 1011 62 10000 7.2 60 14:21 02.04.2020
6397 Clouds 14 1011 62 10000 7.2 60 13:58 02.04.2020
6398 Clouds 13 1012 62 10000 4.6 60 13:39 02.04.2020
6399 Clouds 12 1012 66 10000 2.6 0 13:21 02.04.2020
6400 Clouds 12 1013 66 10000 3.1 30 12:56 02.04.2020
6401 Clouds 12 1013 66 10000 3.1 30 12:38 02.04.2020
6402 Clouds 12 1013 66 10000 3.6 0 12:19 02.04.2020
6403 Clouds 12 1013 66 10000 3.6 0 12:19 02.04.2020
6404 Clouds 12 1013 66 10000 3.6 0 11:57 02.04.2020
6405 Clouds 12 1013 66 10000 1 0 11:38 02.04.2020
6406 Clouds 11 1013 66 10000 1 0 11:19 02.04.2020
6407 Clouds 11 1013 66 10000 2.1 270 10:55 02.04.2020
6408 Clouds 11 1013 66 10000 3.1 60 10:37 02.04.2020
6409 Clouds 11 1013 66 10000 3.1 60 10:37 02.04.2020
6410 Clouds 11 1013 66 10000 3.1 70 10:19 02.04.2020
6411 Clouds 10 1012 71 10000 6.2 70 09:43 02.04.2020
6412 Clouds 10 1012 71 10000 6.2 70 09:25 02.04.2020
6413 Rain 9 1000 88 0 2.42 109 08:59 02.04.2020
6414 Rain 9 1000 90 0 2.42 109 08:40 02.04.2020
6415 Rain 9 1000 91 0 2.42 109 08:22 02.04.2020
6416 Rain 9 1001 91 0 2.42 109 07:45 02.04.2020
6417 Rain 8 1000 90 0 2.42 109 07:20 02.04.2020
6418 Rain 8 1000 90 0 2.42 109 06:58 02.04.2020
6419 Rain 8 1000 86 0 1.95 83 06:21 02.04.2020
6420 Clouds 8 1000 81 0 1.95 83 05:45 02.04.2020
6421 Clouds 9 1001 73 0 1.95 83 04:33 02.04.2020
6422 Clouds 9 1001 71 0 1.24 102 01:35 02.04.2020
6423 Clouds 9 1002 70 0 1.24 102 00:48 02.04.2020
6424 Clouds 9 1002 70 0 1.24 102 00:27 02.04.2020
6425 Clouds 8 1002 70 0 1.62 96 23:55 01.04.2020
6426 Clouds 8 1002 69 0 1.62 96 23:37 01.04.2020
6427 Clouds 8 1002 69 0 1.62 96 23:18 01.04.2020
6428 Clouds 9 1002 67 0 1.62 96 22:40 01.04.2020
6429 Clouds 9 1002 67 0 1.62 96 22:22 01.04.2020
6430 Clouds 9 1002 67 0 1.62 96 21:55 01.04.2020
6431 Clouds 9 1002 67 0 2.27 101 21:37 01.04.2020
6432 Clouds 9 1002 67 0 3.26 48 21:18 01.04.2020
6433 Clouds 9 1002 67 0 3.76 51 20:54 01.04.2020
6434 Clouds 9 1002 67 0 3.76 51 20:54 01.04.2020
6435 Clouds 9 1002 68 0 3.76 51 20:36 01.04.2020
6436 Clouds 10 1014 66 10000 8.7 70 20:18 01.04.2020
6437 Clouds 10 1014 66 10000 8.7 70 19:42 01.04.2020
6438 Clouds 10 1014 66 10000 8.7 70 19:22 01.04.2020
6439 Clouds 11 1014 66 10000 8.7 70 18:56 01.04.2020
6440 Clouds 11 1014 66 10000 8.7 70 18:56 01.04.2020
6441 Clouds 11 1014 62 10000 6.7 60 18:38 01.04.2020
6442 Clouds 12 1014 58 10000 4.6 30 18:19 01.04.2020
6443 Clouds 11 1014 58 10000 4.1 30 17:55 01.04.2020
6444 Clouds 12 1014 58 10000 4.1 30 17:36 01.04.2020
6445 Clouds 12 1014 54 10000 3.6 40 17:18 01.04.2020
6446 Clouds 12 1015 50 10000 3.6 30 16:42 01.04.2020
6447 Clouds 13 1015 54 10000 3.6 360 16:24 01.04.2020
6448 Clouds 13 1015 54 10000 3.6 360 15:58 01.04.2020
6449 Clouds 13 1015 54 10000 3.6 10 15:40 01.04.2020
6450 Clouds 13 1015 54 10000 3.6 10 15:21 01.04.2020
6451 Clouds 13 1015 54 10000 3.1 340 14:57 01.04.2020
6452 Clouds 13 1015 54 10000 3.1 340 14:57 01.04.2020
6453 Clouds 13 1015 54 10000 3.6 330 14:38 01.04.2020
6454 Clouds 13 1015 62 10000 4.1 340 14:19 01.04.2020
6455 Clouds 13 1015 62 10000 4.1 340 13:58 01.04.2020
6456 Clouds 13 1015 62 10000 5.1 360 13:37 01.04.2020
6457 Clouds 13 1015 62 10000 5.7 360 13:19 01.04.2020
6458 Clouds 13 1015 58 10000 5.1 360 12:55 01.04.2020
6459 Clouds 13 1015 58 10000 5.1 360 12:36 01.04.2020
6460 Clouds 12 1016 54 10000 3.6 350 12:18 01.04.2020
6461 Clouds 12 1016 54 10000 4.6 360 11:42 01.04.2020
6462 Clouds 12 1016 54 10000 4.6 360 11:23 01.04.2020
6463 Clouds 12 1015 58 10000 5.7 10 10:58 01.04.2020
6464 Clouds 12 1015 58 10000 5.7 10 10:38 01.04.2020
6465 Clouds 12 1015 66 10000 5.1 10 10:19 01.04.2020
6466 Rain 12 1015 66 10000 5.1 10 09:57 01.04.2020
6467 Rain 12 1015 66 10000 5.1 10 09:57 01.04.2020
6468 Rain 12 1015 71 10000 6.2 360 09:38 01.04.2020
6469 Rain 12 1014 82 10000 7.2 360 09:18 01.04.2020
6470 Rain 12 1001 99 0 0.45 347 08:41 01.04.2020
6471 Rain 12 1001 99 0 3.26 316 08:18 01.04.2020
6472 Rain 12 1000 97 0 3.26 316 07:44 01.04.2020
6473 Rain 11 1000 97 0 3.26 316 07:21 01.04.2020
6474 Rain 11 1000 98 0 3.26 316 06:48 01.04.2020
6475 Rain 11 1000 98 0 3.26 316 06:26 01.04.2020
6476 Rain 11 1000 97 0 2.65 241 05:56 01.04.2020
6477 Rain 11 1000 93 0 2.65 241 04:33 01.04.2020
6478 Rain 11 1001 83 0 2.65 241 03:32 01.04.2020
6479 Clouds 11 1001 83 0 2.14 232 02:56 01.04.2020
6480 Clouds 11 1001 81 0 2.15 238 01:59 01.04.2020
6481 Clouds 11 1001 81 0 2.15 238 01:39 01.04.2020
6482 Clouds 11 1001 80 0 2.15 238 01:18 01.04.2020
6483 Clouds 11 1001 80 0 2.15 238 00:46 01.04.2020
6484 Clouds 11 1001 80 0 2.15 238 00:21 01.04.2020
6485 Clouds 11 1002 78 0 1.75 197 23:42 31.03.2020
6486 Clouds 11 1001 78 0 1.75 197 23:23 31.03.2020
6487 Clouds 11 1002 77 0 1.75 197 22:58 31.03.2020
6488 Clouds 11 1002 77 0 1.75 197 22:37 31.03.2020
6489 Clouds 11 1002 76 0 1.75 197 22:19 31.03.2020
6490 Clouds 11 1002 75 0 1.75 197 21:56 31.03.2020
6491 Clouds 11 1002 74 0 1.75 197 21:38 31.03.2020
6492 Clouds 11 1002 74 0 0.95 163 21:19 31.03.2020
6493 Clouds 12 1002 72 0 0.95 163 20:55 31.03.2020
6494 Clouds 12 1002 71 0 0.95 163 20:36 31.03.2020
6495 Clouds 12 1002 71 0 0.95 163 20:36 31.03.2020
6496 Clouds 12 1014 62 10000 2.6 60 20:18 31.03.2020
6497 Clouds 13 1014 62 10000 2.6 60 19:42 31.03.2020
6498 Clouds 13 1014 62 10000 2.6 60 19:42 31.03.2020
6499 Clouds 13 1014 62 10000 2.6 60 19:42 31.03.2020
6500 Clouds 14 1014 62 10000 2.6 60 19:23 31.03.2020
6501 Clouds 14 1015 59 10000 3.6 50 18:59 31.03.2020
6502 Clouds 14 1015 59 10000 3.6 50 18:40 31.03.2020
6503 Clouds 15 1014 59 10000 2.6 60 18:19 31.03.2020
6504 Clouds 15 1015 55 10000 2.6 50 17:55 31.03.2020
6505 Clouds 16 1015 55 10000 2.6 50 17:37 31.03.2020
6506 Clouds 16 1015 55 10000 2.6 40 17:19 31.03.2020
6507 Clouds 16 1015 55 10000 3.1 50 16:41 31.03.2020
6508 Clouds 16 1015 59 10000 3.6 40 16:20 31.03.2020
6509 Clouds 16 1015 59 10000 3.6 40 15:58 31.03.2020
6510 Clouds 16 1015 58 10000 3.6 40 15:40 31.03.2020
6511 Clouds 17 1015 59 10000 3.6 30 15:22 31.03.2020
6512 Clouds 16 1015 59 10000 3.6 30 14:58 31.03.2020
6513 Clouds 16 1015 67 10000 3.6 30 14:39 31.03.2020
6514 Clouds 16 1015 67 10000 3.6 30 14:21 31.03.2020
6515 Clouds 16 1016 62 10000 2.1 10 13:43 31.03.2020
6516 Clouds 16 1016 62 10000 2.1 360 13:20 31.03.2020
6517 Clouds 16 1016 62 10000 2.1 360 12:59 31.03.2020
6518 Clouds 16 1016 62 10000 2.1 360 12:40 31.03.2020
6519 Clouds 15 1016 58 10000 1.5 330 12:19 31.03.2020
6520 Clouds 15 1016 58 10000 1.5 300 11:41 31.03.2020
6521 Clouds 15 1016 67 10000 1.5 260 11:20 31.03.2020
6522 Clouds 15 1016 67 10000 1.5 260 10:59 31.03.2020
6523 Clouds 15 1016 71 10000 2.6 260 10:40 31.03.2020
6524 Clouds 15 1015 71 10000 1.5 260 10:22 31.03.2020
6525 Clouds 14 1015 71 10000 1.5 260 09:59 31.03.2020
6526 Clouds 14 1015 71 10000 2.1 230 09:40 31.03.2020
6527 Clear 13 1015 76 10000 1.5 220 09:22 31.03.2020
6528 Clear 13 1015 76 10000 1.5 220 08:57 31.03.2020
6529 Clear 12 1002 89 0 1.94 190 08:38 31.03.2020
6530 Clear 10 1002 91 0 1.94 190 08:19 31.03.2020
6531 Clear 10 1002 91 0 1.94 190 08:19 31.03.2020
6532 Clear 9 1002 91 0 1.94 190 07:56 31.03.2020
6533 Clear 9 1002 91 0 1.94 190 07:38 31.03.2020
6534 Clear 9 1002 89 0 1.94 190 07:19 31.03.2020
6535 Clear 9 1002 91 0 1.94 190 06:46 31.03.2020
6536 Clear 8 1002 92 0 1.09 215 06:20 31.03.2020
6537 Clear 8 1002 92 0 1.09 215 05:39 31.03.2020
6538 Clear 8 1021 82 0 1.09 215 03:34 31.03.2020
6539 Clouds 8 1018 79 0 1.79 270 02:18 31.03.2020
6540 Clouds 7 1022 82 0 1.44 230 01:45 31.03.2020
6541 Clouds 8 1022 83 0 1.44 230 00:49 31.03.2020
6542 Clouds 8 1022 83 0 1.44 230 00:25 31.03.2020
6543 Clouds 8 1022 83 0 1 263 23:57 30.03.2020
6544 Clouds 8 1022 83 0 1 263 23:37 30.03.2020
6545 Clouds 8 1022 83 0 1 263 23:18 30.03.2020
6546 Clouds 8 1001 88 0 1 263 22:55 30.03.2020
6547 Clouds 9 1001 88 0 1 263 22:36 30.03.2020
6548 Clouds 9 1001 88 0 1 263 22:18 30.03.2020
6549 Clouds 9 1001 87 0 1 263 21:54 30.03.2020
6550 Clouds 9 1001 86 0 1 263 21:36 30.03.2020
6551 Clouds 9 1001 86 0 1 263 21:36 30.03.2020
6552 Rain 9 1001 86 0 0.98 327 21:18 30.03.2020
6553 Rain 10 1000 84 0 0.98 327 20:40 30.03.2020
6554 Clouds 10 1012 76 10000 3.1 40 20:22 30.03.2020
6555 Clouds 10 1012 76 10000 3.1 40 19:59 30.03.2020
6556 Clouds 11 1012 76 10000 3.1 40 19:40 30.03.2020
6557 Clouds 11 1012 76 10000 3.1 40 19:21 30.03.2020
6558 Clouds 12 1012 76 10000 3.1 40 18:56 30.03.2020
6559 Clouds 12 1012 71 10000 3.6 40 18:38 30.03.2020
6560 Clouds 12 1012 71 10000 3.6 40 18:19 30.03.2020
6561 Clouds 12 1012 71 10000 3.6 40 17:56 30.03.2020
6562 Clouds 12 1012 71 10000 3.6 40 17:56 30.03.2020
6563 Clouds 12 1012 71 10000 4.1 50 17:37 30.03.2020
6564 Clouds 12 1012 71 10000 3.6 40 17:18 30.03.2020
6565 Clouds 12 1012 71 10000 3.6 40 16:54 30.03.2020
6566 Clouds 12 1012 71 10000 3.6 40 16:36 30.03.2020
6567 Clouds 13 1012 71 10000 3.6 20 16:18 30.03.2020
6568 Clouds 13 1012 71 10000 2.1 30 15:41 30.03.2020
6569 Clouds 13 1013 71 10000 2.1 50 15:22 30.03.2020
6570 Clouds 12 1013 71 10000 2.1 50 14:59 30.03.2020
6571 Clouds 12 1013 71 10000 2.1 30 14:39 30.03.2020
6572 Clouds 12 1013 76 10000 1.5 20 14:19 30.03.2020
6573 Clouds 11 1013 76 10000 1.5 20 13:58 30.03.2020
6574 Clouds 12 1013 71 10000 1 0 13:40 30.03.2020
6575 Clouds 11 1013 76 10000 1.5 10 13:20 30.03.2020
6576 Clouds 11 1013 71 10000 1.5 310 12:54 30.03.2020
6577 Clouds 12 1013 71 10000 1.5 310 12:36 30.03.2020
6578 Clouds 12 1013 71 10000 1 0 12:18 30.03.2020
6579 Clouds 12 1013 71 10000 1.5 350 11:42 30.03.2020
6580 Clouds 12 1013 71 10000 1.5 350 11:23 30.03.2020
6581 Clouds 11 1013 71 10000 1.5 20 10:57 30.03.2020
6582 Clouds 11 1012 81 10000 1 0 10:38 30.03.2020
6583 Clouds 11 1012 81 10000 0.5 0 10:20 30.03.2020
6584 Clouds 10 1012 81 10000 0.5 0 09:54 30.03.2020
6585 Clouds 10 1012 81 10000 0.5 0 09:36 30.03.2020
6586 Rain 9 999 99 0 0.7 0 09:18 30.03.2020
6587 Rain 9 999 99 0 0.7 0 08:39 30.03.2020
6588 Rain 9 999 99 0 0.7 0 08:20 30.03.2020
6589 Rain 9 999 99 0 0.7 0 07:45 30.03.2020
6590 Rain 9 998 99 0 0.7 0 07:23 30.03.2020
6591 Rain 9 998 99 0 0.7 0 06:47 30.03.2020
6592 Rain 9 998 99 0 0.7 0 06:27 30.03.2020
6593 Rain 9 998 99 0 0.53 285 05:46 30.03.2020
6594 Rain 9 998 99 0 0.53 285 04:40 30.03.2020
6595 Rain 9 998 99 0 0.53 285 04:20 30.03.2020
6596 Rain 10 999 99 0 0.66 209 02:52 30.03.2020
6597 Rain 10 999 99 0 0.78 264 01:59 30.03.2020
6598 Rain 10 999 99 0 0.78 264 01:24 30.03.2020
6599 Rain 10 999 99 0 0.78 264 00:30 30.03.2020
6600 Rain 10 999 98 0 0.64 212 23:59 29.03.2020
6601 Rain 11 999 97 0 0.64 212 23:40 29.03.2020
6602 Rain 11 999 95 0 0.64 212 23:21 29.03.2020
6603 Rain 10 999 94 0 0.64 212 22:55 29.03.2020
6604 Rain 11 999 94 0 0.64 212 22:37 29.03.2020
6605 Rain 11 999 93 0 0.64 212 22:18 29.03.2020
6606 Rain 11 999 88 0 0.64 212 21:40 29.03.2020
6607 Rain 11 999 85 0 0.89 215 21:21 29.03.2020
6608 Clouds 11 999 78 0 1.52 39 20:56 29.03.2020
6609 Clouds 12 999 75 0 1.52 39 20:38 29.03.2020
6610 Clouds 12 1012 71 10000 5.1 50 20:19 29.03.2020
6611 Clouds 12 1012 71 10000 5.1 50 20:19 29.03.2020
6612 Clouds 12 1012 71 10000 5.1 50 19:59 29.03.2020
6613 Clouds 12 1012 71 10000 5.1 50 19:41 29.03.2020
6614 Clouds 12 1012 71 10000 5.1 50 19:23 29.03.2020
6615 Clouds 13 1012 71 10000 5.7 50 18:57 29.03.2020
6616 Clouds 13 1012 71 10000 5.7 50 18:39 29.03.2020
6617 Clouds 13 1012 67 10000 5.1 50 18:20 29.03.2020
6618 Clouds 14 1012 71 10000 5.7 50 17:56 29.03.2020
6619 Clouds 14 1012 71 10000 5.7 50 17:38 29.03.2020
6620 Clouds 13 1012 62 10000 5.7 40 17:19 29.03.2020
6621 Clouds 14 1012 62 10000 5.7 40 16:57 29.03.2020
6622 Clouds 14 1012 67 10000 6.7 40 16:38 29.03.2020
6623 Clouds 14 1012 62 10000 6.7 40 16:19 29.03.2020
6624 Clouds 14 1012 67 10000 5.7 40 15:42 29.03.2020
6625 Clouds 14 1012 67 10000 5.7 40 15:42 29.03.2020
6626 Clouds 14 1012 67 10000 5.7 40 15:42 29.03.2020
6627 Clouds 14 1012 67 10000 5.7 40 15:24 29.03.2020
6628 Clouds 15 1012 67 10000 5.1 40 14:59 29.03.2020
6629 Clouds 14 1013 67 10000 4.6 40 14:40 29.03.2020
6630 Clouds 14 1013 67 10000 4.6 40 14:40 29.03.2020
6631 Clouds 14 1013 62 10000 4.6 40 14:20 29.03.2020
6632 Clouds 14 1013 62 10000 4.6 40 13:58 29.03.2020
6633 Clouds 14 1013 62 10000 4.6 40 13:40 29.03.2020
6634 Clouds 14 1013 67 10000 4.6 40 13:20 29.03.2020
6635 Clouds 15 1013 67 10000 4.6 30 12:57 29.03.2020
6636 Clouds 15 1013 67 10000 4.6 30 12:38 29.03.2020
6637 Clouds 14 1014 76 10000 3.1 360 12:19 29.03.2020
6638 Clouds 14 1014 76 10000 3.1 360 12:19 29.03.2020
6639 Clouds 14 1014 71 10000 2.1 360 11:55 29.03.2020
6640 Clouds 14 1014 71 10000 2.1 360 11:37 29.03.2020
6641 Clouds 13 1014 76 10000 1 320 11:19 29.03.2020
6642 Clouds 13 1014 76 10000 1 320 11:19 29.03.2020
6643 Clouds 13 1014 76 10000 1.5 260 10:38 29.03.2020
6644 Clouds 13 1014 82 10000 1 0 10:19 29.03.2020
6645 Clouds 12 1014 81 10000 2.1 220 09:42 29.03.2020
6646 Clear 12 1001 91 0 0.4 307 09:23 29.03.2020
6647 Clear 11 1001 93 0 0.4 307 08:57 29.03.2020
6648 Clear 10 1001 95 0 0.4 307 08:39 29.03.2020
6649 Clear 10 1001 97 0 0.4 307 08:20 29.03.2020
6650 Clear 9 1001 96 0 0.4 307 07:44 29.03.2020
6651 Clear 9 1001 95 0 0.4 307 07:22 29.03.2020
6652 Clear 9 1001 97 0 0.89 289 05:59 29.03.2020
6653 Clear 8 1021 85 0 0.89 289 04:56 29.03.2020
6654 Clear 8 1022 85 0 0.89 289 03:37 29.03.2020
6655 Clouds 9 1002 94 0 1.08 250 01:57 29.03.2020
6656 Clouds 9 1002 94 0 1.08 250 01:37 29.03.2020
6657 Clouds 9 1002 95 0 0.97 242 01:19 29.03.2020
6658 Clouds 9 1002 94 0 0.97 242 00:39 29.03.2020
6659 Clouds 9 1002 93 0 0.97 242 00:18 29.03.2020
6660 Clouds 9 1002 91 0 0.97 242 23:40 28.03.2020
6661 Clouds 10 1002 90 0 0.81 223 23:22 28.03.2020
6662 Clouds 10 1002 89 0 0.81 223 22:43 28.03.2020
6663 Clouds 9 1002 89 0 0.81 223 22:22 28.03.2020
6664 Clouds 9 1002 87 0 0.81 223 21:57 28.03.2020
6665 Clouds 9 1002 86 0 0.81 223 21:39 28.03.2020
6666 Clouds 10 1002 85 0 0.81 223 21:19 28.03.2020
6667 Clouds 10 1002 85 0 0.81 223 20:56 28.03.2020
6668 Clouds 10 1002 84 0 0.81 223 20:37 28.03.2020
6669 Clouds 11 1014 71 10000 2.1 20 20:19 28.03.2020
6670 Clouds 11 1014 71 10000 2.1 20 19:55 28.03.2020
6671 Clouds 11 1014 71 10000 2.1 20 19:36 28.03.2020
6672 Clouds 11 1014 71 10000 2.1 20 19:18 28.03.2020
6673 Clouds 12 1014 71 10000 2.6 10 18:39 28.03.2020
6674 Clouds 12 1013 71 10000 2.6 330 18:20 28.03.2020
6675 Clouds 13 1013 72 10000 3.6 310 17:42 28.03.2020
6676 Clouds 13 1013 76 10000 4.6 270 17:22 28.03.2020
6677 Clouds 13 1013 76 10000 4.6 270 16:59 28.03.2020
6678 Clouds 14 1013 76 10000 5.1 280 16:39 28.03.2020
6679 Clouds 14 1013 76 10000 6.7 290 16:18 28.03.2020
6680 Clouds 14 1013 76 10000 7.2 280 15:40 28.03.2020
6681 Clouds 14 1013 76 10000 8.2 270 15:21 28.03.2020
6682 Clouds 14 1013 76 10000 8.2 270 14:59 28.03.2020
6683 Clouds 13 1013 76 10000 7.7 270 14:40 28.03.2020
6684 Clouds 14 1013 76 10000 7.7 270 14:21 28.03.2020
6685 Clouds 14 1013 76 10000 8.2 270 13:43 28.03.2020
6686 Clouds 14 1013 76 10000 8.2 270 13:23 28.03.2020
6687 Rain 14 1013 71 10000 7.7 270 12:41 28.03.2020
6688 Rain 13 1013 82 10000 4.6 220 12:23 28.03.2020
6689 Rain 13 1013 82 10000 4.6 220 11:59 28.03.2020
6690 Rain 13 1013 71 10000 4.1 270 11:41 28.03.2020
6691 Rain 13 1013 82 9000 3.6 300 11:20 28.03.2020
6692 Rain 13 1013 76 10000 5.1 210 10:40 28.03.2020
6693 Clouds 13 1013 71 10000 5.7 210 10:22 28.03.2020
6694 Clouds 13 1013 76 10000 3.1 190 09:43 28.03.2020
6695 Rain 12 1000 85 0 3.54 241 09:24 28.03.2020
6696 Rain 12 1000 90 0 3.54 241 08:59 28.03.2020
6697 Rain 11 1000 92 0 3.54 241 08:41 28.03.2020
6698 Rain 11 1000 92 0 0.45 2 08:22 28.03.2020
6699 Rain 11 999 93 0 2.81 195 07:46 28.03.2020
6700 Rain 11 999 93 0 0.89 355 07:28 28.03.2020
6701 Rain 10 999 95 0 2.81 195 06:37 28.03.2020
6702 Rain 9 999 97 0 2.81 195 06:18 28.03.2020
6703 Rain 9 998 95 0 2.81 195 05:23 28.03.2020
6704 Rain 9 998 95 0 3.04 172 04:42 28.03.2020
6705 Rain 9 999 95 0 3.04 172 04:20 28.03.2020
6706 Rain 9 999 94 0 3.04 172 02:33 28.03.2020
6707 Clouds 8 999 95 0 2.88 186 01:45 28.03.2020
6708 Clouds 8 999 95 0 2.74 181 01:20 28.03.2020
6709 Clouds 8 999 94 0 2.74 181 00:47 28.03.2020
6710 Clouds 8 999 93 0 2.74 181 00:20 28.03.2020
6711 Clouds 8 999 92 0 2.74 181 23:43 27.03.2020
6712 Clouds 8 999 91 0 2.74 181 23:23 27.03.2020
6713 Clouds 9 999 89 0 2.73 187 22:56 27.03.2020
6714 Clouds 9 999 88 0 2.73 187 22:38 27.03.2020
6715 Clouds 9 1012 66 10000 3.1 200 22:20 27.03.2020
6716 Clouds 9 1012 66 10000 3.1 200 21:55 27.03.2020
6717 Clouds 9 1012 66 10000 3.1 200 21:37 27.03.2020
6718 Clouds 9 1012 66 10000 3.1 200 21:19 27.03.2020
6719 Clouds 9 1011 66 10000 4.1 210 20:42 27.03.2020
6720 Clouds 9 1011 71 10000 4.6 210 20:21 27.03.2020
6721 Clouds 9 1011 71 10000 4.6 210 19:59 27.03.2020
6722 Clouds 9 1011 76 10000 3.6 210 19:41 27.03.2020
6723 Rain 9 1010 76 10000 4.1 200 19:22 27.03.2020
6724 Rain 9 1010 76 10000 4.1 200 18:56 27.03.2020
6725 Rain 10 1010 76 10000 3.6 220 18:38 27.03.2020
6726 Rain 11 1010 71 10000 4.6 230 18:19 27.03.2020
6727 Rain 10 1010 71 10000 4.6 230 18:19 27.03.2020
6728 Rain 11 1009 71 10000 3.6